<?xml version="1.0" encoding="UTF-8" standalone="no" ?>
<gpx xmlns="http://www.topografix.com/GPX/1/1" xmlns:xsi="http://www.w3.org/2001/XMLSchema-instance" xsi:schemaLocation="http://www.topografix.com/GPX/1/1 http://www.topografix.com/GPX/1/1/gpx.xsd" version="1.1" creator="VisuGPX - https://www.visugpx.com">
  <metadata>
    <name>trace tour des Arcs</name>
    <desc><![CDATA[Tours des arcs
1800/1600/Pré Saint Esprit/Villaroger/Gd Col/ Col de la chal / Col d'entreporte / Retour]]></desc>
  </metadata>
  <trk>
    <name><![CDATA[trace tour des Arcs_1]]></name>
    <trkseg>
      <trkpt lat="45.57652" lon="6.78152">
        <ele>1716.8</ele>
        <time>2022-08-11T09:11:39.000Z</time>
      </trkpt>
      <trkpt lat="45.57653" lon="6.7816">
        <ele>1716.9</ele>
      </trkpt>
      <trkpt lat="45.57654" lon="6.78167">
        <ele>1716.9</ele>
        <time>2022-08-11T09:11:34.000Z</time>
      </trkpt>
      <trkpt lat="45.57654" lon="6.7817">
        <ele>1717.1</ele>
        <time>2022-08-11T09:11:33.000Z</time>
      </trkpt>
      <trkpt lat="45.57656" lon="6.78177">
        <ele>1717.3</ele>
      </trkpt>
      <trkpt lat="45.57657" lon="6.78183">
        <ele>1717.4</ele>
      </trkpt>
      <trkpt lat="45.57658" lon="6.78189">
        <ele>1717.4</ele>
      </trkpt>
      <trkpt lat="45.5766" lon="6.78195">
        <ele>1717.4</ele>
        <time>2022-08-11T09:11:26.000Z</time>
      </trkpt>
      <trkpt lat="45.57664" lon="6.78207">
        <ele>1718.1</ele>
      </trkpt>
      <trkpt lat="45.57668" lon="6.78218">
        <ele>1719</ele>
        <time>2022-08-11T09:11:20.000Z</time>
      </trkpt>
      <trkpt lat="45.57669" lon="6.78222">
        <ele>1719.4</ele>
        <time>2022-08-11T09:11:19.000Z</time>
      </trkpt>
      <trkpt lat="45.57672" lon="6.78228">
        <ele>1719.5</ele>
      </trkpt>
      <trkpt lat="45.57675" lon="6.78234">
        <ele>1719.5</ele>
      </trkpt>
      <trkpt lat="45.57678" lon="6.78241">
        <ele>1719.4</ele>
      </trkpt>
      <trkpt lat="45.57681" lon="6.78247">
        <ele>1719.2</ele>
        <time>2022-08-11T09:11:12.000Z</time>
      </trkpt>
      <trkpt lat="45.57683" lon="6.78252">
        <ele>1719.1</ele>
        <time>2022-08-11T09:11:10.000Z</time>
      </trkpt>
      <trkpt lat="45.57687" lon="6.7826">
        <ele>1718.9</ele>
      </trkpt>
      <trkpt lat="45.57691" lon="6.78267">
        <ele>1718.7</ele>
        <time>2022-08-11T09:11:05.000Z</time>
      </trkpt>
      <trkpt lat="45.57696" lon="6.78275">
        <ele>1718.4</ele>
      </trkpt>
      <trkpt lat="45.57701" lon="6.78283">
        <ele>1718.9</ele>
        <time>2022-08-11T09:10:59.000Z</time>
      </trkpt>
      <trkpt lat="45.57704" lon="6.78285">
        <ele>1718.8</ele>
        <time>2022-08-11T09:10:58.000Z</time>
      </trkpt>
      <trkpt lat="45.57708" lon="6.78288">
        <ele>1718.4</ele>
      </trkpt>
      <trkpt lat="45.57712" lon="6.78292">
        <ele>1717.9</ele>
      </trkpt>
      <trkpt lat="45.57715" lon="6.78295">
        <ele>1717.2</ele>
      </trkpt>
      <trkpt lat="45.57719" lon="6.78298">
        <ele>1716.3</ele>
        <time>2022-08-11T09:10:51.000Z</time>
      </trkpt>
      <trkpt lat="45.57723" lon="6.78299">
        <ele>1715.5</ele>
        <time>2022-08-11T09:10:50.000Z</time>
      </trkpt>
      <trkpt lat="45.57729" lon="6.78304">
        <ele>1715.2</ele>
        <time>2022-08-11T09:10:47.000Z</time>
      </trkpt>
      <trkpt lat="45.57734" lon="6.78312">
        <ele>1715.4</ele>
        <time>2022-08-11T09:10:44.000Z</time>
      </trkpt>
      <trkpt lat="45.57735" lon="6.78314">
        <ele>1715.4</ele>
        <time>2022-08-11T09:10:43.000Z</time>
      </trkpt>
      <trkpt lat="45.57738" lon="6.78324">
        <ele>1715.9</ele>
      </trkpt>
      <trkpt lat="45.5774" lon="6.78334">
        <ele>1716.3</ele>
        <time>2022-08-11T09:10:38.000Z</time>
      </trkpt>
      <trkpt lat="45.5774" lon="6.78342">
        <ele>1716.9</ele>
      </trkpt>
      <trkpt lat="45.5774" lon="6.7835">
        <ele>1717.4</ele>
        <time>2022-08-11T09:10:34.000Z</time>
      </trkpt>
      <trkpt lat="45.5774" lon="6.78354">
        <ele>1717.8</ele>
        <time>2022-08-11T09:10:33.000Z</time>
      </trkpt>
      <trkpt lat="45.5774" lon="6.7836">
        <ele>1718.1</ele>
        <time>2022-08-11T09:10:32.000Z</time>
      </trkpt>
      <trkpt lat="45.57741" lon="6.78367">
        <ele>1718.3</ele>
      </trkpt>
      <trkpt lat="45.57743" lon="6.78374">
        <ele>1718.5</ele>
        <time>2022-08-11T09:10:28.000Z</time>
      </trkpt>
      <trkpt lat="45.57744" lon="6.78381">
        <ele>1718.8</ele>
        <time>2022-08-11T09:10:26.000Z</time>
      </trkpt>
      <trkpt lat="45.57744" lon="6.78384">
        <ele>1719</ele>
        <time>2022-08-11T09:10:25.000Z</time>
      </trkpt>
      <trkpt lat="45.57744" lon="6.7839">
        <ele>1719.2</ele>
        <time>2022-08-11T09:10:23.000Z</time>
      </trkpt>
      <trkpt lat="45.57746" lon="6.78391">
        <ele>1718.8</ele>
        <time>2022-08-11T09:10:21.000Z</time>
      </trkpt>
      <trkpt lat="45.57745" lon="6.78388">
        <ele>1718.9</ele>
        <time>2022-08-11T09:10:16.000Z</time>
      </trkpt>
      <trkpt lat="45.57744" lon="6.78385">
        <ele>1719</ele>
        <time>2022-08-11T09:10:13.000Z</time>
      </trkpt>
      <trkpt lat="45.57744" lon="6.78391">
        <ele>1719.3</ele>
      </trkpt>
      <trkpt lat="45.57744" lon="6.78398">
        <ele>1719.4</ele>
        <time>2022-08-11T09:10:08.000Z</time>
      </trkpt>
      <trkpt lat="45.57746" lon="6.78404">
        <ele>1719.1</ele>
      </trkpt>
      <trkpt lat="45.57747" lon="6.7841">
        <ele>1718.9</ele>
        <time>2022-08-11T09:10:05.000Z</time>
      </trkpt>
      <trkpt lat="45.5775" lon="6.7842">
        <ele>1717.9</ele>
        <time>2022-08-11T09:10:01.000Z</time>
      </trkpt>
      <trkpt lat="45.57755" lon="6.78425">
        <ele>1716</ele>
        <time>2022-08-11T09:09:57.000Z</time>
      </trkpt>
      <trkpt lat="45.57757" lon="6.78435">
        <ele>1715.3</ele>
        <time>2022-08-11T09:09:53.000Z</time>
      </trkpt>
      <trkpt lat="45.57758" lon="6.78437">
        <ele>1715.1</ele>
        <time>2022-08-11T09:09:52.000Z</time>
      </trkpt>
      <trkpt lat="45.57758" lon="6.78448">
        <ele>1715.1</ele>
      </trkpt>
      <trkpt lat="45.57759" lon="6.78459">
        <ele>1714.5</ele>
        <time>2022-08-11T09:09:46.000Z</time>
      </trkpt>
      <trkpt lat="45.57759" lon="6.78468">
        <ele>1713.8</ele>
      </trkpt>
      <trkpt lat="45.5776" lon="6.78478">
        <ele>1713.4</ele>
        <time>2022-08-11T09:09:41.000Z</time>
      </trkpt>
      <trkpt lat="45.57761" lon="6.78486">
        <ele>1713.3</ele>
        <time>2022-08-11T09:09:39.000Z</time>
      </trkpt>
      <trkpt lat="45.57762" lon="6.7849">
        <ele>1713.2</ele>
        <time>2022-08-11T09:09:38.000Z</time>
      </trkpt>
      <trkpt lat="45.57765" lon="6.78496">
        <ele>1712.5</ele>
      </trkpt>
      <trkpt lat="45.57767" lon="6.78502">
        <ele>1712</ele>
        <time>2022-08-11T09:09:34.000Z</time>
      </trkpt>
      <trkpt lat="45.57768" lon="6.78509">
        <ele>1712.3</ele>
        <time>2022-08-11T09:09:32.000Z</time>
      </trkpt>
      <trkpt lat="45.57769" lon="6.78516">
        <ele>1712.3</ele>
        <time>2022-08-11T09:09:30.000Z</time>
      </trkpt>
      <trkpt lat="45.57769" lon="6.78525">
        <ele>1713</ele>
        <time>2022-08-11T09:09:26.000Z</time>
      </trkpt>
      <trkpt lat="45.57771" lon="6.78533">
        <ele>1713.6</ele>
        <time>2022-08-11T09:09:22.000Z</time>
      </trkpt>
      <trkpt lat="45.57775" lon="6.78538">
        <ele>1714.1</ele>
        <time>2022-08-11T09:09:18.000Z</time>
      </trkpt>
      <trkpt lat="45.57778" lon="6.78543">
        <ele>1714.6</ele>
        <time>2022-08-11T09:09:15.000Z</time>
      </trkpt>
      <trkpt lat="45.57781" lon="6.78545">
        <ele>1713.5</ele>
        <time>2022-08-11T09:09:12.000Z</time>
      </trkpt>
      <trkpt lat="45.57784" lon="6.78549">
        <ele>1712.9</ele>
        <time>2022-08-11T09:09:09.000Z</time>
      </trkpt>
      <trkpt lat="45.57789" lon="6.78553">
        <ele>1711.3</ele>
        <time>2022-08-11T09:09:05.000Z</time>
      </trkpt>
      <trkpt lat="45.5779" lon="6.78555">
        <ele>1711.5</ele>
        <time>2022-08-11T09:09:04.000Z</time>
      </trkpt>
      <trkpt lat="45.57793" lon="6.7856">
        <ele>1709.8</ele>
        <time>2022-08-11T09:09:01.000Z</time>
      </trkpt>
      <trkpt lat="45.57796" lon="6.7857">
        <ele>1707.7</ele>
        <time>2022-08-11T09:08:57.000Z</time>
      </trkpt>
      <trkpt lat="45.57796" lon="6.78577">
        <ele>1707.2</ele>
      </trkpt>
      <trkpt lat="45.57796" lon="6.78584">
        <ele>1706.6</ele>
        <time>2022-08-11T09:08:52.000Z</time>
      </trkpt>
      <trkpt lat="45.57796" lon="6.78591">
        <ele>1705.6</ele>
      </trkpt>
      <trkpt lat="45.57796" lon="6.78599">
        <ele>1704.7</ele>
        <time>2022-08-11T09:08:47.000Z</time>
      </trkpt>
      <trkpt lat="45.57796" lon="6.78602">
        <ele>1704.3</ele>
        <time>2022-08-11T09:08:46.000Z</time>
      </trkpt>
      <trkpt lat="45.57797" lon="6.78611">
        <ele>1702.8</ele>
      </trkpt>
      <trkpt lat="45.57798" lon="6.7862">
        <ele>1701.4</ele>
        <time>2022-08-11T09:08:41.000Z</time>
      </trkpt>
      <trkpt lat="45.57797" lon="6.78628">
        <ele>1701.2</ele>
        <time>2022-08-11T09:08:39.000Z</time>
      </trkpt>
      <trkpt lat="45.57794" lon="6.78636">
        <ele>1701.5</ele>
        <time>2022-08-11T09:08:37.000Z</time>
      </trkpt>
      <trkpt lat="45.57794" lon="6.78641">
        <ele>1701</ele>
        <time>2022-08-11T09:08:36.000Z</time>
      </trkpt>
      <trkpt lat="45.57793" lon="6.78648">
        <ele>1700.3</ele>
      </trkpt>
      <trkpt lat="45.57792" lon="6.78656">
        <ele>1699.5</ele>
        <time>2022-08-11T09:08:32.000Z</time>
      </trkpt>
      <trkpt lat="45.57791" lon="6.78663">
        <ele>1698.6</ele>
        <time>2022-08-11T09:08:30.000Z</time>
      </trkpt>
      <trkpt lat="45.5779" lon="6.78673">
        <ele>1698.8</ele>
      </trkpt>
      <trkpt lat="45.57789" lon="6.78683">
        <ele>1699.6</ele>
        <time>2022-08-11T09:08:25.000Z</time>
      </trkpt>
      <trkpt lat="45.57789" lon="6.78687">
        <ele>1699.8</ele>
        <time>2022-08-11T09:08:24.000Z</time>
      </trkpt>
      <trkpt lat="45.57788" lon="6.78696">
        <ele>1700.7</ele>
        <time>2022-08-11T09:08:22.000Z</time>
      </trkpt>
      <trkpt lat="45.57788" lon="6.78701">
        <ele>1702.4</ele>
        <time>2022-08-11T09:08:21.000Z</time>
      </trkpt>
      <trkpt lat="45.57794" lon="6.78704">
        <ele>1702.7</ele>
      </trkpt>
      <trkpt lat="45.578" lon="6.78708">
        <ele>1703.2</ele>
        <time>2022-08-11T09:08:16.000Z</time>
      </trkpt>
      <trkpt lat="45.57802" lon="6.78708">
        <ele>1702.8</ele>
        <time>2022-08-11T09:08:15.000Z</time>
      </trkpt>
      <trkpt lat="45.57807" lon="6.78709">
        <ele>1702.4</ele>
      </trkpt>
      <trkpt lat="45.57812" lon="6.78711">
        <ele>1701.5</ele>
        <time>2022-08-11T09:08:09.000Z</time>
      </trkpt>
      <trkpt lat="45.57814" lon="6.78711">
        <ele>1701.1</ele>
        <time>2022-08-11T09:08:08.000Z</time>
      </trkpt>
      <trkpt lat="45.57818" lon="6.78714">
        <ele>1700.7</ele>
      </trkpt>
      <trkpt lat="45.57823" lon="6.78717">
        <ele>1700.1</ele>
        <time>2022-08-11T09:08:04.000Z</time>
      </trkpt>
      <trkpt lat="45.57827" lon="6.78718">
        <ele>1699.2</ele>
        <time>2022-08-11T09:08:02.000Z</time>
      </trkpt>
      <trkpt lat="45.57833" lon="6.78722">
        <ele>1698.1</ele>
        <time>2022-08-11T09:07:59.000Z</time>
      </trkpt>
      <trkpt lat="45.57838" lon="6.78724">
        <ele>1696.8</ele>
      </trkpt>
      <trkpt lat="45.57844" lon="6.78725">
        <ele>1695.5</ele>
        <time>2022-08-11T09:07:54.000Z</time>
      </trkpt>
      <trkpt lat="45.57849" lon="6.7873">
        <ele>1695.3</ele>
      </trkpt>
      <trkpt lat="45.57855" lon="6.78734">
        <ele>1695.3</ele>
        <time>2022-08-11T09:07:48.000Z</time>
      </trkpt>
      <trkpt lat="45.57856" lon="6.78735">
        <ele>1695.3</ele>
        <time>2022-08-11T09:07:47.000Z</time>
      </trkpt>
      <trkpt lat="45.57862" lon="6.78737">
        <ele>1694.7</ele>
      </trkpt>
      <trkpt lat="45.57868" lon="6.78739">
        <ele>1694.3</ele>
        <time>2022-08-11T09:07:42.000Z</time>
      </trkpt>
      <trkpt lat="45.5787" lon="6.7874">
        <ele>1694.1</ele>
        <time>2022-08-11T09:07:41.000Z</time>
      </trkpt>
      <trkpt lat="45.57875" lon="6.78741">
        <ele>1693.6</ele>
      </trkpt>
      <trkpt lat="45.5788" lon="6.78743">
        <ele>1693</ele>
        <time>2022-08-11T09:07:36.000Z</time>
      </trkpt>
      <trkpt lat="45.57882" lon="6.78743">
        <ele>1692.5</ele>
        <time>2022-08-11T09:07:35.000Z</time>
      </trkpt>
      <trkpt lat="45.57886" lon="6.78746">
        <ele>1692.4</ele>
        <time>2022-08-11T09:07:33.000Z</time>
      </trkpt>
      <trkpt lat="45.5789" lon="6.78749">
        <ele>1692.2</ele>
        <time>2022-08-11T09:07:31.000Z</time>
      </trkpt>
      <trkpt lat="45.57895" lon="6.78753">
        <ele>1691.9</ele>
        <time>2022-08-11T09:07:28.000Z</time>
      </trkpt>
      <trkpt lat="45.57896" lon="6.78755">
        <ele>1691.5</ele>
        <time>2022-08-11T09:07:27.000Z</time>
      </trkpt>
      <trkpt lat="45.57904" lon="6.78761">
        <ele>1690.1</ele>
        <time>2022-08-11T09:07:23.000Z</time>
      </trkpt>
      <trkpt lat="45.57906" lon="6.78765">
        <ele>1690.2</ele>
        <time>2022-08-11T09:07:21.000Z</time>
      </trkpt>
      <trkpt lat="45.57911" lon="6.78771">
        <ele>1689.3</ele>
        <time>2022-08-11T09:07:18.000Z</time>
      </trkpt>
      <trkpt lat="45.57915" lon="6.78776">
        <ele>1688.7</ele>
      </trkpt>
      <trkpt lat="45.57918" lon="6.78781">
        <ele>1687.8</ele>
        <time>2022-08-11T09:07:14.000Z</time>
      </trkpt>
      <trkpt lat="45.5792" lon="6.78784">
        <ele>1687.5</ele>
        <time>2022-08-11T09:07:13.000Z</time>
      </trkpt>
      <trkpt lat="45.57924" lon="6.78791">
        <ele>1686.8</ele>
        <time>2022-08-11T09:07:10.000Z</time>
      </trkpt>
      <trkpt lat="45.57928" lon="6.78799">
        <ele>1686</ele>
        <time>2022-08-11T09:07:07.000Z</time>
      </trkpt>
      <trkpt lat="45.57931" lon="6.78803">
        <ele>1685</ele>
      </trkpt>
      <trkpt lat="45.57935" lon="6.78807">
        <ele>1684.6</ele>
        <time>2022-08-11T09:07:03.000Z</time>
      </trkpt>
      <trkpt lat="45.57939" lon="6.78812">
        <ele>1685.1</ele>
        <time>2022-08-11T09:07:01.000Z</time>
      </trkpt>
      <trkpt lat="45.57943" lon="6.78815">
        <ele>1685.3</ele>
        <time>2022-08-11T09:06:59.000Z</time>
      </trkpt>
      <trkpt lat="45.5795" lon="6.7882">
        <ele>1685.1</ele>
        <time>2022-08-11T09:06:55.000Z</time>
      </trkpt>
      <trkpt lat="45.57955" lon="6.78825">
        <ele>1685.4</ele>
        <time>2022-08-11T09:06:52.000Z</time>
      </trkpt>
      <trkpt lat="45.57956" lon="6.78826">
        <ele>1685.5</ele>
        <time>2022-08-11T09:06:51.000Z</time>
      </trkpt>
      <trkpt lat="45.57958" lon="6.78828">
        <ele>1685.4</ele>
        <time>2022-08-11T09:06:50.000Z</time>
      </trkpt>
      <trkpt lat="45.57965" lon="6.78831">
        <ele>1684</ele>
        <time>2022-08-11T09:06:47.000Z</time>
      </trkpt>
      <trkpt lat="45.57969" lon="6.78835">
        <ele>1684.5</ele>
        <time>2022-08-11T09:06:45.000Z</time>
      </trkpt>
      <trkpt lat="45.57973" lon="6.78838">
        <ele>1684.6</ele>
      </trkpt>
      <trkpt lat="45.57978" lon="6.7884">
        <ele>1684.8</ele>
      </trkpt>
      <trkpt lat="45.57983" lon="6.78842">
        <ele>1684.9</ele>
      </trkpt>
      <trkpt lat="45.57987" lon="6.78845">
        <ele>1684.7</ele>
        <time>2022-08-11T09:06:38.000Z</time>
      </trkpt>
      <trkpt lat="45.57993" lon="6.78847">
        <ele>1684.1</ele>
      </trkpt>
      <trkpt lat="45.57998" lon="6.7885">
        <ele>1683.2</ele>
        <time>2022-08-11T09:06:34.000Z</time>
      </trkpt>
      <trkpt lat="45.58003" lon="6.78852">
        <ele>1682.8</ele>
      </trkpt>
      <trkpt lat="45.58008" lon="6.78855">
        <ele>1682.8</ele>
        <time>2022-08-11T09:06:30.000Z</time>
      </trkpt>
      <trkpt lat="45.58012" lon="6.78855">
        <ele>1682.4</ele>
        <time>2022-08-11T09:06:29.000Z</time>
      </trkpt>
      <trkpt lat="45.58017" lon="6.78856">
        <ele>1681.5</ele>
      </trkpt>
      <trkpt lat="45.58022" lon="6.78856">
        <ele>1680.6</ele>
      </trkpt>
      <trkpt lat="45.58027" lon="6.78856">
        <ele>1679.8</ele>
      </trkpt>
      <trkpt lat="45.58032" lon="6.78857">
        <ele>1679.1</ele>
        <time>2022-08-11T09:06:22.000Z</time>
      </trkpt>
      <trkpt lat="45.58037" lon="6.78858">
        <ele>1678.8</ele>
      </trkpt>
      <trkpt lat="45.58043" lon="6.7886">
        <ele>1678.6</ele>
      </trkpt>
      <trkpt lat="45.58048" lon="6.78862">
        <ele>1678.4</ele>
      </trkpt>
      <trkpt lat="45.58053" lon="6.78863">
        <ele>1678.8</ele>
        <time>2022-08-11T09:06:15.000Z</time>
      </trkpt>
      <trkpt lat="45.58059" lon="6.78864">
        <ele>1678.8</ele>
      </trkpt>
      <trkpt lat="45.58066" lon="6.78865">
        <ele>1679.1</ele>
        <time>2022-08-11T09:06:11.000Z</time>
      </trkpt>
      <trkpt lat="45.58072" lon="6.78866">
        <ele>1679.4</ele>
        <time>2022-08-11T09:06:09.000Z</time>
      </trkpt>
      <trkpt lat="45.58077" lon="6.78867">
        <ele>1679.7</ele>
        <time>2022-08-11T09:06:08.000Z</time>
      </trkpt>
      <trkpt lat="45.58084" lon="6.78869">
        <ele>1680.4</ele>
        <time>2022-08-11T09:06:06.000Z</time>
      </trkpt>
      <trkpt lat="45.58089" lon="6.78871">
        <ele>1681.3</ele>
      </trkpt>
      <trkpt lat="45.58094" lon="6.78873">
        <ele>1682.2</ele>
        <time>2022-08-11T09:06:03.000Z</time>
      </trkpt>
      <trkpt lat="45.581" lon="6.78877">
        <ele>1683.8</ele>
        <time>2022-08-11T09:06:01.000Z</time>
      </trkpt>
      <trkpt lat="45.58106" lon="6.78879">
        <ele>1685</ele>
        <time>2022-08-11T09:05:59.000Z</time>
      </trkpt>
      <trkpt lat="45.58112" lon="6.78882">
        <ele>1686</ele>
      </trkpt>
      <trkpt lat="45.58118" lon="6.78884">
        <ele>1686.4</ele>
        <time>2022-08-11T09:05:55.000Z</time>
      </trkpt>
      <trkpt lat="45.58123" lon="6.78887">
        <ele>1686.7</ele>
      </trkpt>
      <trkpt lat="45.58129" lon="6.78889">
        <ele>1686.9</ele>
        <time>2022-08-11T09:05:51.000Z</time>
      </trkpt>
      <trkpt lat="45.58136" lon="6.78891">
        <ele>1686.5</ele>
        <time>2022-08-11T09:05:48.000Z</time>
      </trkpt>
      <trkpt lat="45.58142" lon="6.78892">
        <ele>1685.9</ele>
      </trkpt>
      <trkpt lat="45.58148" lon="6.78892">
        <ele>1685.7</ele>
        <time>2022-08-11T09:05:41.000Z</time>
      </trkpt>
      <trkpt lat="45.5815" lon="6.78892">
        <ele>1685.6</ele>
        <time>2022-08-11T09:05:40.000Z</time>
      </trkpt>
      <trkpt lat="45.58158" lon="6.78892">
        <ele>1685.1</ele>
        <time>2022-08-11T09:05:35.000Z</time>
      </trkpt>
      <trkpt lat="45.5816" lon="6.78891">
        <ele>1684.9</ele>
        <time>2022-08-11T09:05:34.000Z</time>
      </trkpt>
      <trkpt lat="45.58168" lon="6.78891">
        <ele>1684.1</ele>
        <time>2022-08-11T09:05:30.000Z</time>
      </trkpt>
      <trkpt lat="45.58175" lon="6.78892">
        <ele>1683</ele>
        <time>2022-08-11T09:05:27.000Z</time>
      </trkpt>
      <trkpt lat="45.58177" lon="6.78893">
        <ele>1682.7</ele>
        <time>2022-08-11T09:05:26.000Z</time>
      </trkpt>
      <trkpt lat="45.58182" lon="6.78896">
        <ele>1682.4</ele>
      </trkpt>
      <trkpt lat="45.58186" lon="6.78898">
        <ele>1682.2</ele>
        <time>2022-08-11T09:05:22.000Z</time>
      </trkpt>
      <trkpt lat="45.5819" lon="6.789">
        <ele>1682.3</ele>
        <time>2022-08-11T09:05:20.000Z</time>
      </trkpt>
      <trkpt lat="45.58198" lon="6.78903">
        <ele>1681.7</ele>
        <time>2022-08-11T09:05:17.000Z</time>
      </trkpt>
      <trkpt lat="45.58203" lon="6.78905">
        <ele>1681</ele>
        <time>2022-08-11T09:05:15.000Z</time>
      </trkpt>
      <trkpt lat="45.58208" lon="6.78908">
        <ele>1680.5</ele>
        <time>2022-08-11T09:05:12.000Z</time>
      </trkpt>
      <trkpt lat="45.58213" lon="6.78911">
        <ele>1679.7</ele>
        <time>2022-08-11T09:05:09.000Z</time>
      </trkpt>
      <trkpt lat="45.58219" lon="6.7891">
        <ele>1677.9</ele>
      </trkpt>
      <trkpt lat="45.58224" lon="6.78909">
        <ele>1676.5</ele>
        <time>2022-08-11T09:05:03.000Z</time>
      </trkpt>
      <trkpt lat="45.58229" lon="6.78906">
        <ele>1675.7</ele>
      </trkpt>
      <trkpt lat="45.58234" lon="6.78904">
        <ele>1674.8</ele>
        <time>2022-08-11T09:04:59.000Z</time>
      </trkpt>
      <trkpt lat="45.58237" lon="6.78903">
        <ele>1674.5</ele>
        <time>2022-08-11T09:04:57.000Z</time>
      </trkpt>
      <trkpt lat="45.58239" lon="6.78903">
        <ele>1674.3</ele>
        <time>2022-08-11T09:04:56.000Z</time>
      </trkpt>
      <trkpt lat="45.58244" lon="6.78901">
        <ele>1673.6</ele>
        <time>2022-08-11T09:04:54.000Z</time>
      </trkpt>
      <trkpt lat="45.58253" lon="6.78899">
        <ele>1672.4</ele>
      </trkpt>
      <trkpt lat="45.58262" lon="6.78897">
        <ele>1670.7</ele>
        <time>2022-08-11T09:04:48.000Z</time>
      </trkpt>
      <trkpt lat="45.58269" lon="6.789">
        <ele>1670.1</ele>
        <time>2022-08-11T09:04:45.000Z</time>
      </trkpt>
      <trkpt lat="45.58276" lon="6.78907">
        <ele>1669.8</ele>
        <time>2022-08-11T09:04:42.000Z</time>
      </trkpt>
      <trkpt lat="45.58279" lon="6.78913">
        <ele>1670.5</ele>
      </trkpt>
      <trkpt lat="45.58282" lon="6.78919">
        <ele>1671.5</ele>
        <time>2022-08-11T09:04:38.000Z</time>
      </trkpt>
      <trkpt lat="45.58285" lon="6.7892">
        <ele>1671.8</ele>
        <time>2022-08-11T09:04:37.000Z</time>
      </trkpt>
      <trkpt lat="45.5829" lon="6.78925">
        <ele>1672.7</ele>
        <time>2022-08-11T09:04:35.000Z</time>
      </trkpt>
      <trkpt lat="45.58296" lon="6.78927">
        <ele>1673.4</ele>
        <time>2022-08-11T09:04:33.000Z</time>
      </trkpt>
      <trkpt lat="45.583" lon="6.78927">
        <ele>1673.6</ele>
        <time>2022-08-11T09:04:32.000Z</time>
      </trkpt>
      <trkpt lat="45.58303" lon="6.78928">
        <ele>1674</ele>
        <time>2022-08-11T09:04:31.000Z</time>
      </trkpt>
      <trkpt lat="45.58311" lon="6.7893">
        <ele>1674.3</ele>
      </trkpt>
      <trkpt lat="45.58319" lon="6.78931">
        <ele>1674.6</ele>
        <time>2022-08-11T09:04:26.000Z</time>
      </trkpt>
      <trkpt lat="45.58322" lon="6.78932">
        <ele>1674.8</ele>
        <time>2022-08-11T09:04:25.000Z</time>
      </trkpt>
      <trkpt lat="45.58325" lon="6.78934">
        <ele>1675.1</ele>
        <time>2022-08-11T09:04:24.000Z</time>
      </trkpt>
      <trkpt lat="45.58329" lon="6.78935">
        <ele>1675.3</ele>
      </trkpt>
      <trkpt lat="45.58334" lon="6.78936">
        <ele>1675.5</ele>
      </trkpt>
      <trkpt lat="45.58338" lon="6.78937">
        <ele>1675.2</ele>
      </trkpt>
      <trkpt lat="45.58343" lon="6.78939">
        <ele>1675</ele>
        <time>2022-08-11T09:04:18.000Z</time>
      </trkpt>
      <trkpt lat="45.58348" lon="6.7894">
        <ele>1674.9</ele>
      </trkpt>
      <trkpt lat="45.58353" lon="6.78942">
        <ele>1674.8</ele>
      </trkpt>
      <trkpt lat="45.58358" lon="6.78943">
        <ele>1674.9</ele>
      </trkpt>
      <trkpt lat="45.58363" lon="6.78945">
        <ele>1675.2</ele>
        <time>2022-08-11T09:04:11.000Z</time>
      </trkpt>
      <trkpt lat="45.5837" lon="6.7894">
        <ele>1673.9</ele>
        <time>2022-08-11T09:04:08.000Z</time>
      </trkpt>
      <trkpt lat="45.58377" lon="6.78941">
        <ele>1674.7</ele>
      </trkpt>
      <trkpt lat="45.58384" lon="6.78942">
        <ele>1675.6</ele>
        <time>2022-08-11T09:04:04.000Z</time>
      </trkpt>
      <trkpt lat="45.5839" lon="6.78942">
        <ele>1676.2</ele>
      </trkpt>
      <trkpt lat="45.58397" lon="6.78943">
        <ele>1676.8</ele>
        <time>2022-08-11T09:04:00.000Z</time>
      </trkpt>
      <trkpt lat="45.58406" lon="6.78943">
        <ele>1676.9</ele>
      </trkpt>
      <trkpt lat="45.58415" lon="6.78942">
        <ele>1677.1</ele>
        <time>2022-08-11T09:03:54.000Z</time>
      </trkpt>
      <trkpt lat="45.58421" lon="6.7894">
        <ele>1677.1</ele>
        <time>2022-08-11T09:03:51.000Z</time>
      </trkpt>
      <trkpt lat="45.58426" lon="6.7894">
        <ele>1677.7</ele>
        <time>2022-08-11T09:03:49.000Z</time>
      </trkpt>
      <trkpt lat="45.58433" lon="6.78935">
        <ele>1677.4</ele>
      </trkpt>
      <trkpt lat="45.5844" lon="6.7893">
        <ele>1677.6</ele>
        <time>2022-08-11T09:03:43.000Z</time>
      </trkpt>
      <trkpt lat="45.58441" lon="6.78928">
        <ele>1677.3</ele>
        <time>2022-08-11T09:03:42.000Z</time>
      </trkpt>
      <trkpt lat="45.58446" lon="6.78922">
        <ele>1677.3</ele>
      </trkpt>
      <trkpt lat="45.5845" lon="6.78916">
        <ele>1677.4</ele>
        <time>2022-08-11T09:03:37.000Z</time>
      </trkpt>
      <trkpt lat="45.58452" lon="6.78914">
        <ele>1677.2</ele>
        <time>2022-08-11T09:03:36.000Z</time>
      </trkpt>
      <trkpt lat="45.58457" lon="6.7891">
        <ele>1677.1</ele>
      </trkpt>
      <trkpt lat="45.58462" lon="6.78906">
        <ele>1676.9</ele>
        <time>2022-08-11T09:03:31.000Z</time>
      </trkpt>
      <trkpt lat="45.58465" lon="6.78902">
        <ele>1675.8</ele>
        <time>2022-08-11T09:03:29.000Z</time>
      </trkpt>
      <trkpt lat="45.58472" lon="6.78895">
        <ele>1674.4</ele>
        <time>2022-08-11T09:03:25.000Z</time>
      </trkpt>
      <trkpt lat="45.58476" lon="6.78889">
        <ele>1674</ele>
      </trkpt>
      <trkpt lat="45.58481" lon="6.78884">
        <ele>1674.2</ele>
        <time>2022-08-11T09:03:21.000Z</time>
      </trkpt>
      <trkpt lat="45.58485" lon="6.78879">
        <ele>1674.2</ele>
      </trkpt>
      <trkpt lat="45.58489" lon="6.78874">
        <ele>1674</ele>
        <time>2022-08-11T09:03:18.000Z</time>
      </trkpt>
      <trkpt lat="45.58495" lon="6.78871">
        <ele>1674.9</ele>
        <time>2022-08-11T09:03:16.000Z</time>
      </trkpt>
      <trkpt lat="45.58501" lon="6.78866">
        <ele>1675.2</ele>
      </trkpt>
      <trkpt lat="45.58508" lon="6.7886">
        <ele>1675.3</ele>
        <time>2022-08-11T09:03:10.000Z</time>
      </trkpt>
      <trkpt lat="45.58513" lon="6.78859">
        <ele>1676.2</ele>
      </trkpt>
      <trkpt lat="45.58518" lon="6.78857">
        <ele>1677</ele>
      </trkpt>
      <trkpt lat="45.58523" lon="6.78855">
        <ele>1677.9</ele>
      </trkpt>
      <trkpt lat="45.58528" lon="6.78853">
        <ele>1678.8</ele>
        <time>2022-08-11T09:03:03.000Z</time>
      </trkpt>
      <trkpt lat="45.58533" lon="6.78846">
        <ele>1677.8</ele>
      </trkpt>
      <trkpt lat="45.58539" lon="6.78839">
        <ele>1677</ele>
        <time>2022-08-11T09:02:57.000Z</time>
      </trkpt>
      <trkpt lat="45.58545" lon="6.78831">
        <ele>1676.6</ele>
      </trkpt>
      <trkpt lat="45.5855" lon="6.78823">
        <ele>1677.1</ele>
        <time>2022-08-11T09:02:52.000Z</time>
      </trkpt>
      <trkpt lat="45.58555" lon="6.78818">
        <ele>1678</ele>
        <time>2022-08-11T09:02:50.000Z</time>
      </trkpt>
      <trkpt lat="45.5856" lon="6.78813">
        <ele>1678.2</ele>
      </trkpt>
      <trkpt lat="45.58565" lon="6.78809">
        <ele>1678.2</ele>
        <time>2022-08-11T09:02:46.000Z</time>
      </trkpt>
      <trkpt lat="45.58567" lon="6.78807">
        <ele>1678.1</ele>
        <time>2022-08-11T09:02:45.000Z</time>
      </trkpt>
      <trkpt lat="45.58573" lon="6.78802">
        <ele>1677.4</ele>
        <time>2022-08-11T09:02:42.000Z</time>
      </trkpt>
      <trkpt lat="45.58576" lon="6.78798">
        <ele>1677</ele>
        <time>2022-08-11T09:02:40.000Z</time>
      </trkpt>
      <trkpt lat="45.58583" lon="6.78796">
        <ele>1677.1</ele>
      </trkpt>
      <trkpt lat="45.5859" lon="6.78793">
        <ele>1675.3</ele>
        <time>2022-08-11T09:02:34.000Z</time>
      </trkpt>
      <trkpt lat="45.58592" lon="6.78792">
        <ele>1674.8</ele>
        <time>2022-08-11T09:02:33.000Z</time>
      </trkpt>
      <trkpt lat="45.586" lon="6.78793">
        <ele>1673.7</ele>
        <time>2022-08-11T09:02:30.000Z</time>
      </trkpt>
      <trkpt lat="45.58607" lon="6.78795">
        <ele>1673.6</ele>
        <time>2022-08-11T09:02:27.000Z</time>
      </trkpt>
      <trkpt lat="45.58614" lon="6.78799">
        <ele>1673.7</ele>
      </trkpt>
      <trkpt lat="45.58622" lon="6.78802">
        <ele>1674</ele>
        <time>2022-08-11T09:02:21.000Z</time>
      </trkpt>
      <trkpt lat="45.58624" lon="6.78802">
        <ele>1673.8</ele>
        <time>2022-08-11T09:02:20.000Z</time>
      </trkpt>
      <trkpt lat="45.58629" lon="6.78803">
        <ele>1673.6</ele>
      </trkpt>
      <trkpt lat="45.58633" lon="6.78804">
        <ele>1673.4</ele>
        <time>2022-08-11T09:02:15.000Z</time>
      </trkpt>
      <trkpt lat="45.58639" lon="6.78804">
        <ele>1672.4</ele>
      </trkpt>
      <trkpt lat="45.58645" lon="6.78804">
        <ele>1672</ele>
        <time>2022-08-11T09:02:10.000Z</time>
      </trkpt>
      <trkpt lat="45.58649" lon="6.78805">
        <ele>1672.2</ele>
      </trkpt>
      <trkpt lat="45.58654" lon="6.78806">
        <ele>1672.5</ele>
        <time>2022-08-11T09:02:07.000Z</time>
      </trkpt>
      <trkpt lat="45.58659" lon="6.78807">
        <ele>1672.8</ele>
      </trkpt>
      <trkpt lat="45.58664" lon="6.78808">
        <ele>1673.2</ele>
        <time>2022-08-11T09:02:04.000Z</time>
      </trkpt>
      <trkpt lat="45.58671" lon="6.78811">
        <ele>1673.5</ele>
        <time>2022-08-11T09:02:02.000Z</time>
      </trkpt>
      <trkpt lat="45.58674" lon="6.78812">
        <ele>1673.7</ele>
        <time>2022-08-11T09:02:01.000Z</time>
      </trkpt>
      <trkpt lat="45.58678" lon="6.78815">
        <ele>1674.3</ele>
      </trkpt>
      <trkpt lat="45.58683" lon="6.78818">
        <ele>1675</ele>
        <time>2022-08-11T09:01:58.000Z</time>
      </trkpt>
      <trkpt lat="45.58687" lon="6.78821">
        <ele>1675.4</ele>
        <time>2022-08-11T09:01:57.000Z</time>
      </trkpt>
      <trkpt lat="45.5869" lon="6.78823">
        <ele>1675.8</ele>
        <time>2022-08-11T09:01:56.000Z</time>
      </trkpt>
      <trkpt lat="45.58696" lon="6.78825">
        <ele>1676.2</ele>
      </trkpt>
      <trkpt lat="45.58703" lon="6.78828">
        <ele>1677.6</ele>
        <time>2022-08-11T09:01:52.000Z</time>
      </trkpt>
      <trkpt lat="45.58705" lon="6.7883">
        <ele>1678.4</ele>
        <time>2022-08-11T09:01:51.000Z</time>
      </trkpt>
      <trkpt lat="45.58712" lon="6.78832">
        <ele>1680.3</ele>
      </trkpt>
      <trkpt lat="45.58719" lon="6.78835">
        <ele>1682.4</ele>
        <time>2022-08-11T09:01:46.000Z</time>
      </trkpt>
      <trkpt lat="45.58722" lon="6.78835">
        <ele>1682.9</ele>
        <time>2022-08-11T09:01:45.000Z</time>
      </trkpt>
      <trkpt lat="45.58729" lon="6.78835">
        <ele>1681.6</ele>
      </trkpt>
      <trkpt lat="45.58736" lon="6.78834">
        <ele>1680.3</ele>
        <time>2022-08-11T09:01:39.000Z</time>
      </trkpt>
      <trkpt lat="45.58744" lon="6.78836">
        <ele>1679.5</ele>
        <time>2022-08-11T09:01:36.000Z</time>
      </trkpt>
      <trkpt lat="45.58749" lon="6.78838">
        <ele>1678.9</ele>
        <time>2022-08-11T09:01:33.000Z</time>
      </trkpt>
      <trkpt lat="45.58751" lon="6.78839">
        <ele>1678.6</ele>
        <time>2022-08-11T09:01:32.000Z</time>
      </trkpt>
      <trkpt lat="45.58757" lon="6.78848">
        <ele>1677.2</ele>
        <time>2022-08-11T09:01:25.000Z</time>
      </trkpt>
      <trkpt lat="45.58762" lon="6.78854">
        <ele>1675.7</ele>
        <time>2022-08-11T09:01:20.000Z</time>
      </trkpt>
      <trkpt lat="45.58763" lon="6.78856">
        <ele>1675.6</ele>
        <time>2022-08-11T09:01:19.000Z</time>
      </trkpt>
      <trkpt lat="45.58767" lon="6.78861">
        <ele>1674.6</ele>
        <time>2022-08-11T09:01:16.000Z</time>
      </trkpt>
      <trkpt lat="45.58772" lon="6.78865">
        <ele>1673.3</ele>
        <time>2022-08-11T09:01:13.000Z</time>
      </trkpt>
      <trkpt lat="45.58778" lon="6.78869">
        <ele>1671.8</ele>
        <time>2022-08-11T09:01:10.000Z</time>
      </trkpt>
      <trkpt lat="45.58785" lon="6.78872">
        <ele>1672</ele>
        <time>2022-08-11T09:01:07.000Z</time>
      </trkpt>
      <trkpt lat="45.58791" lon="6.78872">
        <ele>1671.8</ele>
        <time>2022-08-11T09:01:04.000Z</time>
      </trkpt>
      <trkpt lat="45.58799" lon="6.78872">
        <ele>1671.3</ele>
        <time>2022-08-11T09:01:01.000Z</time>
      </trkpt>
      <trkpt lat="45.58805" lon="6.78865">
        <ele>1669.2</ele>
        <time>2022-08-11T09:00:58.000Z</time>
      </trkpt>
      <trkpt lat="45.5881" lon="6.78858">
        <ele>1668.1</ele>
        <time>2022-08-11T09:00:55.000Z</time>
      </trkpt>
      <trkpt lat="45.58817" lon="6.78854">
        <ele>1668.4</ele>
        <time>2022-08-11T09:00:52.000Z</time>
      </trkpt>
      <trkpt lat="45.58818" lon="6.78853">
        <ele>1668.4</ele>
        <time>2022-08-11T09:00:51.000Z</time>
      </trkpt>
      <trkpt lat="45.58819" lon="6.78852">
        <ele>1668.1</ele>
        <time>2022-08-11T09:00:50.000Z</time>
      </trkpt>
      <trkpt lat="45.58824" lon="6.78847">
        <ele>1667.9</ele>
      </trkpt>
      <trkpt lat="45.58828" lon="6.78843">
        <ele>1667.7</ele>
        <time>2022-08-11T09:00:43.000Z</time>
      </trkpt>
      <trkpt lat="45.5883" lon="6.78842">
        <ele>1667.6</ele>
        <time>2022-08-11T09:00:42.000Z</time>
      </trkpt>
      <trkpt lat="45.58835" lon="6.78841">
        <ele>1667.8</ele>
      </trkpt>
      <trkpt lat="45.5884" lon="6.78839">
        <ele>1667.5</ele>
        <time>2022-08-11T09:00:36.000Z</time>
      </trkpt>
      <trkpt lat="45.58843" lon="6.78837">
        <ele>1667</ele>
        <time>2022-08-11T09:00:33.000Z</time>
      </trkpt>
      <trkpt lat="45.58848" lon="6.78835">
        <ele>1666.5</ele>
        <time>2022-08-11T09:00:29.000Z</time>
      </trkpt>
      <trkpt lat="45.58852" lon="6.78835">
        <ele>1666.4</ele>
        <time>2022-08-11T09:00:26.000Z</time>
      </trkpt>
      <trkpt lat="45.58854" lon="6.78834">
        <ele>1666.3</ele>
        <time>2022-08-11T09:00:25.000Z</time>
      </trkpt>
      <trkpt lat="45.58858" lon="6.78833">
        <ele>1666</ele>
        <time>2022-08-11T09:00:23.000Z</time>
      </trkpt>
      <trkpt lat="45.58863" lon="6.78834">
        <ele>1665.8</ele>
        <time>2022-08-11T09:00:20.000Z</time>
      </trkpt>
      <trkpt lat="45.5887" lon="6.78838">
        <ele>1665.3</ele>
      </trkpt>
      <trkpt lat="45.58877" lon="6.78843">
        <ele>1664.8</ele>
        <time>2022-08-11T09:00:13.000Z</time>
      </trkpt>
      <trkpt lat="45.58884" lon="6.78846">
        <ele>1664</ele>
      </trkpt>
      <trkpt lat="45.5889" lon="6.78849">
        <ele>1663</ele>
        <time>2022-08-11T09:00:07.000Z</time>
      </trkpt>
      <trkpt lat="45.58893" lon="6.78854">
        <ele>1663.1</ele>
        <time>2022-08-11T09:00:05.000Z</time>
      </trkpt>
      <trkpt lat="45.58899" lon="6.78861">
        <ele>1662.8</ele>
        <time>2022-08-11T09:00:02.000Z</time>
      </trkpt>
      <trkpt lat="45.589" lon="6.78863">
        <ele>1662.5</ele>
        <time>2022-08-11T09:00:01.000Z</time>
      </trkpt>
      <trkpt lat="45.58905" lon="6.7887">
        <ele>1661.1</ele>
      </trkpt>
      <trkpt lat="45.58911" lon="6.78878">
        <ele>1659.4</ele>
        <time>2022-08-11T08:59:55.000Z</time>
      </trkpt>
      <trkpt lat="45.58912" lon="6.7888">
        <ele>1658.9</ele>
        <time>2022-08-11T08:59:54.000Z</time>
      </trkpt>
      <trkpt lat="45.58914" lon="6.7888">
        <ele>1658.1</ele>
        <time>2022-08-11T08:59:53.000Z</time>
      </trkpt>
      <trkpt lat="45.58917" lon="6.78885">
        <ele>1657</ele>
        <time>2022-08-11T08:59:50.000Z</time>
      </trkpt>
      <trkpt lat="45.5892" lon="6.78892">
        <ele>1656.3</ele>
        <time>2022-08-11T08:59:47.000Z</time>
      </trkpt>
      <trkpt lat="45.58923" lon="6.789">
        <ele>1656.6</ele>
      </trkpt>
      <trkpt lat="45.58925" lon="6.78908">
        <ele>1656.8</ele>
        <time>2022-08-11T08:59:41.000Z</time>
      </trkpt>
      <trkpt lat="45.5893" lon="6.78913">
        <ele>1655.9</ele>
        <time>2022-08-11T08:59:39.000Z</time>
      </trkpt>
      <trkpt lat="45.58936" lon="6.78921">
        <ele>1654.4</ele>
        <time>2022-08-11T08:59:36.000Z</time>
      </trkpt>
      <trkpt lat="45.58938" lon="6.78927">
        <ele>1653.9</ele>
      </trkpt>
      <trkpt lat="45.5894" lon="6.78933">
        <ele>1653.2</ele>
        <time>2022-08-11T08:59:33.000Z</time>
      </trkpt>
      <trkpt lat="45.58943" lon="6.78939">
        <ele>1652.4</ele>
      </trkpt>
      <trkpt lat="45.58946" lon="6.78944">
        <ele>1651.6</ele>
        <time>2022-08-11T08:59:29.000Z</time>
      </trkpt>
      <trkpt lat="45.58948" lon="6.78948">
        <ele>1650.4</ele>
        <time>2022-08-11T08:59:27.000Z</time>
      </trkpt>
      <trkpt lat="45.5895" lon="6.78954">
        <ele>1649.7</ele>
        <time>2022-08-11T08:59:25.000Z</time>
      </trkpt>
      <trkpt lat="45.58953" lon="6.7896">
        <ele>1648.9</ele>
        <time>2022-08-11T08:59:22.000Z</time>
      </trkpt>
      <trkpt lat="45.58957" lon="6.78968">
        <ele>1648.1</ele>
      </trkpt>
      <trkpt lat="45.58961" lon="6.78976">
        <ele>1647.8</ele>
        <time>2022-08-11T08:59:16.000Z</time>
      </trkpt>
      <trkpt lat="45.58968" lon="6.78983">
        <ele>1647.7</ele>
      </trkpt>
      <trkpt lat="45.58974" lon="6.7899">
        <ele>1647.9</ele>
        <time>2022-08-11T08:59:10.000Z</time>
      </trkpt>
      <trkpt lat="45.58978" lon="6.78994">
        <ele>1647.4</ele>
        <time>2022-08-11T08:59:08.000Z</time>
      </trkpt>
      <trkpt lat="45.58982" lon="6.78998">
        <ele>1647</ele>
        <time>2022-08-11T08:59:06.000Z</time>
      </trkpt>
      <trkpt lat="45.58985" lon="6.79002">
        <ele>1646.6</ele>
        <time>2022-08-11T08:59:04.000Z</time>
      </trkpt>
      <trkpt lat="45.58987" lon="6.79003">
        <ele>1646.1</ele>
        <time>2022-08-11T08:59:03.000Z</time>
      </trkpt>
      <trkpt lat="45.58994" lon="6.7901">
        <ele>1644.9</ele>
        <time>2022-08-11T08:58:59.000Z</time>
      </trkpt>
      <trkpt lat="45.58996" lon="6.79014">
        <ele>1644.7</ele>
        <time>2022-08-11T08:58:57.000Z</time>
      </trkpt>
      <trkpt lat="45.59" lon="6.7902">
        <ele>1644.3</ele>
      </trkpt>
      <trkpt lat="45.59003" lon="6.79026">
        <ele>1643.8</ele>
        <time>2022-08-11T08:58:50.000Z</time>
      </trkpt>
      <trkpt lat="45.59006" lon="6.79029">
        <ele>1643.4</ele>
        <time>2022-08-11T08:58:48.000Z</time>
      </trkpt>
      <trkpt lat="45.59011" lon="6.79035">
        <ele>1642.6</ele>
        <time>2022-08-11T08:58:43.000Z</time>
      </trkpt>
      <trkpt lat="45.59014" lon="6.7904">
        <ele>1642.4</ele>
        <time>2022-08-11T08:58:40.000Z</time>
      </trkpt>
      <trkpt lat="45.59018" lon="6.79045">
        <ele>1641.7</ele>
        <time>2022-08-11T08:58:36.000Z</time>
      </trkpt>
      <trkpt lat="45.59023" lon="6.79047">
        <ele>1640.5</ele>
      </trkpt>
      <trkpt lat="45.59028" lon="6.79049">
        <ele>1639.3</ele>
        <time>2022-08-11T08:58:29.000Z</time>
      </trkpt>
      <trkpt lat="45.59029" lon="6.7905">
        <ele>1639</ele>
        <time>2022-08-11T08:58:28.000Z</time>
      </trkpt>
      <trkpt lat="45.5903" lon="6.79051">
        <ele>1638.8</ele>
        <time>2022-08-11T08:58:27.000Z</time>
      </trkpt>
      <trkpt lat="45.59032" lon="6.79053">
        <ele>1638.4</ele>
        <time>2022-08-11T08:58:25.000Z</time>
      </trkpt>
      <trkpt lat="45.59034" lon="6.79053">
        <ele>1638.1</ele>
        <time>2022-08-11T08:58:24.000Z</time>
      </trkpt>
      <trkpt lat="45.59036" lon="6.79057">
        <ele>1637.8</ele>
        <time>2022-08-11T08:58:22.000Z</time>
      </trkpt>
      <trkpt lat="45.59038" lon="6.7906">
        <ele>1637.1</ele>
        <time>2022-08-11T08:58:20.000Z</time>
      </trkpt>
      <trkpt lat="45.59039" lon="6.79061">
        <ele>1636.9</ele>
        <time>2022-08-11T08:58:19.000Z</time>
      </trkpt>
      <trkpt lat="45.5904" lon="6.79063">
        <ele>1636.6</ele>
        <time>2022-08-11T08:58:18.000Z</time>
      </trkpt>
      <trkpt lat="45.59041" lon="6.79064">
        <ele>1636.4</ele>
        <time>2022-08-11T08:58:17.000Z</time>
      </trkpt>
      <trkpt lat="45.59043" lon="6.79066">
        <ele>1635.5</ele>
        <time>2022-08-11T08:58:15.000Z</time>
      </trkpt>
      <trkpt lat="45.59044" lon="6.79066">
        <ele>1635.1</ele>
        <time>2022-08-11T08:58:14.000Z</time>
      </trkpt>
      <trkpt lat="45.59045" lon="6.79067">
        <ele>1634.8</ele>
        <time>2022-08-11T08:58:13.000Z</time>
      </trkpt>
      <trkpt lat="45.59046" lon="6.79069">
        <ele>1634.3</ele>
        <time>2022-08-11T08:58:11.000Z</time>
      </trkpt>
      <trkpt lat="45.59051" lon="6.79078">
        <ele>1632.5</ele>
        <time>2022-08-11T08:58:06.000Z</time>
      </trkpt>
      <trkpt lat="45.5905" lon="6.79079">
        <ele>1632.5</ele>
        <time>2022-08-11T08:58:05.000Z</time>
      </trkpt>
      <trkpt lat="45.59052" lon="6.79082">
        <ele>1631.8</ele>
        <time>2022-08-11T08:58:02.000Z</time>
      </trkpt>
      <trkpt lat="45.59051" lon="6.79084">
        <ele>1631.8</ele>
        <time>2022-08-11T08:58:01.000Z</time>
      </trkpt>
      <trkpt lat="45.59052" lon="6.79087">
        <ele>1631.1</ele>
        <time>2022-08-11T08:57:59.000Z</time>
      </trkpt>
      <trkpt lat="45.59051" lon="6.79091">
        <ele>1631.1</ele>
        <time>2022-08-11T08:57:57.000Z</time>
      </trkpt>
      <trkpt lat="45.5905" lon="6.79093">
        <ele>1631.3</ele>
        <time>2022-08-11T08:57:56.000Z</time>
      </trkpt>
      <trkpt lat="45.5905" lon="6.79101">
        <ele>1630.6</ele>
        <time>2022-08-11T08:57:53.000Z</time>
      </trkpt>
      <trkpt lat="45.5905" lon="6.79104">
        <ele>1630.2</ele>
        <time>2022-08-11T08:57:52.000Z</time>
      </trkpt>
      <trkpt lat="45.59051" lon="6.79111">
        <ele>1629.1</ele>
        <time>2022-08-11T08:57:49.000Z</time>
      </trkpt>
      <trkpt lat="45.59052" lon="6.79119">
        <ele>1628.2</ele>
        <time>2022-08-11T08:57:46.000Z</time>
      </trkpt>
      <trkpt lat="45.59054" lon="6.79122">
        <ele>1627.6</ele>
        <time>2022-08-11T08:57:45.000Z</time>
      </trkpt>
      <trkpt lat="45.59056" lon="6.79126">
        <ele>1626.4</ele>
        <time>2022-08-11T08:57:43.000Z</time>
      </trkpt>
      <trkpt lat="45.59058" lon="6.7913">
        <ele>1626.1</ele>
        <time>2022-08-11T08:57:41.000Z</time>
      </trkpt>
      <trkpt lat="45.59059" lon="6.79135">
        <ele>1625.9</ele>
        <time>2022-08-11T08:57:39.000Z</time>
      </trkpt>
      <trkpt lat="45.59062" lon="6.79137">
        <ele>1625.2</ele>
        <time>2022-08-11T08:57:37.000Z</time>
      </trkpt>
      <trkpt lat="45.59065" lon="6.79138">
        <ele>1624.6</ele>
        <time>2022-08-11T08:57:36.000Z</time>
      </trkpt>
      <trkpt lat="45.5907" lon="6.7914">
        <ele>1623.6</ele>
      </trkpt>
      <trkpt lat="45.59075" lon="6.79142">
        <ele>1622.8</ele>
        <time>2022-08-11T08:57:31.000Z</time>
      </trkpt>
      <trkpt lat="45.59083" lon="6.79145">
        <ele>1622</ele>
        <time>2022-08-11T08:57:28.000Z</time>
      </trkpt>
      <trkpt lat="45.59089" lon="6.79146">
        <ele>1621.8</ele>
      </trkpt>
      <trkpt lat="45.59095" lon="6.79147">
        <ele>1621.6</ele>
        <time>2022-08-11T08:57:24.000Z</time>
      </trkpt>
      <trkpt lat="45.59101" lon="6.79149">
        <ele>1621.6</ele>
      </trkpt>
      <trkpt lat="45.59107" lon="6.79151">
        <ele>1621.3</ele>
        <time>2022-08-11T08:57:20.000Z</time>
      </trkpt>
      <trkpt lat="45.59113" lon="6.79159">
        <ele>1621.3</ele>
      </trkpt>
      <trkpt lat="45.59119" lon="6.79167">
        <ele>1621.4</ele>
        <time>2022-08-11T08:57:14.000Z</time>
      </trkpt>
      <trkpt lat="45.59125" lon="6.79177">
        <ele>1621.5</ele>
        <time>2022-08-11T08:57:11.000Z</time>
      </trkpt>
      <trkpt lat="45.59128" lon="6.79182">
        <ele>1621.7</ele>
      </trkpt>
      <trkpt lat="45.59131" lon="6.79188">
        <ele>1621.9</ele>
        <time>2022-08-11T08:57:08.000Z</time>
      </trkpt>
      <trkpt lat="45.59139" lon="6.79191">
        <ele>1621.7</ele>
      </trkpt>
      <trkpt lat="45.59147" lon="6.79194">
        <ele>1621.9</ele>
        <time>2022-08-11T08:57:03.000Z</time>
      </trkpt>
      <trkpt lat="45.59153" lon="6.79197">
        <ele>1622.7</ele>
        <time>2022-08-11T08:57:01.000Z</time>
      </trkpt>
      <trkpt lat="45.59155" lon="6.79199">
        <ele>1623.4</ele>
        <time>2022-08-11T08:57:00.000Z</time>
      </trkpt>
      <trkpt lat="45.5916" lon="6.79205">
        <ele>1624.9</ele>
        <time>2022-08-11T08:56:58.000Z</time>
      </trkpt>
      <trkpt lat="45.59165" lon="6.79211">
        <ele>1626.3</ele>
      </trkpt>
      <trkpt lat="45.59171" lon="6.79217">
        <ele>1627.1</ele>
        <time>2022-08-11T08:56:54.000Z</time>
      </trkpt>
      <trkpt lat="45.59175" lon="6.79224">
        <ele>1627.9</ele>
        <time>2022-08-11T08:56:52.000Z</time>
      </trkpt>
      <trkpt lat="45.59179" lon="6.79231">
        <ele>1629</ele>
      </trkpt>
      <trkpt lat="45.59183" lon="6.79238">
        <ele>1630.1</ele>
        <time>2022-08-11T08:56:48.000Z</time>
      </trkpt>
      <trkpt lat="45.59186" lon="6.79249">
        <ele>1632.4</ele>
        <time>2022-08-11T08:56:45.000Z</time>
      </trkpt>
      <trkpt lat="45.59187" lon="6.79253">
        <ele>1632.9</ele>
        <time>2022-08-11T08:56:44.000Z</time>
      </trkpt>
      <trkpt lat="45.59191" lon="6.79261">
        <ele>1633.4</ele>
        <time>2022-08-11T08:56:42.000Z</time>
      </trkpt>
      <trkpt lat="45.59194" lon="6.79267">
        <ele>1633.6</ele>
        <time>2022-08-11T08:56:40.000Z</time>
      </trkpt>
      <trkpt lat="45.59196" lon="6.79271">
        <ele>1633.7</ele>
        <time>2022-08-11T08:56:39.000Z</time>
      </trkpt>
      <trkpt lat="45.592" lon="6.79278">
        <ele>1634.2</ele>
      </trkpt>
      <trkpt lat="45.59204" lon="6.79286">
        <ele>1635.4</ele>
        <time>2022-08-11T08:56:35.000Z</time>
      </trkpt>
      <trkpt lat="45.59207" lon="6.79289">
        <ele>1635.8</ele>
        <time>2022-08-11T08:56:34.000Z</time>
      </trkpt>
      <trkpt lat="45.59212" lon="6.79294">
        <ele>1636.3</ele>
        <time>2022-08-11T08:56:32.000Z</time>
      </trkpt>
      <trkpt lat="45.59214" lon="6.79297">
        <ele>1636.6</ele>
        <time>2022-08-11T08:56:31.000Z</time>
      </trkpt>
      <trkpt lat="45.59217" lon="6.793">
        <ele>1636.8</ele>
        <time>2022-08-11T08:56:30.000Z</time>
      </trkpt>
      <trkpt lat="45.5922" lon="6.79302">
        <ele>1636.7</ele>
        <time>2022-08-11T08:56:29.000Z</time>
      </trkpt>
      <trkpt lat="45.59223" lon="6.79304">
        <ele>1636.5</ele>
        <time>2022-08-11T08:56:28.000Z</time>
      </trkpt>
      <trkpt lat="45.59226" lon="6.79304">
        <ele>1636.8</ele>
        <time>2022-08-11T08:56:27.000Z</time>
      </trkpt>
      <trkpt lat="45.59232" lon="6.79305">
        <ele>1637.3</ele>
      </trkpt>
      <trkpt lat="45.59238" lon="6.79306">
        <ele>1637.7</ele>
        <time>2022-08-11T08:56:23.000Z</time>
      </trkpt>
      <trkpt lat="45.59244" lon="6.79307">
        <ele>1638</ele>
        <time>2022-08-11T08:56:21.000Z</time>
      </trkpt>
      <trkpt lat="45.5925" lon="6.79308">
        <ele>1638.7</ele>
        <time>2022-08-11T08:56:18.000Z</time>
      </trkpt>
      <trkpt lat="45.59259" lon="6.79306">
        <ele>1639.7</ele>
        <time>2022-08-11T08:56:13.000Z</time>
      </trkpt>
      <trkpt lat="45.5926" lon="6.79306">
        <ele>1640</ele>
        <time>2022-08-11T08:56:12.000Z</time>
      </trkpt>
      <trkpt lat="45.59263" lon="6.79305">
        <ele>1640.4</ele>
        <time>2022-08-11T08:56:10.000Z</time>
      </trkpt>
      <trkpt lat="45.59265" lon="6.79305">
        <ele>1640.6</ele>
        <time>2022-08-11T08:56:09.000Z</time>
      </trkpt>
      <trkpt lat="45.59266" lon="6.79304">
        <ele>1640.5</ele>
        <time>2022-08-11T08:56:08.000Z</time>
      </trkpt>
      <trkpt lat="45.59274" lon="6.79304">
        <ele>1641.7</ele>
        <time>2022-08-11T08:56:03.000Z</time>
      </trkpt>
      <trkpt lat="45.59276" lon="6.79304">
        <ele>1642.3</ele>
        <time>2022-08-11T08:56:01.000Z</time>
      </trkpt>
      <trkpt lat="45.59278" lon="6.79305">
        <ele>1642.8</ele>
        <time>2022-08-11T08:56:00.000Z</time>
      </trkpt>
      <trkpt lat="45.59281" lon="6.79303">
        <ele>1642.5</ele>
        <time>2022-08-11T08:55:57.000Z</time>
      </trkpt>
      <trkpt lat="45.59283" lon="6.79302">
        <ele>1642.2</ele>
        <time>2022-08-11T08:55:55.000Z</time>
      </trkpt>
      <trkpt lat="45.59285" lon="6.79302">
        <ele>1642.3</ele>
        <time>2022-08-11T08:55:54.000Z</time>
      </trkpt>
      <trkpt lat="45.59289" lon="6.79301">
        <ele>1642.6</ele>
        <time>2022-08-11T08:55:50.000Z</time>
      </trkpt>
      <trkpt lat="45.59295" lon="6.793">
        <ele>1642.6</ele>
        <time>2022-08-11T08:55:47.000Z</time>
      </trkpt>
      <trkpt lat="45.59302" lon="6.79298">
        <ele>1642.8</ele>
      </trkpt>
      <trkpt lat="45.59309" lon="6.79297">
        <ele>1643</ele>
        <time>2022-08-11T08:55:42.000Z</time>
      </trkpt>
      <trkpt lat="45.59312" lon="6.79297">
        <ele>1643.3</ele>
        <time>2022-08-11T08:55:41.000Z</time>
      </trkpt>
      <trkpt lat="45.59317" lon="6.79297">
        <ele>1643.7</ele>
      </trkpt>
      <trkpt lat="45.59321" lon="6.79297">
        <ele>1644.1</ele>
        <time>2022-08-11T08:55:38.000Z</time>
      </trkpt>
      <trkpt lat="45.59327" lon="6.79298">
        <ele>1644.9</ele>
      </trkpt>
      <trkpt lat="45.59332" lon="6.79299">
        <ele>1645.8</ele>
        <time>2022-08-11T08:55:34.000Z</time>
      </trkpt>
      <trkpt lat="45.59335" lon="6.793">
        <ele>1646.4</ele>
        <time>2022-08-11T08:55:33.000Z</time>
      </trkpt>
      <trkpt lat="45.59339" lon="6.79301">
        <ele>1647</ele>
      </trkpt>
      <trkpt lat="45.59344" lon="6.79302">
        <ele>1647.6</ele>
        <time>2022-08-11T08:55:30.000Z</time>
      </trkpt>
      <trkpt lat="45.59349" lon="6.79301">
        <ele>1647.9</ele>
        <time>2022-08-11T08:55:28.000Z</time>
      </trkpt>
      <trkpt lat="45.59355" lon="6.793">
        <ele>1648</ele>
        <time>2022-08-11T08:55:26.000Z</time>
      </trkpt>
      <trkpt lat="45.5936" lon="6.79301">
        <ele>1648.8</ele>
        <time>2022-08-11T08:55:24.000Z</time>
      </trkpt>
      <trkpt lat="45.59362" lon="6.79303">
        <ele>1649.2</ele>
        <time>2022-08-11T08:55:23.000Z</time>
      </trkpt>
      <trkpt lat="45.59363" lon="6.79304">
        <ele>1649.5</ele>
        <time>2022-08-11T08:55:22.000Z</time>
      </trkpt>
      <trkpt lat="45.59364" lon="6.79309">
        <ele>1650.2</ele>
        <time>2022-08-11T08:55:20.000Z</time>
      </trkpt>
      <trkpt lat="45.59363" lon="6.79311">
        <ele>1650.7</ele>
        <time>2022-08-11T08:55:19.000Z</time>
      </trkpt>
      <trkpt lat="45.59355" lon="6.79312">
        <ele>1650.8</ele>
      </trkpt>
      <trkpt lat="45.59348" lon="6.79313">
        <ele>1650.6</ele>
        <time>2022-08-11T08:55:14.000Z</time>
      </trkpt>
      <trkpt lat="45.59339" lon="6.79313">
        <ele>1650.2</ele>
        <time>2022-08-11T08:55:11.000Z</time>
      </trkpt>
      <trkpt lat="45.59333" lon="6.79315">
        <ele>1650.2</ele>
      </trkpt>
      <trkpt lat="45.59327" lon="6.79316">
        <ele>1650.1</ele>
        <time>2022-08-11T08:55:07.000Z</time>
      </trkpt>
      <trkpt lat="45.59323" lon="6.79317">
        <ele>1650.2</ele>
        <time>2022-08-11T08:55:06.000Z</time>
      </trkpt>
      <trkpt lat="45.59316" lon="6.79321">
        <ele>1650.6</ele>
      </trkpt>
      <trkpt lat="45.59309" lon="6.79324">
        <ele>1651.1</ele>
        <time>2022-08-11T08:55:01.000Z</time>
      </trkpt>
      <trkpt lat="45.59305" lon="6.79325">
        <ele>1651.3</ele>
        <time>2022-08-11T08:55:00.000Z</time>
      </trkpt>
      <trkpt lat="45.593" lon="6.79327">
        <ele>1651.3</ele>
      </trkpt>
      <trkpt lat="45.59296" lon="6.79328">
        <ele>1651.3</ele>
        <time>2022-08-11T08:54:57.000Z</time>
      </trkpt>
      <trkpt lat="45.59289" lon="6.79331">
        <ele>1651.4</ele>
      </trkpt>
      <trkpt lat="45.59283" lon="6.79333">
        <ele>1651.5</ele>
        <time>2022-08-11T08:54:53.000Z</time>
      </trkpt>
      <trkpt lat="45.59278" lon="6.79336">
        <ele>1651.7</ele>
      </trkpt>
      <trkpt lat="45.59273" lon="6.79338">
        <ele>1651.7</ele>
        <time>2022-08-11T08:54:50.000Z</time>
      </trkpt>
      <trkpt lat="45.59267" lon="6.79344">
        <ele>1652.3</ele>
        <time>2022-08-11T08:54:47.000Z</time>
      </trkpt>
      <trkpt lat="45.59262" lon="6.79347">
        <ele>1652.8</ele>
      </trkpt>
      <trkpt lat="45.59258" lon="6.79351">
        <ele>1653.5</ele>
        <time>2022-08-11T08:54:43.000Z</time>
      </trkpt>
      <trkpt lat="45.59252" lon="6.79354">
        <ele>1653.5</ele>
        <time>2022-08-11T08:54:41.000Z</time>
      </trkpt>
      <trkpt lat="45.59245" lon="6.79359">
        <ele>1655.2</ele>
        <time>2022-08-11T08:54:38.000Z</time>
      </trkpt>
      <trkpt lat="45.59237" lon="6.79365">
        <ele>1657</ele>
      </trkpt>
      <trkpt lat="45.5923" lon="6.79371">
        <ele>1658.4</ele>
        <time>2022-08-11T08:54:32.000Z</time>
      </trkpt>
      <trkpt lat="45.59224" lon="6.79374">
        <ele>1658.8</ele>
      </trkpt>
      <trkpt lat="45.59217" lon="6.79377">
        <ele>1659.9</ele>
        <time>2022-08-11T08:54:27.000Z</time>
      </trkpt>
      <trkpt lat="45.59215" lon="6.79377">
        <ele>1660</ele>
        <time>2022-08-11T08:54:26.000Z</time>
      </trkpt>
      <trkpt lat="45.59207" lon="6.79376">
        <ele>1660.7</ele>
        <time>2022-08-11T08:54:23.000Z</time>
      </trkpt>
      <trkpt lat="45.59202" lon="6.79375">
        <ele>1660.9</ele>
      </trkpt>
      <trkpt lat="45.59197" lon="6.79374">
        <ele>1661.1</ele>
        <time>2022-08-11T08:54:20.000Z</time>
      </trkpt>
      <trkpt lat="45.59191" lon="6.79374">
        <ele>1661.5</ele>
        <time>2022-08-11T08:54:18.000Z</time>
      </trkpt>
      <trkpt lat="45.59189" lon="6.79373">
        <ele>1661.6</ele>
        <time>2022-08-11T08:54:17.000Z</time>
      </trkpt>
      <trkpt lat="45.59183" lon="6.79372">
        <ele>1661.8</ele>
        <time>2022-08-11T08:54:15.000Z</time>
      </trkpt>
      <trkpt lat="45.59177" lon="6.79372">
        <ele>1662.2</ele>
        <time>2022-08-11T08:54:13.000Z</time>
      </trkpt>
      <trkpt lat="45.59168" lon="6.79371">
        <ele>1662.7</ele>
        <time>2022-08-11T08:54:10.000Z</time>
      </trkpt>
      <trkpt lat="45.59162" lon="6.79371">
        <ele>1662.9</ele>
      </trkpt>
      <trkpt lat="45.59157" lon="6.79371">
        <ele>1663</ele>
        <time>2022-08-11T08:54:06.000Z</time>
      </trkpt>
      <trkpt lat="45.59153" lon="6.79371">
        <ele>1663</ele>
        <time>2022-08-11T08:54:05.000Z</time>
      </trkpt>
      <trkpt lat="45.59148" lon="6.79373">
        <ele>1663.4</ele>
      </trkpt>
      <trkpt lat="45.59143" lon="6.79374">
        <ele>1663.7</ele>
      </trkpt>
      <trkpt lat="45.59138" lon="6.79375">
        <ele>1664</ele>
      </trkpt>
      <trkpt lat="45.59133" lon="6.79377">
        <ele>1664.3</ele>
        <time>2022-08-11T08:53:58.000Z</time>
      </trkpt>
      <trkpt lat="45.5913" lon="6.79377">
        <ele>1664.3</ele>
        <time>2022-08-11T08:53:57.000Z</time>
      </trkpt>
      <trkpt lat="45.59127" lon="6.79378">
        <ele>1664.5</ele>
        <time>2022-08-11T08:53:56.000Z</time>
      </trkpt>
      <trkpt lat="45.59123" lon="6.7938">
        <ele>1664.9</ele>
      </trkpt>
      <trkpt lat="45.59119" lon="6.79382">
        <ele>1665.3</ele>
      </trkpt>
      <trkpt lat="45.59115" lon="6.79384">
        <ele>1665.8</ele>
      </trkpt>
      <trkpt lat="45.5911" lon="6.79386">
        <ele>1666.4</ele>
        <time>2022-08-11T08:53:50.000Z</time>
      </trkpt>
      <trkpt lat="45.59104" lon="6.79388">
        <ele>1667.4</ele>
      </trkpt>
      <trkpt lat="45.59097" lon="6.79391">
        <ele>1668.4</ele>
        <time>2022-08-11T08:53:45.000Z</time>
      </trkpt>
      <trkpt lat="45.59094" lon="6.79398">
        <ele>1670.3</ele>
        <time>2022-08-11T08:53:39.000Z</time>
      </trkpt>
      <trkpt lat="45.59094" lon="6.79398">
        <ele>1670.3</ele>
        <time>2022-08-11T08:53:38.000Z</time>
      </trkpt>
      <trkpt lat="45.59099" lon="6.79396">
        <ele>1669.6</ele>
        <time>2022-08-11T08:53:35.000Z</time>
      </trkpt>
      <trkpt lat="45.59104" lon="6.79395">
        <ele>1669.1</ele>
        <time>2022-08-11T08:53:33.000Z</time>
      </trkpt>
      <trkpt lat="45.59112" lon="6.79395">
        <ele>1668.6</ele>
      </trkpt>
      <trkpt lat="45.5912" lon="6.79395">
        <ele>1668.6</ele>
        <time>2022-08-11T08:53:26.000Z</time>
      </trkpt>
      <trkpt lat="45.59125" lon="6.79395">
        <ele>1669</ele>
      </trkpt>
      <trkpt lat="45.5913" lon="6.79396">
        <ele>1669.4</ele>
      </trkpt>
      <trkpt lat="45.59135" lon="6.79397">
        <ele>1669.9</ele>
      </trkpt>
      <trkpt lat="45.5914" lon="6.79398">
        <ele>1670.3</ele>
        <time>2022-08-11T08:53:19.000Z</time>
      </trkpt>
      <trkpt lat="45.59147" lon="6.79401">
        <ele>1670.7</ele>
      </trkpt>
      <trkpt lat="45.59154" lon="6.79403">
        <ele>1671</ele>
        <time>2022-08-11T08:53:14.000Z</time>
      </trkpt>
      <trkpt lat="45.59157" lon="6.79403">
        <ele>1670.9</ele>
        <time>2022-08-11T08:53:13.000Z</time>
      </trkpt>
      <trkpt lat="45.59163" lon="6.79403">
        <ele>1670.4</ele>
        <time>2022-08-11T08:53:11.000Z</time>
      </trkpt>
      <trkpt lat="45.59169" lon="6.79405">
        <ele>1670.5</ele>
      </trkpt>
      <trkpt lat="45.59175" lon="6.79407">
        <ele>1670.7</ele>
        <time>2022-08-11T08:53:07.000Z</time>
      </trkpt>
      <trkpt lat="45.59178" lon="6.7941">
        <ele>1671.2</ele>
        <time>2022-08-11T08:53:06.000Z</time>
      </trkpt>
      <trkpt lat="45.59182" lon="6.79412">
        <ele>1671.7</ele>
      </trkpt>
      <trkpt lat="45.59186" lon="6.79415">
        <ele>1672.2</ele>
      </trkpt>
      <trkpt lat="45.5919" lon="6.79418">
        <ele>1672.6</ele>
      </trkpt>
      <trkpt lat="45.59194" lon="6.79421">
        <ele>1673</ele>
        <time>2022-08-11T08:53:00.000Z</time>
      </trkpt>
      <trkpt lat="45.59199" lon="6.79425">
        <ele>1673.5</ele>
      </trkpt>
      <trkpt lat="45.59203" lon="6.79429">
        <ele>1674</ele>
        <time>2022-08-11T08:52:57.000Z</time>
      </trkpt>
      <trkpt lat="45.59211" lon="6.79434">
        <ele>1674.5</ele>
        <time>2022-08-11T08:52:54.000Z</time>
      </trkpt>
      <trkpt lat="45.59217" lon="6.79436">
        <ele>1674.5</ele>
        <time>2022-08-11T08:52:52.000Z</time>
      </trkpt>
      <trkpt lat="45.59224" lon="6.79439">
        <ele>1674.8</ele>
      </trkpt>
      <trkpt lat="45.59231" lon="6.79443">
        <ele>1676.1</ele>
        <time>2022-08-11T08:52:47.000Z</time>
      </trkpt>
      <trkpt lat="45.59233" lon="6.79443">
        <ele>1676.4</ele>
        <time>2022-08-11T08:52:46.000Z</time>
      </trkpt>
      <trkpt lat="45.59239" lon="6.79444">
        <ele>1677</ele>
        <time>2022-08-11T08:52:44.000Z</time>
      </trkpt>
      <trkpt lat="45.59244" lon="6.79444">
        <ele>1677.6</ele>
      </trkpt>
      <trkpt lat="45.5925" lon="6.79445">
        <ele>1678.2</ele>
        <time>2022-08-11T08:52:40.000Z</time>
      </trkpt>
      <trkpt lat="45.59253" lon="6.79446">
        <ele>1678.5</ele>
        <time>2022-08-11T08:52:39.000Z</time>
      </trkpt>
      <trkpt lat="45.59256" lon="6.79446">
        <ele>1678.8</ele>
        <time>2022-08-11T08:52:38.000Z</time>
      </trkpt>
      <trkpt lat="45.59264" lon="6.79448">
        <ele>1679.7</ele>
        <time>2022-08-11T08:52:35.000Z</time>
      </trkpt>
      <trkpt lat="45.59269" lon="6.7945">
        <ele>1680.5</ele>
        <time>2022-08-11T08:52:33.000Z</time>
      </trkpt>
      <trkpt lat="45.59277" lon="6.79454">
        <ele>1681.7</ele>
        <time>2022-08-11T08:52:30.000Z</time>
      </trkpt>
      <trkpt lat="45.59282" lon="6.79458">
        <ele>1682.2</ele>
      </trkpt>
      <trkpt lat="45.59287" lon="6.79462">
        <ele>1682.7</ele>
        <time>2022-08-11T08:52:26.000Z</time>
      </trkpt>
      <trkpt lat="45.59292" lon="6.79465">
        <ele>1683</ele>
        <time>2022-08-11T08:52:24.000Z</time>
      </trkpt>
      <trkpt lat="45.59294" lon="6.79466">
        <ele>1683.2</ele>
        <time>2022-08-11T08:52:23.000Z</time>
      </trkpt>
      <trkpt lat="45.59301" lon="6.79471">
        <ele>1683.8</ele>
      </trkpt>
      <trkpt lat="45.59307" lon="6.79475">
        <ele>1684.2</ele>
        <time>2022-08-11T08:52:18.000Z</time>
      </trkpt>
      <trkpt lat="45.5931" lon="6.79477">
        <ele>1684.3</ele>
        <time>2022-08-11T08:52:17.000Z</time>
      </trkpt>
      <trkpt lat="45.59315" lon="6.79486">
        <ele>1685</ele>
      </trkpt>
      <trkpt lat="45.5932" lon="6.79494">
        <ele>1685.7</ele>
        <time>2022-08-11T08:52:12.000Z</time>
      </trkpt>
      <trkpt lat="45.59324" lon="6.79501">
        <ele>1686.2</ele>
      </trkpt>
      <trkpt lat="45.59327" lon="6.79508">
        <ele>1687</ele>
        <time>2022-08-11T08:52:08.000Z</time>
      </trkpt>
      <trkpt lat="45.59334" lon="6.79516">
        <ele>1687.6</ele>
        <time>2022-08-11T08:52:05.000Z</time>
      </trkpt>
      <trkpt lat="45.59338" lon="6.79522">
        <ele>1688</ele>
      </trkpt>
      <trkpt lat="45.59342" lon="6.79528">
        <ele>1688.2</ele>
        <time>2022-08-11T08:52:01.000Z</time>
      </trkpt>
      <trkpt lat="45.59344" lon="6.79531">
        <ele>1688.4</ele>
        <time>2022-08-11T08:52:00.000Z</time>
      </trkpt>
      <trkpt lat="45.5935" lon="6.79538">
        <ele>1688.6</ele>
      </trkpt>
      <trkpt lat="45.59355" lon="6.79545">
        <ele>1688.9</ele>
        <time>2022-08-11T08:51:55.000Z</time>
      </trkpt>
      <trkpt lat="45.59362" lon="6.79553">
        <ele>1689.4</ele>
        <time>2022-08-11T08:51:52.000Z</time>
      </trkpt>
      <trkpt lat="45.59366" lon="6.79559">
        <ele>1689.9</ele>
        <time>2022-08-11T08:51:50.000Z</time>
      </trkpt>
      <trkpt lat="45.5937" lon="6.79565">
        <ele>1690.3</ele>
        <time>2022-08-11T08:51:48.000Z</time>
      </trkpt>
      <trkpt lat="45.59376" lon="6.7957">
        <ele>1690.5</ele>
        <time>2022-08-11T08:51:46.000Z</time>
      </trkpt>
      <trkpt lat="45.59378" lon="6.79572">
        <ele>1690.6</ele>
        <time>2022-08-11T08:51:45.000Z</time>
      </trkpt>
      <trkpt lat="45.59381" lon="6.79577">
        <ele>1691</ele>
      </trkpt>
      <trkpt lat="45.59384" lon="6.79581">
        <ele>1691.3</ele>
        <time>2022-08-11T08:51:42.000Z</time>
      </trkpt>
      <trkpt lat="45.59392" lon="6.79589">
        <ele>1691.8</ele>
        <time>2022-08-11T08:51:39.000Z</time>
      </trkpt>
      <trkpt lat="45.59393" lon="6.79591">
        <ele>1692.1</ele>
        <time>2022-08-11T08:51:38.000Z</time>
      </trkpt>
      <trkpt lat="45.59397" lon="6.79598">
        <ele>1692.7</ele>
      </trkpt>
      <trkpt lat="45.59401" lon="6.79605">
        <ele>1693.1</ele>
        <time>2022-08-11T08:51:34.000Z</time>
      </trkpt>
      <trkpt lat="45.59403" lon="6.79612">
        <ele>1694</ele>
        <time>2022-08-11T08:51:32.000Z</time>
      </trkpt>
      <trkpt lat="45.59404" lon="6.79622">
        <ele>1694.4</ele>
        <time>2022-08-11T08:51:30.000Z</time>
      </trkpt>
      <trkpt lat="45.59404" lon="6.79629">
        <ele>1695</ele>
      </trkpt>
      <trkpt lat="45.59403" lon="6.79636">
        <ele>1695.7</ele>
        <time>2022-08-11T08:51:27.000Z</time>
      </trkpt>
      <trkpt lat="45.59402" lon="6.79645">
        <ele>1696.8</ele>
        <time>2022-08-11T08:51:25.000Z</time>
      </trkpt>
      <trkpt lat="45.59401" lon="6.7965">
        <ele>1697.3</ele>
        <time>2022-08-11T08:51:24.000Z</time>
      </trkpt>
      <trkpt lat="45.59401" lon="6.79655">
        <ele>1697.9</ele>
        <time>2022-08-11T08:51:23.000Z</time>
      </trkpt>
      <trkpt lat="45.594" lon="6.7966">
        <ele>1698.6</ele>
        <time>2022-08-11T08:51:22.000Z</time>
      </trkpt>
      <trkpt lat="45.594" lon="6.79668">
        <ele>1699.4</ele>
      </trkpt>
      <trkpt lat="45.594" lon="6.79675">
        <ele>1700.4</ele>
        <time>2022-08-11T08:51:19.000Z</time>
      </trkpt>
      <trkpt lat="45.594" lon="6.79684">
        <ele>1701.4</ele>
      </trkpt>
      <trkpt lat="45.594" lon="6.79693">
        <ele>1702.4</ele>
        <time>2022-08-11T08:51:16.000Z</time>
      </trkpt>
      <trkpt lat="45.59402" lon="6.79704">
        <ele>1703.4</ele>
      </trkpt>
      <trkpt lat="45.59404" lon="6.79716">
        <ele>1704.4</ele>
        <time>2022-08-11T08:51:11.000Z</time>
      </trkpt>
      <trkpt lat="45.59409" lon="6.79721">
        <ele>1704.3</ele>
        <time>2022-08-11T08:51:09.000Z</time>
      </trkpt>
      <trkpt lat="45.59415" lon="6.79724">
        <ele>1703.7</ele>
        <time>2022-08-11T08:51:07.000Z</time>
      </trkpt>
      <trkpt lat="45.59419" lon="6.79728">
        <ele>1703.9</ele>
      </trkpt>
      <trkpt lat="45.59424" lon="6.79731">
        <ele>1704.3</ele>
        <time>2022-08-11T08:51:04.000Z</time>
      </trkpt>
      <trkpt lat="45.5943" lon="6.79738">
        <ele>1705.3</ele>
        <time>2022-08-11T08:51:02.000Z</time>
      </trkpt>
      <trkpt lat="45.59436" lon="6.79745">
        <ele>1706.4</ele>
        <time>2022-08-11T08:51:00.000Z</time>
      </trkpt>
      <trkpt lat="45.59442" lon="6.79752">
        <ele>1707.4</ele>
        <time>2022-08-11T08:50:58.000Z</time>
      </trkpt>
      <trkpt lat="45.59448" lon="6.79759">
        <ele>1708.5</ele>
        <time>2022-08-11T08:50:56.000Z</time>
      </trkpt>
      <trkpt lat="45.59452" lon="6.79765">
        <ele>1709.3</ele>
      </trkpt>
      <trkpt lat="45.59456" lon="6.7977">
        <ele>1710.1</ele>
        <time>2022-08-11T08:50:53.000Z</time>
      </trkpt>
      <trkpt lat="45.59462" lon="6.79776">
        <ele>1710.9</ele>
        <time>2022-08-11T08:50:51.000Z</time>
      </trkpt>
      <trkpt lat="45.59465" lon="6.79778">
        <ele>1711.2</ele>
        <time>2022-08-11T08:50:50.000Z</time>
      </trkpt>
      <trkpt lat="45.59472" lon="6.79781">
        <ele>1711.8</ele>
        <time>2022-08-11T08:50:48.000Z</time>
      </trkpt>
      <trkpt lat="45.59474" lon="6.79784">
        <ele>1712.3</ele>
        <time>2022-08-11T08:50:47.000Z</time>
      </trkpt>
      <trkpt lat="45.59476" lon="6.79788">
        <ele>1713.1</ele>
        <time>2022-08-11T08:50:46.000Z</time>
      </trkpt>
      <trkpt lat="45.59476" lon="6.79797">
        <ele>1715</ele>
        <time>2022-08-11T08:50:44.000Z</time>
      </trkpt>
      <trkpt lat="45.59473" lon="6.79805">
        <ele>1716.8</ele>
        <time>2022-08-11T08:50:42.000Z</time>
      </trkpt>
      <trkpt lat="45.59471" lon="6.79808">
        <ele>1717.6</ele>
        <time>2022-08-11T08:50:41.000Z</time>
      </trkpt>
      <trkpt lat="45.59468" lon="6.79809">
        <ele>1718.2</ele>
        <time>2022-08-11T08:50:40.000Z</time>
      </trkpt>
      <trkpt lat="45.5946" lon="6.7981">
        <ele>1718.9</ele>
        <time>2022-08-11T08:50:38.000Z</time>
      </trkpt>
      <trkpt lat="45.59457" lon="6.79812">
        <ele>1719.4</ele>
        <time>2022-08-11T08:50:37.000Z</time>
      </trkpt>
      <trkpt lat="45.59454" lon="6.79814">
        <ele>1720.1</ele>
        <time>2022-08-11T08:50:36.000Z</time>
      </trkpt>
      <trkpt lat="45.5945" lon="6.79823">
        <ele>1721.9</ele>
        <time>2022-08-11T08:50:34.000Z</time>
      </trkpt>
      <trkpt lat="45.59451" lon="6.79832">
        <ele>1723.8</ele>
        <time>2022-08-11T08:50:32.000Z</time>
      </trkpt>
      <trkpt lat="45.59453" lon="6.79836">
        <ele>1724.7</ele>
        <time>2022-08-11T08:50:31.000Z</time>
      </trkpt>
      <trkpt lat="45.59459" lon="6.7984">
        <ele>1726</ele>
        <time>2022-08-11T08:50:29.000Z</time>
      </trkpt>
      <trkpt lat="45.59464" lon="6.79844">
        <ele>1727</ele>
      </trkpt>
      <trkpt lat="45.5947" lon="6.79848">
        <ele>1727.8</ele>
        <time>2022-08-11T08:50:25.000Z</time>
      </trkpt>
      <trkpt lat="45.59472" lon="6.79851">
        <ele>1728.4</ele>
        <time>2022-08-11T08:50:24.000Z</time>
      </trkpt>
      <trkpt lat="45.59476" lon="6.79854">
        <ele>1728.7</ele>
      </trkpt>
      <trkpt lat="45.5948" lon="6.79858">
        <ele>1729</ele>
        <time>2022-08-11T08:50:21.000Z</time>
      </trkpt>
      <trkpt lat="45.59487" lon="6.79864">
        <ele>1729.6</ele>
      </trkpt>
      <trkpt lat="45.59494" lon="6.7987">
        <ele>1730.5</ele>
        <time>2022-08-11T08:50:16.000Z</time>
      </trkpt>
      <trkpt lat="45.595" lon="6.79875">
        <ele>1731.4</ele>
        <time>2022-08-11T08:50:14.000Z</time>
      </trkpt>
      <trkpt lat="45.59506" lon="6.7988">
        <ele>1731.6</ele>
        <time>2022-08-11T08:50:12.000Z</time>
      </trkpt>
      <trkpt lat="45.59508" lon="6.79882">
        <ele>1731.8</ele>
        <time>2022-08-11T08:50:11.000Z</time>
      </trkpt>
      <trkpt lat="45.59515" lon="6.7989">
        <ele>1731.7</ele>
      </trkpt>
      <trkpt lat="45.59523" lon="6.79897">
        <ele>1731.2</ele>
        <time>2022-08-11T08:50:05.000Z</time>
      </trkpt>
      <trkpt lat="45.5953" lon="6.79901">
        <ele>1730.7</ele>
      </trkpt>
      <trkpt lat="45.59537" lon="6.79905">
        <ele>1731.7</ele>
        <time>2022-08-11T08:50:00.000Z</time>
      </trkpt>
      <trkpt lat="45.5954" lon="6.79906">
        <ele>1731.9</ele>
        <time>2022-08-11T08:49:59.000Z</time>
      </trkpt>
      <trkpt lat="45.59549" lon="6.79907">
        <ele>1732.2</ele>
        <time>2022-08-11T08:49:56.000Z</time>
      </trkpt>
      <trkpt lat="45.59555" lon="6.79912">
        <ele>1733.1</ele>
        <time>2022-08-11T08:49:54.000Z</time>
      </trkpt>
      <trkpt lat="45.59563" lon="6.79917">
        <ele>1734.3</ele>
      </trkpt>
      <trkpt lat="45.5957" lon="6.79922">
        <ele>1736.1</ele>
        <time>2022-08-11T08:49:49.000Z</time>
      </trkpt>
      <trkpt lat="45.59576" lon="6.79925">
        <ele>1737.5</ele>
        <time>2022-08-11T08:49:47.000Z</time>
      </trkpt>
      <trkpt lat="45.59582" lon="6.79927">
        <ele>1738.5</ele>
        <time>2022-08-11T08:49:45.000Z</time>
      </trkpt>
      <trkpt lat="45.59589" lon="6.79927">
        <ele>1739.7</ele>
        <time>2022-08-11T08:49:43.000Z</time>
      </trkpt>
      <trkpt lat="45.59596" lon="6.79925">
        <ele>1740.7</ele>
        <time>2022-08-11T08:49:41.000Z</time>
      </trkpt>
      <trkpt lat="45.59599" lon="6.79925">
        <ele>1741</ele>
        <time>2022-08-11T08:49:40.000Z</time>
      </trkpt>
      <trkpt lat="45.59604" lon="6.79924">
        <ele>1741.5</ele>
      </trkpt>
      <trkpt lat="45.59609" lon="6.79923">
        <ele>1742.1</ele>
      </trkpt>
      <trkpt lat="45.59614" lon="6.79921">
        <ele>1742.9</ele>
      </trkpt>
      <trkpt lat="45.59618" lon="6.7992">
        <ele>1744.2</ele>
        <time>2022-08-11T08:49:34.000Z</time>
      </trkpt>
      <trkpt lat="45.59626" lon="6.79918">
        <ele>1745.8</ele>
      </trkpt>
      <trkpt lat="45.59634" lon="6.79915">
        <ele>1747.5</ele>
        <time>2022-08-11T08:49:29.000Z</time>
      </trkpt>
      <trkpt lat="45.59642" lon="6.79914">
        <ele>1749.1</ele>
        <time>2022-08-11T08:49:26.000Z</time>
      </trkpt>
      <trkpt lat="45.59648" lon="6.79914">
        <ele>1749.4</ele>
        <time>2022-08-11T08:49:24.000Z</time>
      </trkpt>
      <trkpt lat="45.59656" lon="6.79915">
        <ele>1750</ele>
      </trkpt>
      <trkpt lat="45.59664" lon="6.79915">
        <ele>1750.5</ele>
        <time>2022-08-11T08:49:19.000Z</time>
      </trkpt>
      <trkpt lat="45.59666" lon="6.79917">
        <ele>1751</ele>
        <time>2022-08-11T08:49:18.000Z</time>
      </trkpt>
      <trkpt lat="45.59674" lon="6.79919">
        <ele>1751.1</ele>
        <time>2022-08-11T08:49:15.000Z</time>
      </trkpt>
      <trkpt lat="45.59678" lon="6.79921">
        <ele>1751.1</ele>
      </trkpt>
      <trkpt lat="45.59682" lon="6.79923">
        <ele>1751.2</ele>
        <time>2022-08-11T08:49:12.000Z</time>
      </trkpt>
      <trkpt lat="45.59687" lon="6.7993">
        <ele>1752.4</ele>
      </trkpt>
      <trkpt lat="45.59691" lon="6.79936">
        <ele>1753.4</ele>
        <time>2022-08-11T08:49:08.000Z</time>
      </trkpt>
      <trkpt lat="45.59696" lon="6.79942">
        <ele>1754.2</ele>
        <time>2022-08-11T08:49:06.000Z</time>
      </trkpt>
      <trkpt lat="45.597" lon="6.79944">
        <ele>1754.3</ele>
      </trkpt>
      <trkpt lat="45.59705" lon="6.79947">
        <ele>1754.5</ele>
      </trkpt>
      <trkpt lat="45.59709" lon="6.79949">
        <ele>1754.6</ele>
      </trkpt>
      <trkpt lat="45.59713" lon="6.79952">
        <ele>1754.6</ele>
        <time>2022-08-11T08:49:00.000Z</time>
      </trkpt>
      <trkpt lat="45.59717" lon="6.79955">
        <ele>1754.8</ele>
      </trkpt>
      <trkpt lat="45.59721" lon="6.79957">
        <ele>1754.9</ele>
        <time>2022-08-11T08:48:57.000Z</time>
      </trkpt>
      <trkpt lat="45.59726" lon="6.79964">
        <ele>1755.3</ele>
        <time>2022-08-11T08:48:55.000Z</time>
      </trkpt>
      <trkpt lat="45.5973" lon="6.7997">
        <ele>1755.6</ele>
      </trkpt>
      <trkpt lat="45.59734" lon="6.79976">
        <ele>1755.4</ele>
        <time>2022-08-11T08:48:51.000Z</time>
      </trkpt>
      <trkpt lat="45.59739" lon="6.79982">
        <ele>1755.1</ele>
        <time>2022-08-11T08:48:49.000Z</time>
      </trkpt>
      <trkpt lat="45.59744" lon="6.79988">
        <ele>1754.9</ele>
        <time>2022-08-11T08:48:47.000Z</time>
      </trkpt>
      <trkpt lat="45.59749" lon="6.79999">
        <ele>1756</ele>
        <time>2022-08-11T08:48:44.000Z</time>
      </trkpt>
      <trkpt lat="45.59749" lon="6.80003">
        <ele>1756.8</ele>
        <time>2022-08-11T08:48:43.000Z</time>
      </trkpt>
      <trkpt lat="45.59751" lon="6.8001">
        <ele>1757.8</ele>
        <time>2022-08-11T08:48:41.000Z</time>
      </trkpt>
      <trkpt lat="45.59752" lon="6.80016">
        <ele>1759</ele>
      </trkpt>
      <trkpt lat="45.59753" lon="6.80023">
        <ele>1760.2</ele>
        <time>2022-08-11T08:48:38.000Z</time>
      </trkpt>
      <trkpt lat="45.59756" lon="6.80029">
        <ele>1760.6</ele>
      </trkpt>
      <trkpt lat="45.5976" lon="6.80035">
        <ele>1761.2</ele>
        <time>2022-08-11T08:48:35.000Z</time>
      </trkpt>
      <trkpt lat="45.59763" lon="6.80043">
        <ele>1762.3</ele>
        <time>2022-08-11T08:48:33.000Z</time>
      </trkpt>
      <trkpt lat="45.59767" lon="6.80049">
        <ele>1762.9</ele>
        <time>2022-08-11T08:48:31.000Z</time>
      </trkpt>
      <trkpt lat="45.59772" lon="6.80055">
        <ele>1763.3</ele>
      </trkpt>
      <trkpt lat="45.59776" lon="6.80061">
        <ele>1764.2</ele>
        <time>2022-08-11T08:48:27.000Z</time>
      </trkpt>
      <trkpt lat="45.59779" lon="6.80063">
        <ele>1764.6</ele>
        <time>2022-08-11T08:48:26.000Z</time>
      </trkpt>
      <trkpt lat="45.59784" lon="6.80069">
        <ele>1766.6</ele>
        <time>2022-08-11T08:48:23.000Z</time>
      </trkpt>
      <trkpt lat="45.59792" lon="6.80072">
        <ele>1767.4</ele>
        <time>2022-08-11T08:48:20.000Z</time>
      </trkpt>
      <trkpt lat="45.59794" lon="6.80073">
        <ele>1767.7</ele>
        <time>2022-08-11T08:48:19.000Z</time>
      </trkpt>
      <trkpt lat="45.59797" lon="6.80075">
        <ele>1768.1</ele>
        <time>2022-08-11T08:48:18.000Z</time>
      </trkpt>
      <trkpt lat="45.59801" lon="6.80077">
        <ele>1768.7</ele>
      </trkpt>
      <trkpt lat="45.59806" lon="6.8008">
        <ele>1769.2</ele>
      </trkpt>
      <trkpt lat="45.5981" lon="6.80083">
        <ele>1769.7</ele>
      </trkpt>
      <trkpt lat="45.59815" lon="6.80085">
        <ele>1770</ele>
        <time>2022-08-11T08:48:12.000Z</time>
      </trkpt>
      <trkpt lat="45.5982" lon="6.80089">
        <ele>1770.5</ele>
        <time>2022-08-11T08:48:10.000Z</time>
      </trkpt>
      <trkpt lat="45.59823" lon="6.80091">
        <ele>1770.7</ele>
        <time>2022-08-11T08:48:09.000Z</time>
      </trkpt>
      <trkpt lat="45.59829" lon="6.80097">
        <ele>1771.9</ele>
      </trkpt>
      <trkpt lat="45.59835" lon="6.80103">
        <ele>1773.1</ele>
        <time>2022-08-11T08:48:04.000Z</time>
      </trkpt>
      <trkpt lat="45.59837" lon="6.80106">
        <ele>1773.4</ele>
        <time>2022-08-11T08:48:03.000Z</time>
      </trkpt>
      <trkpt lat="45.59843" lon="6.80113">
        <ele>1774.2</ele>
        <time>2022-08-11T08:48:00.000Z</time>
      </trkpt>
      <trkpt lat="45.59848" lon="6.80118">
        <ele>1774.3</ele>
      </trkpt>
      <trkpt lat="45.59852" lon="6.80122">
        <ele>1774.3</ele>
        <time>2022-08-11T08:47:56.000Z</time>
      </trkpt>
      <trkpt lat="45.59854" lon="6.80126">
        <ele>1774.6</ele>
        <time>2022-08-11T08:47:55.000Z</time>
      </trkpt>
      <trkpt lat="45.59857" lon="6.80135">
        <ele>1775.1</ele>
      </trkpt>
      <trkpt lat="45.59861" lon="6.80144">
        <ele>1775.6</ele>
        <time>2022-08-11T08:47:50.000Z</time>
      </trkpt>
      <trkpt lat="45.59861" lon="6.80148">
        <ele>1775.9</ele>
        <time>2022-08-11T08:47:49.000Z</time>
      </trkpt>
      <trkpt lat="45.59864" lon="6.80155">
        <ele>1776.4</ele>
      </trkpt>
      <trkpt lat="45.59866" lon="6.80163">
        <ele>1776.8</ele>
        <time>2022-08-11T08:47:45.000Z</time>
      </trkpt>
      <trkpt lat="45.59867" lon="6.80171">
        <ele>1777.3</ele>
        <time>2022-08-11T08:47:43.000Z</time>
      </trkpt>
      <trkpt lat="45.59868" lon="6.80176">
        <ele>1777.6</ele>
        <time>2022-08-11T08:47:42.000Z</time>
      </trkpt>
      <trkpt lat="45.59869" lon="6.80182">
        <ele>1777.8</ele>
      </trkpt>
      <trkpt lat="45.59871" lon="6.80188">
        <ele>1778</ele>
      </trkpt>
      <trkpt lat="45.59873" lon="6.80194">
        <ele>1778.1</ele>
      </trkpt>
      <trkpt lat="45.59874" lon="6.802">
        <ele>1778.1</ele>
        <time>2022-08-11T08:47:36.000Z</time>
      </trkpt>
      <trkpt lat="45.59877" lon="6.80209">
        <ele>1778</ele>
        <time>2022-08-11T08:47:34.000Z</time>
      </trkpt>
      <trkpt lat="45.59878" lon="6.80213">
        <ele>1778</ele>
        <time>2022-08-11T08:47:33.000Z</time>
      </trkpt>
      <trkpt lat="45.59882" lon="6.8022">
        <ele>1777.7</ele>
      </trkpt>
      <trkpt lat="45.59885" lon="6.80227">
        <ele>1777.7</ele>
        <time>2022-08-11T08:47:29.000Z</time>
      </trkpt>
      <trkpt lat="45.59887" lon="6.8023">
        <ele>1777.6</ele>
        <time>2022-08-11T08:47:28.000Z</time>
      </trkpt>
      <trkpt lat="45.5989" lon="6.80236">
        <ele>1777.7</ele>
        <time>2022-08-11T08:47:26.000Z</time>
      </trkpt>
      <trkpt lat="45.59894" lon="6.80242">
        <ele>1778.2</ele>
      </trkpt>
      <trkpt lat="45.59897" lon="6.80249">
        <ele>1778.6</ele>
        <time>2022-08-11T08:47:22.000Z</time>
      </trkpt>
      <trkpt lat="45.59899" lon="6.80252">
        <ele>1779</ele>
        <time>2022-08-11T08:47:21.000Z</time>
      </trkpt>
      <trkpt lat="45.599" lon="6.80257">
        <ele>1779.8</ele>
        <time>2022-08-11T08:47:20.000Z</time>
      </trkpt>
      <trkpt lat="45.59903" lon="6.80262">
        <ele>1780.4</ele>
      </trkpt>
      <trkpt lat="45.59906" lon="6.80267">
        <ele>1780.9</ele>
      </trkpt>
      <trkpt lat="45.59909" lon="6.80272">
        <ele>1781.4</ele>
      </trkpt>
      <trkpt lat="45.59912" lon="6.80278">
        <ele>1781.9</ele>
        <time>2022-08-11T08:47:14.000Z</time>
      </trkpt>
      <trkpt lat="45.59913" lon="6.80281">
        <ele>1782</ele>
        <time>2022-08-11T08:47:13.000Z</time>
      </trkpt>
      <trkpt lat="45.59917" lon="6.80285">
        <ele>1782.1</ele>
      </trkpt>
      <trkpt lat="45.5992" lon="6.8029">
        <ele>1782.2</ele>
      </trkpt>
      <trkpt lat="45.59924" lon="6.80294">
        <ele>1782.3</ele>
      </trkpt>
      <trkpt lat="45.59927" lon="6.80298">
        <ele>1782.3</ele>
        <time>2022-08-11T08:47:06.000Z</time>
      </trkpt>
      <trkpt lat="45.59929" lon="6.803">
        <ele>1782.1</ele>
        <time>2022-08-11T08:47:05.000Z</time>
      </trkpt>
      <trkpt lat="45.59934" lon="6.80304">
        <ele>1781.7</ele>
      </trkpt>
      <trkpt lat="45.59939" lon="6.80309">
        <ele>1781.1</ele>
        <time>2022-08-11T08:47:00.000Z</time>
      </trkpt>
      <trkpt lat="45.59944" lon="6.80312">
        <ele>1780.4</ele>
      </trkpt>
      <trkpt lat="45.59948" lon="6.80315">
        <ele>1780.2</ele>
        <time>2022-08-11T08:46:57.000Z</time>
      </trkpt>
      <trkpt lat="45.59952" lon="6.80318">
        <ele>1780.3</ele>
      </trkpt>
      <trkpt lat="45.59956" lon="6.80321">
        <ele>1780.4</ele>
        <time>2022-08-11T08:46:54.000Z</time>
      </trkpt>
      <trkpt lat="45.5996" lon="6.80325">
        <ele>1780.8</ele>
        <time>2022-08-11T08:46:52.000Z</time>
      </trkpt>
      <trkpt lat="45.59964" lon="6.80332">
        <ele>1781.5</ele>
        <time>2022-08-11T08:46:50.000Z</time>
      </trkpt>
      <trkpt lat="45.59966" lon="6.80338">
        <ele>1782.4</ele>
      </trkpt>
      <trkpt lat="45.59968" lon="6.80345">
        <ele>1783.2</ele>
        <time>2022-08-11T08:46:47.000Z</time>
      </trkpt>
      <trkpt lat="45.5997" lon="6.80349">
        <ele>1783.7</ele>
        <time>2022-08-11T08:46:46.000Z</time>
      </trkpt>
      <trkpt lat="45.59972" lon="6.80355">
        <ele>1784.3</ele>
      </trkpt>
      <trkpt lat="45.59975" lon="6.80361">
        <ele>1784.7</ele>
      </trkpt>
      <trkpt lat="45.59978" lon="6.80367">
        <ele>1785</ele>
      </trkpt>
      <trkpt lat="45.5998" lon="6.80373">
        <ele>1785.2</ele>
        <time>2022-08-11T08:46:39.000Z</time>
      </trkpt>
      <trkpt lat="45.59984" lon="6.80385">
        <ele>1785.5</ele>
        <time>2022-08-11T08:46:36.000Z</time>
      </trkpt>
      <trkpt lat="45.59987" lon="6.80392">
        <ele>1785.8</ele>
        <time>2022-08-11T08:46:34.000Z</time>
      </trkpt>
      <trkpt lat="45.59987" lon="6.80404">
        <ele>1787.3</ele>
        <time>2022-08-11T08:46:31.000Z</time>
      </trkpt>
      <trkpt lat="45.59989" lon="6.80412">
        <ele>1788.3</ele>
        <time>2022-08-11T08:46:29.000Z</time>
      </trkpt>
      <trkpt lat="45.59992" lon="6.80423">
        <ele>1788.5</ele>
      </trkpt>
      <trkpt lat="45.59995" lon="6.80434">
        <ele>1788.2</ele>
        <time>2022-08-11T08:46:23.000Z</time>
      </trkpt>
      <trkpt lat="45.59997" lon="6.80442">
        <ele>1788</ele>
        <time>2022-08-11T08:46:21.000Z</time>
      </trkpt>
      <trkpt lat="45.59998" lon="6.8045">
        <ele>1788</ele>
      </trkpt>
      <trkpt lat="45.59999" lon="6.80458">
        <ele>1788</ele>
        <time>2022-08-11T08:46:18.000Z</time>
      </trkpt>
      <trkpt lat="45.59997" lon="6.8047">
        <ele>1789</ele>
      </trkpt>
      <trkpt lat="45.59995" lon="6.80483">
        <ele>1790</ele>
        <time>2022-08-11T08:46:13.000Z</time>
      </trkpt>
      <trkpt lat="45.59993" lon="6.80491">
        <ele>1790.8</ele>
        <time>2022-08-11T08:46:11.000Z</time>
      </trkpt>
      <trkpt lat="45.59992" lon="6.80499">
        <ele>1791.5</ele>
      </trkpt>
      <trkpt lat="45.59991" lon="6.80507">
        <ele>1792.1</ele>
        <time>2022-08-11T08:46:07.000Z</time>
      </trkpt>
      <trkpt lat="45.5999" lon="6.80515">
        <ele>1792.5</ele>
        <time>2022-08-11T08:46:05.000Z</time>
      </trkpt>
      <trkpt lat="45.5999" lon="6.80519">
        <ele>1792.5</ele>
        <time>2022-08-11T08:46:04.000Z</time>
      </trkpt>
      <trkpt lat="45.59989" lon="6.80524">
        <ele>1792.8</ele>
        <time>2022-08-11T08:46:02.000Z</time>
      </trkpt>
      <trkpt lat="45.59987" lon="6.80526">
        <ele>1793.3</ele>
        <time>2022-08-11T08:46:01.000Z</time>
      </trkpt>
      <trkpt lat="45.59983" lon="6.80529">
        <ele>1794.3</ele>
        <time>2022-08-11T08:45:59.000Z</time>
      </trkpt>
      <trkpt lat="45.59982" lon="6.80533">
        <ele>1794.5</ele>
        <time>2022-08-11T08:45:57.000Z</time>
      </trkpt>
      <trkpt lat="45.59982" lon="6.80536">
        <ele>1794.6</ele>
        <time>2022-08-11T08:45:56.000Z</time>
      </trkpt>
      <trkpt lat="45.59981" lon="6.80542">
        <ele>1795.1</ele>
        <time>2022-08-11T08:45:54.000Z</time>
      </trkpt>
      <trkpt lat="45.59977" lon="6.80551">
        <ele>1795.9</ele>
      </trkpt>
      <trkpt lat="45.59974" lon="6.8056">
        <ele>1796.8</ele>
        <time>2022-08-11T08:45:49.000Z</time>
      </trkpt>
      <trkpt lat="45.59971" lon="6.80566">
        <ele>1797.7</ele>
      </trkpt>
      <trkpt lat="45.59969" lon="6.80573">
        <ele>1798.7</ele>
        <time>2022-08-11T08:45:46.000Z</time>
      </trkpt>
      <trkpt lat="45.59967" lon="6.80581">
        <ele>1799.6</ele>
        <time>2022-08-11T08:45:44.000Z</time>
      </trkpt>
      <trkpt lat="45.59966" lon="6.80586">
        <ele>1800.2</ele>
        <time>2022-08-11T08:45:43.000Z</time>
      </trkpt>
      <trkpt lat="45.59967" lon="6.80593">
        <ele>1801</ele>
      </trkpt>
      <trkpt lat="45.59967" lon="6.80599">
        <ele>1801.8</ele>
        <time>2022-08-11T08:45:40.000Z</time>
      </trkpt>
      <trkpt lat="45.59969" lon="6.80607">
        <ele>1802.3</ele>
      </trkpt>
      <trkpt lat="45.59971" lon="6.80615">
        <ele>1802.8</ele>
        <time>2022-08-11T08:45:36.000Z</time>
      </trkpt>
      <trkpt lat="45.59973" lon="6.80625">
        <ele>1803.4</ele>
        <time>2022-08-11T08:45:34.000Z</time>
      </trkpt>
      <trkpt lat="45.59974" lon="6.80629">
        <ele>1803.7</ele>
        <time>2022-08-11T08:45:33.000Z</time>
      </trkpt>
      <trkpt lat="45.59974" lon="6.80638">
        <ele>1804.7</ele>
        <time>2022-08-11T08:45:31.000Z</time>
      </trkpt>
      <trkpt lat="45.59973" lon="6.80646">
        <ele>1805.4</ele>
        <time>2022-08-11T08:45:29.000Z</time>
      </trkpt>
      <trkpt lat="45.59972" lon="6.80655">
        <ele>1806.3</ele>
        <time>2022-08-11T08:45:27.000Z</time>
      </trkpt>
      <trkpt lat="45.5997" lon="6.80666">
        <ele>1807.7</ele>
        <time>2022-08-11T08:45:25.000Z</time>
      </trkpt>
      <trkpt lat="45.59969" lon="6.80673">
        <ele>1809</ele>
      </trkpt>
      <trkpt lat="45.59967" lon="6.8068">
        <ele>1810.5</ele>
        <time>2022-08-11T08:45:22.000Z</time>
      </trkpt>
      <trkpt lat="45.59968" lon="6.80688">
        <ele>1811.2</ele>
        <time>2022-08-11T08:45:20.000Z</time>
      </trkpt>
      <trkpt lat="45.59968" lon="6.80693">
        <ele>1811.5</ele>
        <time>2022-08-11T08:45:19.000Z</time>
      </trkpt>
      <trkpt lat="45.5997" lon="6.807">
        <ele>1812.5</ele>
      </trkpt>
      <trkpt lat="45.59971" lon="6.80707">
        <ele>1813.9</ele>
        <time>2022-08-11T08:45:16.000Z</time>
      </trkpt>
      <trkpt lat="45.59974" lon="6.80715">
        <ele>1815</ele>
        <time>2022-08-11T08:45:14.000Z</time>
      </trkpt>
      <trkpt lat="45.59976" lon="6.80719">
        <ele>1815.5</ele>
        <time>2022-08-11T08:45:13.000Z</time>
      </trkpt>
      <trkpt lat="45.59979" lon="6.80727">
        <ele>1815.8</ele>
      </trkpt>
      <trkpt lat="45.59982" lon="6.80735">
        <ele>1815.8</ele>
        <time>2022-08-11T08:45:09.000Z</time>
      </trkpt>
      <trkpt lat="45.59983" lon="6.80744">
        <ele>1816.8</ele>
        <time>2022-08-11T08:45:07.000Z</time>
      </trkpt>
      <trkpt lat="45.59983" lon="6.80747">
        <ele>1817.2</ele>
        <time>2022-08-11T08:45:06.000Z</time>
      </trkpt>
      <trkpt lat="45.59986" lon="6.80758">
        <ele>1817.9</ele>
        <time>2022-08-11T08:45:03.000Z</time>
      </trkpt>
      <trkpt lat="45.59986" lon="6.80763">
        <ele>1818.4</ele>
        <time>2022-08-11T08:45:02.000Z</time>
      </trkpt>
      <trkpt lat="45.59988" lon="6.80769">
        <ele>1818.7</ele>
      </trkpt>
      <trkpt lat="45.59989" lon="6.80775">
        <ele>1819.1</ele>
        <time>2022-08-11T08:44:59.000Z</time>
      </trkpt>
      <trkpt lat="45.59989" lon="6.80778">
        <ele>1819.5</ele>
        <time>2022-08-11T08:44:58.000Z</time>
      </trkpt>
      <trkpt lat="45.5999" lon="6.80787">
        <ele>1820</ele>
        <time>2022-08-11T08:44:56.000Z</time>
      </trkpt>
      <trkpt lat="45.5999" lon="6.80794">
        <ele>1820.5</ele>
      </trkpt>
      <trkpt lat="45.59991" lon="6.80801">
        <ele>1820.9</ele>
        <time>2022-08-11T08:44:53.000Z</time>
      </trkpt>
      <trkpt lat="45.5999" lon="6.80805">
        <ele>1821.5</ele>
        <time>2022-08-11T08:44:52.000Z</time>
      </trkpt>
      <trkpt lat="45.5999" lon="6.80812">
        <ele>1822.2</ele>
      </trkpt>
      <trkpt lat="45.59989" lon="6.80819">
        <ele>1822.9</ele>
        <time>2022-08-11T08:44:49.000Z</time>
      </trkpt>
      <trkpt lat="45.59988" lon="6.80831">
        <ele>1824.1</ele>
        <time>2022-08-11T08:44:46.000Z</time>
      </trkpt>
      <trkpt lat="45.59987" lon="6.80839">
        <ele>1824.9</ele>
      </trkpt>
      <trkpt lat="45.59987" lon="6.80846">
        <ele>1825.5</ele>
        <time>2022-08-11T08:44:43.000Z</time>
      </trkpt>
      <trkpt lat="45.59986" lon="6.80858">
        <ele>1826.3</ele>
      </trkpt>
      <trkpt lat="45.59986" lon="6.8087">
        <ele>1826.8</ele>
        <time>2022-08-11T08:44:38.000Z</time>
      </trkpt>
      <trkpt lat="45.59985" lon="6.80874">
        <ele>1827</ele>
        <time>2022-08-11T08:44:37.000Z</time>
      </trkpt>
      <trkpt lat="45.59985" lon="6.80882">
        <ele>1827.4</ele>
      </trkpt>
      <trkpt lat="45.59984" lon="6.8089">
        <ele>1827.9</ele>
        <time>2022-08-11T08:44:33.000Z</time>
      </trkpt>
      <trkpt lat="45.59984" lon="6.80893">
        <ele>1827.8</ele>
        <time>2022-08-11T08:44:32.000Z</time>
      </trkpt>
      <trkpt lat="45.59984" lon="6.80902">
        <ele>1827.4</ele>
      </trkpt>
      <trkpt lat="45.59985" lon="6.8091">
        <ele>1827</ele>
        <time>2022-08-11T08:44:27.000Z</time>
      </trkpt>
      <trkpt lat="45.59986" lon="6.8092">
        <ele>1826.7</ele>
      </trkpt>
      <trkpt lat="45.59986" lon="6.8093">
        <ele>1826.4</ele>
        <time>2022-08-11T08:44:22.000Z</time>
      </trkpt>
      <trkpt lat="45.59986" lon="6.80939">
        <ele>1826.2</ele>
      </trkpt>
      <trkpt lat="45.59986" lon="6.80948">
        <ele>1826</ele>
        <time>2022-08-11T08:44:17.000Z</time>
      </trkpt>
      <trkpt lat="45.59984" lon="6.80957">
        <ele>1826.5</ele>
      </trkpt>
      <trkpt lat="45.59982" lon="6.80967">
        <ele>1827</ele>
        <time>2022-08-11T08:44:13.000Z</time>
      </trkpt>
      <trkpt lat="45.59982" lon="6.80971">
        <ele>1827</ele>
        <time>2022-08-11T08:44:12.000Z</time>
      </trkpt>
      <trkpt lat="45.59981" lon="6.80977">
        <ele>1827.5</ele>
      </trkpt>
      <trkpt lat="45.59979" lon="6.80983">
        <ele>1828.1</ele>
        <time>2022-08-11T08:44:09.000Z</time>
      </trkpt>
      <trkpt lat="45.59978" lon="6.80987">
        <ele>1828.5</ele>
        <time>2022-08-11T08:44:08.000Z</time>
      </trkpt>
      <trkpt lat="45.59978" lon="6.80996">
        <ele>1828.8</ele>
        <time>2022-08-11T08:44:06.000Z</time>
      </trkpt>
      <trkpt lat="45.59978" lon="6.81006">
        <ele>1828.4</ele>
      </trkpt>
      <trkpt lat="45.59979" lon="6.81017">
        <ele>1827.9</ele>
        <time>2022-08-11T08:44:01.000Z</time>
      </trkpt>
      <trkpt lat="45.59979" lon="6.81022">
        <ele>1828</ele>
        <time>2022-08-11T08:44:00.000Z</time>
      </trkpt>
      <trkpt lat="45.59978" lon="6.81029">
        <ele>1828.1</ele>
      </trkpt>
      <trkpt lat="45.59978" lon="6.81036">
        <ele>1828.2</ele>
      </trkpt>
      <trkpt lat="45.59977" lon="6.81042">
        <ele>1828.3</ele>
      </trkpt>
      <trkpt lat="45.59976" lon="6.81049">
        <ele>1828.4</ele>
        <time>2022-08-11T08:43:54.000Z</time>
      </trkpt>
      <trkpt lat="45.59974" lon="6.81057">
        <ele>1828.5</ele>
      </trkpt>
      <trkpt lat="45.59973" lon="6.81065">
        <ele>1828.5</ele>
        <time>2022-08-11T08:43:50.000Z</time>
      </trkpt>
      <trkpt lat="45.59971" lon="6.81073">
        <ele>1828.9</ele>
        <time>2022-08-11T08:43:48.000Z</time>
      </trkpt>
      <trkpt lat="45.59969" lon="6.81079">
        <ele>1829.8</ele>
        <time>2022-08-11T08:43:46.000Z</time>
      </trkpt>
      <trkpt lat="45.59967" lon="6.81087">
        <ele>1830.5</ele>
        <time>2022-08-11T08:43:43.000Z</time>
      </trkpt>
      <trkpt lat="45.59967" lon="6.81099">
        <ele>1829.7</ele>
      </trkpt>
      <trkpt lat="45.59968" lon="6.81111">
        <ele>1828.9</ele>
        <time>2022-08-11T08:43:36.000Z</time>
      </trkpt>
      <trkpt lat="45.59966" lon="6.81123">
        <ele>1829.8</ele>
      </trkpt>
      <trkpt lat="45.59964" lon="6.81134">
        <ele>1830.6</ele>
        <time>2022-08-11T08:43:31.000Z</time>
      </trkpt>
      <trkpt lat="45.59964" lon="6.81144">
        <ele>1830.1</ele>
        <time>2022-08-11T08:43:29.000Z</time>
      </trkpt>
      <trkpt lat="45.59965" lon="6.81154">
        <ele>1829.1</ele>
      </trkpt>
      <trkpt lat="45.59966" lon="6.81164">
        <ele>1828.1</ele>
        <time>2022-08-11T08:43:25.000Z</time>
      </trkpt>
      <trkpt lat="45.59968" lon="6.81172">
        <ele>1826.9</ele>
        <time>2022-08-11T08:43:23.000Z</time>
      </trkpt>
      <trkpt lat="45.59968" lon="6.81178">
        <ele>1826.2</ele>
        <time>2022-08-11T08:43:21.000Z</time>
      </trkpt>
      <trkpt lat="45.59968" lon="6.81185">
        <ele>1826.1</ele>
        <time>2022-08-11T08:43:19.000Z</time>
      </trkpt>
      <trkpt lat="45.59967" lon="6.81189">
        <ele>1826.1</ele>
        <time>2022-08-11T08:43:18.000Z</time>
      </trkpt>
      <trkpt lat="45.59966" lon="6.81197">
        <ele>1826</ele>
        <time>2022-08-11T08:43:16.000Z</time>
      </trkpt>
      <trkpt lat="45.59964" lon="6.81205">
        <ele>1826.3</ele>
        <time>2022-08-11T08:43:14.000Z</time>
      </trkpt>
      <trkpt lat="45.59961" lon="6.81213">
        <ele>1826.6</ele>
        <time>2022-08-11T08:43:12.000Z</time>
      </trkpt>
      <trkpt lat="45.59957" lon="6.81219">
        <ele>1826.9</ele>
      </trkpt>
      <trkpt lat="45.59954" lon="6.81224">
        <ele>1827.2</ele>
        <time>2022-08-11T08:43:09.000Z</time>
      </trkpt>
      <trkpt lat="45.5995" lon="6.81232">
        <ele>1827.9</ele>
        <time>2022-08-11T08:43:07.000Z</time>
      </trkpt>
      <trkpt lat="45.59945" lon="6.8124">
        <ele>1829.4</ele>
        <time>2022-08-11T08:43:05.000Z</time>
      </trkpt>
      <trkpt lat="45.59941" lon="6.81247">
        <ele>1830.6</ele>
        <time>2022-08-11T08:43:03.000Z</time>
      </trkpt>
      <trkpt lat="45.59938" lon="6.81253">
        <ele>1831.3</ele>
      </trkpt>
      <trkpt lat="45.59936" lon="6.81258">
        <ele>1831.8</ele>
        <time>2022-08-11T08:43:00.000Z</time>
      </trkpt>
      <trkpt lat="45.59935" lon="6.81262">
        <ele>1832</ele>
        <time>2022-08-11T08:42:59.000Z</time>
      </trkpt>
      <trkpt lat="45.59932" lon="6.81269">
        <ele>1832.4</ele>
      </trkpt>
      <trkpt lat="45.5993" lon="6.81276">
        <ele>1832.7</ele>
      </trkpt>
      <trkpt lat="45.59927" lon="6.81282">
        <ele>1832.7</ele>
      </trkpt>
      <trkpt lat="45.59925" lon="6.81289">
        <ele>1832.8</ele>
        <time>2022-08-11T08:42:52.000Z</time>
      </trkpt>
      <trkpt lat="45.59921" lon="6.813">
        <ele>1833.3</ele>
      </trkpt>
      <trkpt lat="45.59918" lon="6.81312">
        <ele>1834.1</ele>
        <time>2022-08-11T08:42:47.000Z</time>
      </trkpt>
      <trkpt lat="45.59913" lon="6.8132">
        <ele>1834.6</ele>
      </trkpt>
      <trkpt lat="45.59908" lon="6.81328">
        <ele>1835.1</ele>
        <time>2022-08-11T08:42:42.000Z</time>
      </trkpt>
      <trkpt lat="45.59906" lon="6.81334">
        <ele>1835.2</ele>
      </trkpt>
      <trkpt lat="45.59904" lon="6.8134">
        <ele>1835.6</ele>
      </trkpt>
      <trkpt lat="45.59902" lon="6.81346">
        <ele>1836</ele>
      </trkpt>
      <trkpt lat="45.599" lon="6.81352">
        <ele>1836.4</ele>
        <time>2022-08-11T08:42:36.000Z</time>
      </trkpt>
      <trkpt lat="45.59899" lon="6.81355">
        <ele>1836.7</ele>
        <time>2022-08-11T08:42:35.000Z</time>
      </trkpt>
      <trkpt lat="45.59899" lon="6.81364">
        <ele>1836.8</ele>
      </trkpt>
      <trkpt lat="45.59898" lon="6.81372">
        <ele>1836.6</ele>
        <time>2022-08-11T08:42:31.000Z</time>
      </trkpt>
      <trkpt lat="45.59898" lon="6.81376">
        <ele>1836.5</ele>
        <time>2022-08-11T08:42:30.000Z</time>
      </trkpt>
      <trkpt lat="45.59898" lon="6.81388">
        <ele>1835.7</ele>
        <time>2022-08-11T08:42:26.000Z</time>
      </trkpt>
      <trkpt lat="45.59902" lon="6.81398">
        <ele>1834</ele>
        <time>2022-08-11T08:42:23.000Z</time>
      </trkpt>
      <trkpt lat="45.59903" lon="6.81402">
        <ele>1833.8</ele>
        <time>2022-08-11T08:42:22.000Z</time>
      </trkpt>
      <trkpt lat="45.59903" lon="6.81405">
        <ele>1833.6</ele>
        <time>2022-08-11T08:42:21.000Z</time>
      </trkpt>
      <trkpt lat="45.59904" lon="6.8141">
        <ele>1833.3</ele>
        <time>2022-08-11T08:42:20.000Z</time>
      </trkpt>
      <trkpt lat="45.59905" lon="6.81414">
        <ele>1832.8</ele>
        <time>2022-08-11T08:42:19.000Z</time>
      </trkpt>
      <trkpt lat="45.59907" lon="6.8142">
        <ele>1832.2</ele>
        <time>2022-08-11T08:42:17.000Z</time>
      </trkpt>
      <trkpt lat="45.5991" lon="6.81427">
        <ele>1831.5</ele>
        <time>2022-08-11T08:42:15.000Z</time>
      </trkpt>
      <trkpt lat="45.59913" lon="6.81434">
        <ele>1830.8</ele>
        <time>2022-08-11T08:42:12.000Z</time>
      </trkpt>
      <trkpt lat="45.59915" lon="6.81444">
        <ele>1830.5</ele>
        <time>2022-08-11T08:42:08.000Z</time>
      </trkpt>
      <trkpt lat="45.59917" lon="6.81451">
        <ele>1829.7</ele>
      </trkpt>
      <trkpt lat="45.59919" lon="6.81458">
        <ele>1828.6</ele>
        <time>2022-08-11T08:42:03.000Z</time>
      </trkpt>
      <trkpt lat="45.59921" lon="6.81465">
        <ele>1828.1</ele>
        <time>2022-08-11T08:42:01.000Z</time>
      </trkpt>
      <trkpt lat="45.5992" lon="6.81474">
        <ele>1828</ele>
      </trkpt>
      <trkpt lat="45.5992" lon="6.81482">
        <ele>1827.6</ele>
        <time>2022-08-11T08:41:58.000Z</time>
      </trkpt>
      <trkpt lat="45.59919" lon="6.8149">
        <ele>1827.1</ele>
        <time>2022-08-11T08:41:56.000Z</time>
      </trkpt>
      <trkpt lat="45.59919" lon="6.81499">
        <ele>1826.4</ele>
        <time>2022-08-11T08:41:54.000Z</time>
      </trkpt>
      <trkpt lat="45.59919" lon="6.81504">
        <ele>1826.1</ele>
        <time>2022-08-11T08:41:53.000Z</time>
      </trkpt>
      <trkpt lat="45.59917" lon="6.81512">
        <ele>1825.7</ele>
      </trkpt>
      <trkpt lat="45.59915" lon="6.8152">
        <ele>1825.5</ele>
        <time>2022-08-11T08:41:49.000Z</time>
      </trkpt>
      <trkpt lat="45.59911" lon="6.8153">
        <ele>1826.2</ele>
        <time>2022-08-11T08:41:46.000Z</time>
      </trkpt>
      <trkpt lat="45.59908" lon="6.8154">
        <ele>1826.9</ele>
        <time>2022-08-11T08:41:43.000Z</time>
      </trkpt>
      <trkpt lat="45.59907" lon="6.81548">
        <ele>1827.2</ele>
      </trkpt>
      <trkpt lat="45.59906" lon="6.81555">
        <ele>1827.4</ele>
        <time>2022-08-11T08:41:39.000Z</time>
      </trkpt>
      <trkpt lat="45.59905" lon="6.81558">
        <ele>1827.4</ele>
        <time>2022-08-11T08:41:38.000Z</time>
      </trkpt>
      <trkpt lat="45.59904" lon="6.8157">
        <ele>1827.2</ele>
      </trkpt>
      <trkpt lat="45.59902" lon="6.81581">
        <ele>1827</ele>
        <time>2022-08-11T08:41:32.000Z</time>
      </trkpt>
      <trkpt lat="45.59902" lon="6.8159">
        <ele>1826.4</ele>
        <time>2022-08-11T08:41:30.000Z</time>
      </trkpt>
      <trkpt lat="45.59899" lon="6.81598">
        <ele>1827</ele>
        <time>2022-08-11T08:41:28.000Z</time>
      </trkpt>
      <trkpt lat="45.59898" lon="6.81603">
        <ele>1827.2</ele>
        <time>2022-08-11T08:41:27.000Z</time>
      </trkpt>
      <trkpt lat="45.59897" lon="6.81612">
        <ele>1826.9</ele>
      </trkpt>
      <trkpt lat="45.59896" lon="6.81622">
        <ele>1827</ele>
        <time>2022-08-11T08:41:22.000Z</time>
      </trkpt>
      <trkpt lat="45.59896" lon="6.81626">
        <ele>1827.1</ele>
        <time>2022-08-11T08:41:21.000Z</time>
      </trkpt>
      <trkpt lat="45.59896" lon="6.81631">
        <ele>1826.9</ele>
        <time>2022-08-11T08:41:20.000Z</time>
      </trkpt>
      <trkpt lat="45.59892" lon="6.81639">
        <ele>1827.9</ele>
        <time>2022-08-11T08:41:18.000Z</time>
      </trkpt>
      <trkpt lat="45.59891" lon="6.81645">
        <ele>1827.8</ele>
        <time>2022-08-11T08:41:17.000Z</time>
      </trkpt>
      <trkpt lat="45.59888" lon="6.81653">
        <ele>1827.6</ele>
      </trkpt>
      <trkpt lat="45.59886" lon="6.81661">
        <ele>1827.4</ele>
        <time>2022-08-11T08:41:13.000Z</time>
      </trkpt>
      <trkpt lat="45.59886" lon="6.81664">
        <ele>1827</ele>
        <time>2022-08-11T08:41:12.000Z</time>
      </trkpt>
      <trkpt lat="45.59884" lon="6.8167">
        <ele>1826.9</ele>
      </trkpt>
      <trkpt lat="45.59881" lon="6.81675">
        <ele>1826.6</ele>
        <time>2022-08-11T08:41:09.000Z</time>
      </trkpt>
      <trkpt lat="45.59875" lon="6.81684">
        <ele>1827.2</ele>
      </trkpt>
      <trkpt lat="45.5987" lon="6.81692">
        <ele>1828.6</ele>
        <time>2022-08-11T08:41:04.000Z</time>
      </trkpt>
      <trkpt lat="45.59868" lon="6.81702">
        <ele>1829.3</ele>
      </trkpt>
      <trkpt lat="45.59865" lon="6.81712">
        <ele>1830.2</ele>
        <time>2022-08-11T08:40:59.000Z</time>
      </trkpt>
      <trkpt lat="45.59864" lon="6.81722">
        <ele>1830.8</ele>
      </trkpt>
      <trkpt lat="45.59862" lon="6.81731">
        <ele>1830.4</ele>
        <time>2022-08-11T08:40:54.000Z</time>
      </trkpt>
      <trkpt lat="45.59861" lon="6.81735">
        <ele>1830.3</ele>
        <time>2022-08-11T08:40:53.000Z</time>
      </trkpt>
      <trkpt lat="45.59859" lon="6.81741">
        <ele>1831.1</ele>
      </trkpt>
      <trkpt lat="45.59856" lon="6.81747">
        <ele>1831.8</ele>
        <time>2022-08-11T08:40:50.000Z</time>
      </trkpt>
      <trkpt lat="45.59853" lon="6.81759">
        <ele>1832.3</ele>
      </trkpt>
      <trkpt lat="45.59851" lon="6.8177">
        <ele>1832.7</ele>
        <time>2022-08-11T08:40:44.000Z</time>
      </trkpt>
      <trkpt lat="45.59847" lon="6.81781">
        <ele>1833.6</ele>
      </trkpt>
      <trkpt lat="45.59844" lon="6.81791">
        <ele>1834.1</ele>
        <time>2022-08-11T08:40:38.000Z</time>
      </trkpt>
      <trkpt lat="45.59842" lon="6.81798">
        <ele>1834.2</ele>
      </trkpt>
      <trkpt lat="45.59841" lon="6.81804">
        <ele>1834.2</ele>
        <time>2022-08-11T08:40:35.000Z</time>
      </trkpt>
      <trkpt lat="45.5984" lon="6.81809">
        <ele>1834.1</ele>
        <time>2022-08-11T08:40:34.000Z</time>
      </trkpt>
      <trkpt lat="45.59839" lon="6.81818">
        <ele>1833.1</ele>
      </trkpt>
      <trkpt lat="45.59838" lon="6.81827">
        <ele>1832</ele>
        <time>2022-08-11T08:40:30.000Z</time>
      </trkpt>
      <trkpt lat="45.59837" lon="6.81833">
        <ele>1831.7</ele>
        <time>2022-08-11T08:40:28.000Z</time>
      </trkpt>
      <trkpt lat="45.59835" lon="6.81844">
        <ele>1831.8</ele>
        <time>2022-08-11T08:40:25.000Z</time>
      </trkpt>
      <trkpt lat="45.59833" lon="6.81848">
        <ele>1832</ele>
        <time>2022-08-11T08:40:24.000Z</time>
      </trkpt>
      <trkpt lat="45.59832" lon="6.81855">
        <ele>1831.6</ele>
        <time>2022-08-11T08:40:22.000Z</time>
      </trkpt>
      <trkpt lat="45.59831" lon="6.81858">
        <ele>1831.6</ele>
        <time>2022-08-11T08:40:21.000Z</time>
      </trkpt>
      <trkpt lat="45.59829" lon="6.81861">
        <ele>1832.1</ele>
        <time>2022-08-11T08:40:20.000Z</time>
      </trkpt>
      <trkpt lat="45.59824" lon="6.81871">
        <ele>1832.1</ele>
      </trkpt>
      <trkpt lat="45.5982" lon="6.81881">
        <ele>1832.1</ele>
        <time>2022-08-11T08:40:15.000Z</time>
      </trkpt>
      <trkpt lat="45.59813" lon="6.81889">
        <ele>1833.4</ele>
      </trkpt>
      <trkpt lat="45.59807" lon="6.81898">
        <ele>1834</ele>
        <time>2022-08-11T08:40:09.000Z</time>
      </trkpt>
      <trkpt lat="45.59801" lon="6.81907">
        <ele>1833.3</ele>
      </trkpt>
      <trkpt lat="45.59795" lon="6.81917">
        <ele>1832.6</ele>
        <time>2022-08-11T08:40:03.000Z</time>
      </trkpt>
      <trkpt lat="45.59791" lon="6.81928">
        <ele>1831.9</ele>
      </trkpt>
      <trkpt lat="45.59786" lon="6.81939">
        <ele>1831.4</ele>
        <time>2022-08-11T08:39:57.000Z</time>
      </trkpt>
      <trkpt lat="45.59781" lon="6.81946">
        <ele>1832.3</ele>
      </trkpt>
      <trkpt lat="45.59775" lon="6.81952">
        <ele>1832.3</ele>
        <time>2022-08-11T08:39:51.000Z</time>
      </trkpt>
      <trkpt lat="45.59772" lon="6.81954">
        <ele>1832.4</ele>
        <time>2022-08-11T08:39:50.000Z</time>
      </trkpt>
      <trkpt lat="45.59768" lon="6.8196">
        <ele>1831.7</ele>
      </trkpt>
      <trkpt lat="45.59765" lon="6.81966">
        <ele>1831.1</ele>
      </trkpt>
      <trkpt lat="45.59762" lon="6.81971">
        <ele>1830.6</ele>
      </trkpt>
      <trkpt lat="45.59758" lon="6.81977">
        <ele>1830.1</ele>
        <time>2022-08-11T08:39:42.000Z</time>
      </trkpt>
      <trkpt lat="45.59756" lon="6.8198">
        <ele>1829.8</ele>
        <time>2022-08-11T08:39:41.000Z</time>
      </trkpt>
      <trkpt lat="45.59751" lon="6.81988">
        <ele>1829.1</ele>
      </trkpt>
      <trkpt lat="45.59746" lon="6.81996">
        <ele>1829.3</ele>
        <time>2022-08-11T08:39:36.000Z</time>
      </trkpt>
      <trkpt lat="45.59743" lon="6.82003">
        <ele>1829</ele>
      </trkpt>
      <trkpt lat="45.5974" lon="6.82009">
        <ele>1828.7</ele>
      </trkpt>
      <trkpt lat="45.59737" lon="6.82016">
        <ele>1828.3</ele>
      </trkpt>
      <trkpt lat="45.59734" lon="6.82022">
        <ele>1827.8</ele>
        <time>2022-08-11T08:39:29.000Z</time>
      </trkpt>
      <trkpt lat="45.59731" lon="6.82027">
        <ele>1827.7</ele>
      </trkpt>
      <trkpt lat="45.59728" lon="6.82032">
        <ele>1827.8</ele>
      </trkpt>
      <trkpt lat="45.59725" lon="6.82037">
        <ele>1828.1</ele>
      </trkpt>
      <trkpt lat="45.59722" lon="6.82042">
        <ele>1828.5</ele>
        <time>2022-08-11T08:39:23.000Z</time>
      </trkpt>
      <trkpt lat="45.5972" lon="6.82049">
        <ele>1828</ele>
      </trkpt>
      <trkpt lat="45.59719" lon="6.82055">
        <ele>1827.5</ele>
        <time>2022-08-11T08:39:19.000Z</time>
      </trkpt>
      <trkpt lat="45.59715" lon="6.82062">
        <ele>1827.8</ele>
      </trkpt>
      <trkpt lat="45.59711" lon="6.82069">
        <ele>1828.3</ele>
        <time>2022-08-11T08:39:15.000Z</time>
      </trkpt>
      <trkpt lat="45.59708" lon="6.82072">
        <ele>1829.1</ele>
        <time>2022-08-11T08:39:14.000Z</time>
      </trkpt>
      <trkpt lat="45.59705" lon="6.82075">
        <ele>1829.7</ele>
        <time>2022-08-11T08:39:13.000Z</time>
      </trkpt>
      <trkpt lat="45.59703" lon="6.82081">
        <ele>1830.3</ele>
      </trkpt>
      <trkpt lat="45.597" lon="6.82086">
        <ele>1831</ele>
      </trkpt>
      <trkpt lat="45.59697" lon="6.82091">
        <ele>1831.5</ele>
      </trkpt>
      <trkpt lat="45.59694" lon="6.82096">
        <ele>1832</ele>
        <time>2022-08-11T08:39:07.000Z</time>
      </trkpt>
      <trkpt lat="45.59691" lon="6.82105">
        <ele>1831.9</ele>
      </trkpt>
      <trkpt lat="45.59688" lon="6.82114">
        <ele>1831.6</ele>
        <time>2022-08-11T08:39:02.000Z</time>
      </trkpt>
      <trkpt lat="45.59684" lon="6.82123">
        <ele>1831.2</ele>
      </trkpt>
      <trkpt lat="45.5968" lon="6.82133">
        <ele>1830.9</ele>
        <time>2022-08-11T08:38:56.000Z</time>
      </trkpt>
      <trkpt lat="45.59679" lon="6.82136">
        <ele>1831</ele>
        <time>2022-08-11T08:38:55.000Z</time>
      </trkpt>
      <trkpt lat="45.59676" lon="6.82141">
        <ele>1831.4</ele>
      </trkpt>
      <trkpt lat="45.59673" lon="6.82146">
        <ele>1831.7</ele>
      </trkpt>
      <trkpt lat="45.5967" lon="6.82151">
        <ele>1832</ele>
      </trkpt>
      <trkpt lat="45.59667" lon="6.82157">
        <ele>1832.3</ele>
        <time>2022-08-11T08:38:49.000Z</time>
      </trkpt>
      <trkpt lat="45.59662" lon="6.82164">
        <ele>1832.6</ele>
      </trkpt>
      <trkpt lat="45.59657" lon="6.82172">
        <ele>1833.1</ele>
        <time>2022-08-11T08:38:44.000Z</time>
      </trkpt>
      <trkpt lat="45.59654" lon="6.82178">
        <ele>1833.6</ele>
      </trkpt>
      <trkpt lat="45.5965" lon="6.82183">
        <ele>1833.9</ele>
        <time>2022-08-11T08:38:41.000Z</time>
      </trkpt>
      <trkpt lat="45.59647" lon="6.82186">
        <ele>1834.4</ele>
        <time>2022-08-11T08:38:40.000Z</time>
      </trkpt>
      <trkpt lat="45.59646" lon="6.82189">
        <ele>1834.4</ele>
        <time>2022-08-11T08:38:39.000Z</time>
      </trkpt>
      <trkpt lat="45.59643" lon="6.82197">
        <ele>1834.1</ele>
      </trkpt>
      <trkpt lat="45.59641" lon="6.82205">
        <ele>1834.4</ele>
        <time>2022-08-11T08:38:34.000Z</time>
      </trkpt>
      <trkpt lat="45.5964" lon="6.82208">
        <ele>1834.5</ele>
        <time>2022-08-11T08:38:33.000Z</time>
      </trkpt>
      <trkpt lat="45.59639" lon="6.82211">
        <ele>1834.6</ele>
        <time>2022-08-11T08:38:32.000Z</time>
      </trkpt>
      <trkpt lat="45.59637" lon="6.8222">
        <ele>1834.7</ele>
      </trkpt>
      <trkpt lat="45.59635" lon="6.82228">
        <ele>1834.5</ele>
        <time>2022-08-11T08:38:26.000Z</time>
      </trkpt>
      <trkpt lat="45.59632" lon="6.82238">
        <ele>1834</ele>
      </trkpt>
      <trkpt lat="45.5963" lon="6.82247">
        <ele>1833.4</ele>
        <time>2022-08-11T08:38:20.000Z</time>
      </trkpt>
      <trkpt lat="45.59628" lon="6.82249">
        <ele>1833.5</ele>
        <time>2022-08-11T08:38:19.000Z</time>
      </trkpt>
      <trkpt lat="45.59623" lon="6.82253">
        <ele>1833.8</ele>
      </trkpt>
      <trkpt lat="45.59619" lon="6.82256">
        <ele>1834.2</ele>
      </trkpt>
      <trkpt lat="45.59614" lon="6.8226">
        <ele>1834.7</ele>
      </trkpt>
      <trkpt lat="45.5961" lon="6.82263">
        <ele>1835.6</ele>
        <time>2022-08-11T08:38:12.000Z</time>
      </trkpt>
      <trkpt lat="45.59608" lon="6.82269">
        <ele>1835.5</ele>
      </trkpt>
      <trkpt lat="45.59606" lon="6.82275">
        <ele>1835.3</ele>
      </trkpt>
      <trkpt lat="45.59604" lon="6.82281">
        <ele>1835.3</ele>
      </trkpt>
      <trkpt lat="45.59602" lon="6.82288">
        <ele>1835.5</ele>
        <time>2022-08-11T08:38:04.000Z</time>
      </trkpt>
      <trkpt lat="45.596" lon="6.82295">
        <ele>1835.4</ele>
      </trkpt>
      <trkpt lat="45.59598" lon="6.82302">
        <ele>1835.4</ele>
        <time>2022-08-11T08:38:00.000Z</time>
      </trkpt>
      <trkpt lat="45.59597" lon="6.82312">
        <ele>1834.5</ele>
        <time>2022-08-11T08:37:57.000Z</time>
      </trkpt>
      <trkpt lat="45.59595" lon="6.8232">
        <ele>1833.5</ele>
        <time>2022-08-11T08:37:54.000Z</time>
      </trkpt>
      <trkpt lat="45.59593" lon="6.82327">
        <ele>1833.1</ele>
        <time>2022-08-11T08:37:51.000Z</time>
      </trkpt>
      <trkpt lat="45.59588" lon="6.82338">
        <ele>1833.1</ele>
        <time>2022-08-11T08:37:47.000Z</time>
      </trkpt>
      <trkpt lat="45.59586" lon="6.82345">
        <ele>1832.1</ele>
        <time>2022-08-11T08:37:44.000Z</time>
      </trkpt>
      <trkpt lat="45.59585" lon="6.82347">
        <ele>1832</ele>
        <time>2022-08-11T08:37:43.000Z</time>
      </trkpt>
      <trkpt lat="45.59579" lon="6.82352">
        <ele>1831.9</ele>
        <time>2022-08-11T08:37:40.000Z</time>
      </trkpt>
      <trkpt lat="45.59576" lon="6.8236">
        <ele>1830.6</ele>
      </trkpt>
      <trkpt lat="45.59572" lon="6.82368">
        <ele>1829.8</ele>
        <time>2022-08-11T08:37:34.000Z</time>
      </trkpt>
      <trkpt lat="45.59571" lon="6.82371">
        <ele>1829.3</ele>
        <time>2022-08-11T08:37:33.000Z</time>
      </trkpt>
      <trkpt lat="45.59568" lon="6.82378">
        <ele>1828.8</ele>
        <time>2022-08-11T08:37:31.000Z</time>
      </trkpt>
      <trkpt lat="45.59564" lon="6.82384">
        <ele>1828.3</ele>
      </trkpt>
      <trkpt lat="45.5956" lon="6.82391">
        <ele>1827.7</ele>
        <time>2022-08-11T08:37:26.000Z</time>
      </trkpt>
      <trkpt lat="45.59559" lon="6.82394">
        <ele>1827.1</ele>
        <time>2022-08-11T08:37:25.000Z</time>
      </trkpt>
      <trkpt lat="45.59557" lon="6.82399">
        <ele>1826.1</ele>
      </trkpt>
      <trkpt lat="45.59554" lon="6.82405">
        <ele>1825.3</ele>
        <time>2022-08-11T08:37:21.000Z</time>
      </trkpt>
      <trkpt lat="45.59552" lon="6.82411">
        <ele>1824.3</ele>
        <time>2022-08-11T08:37:19.000Z</time>
      </trkpt>
      <trkpt lat="45.59544" lon="6.82416">
        <ele>1825.1</ele>
      </trkpt>
      <trkpt lat="45.59536" lon="6.82421">
        <ele>1826.3</ele>
        <time>2022-08-11T08:37:13.000Z</time>
      </trkpt>
      <trkpt lat="45.59533" lon="6.82423">
        <ele>1826.5</ele>
        <time>2022-08-11T08:37:12.000Z</time>
      </trkpt>
      <trkpt lat="45.59529" lon="6.82426">
        <ele>1826.6</ele>
      </trkpt>
      <trkpt lat="45.59525" lon="6.8243">
        <ele>1826.9</ele>
      </trkpt>
      <trkpt lat="45.59521" lon="6.82434">
        <ele>1827.2</ele>
      </trkpt>
      <trkpt lat="45.59518" lon="6.82437">
        <ele>1827.4</ele>
        <time>2022-08-11T08:37:06.000Z</time>
      </trkpt>
      <trkpt lat="45.59514" lon="6.82442">
        <ele>1827.2</ele>
      </trkpt>
      <trkpt lat="45.59511" lon="6.82446">
        <ele>1826.9</ele>
      </trkpt>
      <trkpt lat="45.59507" lon="6.82451">
        <ele>1826.7</ele>
      </trkpt>
      <trkpt lat="45.59504" lon="6.82455">
        <ele>1826.5</ele>
        <time>2022-08-11T08:36:59.000Z</time>
      </trkpt>
      <trkpt lat="45.59501" lon="6.82459">
        <ele>1826.2</ele>
        <time>2022-08-11T08:36:58.000Z</time>
      </trkpt>
      <trkpt lat="45.59497" lon="6.82463">
        <ele>1826.8</ele>
      </trkpt>
      <trkpt lat="45.59493" lon="6.82466">
        <ele>1827.6</ele>
      </trkpt>
      <trkpt lat="45.5949" lon="6.8247">
        <ele>1828.2</ele>
      </trkpt>
      <trkpt lat="45.59486" lon="6.82474">
        <ele>1828.7</ele>
        <time>2022-08-11T08:36:52.000Z</time>
      </trkpt>
      <trkpt lat="45.5948" lon="6.8248">
        <ele>1829</ele>
      </trkpt>
      <trkpt lat="45.59474" lon="6.82487">
        <ele>1828.7</ele>
        <time>2022-08-11T08:36:47.000Z</time>
      </trkpt>
      <trkpt lat="45.59471" lon="6.8249">
        <ele>1828.5</ele>
        <time>2022-08-11T08:36:46.000Z</time>
      </trkpt>
      <trkpt lat="45.59467" lon="6.82493">
        <ele>1829.3</ele>
      </trkpt>
      <trkpt lat="45.59463" lon="6.82497">
        <ele>1830.2</ele>
      </trkpt>
      <trkpt lat="45.59459" lon="6.825">
        <ele>1831</ele>
      </trkpt>
      <trkpt lat="45.59455" lon="6.82504">
        <ele>1831.7</ele>
        <time>2022-08-11T08:36:40.000Z</time>
      </trkpt>
      <trkpt lat="45.59452" lon="6.82506">
        <ele>1832.4</ele>
        <time>2022-08-11T08:36:39.000Z</time>
      </trkpt>
      <trkpt lat="45.59449" lon="6.82509">
        <ele>1832.4</ele>
        <time>2022-08-11T08:36:38.000Z</time>
      </trkpt>
      <trkpt lat="45.59444" lon="6.82514">
        <ele>1831.9</ele>
        <time>2022-08-11T08:36:36.000Z</time>
      </trkpt>
      <trkpt lat="45.59436" lon="6.82519">
        <ele>1831.9</ele>
        <time>2022-08-11T08:36:34.000Z</time>
      </trkpt>
      <trkpt lat="45.59428" lon="6.82523">
        <ele>1832.6</ele>
        <time>2022-08-11T08:36:32.000Z</time>
      </trkpt>
      <trkpt lat="45.59422" lon="6.82528">
        <ele>1833.3</ele>
        <time>2022-08-11T08:36:30.000Z</time>
      </trkpt>
      <trkpt lat="45.59419" lon="6.82529">
        <ele>1833.9</ele>
        <time>2022-08-11T08:36:29.000Z</time>
      </trkpt>
      <trkpt lat="45.5941" lon="6.82534">
        <ele>1836.3</ele>
        <time>2022-08-11T08:36:25.000Z</time>
      </trkpt>
      <trkpt lat="45.59406" lon="6.82537">
        <ele>1837.4</ele>
        <time>2022-08-11T08:36:23.000Z</time>
      </trkpt>
      <trkpt lat="45.59404" lon="6.82538">
        <ele>1837.8</ele>
        <time>2022-08-11T08:36:22.000Z</time>
      </trkpt>
      <trkpt lat="45.59399" lon="6.82544">
        <ele>1838.1</ele>
      </trkpt>
      <trkpt lat="45.59394" lon="6.8255">
        <ele>1838.2</ele>
        <time>2022-08-11T08:36:18.000Z</time>
      </trkpt>
      <trkpt lat="45.59389" lon="6.82555">
        <ele>1838.4</ele>
        <time>2022-08-11T08:36:16.000Z</time>
      </trkpt>
      <trkpt lat="45.59385" lon="6.82559">
        <ele>1838.9</ele>
      </trkpt>
      <trkpt lat="45.59381" lon="6.82563">
        <ele>1839.6</ele>
      </trkpt>
      <trkpt lat="45.59377" lon="6.82567">
        <ele>1840.1</ele>
      </trkpt>
      <trkpt lat="45.59374" lon="6.82571">
        <ele>1840.6</ele>
        <time>2022-08-11T08:36:09.000Z</time>
      </trkpt>
      <trkpt lat="45.5937" lon="6.82575">
        <ele>1841.2</ele>
      </trkpt>
      <trkpt lat="45.59366" lon="6.82578">
        <ele>1841.7</ele>
      </trkpt>
      <trkpt lat="45.59362" lon="6.82582">
        <ele>1842.2</ele>
      </trkpt>
      <trkpt lat="45.59358" lon="6.82585">
        <ele>1841.7</ele>
        <time>2022-08-11T08:36:03.000Z</time>
      </trkpt>
      <trkpt lat="45.59354" lon="6.82586">
        <ele>1841.7</ele>
      </trkpt>
      <trkpt lat="45.59349" lon="6.82588">
        <ele>1841.7</ele>
      </trkpt>
      <trkpt lat="45.59344" lon="6.82589">
        <ele>1841.7</ele>
      </trkpt>
      <trkpt lat="45.5934" lon="6.8259">
        <ele>1841.8</ele>
        <time>2022-08-11T08:35:57.000Z</time>
      </trkpt>
      <trkpt lat="45.59337" lon="6.8259">
        <ele>1842.2</ele>
        <time>2022-08-11T08:35:56.000Z</time>
      </trkpt>
      <trkpt lat="45.59332" lon="6.8259">
        <ele>1842.6</ele>
      </trkpt>
      <trkpt lat="45.59327" lon="6.82591">
        <ele>1842.9</ele>
      </trkpt>
      <trkpt lat="45.59322" lon="6.82591">
        <ele>1843.2</ele>
      </trkpt>
      <trkpt lat="45.59316" lon="6.82591">
        <ele>1843.5</ele>
        <time>2022-08-11T08:35:49.000Z</time>
      </trkpt>
      <trkpt lat="45.59314" lon="6.82592">
        <ele>1843.5</ele>
        <time>2022-08-11T08:35:48.000Z</time>
      </trkpt>
      <trkpt lat="45.59311" lon="6.82592">
        <ele>1843.4</ele>
        <time>2022-08-11T08:35:47.000Z</time>
      </trkpt>
      <trkpt lat="45.59303" lon="6.82596">
        <ele>1843.6</ele>
        <time>2022-08-11T08:35:43.000Z</time>
      </trkpt>
      <trkpt lat="45.59298" lon="6.826">
        <ele>1843.7</ele>
        <time>2022-08-11T08:35:41.000Z</time>
      </trkpt>
      <trkpt lat="45.59291" lon="6.82607">
        <ele>1843.8</ele>
      </trkpt>
      <trkpt lat="45.59284" lon="6.82613">
        <ele>1843.8</ele>
        <time>2022-08-11T08:35:35.000Z</time>
      </trkpt>
      <trkpt lat="45.59281" lon="6.82616">
        <ele>1843.8</ele>
        <time>2022-08-11T08:35:34.000Z</time>
      </trkpt>
      <trkpt lat="45.59277" lon="6.82619">
        <ele>1844</ele>
      </trkpt>
      <trkpt lat="45.59273" lon="6.82622">
        <ele>1843.5</ele>
      </trkpt>
      <trkpt lat="45.59269" lon="6.82625">
        <ele>1842.9</ele>
      </trkpt>
      <trkpt lat="45.59265" lon="6.82627">
        <ele>1842.4</ele>
        <time>2022-08-11T08:35:28.000Z</time>
      </trkpt>
      <trkpt lat="45.59258" lon="6.82631">
        <ele>1842.1</ele>
      </trkpt>
      <trkpt lat="45.59252" lon="6.82635">
        <ele>1842</ele>
        <time>2022-08-11T08:35:23.000Z</time>
      </trkpt>
      <trkpt lat="45.59246" lon="6.82637">
        <ele>1842.1</ele>
      </trkpt>
      <trkpt lat="45.5924" lon="6.8264">
        <ele>1841.8</ele>
        <time>2022-08-11T08:35:19.000Z</time>
      </trkpt>
      <trkpt lat="45.59233" lon="6.82641">
        <ele>1841.7</ele>
        <time>2022-08-11T08:35:17.000Z</time>
      </trkpt>
      <trkpt lat="45.59225" lon="6.82645">
        <ele>1841.2</ele>
      </trkpt>
      <trkpt lat="45.59218" lon="6.82648">
        <ele>1840.8</ele>
        <time>2022-08-11T08:35:12.000Z</time>
      </trkpt>
      <trkpt lat="45.59215" lon="6.82648">
        <ele>1840.9</ele>
        <time>2022-08-11T08:35:11.000Z</time>
      </trkpt>
      <trkpt lat="45.59207" lon="6.82651">
        <ele>1840.9</ele>
        <time>2022-08-11T08:35:08.000Z</time>
      </trkpt>
      <trkpt lat="45.592" lon="6.82653">
        <ele>1840.8</ele>
        <time>2022-08-11T08:35:05.000Z</time>
      </trkpt>
      <trkpt lat="45.59195" lon="6.82653">
        <ele>1841.4</ele>
      </trkpt>
      <trkpt lat="45.59189" lon="6.82653">
        <ele>1841.4</ele>
      </trkpt>
      <trkpt lat="45.59184" lon="6.82653">
        <ele>1841.4</ele>
      </trkpt>
      <trkpt lat="45.59179" lon="6.82653">
        <ele>1841.3</ele>
        <time>2022-08-11T08:34:59.000Z</time>
      </trkpt>
      <trkpt lat="45.59174" lon="6.82653">
        <ele>1841.5</ele>
      </trkpt>
      <trkpt lat="45.59168" lon="6.82653">
        <ele>1841.6</ele>
        <time>2022-08-11T08:34:54.000Z</time>
      </trkpt>
      <trkpt lat="45.59164" lon="6.82653">
        <ele>1842</ele>
        <time>2022-08-11T08:34:52.000Z</time>
      </trkpt>
      <trkpt lat="45.59159" lon="6.82655">
        <ele>1842.3</ele>
      </trkpt>
      <trkpt lat="45.59154" lon="6.82657">
        <ele>1842.6</ele>
        <time>2022-08-11T08:34:49.000Z</time>
      </trkpt>
      <trkpt lat="45.59151" lon="6.82659">
        <ele>1842.6</ele>
        <time>2022-08-11T08:34:48.000Z</time>
      </trkpt>
      <trkpt lat="45.59144" lon="6.82663">
        <ele>1842.4</ele>
      </trkpt>
      <trkpt lat="45.59136" lon="6.82668">
        <ele>1842.1</ele>
        <time>2022-08-11T08:34:43.000Z</time>
      </trkpt>
      <trkpt lat="45.59133" lon="6.82668">
        <ele>1842.7</ele>
        <time>2022-08-11T08:34:42.000Z</time>
      </trkpt>
      <trkpt lat="45.59127" lon="6.8267">
        <ele>1842.9</ele>
      </trkpt>
      <trkpt lat="45.59121" lon="6.82673">
        <ele>1843.1</ele>
        <time>2022-08-11T08:34:38.000Z</time>
      </trkpt>
      <trkpt lat="45.59119" lon="6.82674">
        <ele>1842.9</ele>
        <time>2022-08-11T08:34:37.000Z</time>
      </trkpt>
      <trkpt lat="45.59111" lon="6.82679">
        <ele>1842.6</ele>
      </trkpt>
      <trkpt lat="45.59104" lon="6.82683">
        <ele>1842</ele>
        <time>2022-08-11T08:34:32.000Z</time>
      </trkpt>
      <trkpt lat="45.59096" lon="6.82686">
        <ele>1841.8</ele>
        <time>2022-08-11T08:34:30.000Z</time>
      </trkpt>
      <trkpt lat="45.5909" lon="6.82686">
        <ele>1842.7</ele>
        <time>2022-08-11T08:34:27.000Z</time>
      </trkpt>
      <trkpt lat="45.59085" lon="6.82686">
        <ele>1843.1</ele>
      </trkpt>
      <trkpt lat="45.59079" lon="6.82687">
        <ele>1844</ele>
        <time>2022-08-11T08:34:23.000Z</time>
      </trkpt>
      <trkpt lat="45.59075" lon="6.82688">
        <ele>1844.5</ele>
        <time>2022-08-11T08:34:22.000Z</time>
      </trkpt>
      <trkpt lat="45.5907" lon="6.82689">
        <ele>1845.3</ele>
      </trkpt>
      <trkpt lat="45.59065" lon="6.8269">
        <ele>1846</ele>
      </trkpt>
      <trkpt lat="45.5906" lon="6.82691">
        <ele>1846.7</ele>
      </trkpt>
      <trkpt lat="45.59056" lon="6.82692">
        <ele>1847.4</ele>
        <time>2022-08-11T08:34:17.000Z</time>
      </trkpt>
      <trkpt lat="45.5905" lon="6.82692">
        <ele>1848.1</ele>
      </trkpt>
      <trkpt lat="45.59045" lon="6.82693">
        <ele>1848.9</ele>
      </trkpt>
      <trkpt lat="45.5904" lon="6.82694">
        <ele>1849.7</ele>
      </trkpt>
      <trkpt lat="45.59034" lon="6.82695">
        <ele>1850.5</ele>
        <time>2022-08-11T08:34:12.000Z</time>
      </trkpt>
      <trkpt lat="45.59029" lon="6.82696">
        <ele>1851.2</ele>
      </trkpt>
      <trkpt lat="45.59024" lon="6.82697">
        <ele>1852.3</ele>
      </trkpt>
      <trkpt lat="45.59019" lon="6.82698">
        <ele>1853.5</ele>
      </trkpt>
      <trkpt lat="45.59014" lon="6.82699">
        <ele>1854.8</ele>
        <time>2022-08-11T08:34:06.000Z</time>
      </trkpt>
      <trkpt lat="45.59005" lon="6.82702">
        <ele>1856</ele>
      </trkpt>
      <trkpt lat="45.58997" lon="6.82706">
        <ele>1856.8</ele>
        <time>2022-08-11T08:34:00.000Z</time>
      </trkpt>
      <trkpt lat="45.58994" lon="6.82707">
        <ele>1857</ele>
        <time>2022-08-11T08:33:59.000Z</time>
      </trkpt>
      <trkpt lat="45.58986" lon="6.82713">
        <ele>1856.5</ele>
        <time>2022-08-11T08:33:55.000Z</time>
      </trkpt>
      <trkpt lat="45.5898" lon="6.82716">
        <ele>1856.6</ele>
        <time>2022-08-11T08:33:53.000Z</time>
      </trkpt>
      <trkpt lat="45.58975" lon="6.82718">
        <ele>1857.2</ele>
      </trkpt>
      <trkpt lat="45.58969" lon="6.8272">
        <ele>1856.8</ele>
        <time>2022-08-11T08:33:50.000Z</time>
      </trkpt>
      <trkpt lat="45.58966" lon="6.82721">
        <ele>1856.2</ele>
        <time>2022-08-11T08:33:49.000Z</time>
      </trkpt>
      <trkpt lat="45.58961" lon="6.82724">
        <ele>1855</ele>
      </trkpt>
      <trkpt lat="45.58956" lon="6.82726">
        <ele>1853.7</ele>
      </trkpt>
      <trkpt lat="45.58951" lon="6.82728">
        <ele>1852.4</ele>
      </trkpt>
      <trkpt lat="45.58946" lon="6.82731">
        <ele>1851.1</ele>
        <time>2022-08-11T08:33:44.000Z</time>
      </trkpt>
      <trkpt lat="45.58938" lon="6.82733">
        <ele>1850.5</ele>
      </trkpt>
      <trkpt lat="45.58929" lon="6.82735">
        <ele>1849.9</ele>
        <time>2022-08-11T08:33:41.000Z</time>
      </trkpt>
      <trkpt lat="45.58924" lon="6.82736">
        <ele>1849.1</ele>
        <time>2022-08-11T08:33:39.000Z</time>
      </trkpt>
      <trkpt lat="45.58915" lon="6.82737">
        <ele>1850.4</ele>
        <time>2022-08-11T08:33:36.000Z</time>
      </trkpt>
      <trkpt lat="45.58913" lon="6.82737">
        <ele>1854.1</ele>
        <time>2022-08-11T08:33:35.000Z</time>
      </trkpt>
      <trkpt lat="45.58906" lon="6.82733">
        <ele>1865.7</ele>
        <time>2022-08-11T08:33:30.000Z</time>
      </trkpt>
      <trkpt lat="45.58903" lon="6.82732">
        <ele>1871.2</ele>
        <time>2022-08-11T08:33:27.000Z</time>
      </trkpt>
      <trkpt lat="45.58899" lon="6.82734">
        <ele>1875.6</ele>
        <time>2022-08-11T08:33:22.000Z</time>
      </trkpt>
      <trkpt lat="45.58896" lon="6.82735">
        <ele>1878.2</ele>
        <time>2022-08-11T08:33:20.000Z</time>
      </trkpt>
      <trkpt lat="45.58894" lon="6.82739">
        <ele>1876.3</ele>
        <time>2022-08-11T08:33:18.000Z</time>
      </trkpt>
      <trkpt lat="45.58893" lon="6.82748">
        <ele>1869.3</ele>
      </trkpt>
      <trkpt lat="45.58892" lon="6.82756">
        <ele>1862.4</ele>
        <time>2022-08-11T08:33:13.000Z</time>
      </trkpt>
      <trkpt lat="45.58889" lon="6.82761">
        <ele>1859</ele>
      </trkpt>
      <trkpt lat="45.58886" lon="6.82767">
        <ele>1854.7</ele>
        <time>2022-08-11T08:33:10.000Z</time>
      </trkpt>
      <trkpt lat="45.58885" lon="6.8277">
        <ele>1852.5</ele>
        <time>2022-08-11T08:33:09.000Z</time>
      </trkpt>
      <trkpt lat="45.58884" lon="6.82773">
        <ele>1850.2</ele>
        <time>2022-08-11T08:33:08.000Z</time>
      </trkpt>
      <trkpt lat="45.58878" lon="6.8278">
        <ele>1848.9</ele>
        <time>2022-08-11T08:33:05.000Z</time>
      </trkpt>
      <trkpt lat="45.58874" lon="6.82786">
        <ele>1848.4</ele>
      </trkpt>
      <trkpt lat="45.5887" lon="6.82792">
        <ele>1847.5</ele>
        <time>2022-08-11T08:33:01.000Z</time>
      </trkpt>
      <trkpt lat="45.58865" lon="6.82801">
        <ele>1844.7</ele>
      </trkpt>
      <trkpt lat="45.58859" lon="6.8281">
        <ele>1843.3</ele>
        <time>2022-08-11T08:32:55.000Z</time>
      </trkpt>
      <trkpt lat="45.58853" lon="6.82816">
        <ele>1845.9</ele>
      </trkpt>
      <trkpt lat="45.58847" lon="6.82823">
        <ele>1848.2</ele>
        <time>2022-08-11T08:32:50.000Z</time>
      </trkpt>
      <trkpt lat="45.5884" lon="6.8283">
        <ele>1850.1</ele>
        <time>2022-08-11T08:32:47.000Z</time>
      </trkpt>
      <trkpt lat="45.58836" lon="6.82836">
        <ele>1850.4</ele>
        <time>2022-08-11T08:32:45.000Z</time>
      </trkpt>
      <trkpt lat="45.58831" lon="6.82841">
        <ele>1850.7</ele>
        <time>2022-08-11T08:32:43.000Z</time>
      </trkpt>
      <trkpt lat="45.58824" lon="6.82847">
        <ele>1849.8</ele>
      </trkpt>
      <trkpt lat="45.58817" lon="6.82854">
        <ele>1849.1</ele>
        <time>2022-08-11T08:32:37.000Z</time>
      </trkpt>
      <trkpt lat="45.58813" lon="6.82857">
        <ele>1849.2</ele>
      </trkpt>
      <trkpt lat="45.58808" lon="6.8286">
        <ele>1849.4</ele>
      </trkpt>
      <trkpt lat="45.58804" lon="6.82863">
        <ele>1850.1</ele>
      </trkpt>
      <trkpt lat="45.588" lon="6.82866">
        <ele>1850.9</ele>
        <time>2022-08-11T08:32:31.000Z</time>
      </trkpt>
      <trkpt lat="45.58794" lon="6.82871">
        <ele>1851.5</ele>
        <time>2022-08-11T08:32:29.000Z</time>
      </trkpt>
      <trkpt lat="45.58789" lon="6.82874">
        <ele>1852.3</ele>
      </trkpt>
      <trkpt lat="45.58785" lon="6.82876">
        <ele>1852.9</ele>
      </trkpt>
      <trkpt lat="45.5878" lon="6.82878">
        <ele>1853.4</ele>
      </trkpt>
      <trkpt lat="45.58775" lon="6.82881">
        <ele>1853.8</ele>
        <time>2022-08-11T08:32:23.000Z</time>
      </trkpt>
      <trkpt lat="45.58768" lon="6.82885">
        <ele>1854.2</ele>
      </trkpt>
      <trkpt lat="45.5876" lon="6.8289">
        <ele>1855</ele>
        <time>2022-08-11T08:32:18.000Z</time>
      </trkpt>
      <trkpt lat="45.58755" lon="6.82892">
        <ele>1856.1</ele>
      </trkpt>
      <trkpt lat="45.5875" lon="6.82895">
        <ele>1857.2</ele>
        <time>2022-08-11T08:32:15.000Z</time>
      </trkpt>
      <trkpt lat="45.58742" lon="6.82897">
        <ele>1858.4</ele>
      </trkpt>
      <trkpt lat="45.58735" lon="6.82899">
        <ele>1859.5</ele>
        <time>2022-08-11T08:32:11.000Z</time>
      </trkpt>
      <trkpt lat="45.5873" lon="6.829">
        <ele>1860.1</ele>
      </trkpt>
      <trkpt lat="45.58724" lon="6.82901">
        <ele>1860.7</ele>
      </trkpt>
      <trkpt lat="45.58719" lon="6.82903">
        <ele>1861.4</ele>
      </trkpt>
      <trkpt lat="45.58714" lon="6.82904">
        <ele>1862.3</ele>
        <time>2022-08-11T08:32:05.000Z</time>
      </trkpt>
      <trkpt lat="45.5871" lon="6.82905">
        <ele>1862.9</ele>
        <time>2022-08-11T08:32:04.000Z</time>
      </trkpt>
      <trkpt lat="45.58704" lon="6.8291">
        <ele>1862.6</ele>
      </trkpt>
      <trkpt lat="45.58697" lon="6.82915">
        <ele>1862.3</ele>
        <time>2022-08-11T08:31:59.000Z</time>
      </trkpt>
      <trkpt lat="45.58692" lon="6.82919">
        <ele>1862.1</ele>
        <time>2022-08-11T08:31:57.000Z</time>
      </trkpt>
      <trkpt lat="45.58689" lon="6.82923">
        <ele>1861.4</ele>
        <time>2022-08-11T08:31:55.000Z</time>
      </trkpt>
      <trkpt lat="45.58684" lon="6.82924">
        <ele>1862.9</ele>
      </trkpt>
      <trkpt lat="45.5868" lon="6.82925">
        <ele>1864.5</ele>
        <time>2022-08-11T08:31:52.000Z</time>
      </trkpt>
      <trkpt lat="45.58676" lon="6.82926">
        <ele>1865.9</ele>
        <time>2022-08-11T08:31:51.000Z</time>
      </trkpt>
      <trkpt lat="45.58674" lon="6.82927">
        <ele>1866.1</ele>
        <time>2022-08-11T08:31:50.000Z</time>
      </trkpt>
      <trkpt lat="45.58672" lon="6.82929">
        <ele>1865.9</ele>
        <time>2022-08-11T08:31:49.000Z</time>
      </trkpt>
      <trkpt lat="45.58667" lon="6.82938">
        <ele>1863.1</ele>
        <time>2022-08-11T08:31:46.000Z</time>
      </trkpt>
      <trkpt lat="45.58664" lon="6.82943">
        <ele>1862.9</ele>
        <time>2022-08-11T08:31:44.000Z</time>
      </trkpt>
      <trkpt lat="45.5866" lon="6.82952">
        <ele>1862.2</ele>
        <time>2022-08-11T08:31:41.000Z</time>
      </trkpt>
      <trkpt lat="45.58657" lon="6.82958">
        <ele>1861.5</ele>
        <time>2022-08-11T08:31:39.000Z</time>
      </trkpt>
      <trkpt lat="45.58651" lon="6.82967">
        <ele>1861.1</ele>
        <time>2022-08-11T08:31:36.000Z</time>
      </trkpt>
      <trkpt lat="45.58645" lon="6.82973">
        <ele>1862.1</ele>
      </trkpt>
      <trkpt lat="45.58639" lon="6.82979">
        <ele>1862.7</ele>
        <time>2022-08-11T08:31:31.000Z</time>
      </trkpt>
      <trkpt lat="45.58637" lon="6.82982">
        <ele>1861.8</ele>
        <time>2022-08-11T08:31:30.000Z</time>
      </trkpt>
      <trkpt lat="45.58631" lon="6.82986">
        <ele>1861.7</ele>
      </trkpt>
      <trkpt lat="45.58625" lon="6.8299">
        <ele>1861.7</ele>
        <time>2022-08-11T08:31:26.000Z</time>
      </trkpt>
      <trkpt lat="45.58622" lon="6.82993">
        <ele>1861.2</ele>
        <time>2022-08-11T08:31:25.000Z</time>
      </trkpt>
      <trkpt lat="45.58618" lon="6.82999">
        <ele>1860.3</ele>
      </trkpt>
      <trkpt lat="45.58614" lon="6.83004">
        <ele>1859.7</ele>
        <time>2022-08-11T08:31:21.000Z</time>
      </trkpt>
      <trkpt lat="45.58609" lon="6.83008">
        <ele>1859.3</ele>
        <time>2022-08-11T08:31:19.000Z</time>
      </trkpt>
      <trkpt lat="45.58603" lon="6.83014">
        <ele>1858.2</ele>
        <time>2022-08-11T08:31:16.000Z</time>
      </trkpt>
      <trkpt lat="45.58595" lon="6.83017">
        <ele>1859</ele>
      </trkpt>
      <trkpt lat="45.58587" lon="6.83019">
        <ele>1859.7</ele>
        <time>2022-08-11T08:31:11.000Z</time>
      </trkpt>
      <trkpt lat="45.58581" lon="6.83026">
        <ele>1858.1</ele>
      </trkpt>
      <trkpt lat="45.58576" lon="6.83032">
        <ele>1857.5</ele>
        <time>2022-08-11T08:31:05.000Z</time>
      </trkpt>
      <trkpt lat="45.58574" lon="6.83034">
        <ele>1857.5</ele>
        <time>2022-08-11T08:31:04.000Z</time>
      </trkpt>
      <trkpt lat="45.58568" lon="6.8304">
        <ele>1857.3</ele>
        <time>2022-08-11T08:31:01.000Z</time>
      </trkpt>
      <trkpt lat="45.58562" lon="6.83045">
        <ele>1856.9</ele>
      </trkpt>
      <trkpt lat="45.58556" lon="6.8305">
        <ele>1856.3</ele>
        <time>2022-08-11T08:30:56.000Z</time>
      </trkpt>
      <trkpt lat="45.5855" lon="6.83057">
        <ele>1855.2</ele>
      </trkpt>
      <trkpt lat="45.58543" lon="6.83065">
        <ele>1855.2</ele>
        <time>2022-08-11T08:30:50.000Z</time>
      </trkpt>
      <trkpt lat="45.58536" lon="6.8307">
        <ele>1856.3</ele>
      </trkpt>
      <trkpt lat="45.5853" lon="6.83075">
        <ele>1857</ele>
        <time>2022-08-11T08:30:44.000Z</time>
      </trkpt>
      <trkpt lat="45.58525" lon="6.83078">
        <ele>1857.1</ele>
        <time>2022-08-11T08:30:42.000Z</time>
      </trkpt>
      <trkpt lat="45.5852" lon="6.83081">
        <ele>1857.2</ele>
        <time>2022-08-11T08:30:40.000Z</time>
      </trkpt>
      <trkpt lat="45.58512" lon="6.83084">
        <ele>1857.8</ele>
        <time>2022-08-11T08:30:37.000Z</time>
      </trkpt>
      <trkpt lat="45.58509" lon="6.83086">
        <ele>1857.7</ele>
        <time>2022-08-11T08:30:36.000Z</time>
      </trkpt>
      <trkpt lat="45.58507" lon="6.83089">
        <ele>1857.3</ele>
        <time>2022-08-11T08:30:35.000Z</time>
      </trkpt>
      <trkpt lat="45.585" lon="6.83094">
        <ele>1857.5</ele>
      </trkpt>
      <trkpt lat="45.58492" lon="6.831">
        <ele>1855.6</ele>
        <time>2022-08-11T08:30:28.000Z</time>
      </trkpt>
      <trkpt lat="45.58487" lon="6.83102">
        <ele>1854.8</ele>
        <time>2022-08-11T08:30:26.000Z</time>
      </trkpt>
      <trkpt lat="45.58478" lon="6.83104">
        <ele>1854.2</ele>
        <time>2022-08-11T08:30:23.000Z</time>
      </trkpt>
      <trkpt lat="45.58471" lon="6.83101">
        <ele>1855</ele>
      </trkpt>
      <trkpt lat="45.58464" lon="6.83097">
        <ele>1855.8</ele>
        <time>2022-08-11T08:30:17.000Z</time>
      </trkpt>
      <trkpt lat="45.58457" lon="6.83099">
        <ele>1855.4</ele>
      </trkpt>
      <trkpt lat="45.58449" lon="6.831">
        <ele>1855.1</ele>
        <time>2022-08-11T08:30:11.000Z</time>
      </trkpt>
      <trkpt lat="45.58444" lon="6.831">
        <ele>1855</ele>
        <time>2022-08-11T08:30:09.000Z</time>
      </trkpt>
      <trkpt lat="45.58439" lon="6.83106">
        <ele>1853.6</ele>
      </trkpt>
      <trkpt lat="45.58433" lon="6.83113">
        <ele>1851.8</ele>
      </trkpt>
      <trkpt lat="45.58431" lon="6.83119">
        <ele>1850.2</ele>
      </trkpt>
      <trkpt lat="45.58428" lon="6.83125">
        <ele>1848.8</ele>
      </trkpt>
      <trkpt lat="45.58426" lon="6.83131">
        <ele>1847.5</ele>
      </trkpt>
      <trkpt lat="45.58423" lon="6.83138">
        <ele>1846.5</ele>
      </trkpt>
      <trkpt lat="45.58421" lon="6.83144">
        <ele>1846</ele>
      </trkpt>
      <trkpt lat="45.58418" lon="6.8315">
        <ele>1845.9</ele>
      </trkpt>
      <trkpt lat="45.58416" lon="6.83157">
        <ele>1845.8</ele>
      </trkpt>
      <trkpt lat="45.58413" lon="6.83163">
        <ele>1845.5</ele>
      </trkpt>
      <trkpt lat="45.58412" lon="6.8317">
        <ele>1845.1</ele>
      </trkpt>
      <trkpt lat="45.58411" lon="6.83177">
        <ele>1844.6</ele>
      </trkpt>
      <trkpt lat="45.5841" lon="6.83184">
        <ele>1844.1</ele>
      </trkpt>
      <trkpt lat="45.58409" lon="6.83191">
        <ele>1843.6</ele>
      </trkpt>
      <trkpt lat="45.58409" lon="6.83199">
        <ele>1843</ele>
      </trkpt>
      <trkpt lat="45.58409" lon="6.83206">
        <ele>1842.5</ele>
      </trkpt>
      <trkpt lat="45.58409" lon="6.83214">
        <ele>1842.1</ele>
      </trkpt>
      <trkpt lat="45.58409" lon="6.83222">
        <ele>1841.6</ele>
      </trkpt>
      <trkpt lat="45.58409" lon="6.8323">
        <ele>1841.4</ele>
      </trkpt>
      <trkpt lat="45.58409" lon="6.83238">
        <ele>1841.1</ele>
      </trkpt>
      <trkpt lat="45.58409" lon="6.83245">
        <ele>1840.9</ele>
      </trkpt>
      <trkpt lat="45.58409" lon="6.83253">
        <ele>1840.5</ele>
      </trkpt>
      <trkpt lat="45.58408" lon="6.83263">
        <ele>1839.7</ele>
      </trkpt>
      <trkpt lat="45.58407" lon="6.83272">
        <ele>1838.9</ele>
      </trkpt>
      <trkpt lat="45.58405" lon="6.83282">
        <ele>1838</ele>
      </trkpt>
      <trkpt lat="45.58404" lon="6.83291">
        <ele>1837.1</ele>
      </trkpt>
      <trkpt lat="45.58403" lon="6.83301">
        <ele>1836</ele>
      </trkpt>
      <trkpt lat="45.58401" lon="6.8331">
        <ele>1835</ele>
      </trkpt>
      <trkpt lat="45.584" lon="6.8332">
        <ele>1834</ele>
      </trkpt>
      <trkpt lat="45.58399" lon="6.83329">
        <ele>1832.9</ele>
      </trkpt>
      <trkpt lat="45.58397" lon="6.8334">
        <ele>1831.3</ele>
      </trkpt>
      <trkpt lat="45.58394" lon="6.83351">
        <ele>1829.6</ele>
      </trkpt>
      <trkpt lat="45.58392" lon="6.83362">
        <ele>1827.6</ele>
      </trkpt>
      <trkpt lat="45.58389" lon="6.83373">
        <ele>1825.8</ele>
      </trkpt>
      <trkpt lat="45.58387" lon="6.83384">
        <ele>1824.5</ele>
      </trkpt>
      <trkpt lat="45.58385" lon="6.83394">
        <ele>1823.7</ele>
      </trkpt>
      <trkpt lat="45.58382" lon="6.83405">
        <ele>1823.2</ele>
      </trkpt>
      <trkpt lat="45.5838" lon="6.83416">
        <ele>1822.7</ele>
      </trkpt>
      <trkpt lat="45.58375" lon="6.83411">
        <ele>1822.7</ele>
      </trkpt>
      <trkpt lat="45.58371" lon="6.83407">
        <ele>1822.7</ele>
      </trkpt>
      <trkpt lat="45.58366" lon="6.83402">
        <ele>1822.7</ele>
      </trkpt>
      <trkpt lat="45.58362" lon="6.83397">
        <ele>1822.7</ele>
      </trkpt>
      <trkpt lat="45.58357" lon="6.83393">
        <ele>1822.7</ele>
      </trkpt>
      <trkpt lat="45.58352" lon="6.83388">
        <ele>1822.7</ele>
      </trkpt>
      <trkpt lat="45.58348" lon="6.83383">
        <ele>1822.6</ele>
      </trkpt>
      <trkpt lat="45.58343" lon="6.83379">
        <ele>1822.6</ele>
      </trkpt>
      <trkpt lat="45.58337" lon="6.83386">
        <ele>1822.2</ele>
      </trkpt>
      <trkpt lat="45.58331" lon="6.83393">
        <ele>1821.8</ele>
      </trkpt>
      <trkpt lat="45.58325" lon="6.834">
        <ele>1822</ele>
      </trkpt>
      <trkpt lat="45.58319" lon="6.83408">
        <ele>1822.5</ele>
      </trkpt>
      <trkpt lat="45.5832" lon="6.83419">
        <ele>1822.7</ele>
      </trkpt>
      <trkpt lat="45.5832" lon="6.8343">
        <ele>1824.2</ele>
      </trkpt>
      <trkpt lat="45.58321" lon="6.83441">
        <ele>1825.7</ele>
      </trkpt>
      <trkpt lat="45.58322" lon="6.83452">
        <ele>1827.1</ele>
      </trkpt>
      <trkpt lat="45.58325" lon="6.83457">
        <ele>1827.4</ele>
      </trkpt>
      <trkpt lat="45.58329" lon="6.83463">
        <ele>1827.9</ele>
      </trkpt>
      <trkpt lat="45.58333" lon="6.83469">
        <ele>1828.5</ele>
      </trkpt>
      <trkpt lat="45.58337" lon="6.83475">
        <ele>1828.6</ele>
      </trkpt>
      <trkpt lat="45.58338" lon="6.83484">
        <ele>1828.4</ele>
      </trkpt>
      <trkpt lat="45.5834" lon="6.83492">
        <ele>1828.2</ele>
      </trkpt>
      <trkpt lat="45.58341" lon="6.83501">
        <ele>1828.1</ele>
      </trkpt>
      <trkpt lat="45.58343" lon="6.8351">
        <ele>1830</ele>
      </trkpt>
      <trkpt lat="45.58346" lon="6.83514">
        <ele>1830.2</ele>
      </trkpt>
      <trkpt lat="45.5835" lon="6.83518">
        <ele>1830.4</ele>
      </trkpt>
      <trkpt lat="45.58353" lon="6.83523">
        <ele>1830.3</ele>
      </trkpt>
      <trkpt lat="45.58357" lon="6.83527">
        <ele>1830.1</ele>
      </trkpt>
      <trkpt lat="45.5836" lon="6.83532">
        <ele>1830.6</ele>
      </trkpt>
      <trkpt lat="45.58364" lon="6.83536">
        <ele>1831.2</ele>
      </trkpt>
      <trkpt lat="45.58368" lon="6.8354">
        <ele>1831.7</ele>
      </trkpt>
      <trkpt lat="45.58371" lon="6.83545">
        <ele>1832.2</ele>
      </trkpt>
      <trkpt lat="45.58375" lon="6.83549">
        <ele>1832.3</ele>
      </trkpt>
      <trkpt lat="45.58378" lon="6.83554">
        <ele>1832.3</ele>
      </trkpt>
      <trkpt lat="45.58382" lon="6.83558">
        <ele>1832.4</ele>
      </trkpt>
      <trkpt lat="45.58385" lon="6.83563">
        <ele>1832.6</ele>
      </trkpt>
      <trkpt lat="45.58389" lon="6.83567">
        <ele>1832.7</ele>
      </trkpt>
      <trkpt lat="45.58392" lon="6.83571">
        <ele>1833.5</ele>
      </trkpt>
      <trkpt lat="45.58396" lon="6.83576">
        <ele>1834.3</ele>
      </trkpt>
      <trkpt lat="45.584" lon="6.8358">
        <ele>1835.1</ele>
      </trkpt>
      <trkpt lat="45.58408" lon="6.83583">
        <ele>1834.6</ele>
      </trkpt>
      <trkpt lat="45.58416" lon="6.83586">
        <ele>1833.9</ele>
      </trkpt>
      <trkpt lat="45.58424" lon="6.8359">
        <ele>1833.6</ele>
      </trkpt>
      <trkpt lat="45.58433" lon="6.83593">
        <ele>1833.4</ele>
      </trkpt>
      <trkpt lat="45.58441" lon="6.83596">
        <ele>1833.4</ele>
      </trkpt>
      <trkpt lat="45.58449" lon="6.83599">
        <ele>1833.6</ele>
      </trkpt>
      <trkpt lat="45.58457" lon="6.83602">
        <ele>1834.1</ele>
      </trkpt>
      <trkpt lat="45.58466" lon="6.83605">
        <ele>1834.8</ele>
      </trkpt>
      <trkpt lat="45.58474" lon="6.83606">
        <ele>1834.6</ele>
      </trkpt>
      <trkpt lat="45.58483" lon="6.83606">
        <ele>1835.2</ele>
      </trkpt>
      <trkpt lat="45.58491" lon="6.83607">
        <ele>1835.7</ele>
      </trkpt>
      <trkpt lat="45.585" lon="6.83607">
        <ele>1836.3</ele>
      </trkpt>
      <trkpt lat="45.58508" lon="6.83608">
        <ele>1837</ele>
      </trkpt>
      <trkpt lat="45.58517" lon="6.83608">
        <ele>1837.8</ele>
      </trkpt>
      <trkpt lat="45.58525" lon="6.83609">
        <ele>1838.6</ele>
      </trkpt>
      <trkpt lat="45.58534" lon="6.83609">
        <ele>1838.9</ele>
      </trkpt>
      <trkpt lat="45.58541" lon="6.83609">
        <ele>1838.7</ele>
      </trkpt>
      <trkpt lat="45.58548" lon="6.8361">
        <ele>1838.6</ele>
      </trkpt>
      <trkpt lat="45.58556" lon="6.8361">
        <ele>1838.4</ele>
      </trkpt>
      <trkpt lat="45.58563" lon="6.8361">
        <ele>1838.7</ele>
      </trkpt>
      <trkpt lat="45.5857" lon="6.8361">
        <ele>1839</ele>
      </trkpt>
      <trkpt lat="45.58577" lon="6.8361">
        <ele>1839.3</ele>
      </trkpt>
      <trkpt lat="45.58585" lon="6.8361">
        <ele>1839.8</ele>
      </trkpt>
      <trkpt lat="45.58592" lon="6.8361">
        <ele>1840.9</ele>
      </trkpt>
      <trkpt lat="45.586" lon="6.83609">
        <ele>1841.6</ele>
      </trkpt>
      <trkpt lat="45.58607" lon="6.83608">
        <ele>1842.3</ele>
      </trkpt>
      <trkpt lat="45.58615" lon="6.83607">
        <ele>1842.9</ele>
      </trkpt>
      <trkpt lat="45.58623" lon="6.83606">
        <ele>1843.1</ele>
      </trkpt>
      <trkpt lat="45.58631" lon="6.83609">
        <ele>1844.7</ele>
      </trkpt>
      <trkpt lat="45.5864" lon="6.83612">
        <ele>1846.1</ele>
      </trkpt>
      <trkpt lat="45.58648" lon="6.83615">
        <ele>1846.9</ele>
      </trkpt>
      <trkpt lat="45.58656" lon="6.83617">
        <ele>1847.7</ele>
      </trkpt>
      <trkpt lat="45.58665" lon="6.8362">
        <ele>1848.6</ele>
      </trkpt>
      <trkpt lat="45.58673" lon="6.83623">
        <ele>1849.8</ele>
      </trkpt>
      <trkpt lat="45.58682" lon="6.83626">
        <ele>1851.3</ele>
      </trkpt>
      <trkpt lat="45.5869" lon="6.83629">
        <ele>1852.9</ele>
      </trkpt>
      <trkpt lat="45.58697" lon="6.8363">
        <ele>1853.9</ele>
      </trkpt>
      <trkpt lat="45.58705" lon="6.83631">
        <ele>1854.9</ele>
      </trkpt>
      <trkpt lat="45.58712" lon="6.83632">
        <ele>1855.9</ele>
      </trkpt>
      <trkpt lat="45.58719" lon="6.83633">
        <ele>1856.8</ele>
      </trkpt>
      <trkpt lat="45.58726" lon="6.83634">
        <ele>1857.6</ele>
      </trkpt>
      <trkpt lat="45.58734" lon="6.83635">
        <ele>1858.3</ele>
      </trkpt>
      <trkpt lat="45.58741" lon="6.83636">
        <ele>1858.9</ele>
      </trkpt>
      <trkpt lat="45.58748" lon="6.83637">
        <ele>1859.5</ele>
      </trkpt>
      <trkpt lat="45.58754" lon="6.8364">
        <ele>1860.7</ele>
      </trkpt>
      <trkpt lat="45.58761" lon="6.83643">
        <ele>1862.1</ele>
      </trkpt>
      <trkpt lat="45.58769" lon="6.8364">
        <ele>1862.2</ele>
      </trkpt>
      <trkpt lat="45.58777" lon="6.83637">
        <ele>1862.2</ele>
      </trkpt>
      <trkpt lat="45.58784" lon="6.83634">
        <ele>1862.2</ele>
      </trkpt>
      <trkpt lat="45.58792" lon="6.83631">
        <ele>1862.2</ele>
      </trkpt>
      <trkpt lat="45.58797" lon="6.83633">
        <ele>1863.3</ele>
      </trkpt>
      <trkpt lat="45.58802" lon="6.83635">
        <ele>1864.4</ele>
      </trkpt>
      <trkpt lat="45.58808" lon="6.83637">
        <ele>1865</ele>
      </trkpt>
      <trkpt lat="45.58813" lon="6.83639">
        <ele>1864.6</ele>
      </trkpt>
      <trkpt lat="45.58818" lon="6.8364">
        <ele>1864.4</ele>
      </trkpt>
      <trkpt lat="45.58823" lon="6.83642">
        <ele>1864.4</ele>
      </trkpt>
      <trkpt lat="45.58828" lon="6.83644">
        <ele>1864.6</ele>
      </trkpt>
      <trkpt lat="45.58833" lon="6.83646">
        <ele>1865.1</ele>
      </trkpt>
      <trkpt lat="45.58838" lon="6.83648">
        <ele>1865.9</ele>
      </trkpt>
      <trkpt lat="45.58843" lon="6.8365">
        <ele>1866.7</ele>
      </trkpt>
      <trkpt lat="45.58848" lon="6.83652">
        <ele>1867.4</ele>
      </trkpt>
      <trkpt lat="45.58853" lon="6.83654">
        <ele>1868</ele>
      </trkpt>
      <trkpt lat="45.58858" lon="6.83656">
        <ele>1868.6</ele>
      </trkpt>
      <trkpt lat="45.58863" lon="6.83658">
        <ele>1868.8</ele>
      </trkpt>
      <trkpt lat="45.58868" lon="6.8366">
        <ele>1868.5</ele>
      </trkpt>
      <trkpt lat="45.58873" lon="6.83662">
        <ele>1868.3</ele>
      </trkpt>
      <trkpt lat="45.58879" lon="6.83668">
        <ele>1869.6</ele>
      </trkpt>
      <trkpt lat="45.58884" lon="6.83673">
        <ele>1871.1</ele>
      </trkpt>
      <trkpt lat="45.5889" lon="6.83679">
        <ele>1872.5</ele>
      </trkpt>
      <trkpt lat="45.58895" lon="6.83684">
        <ele>1874</ele>
      </trkpt>
      <trkpt lat="45.58901" lon="6.8369">
        <ele>1875.5</ele>
      </trkpt>
      <trkpt lat="45.58906" lon="6.83696">
        <ele>1876.8</ele>
      </trkpt>
      <trkpt lat="45.58911" lon="6.83701">
        <ele>1877.9</ele>
      </trkpt>
      <trkpt lat="45.58917" lon="6.83707">
        <ele>1879</ele>
      </trkpt>
      <trkpt lat="45.58926" lon="6.83709">
        <ele>1880.9</ele>
      </trkpt>
      <trkpt lat="45.58935" lon="6.83711">
        <ele>1882.7</ele>
      </trkpt>
      <trkpt lat="45.58943" lon="6.83713">
        <ele>1884.3</ele>
      </trkpt>
      <trkpt lat="45.58952" lon="6.83716">
        <ele>1884.4</ele>
      </trkpt>
      <trkpt lat="45.58955" lon="6.83721">
        <ele>1885.8</ele>
      </trkpt>
      <trkpt lat="45.58958" lon="6.83726">
        <ele>1887.7</ele>
      </trkpt>
      <trkpt lat="45.58961" lon="6.83732">
        <ele>1889.6</ele>
      </trkpt>
      <trkpt lat="45.58964" lon="6.83737">
        <ele>1891.4</ele>
      </trkpt>
      <trkpt lat="45.58967" lon="6.83742">
        <ele>1893.1</ele>
      </trkpt>
      <trkpt lat="45.58969" lon="6.83748">
        <ele>1894.6</ele>
      </trkpt>
      <trkpt lat="45.58972" lon="6.83753">
        <ele>1896.1</ele>
      </trkpt>
      <trkpt lat="45.58975" lon="6.83758">
        <ele>1897.2</ele>
      </trkpt>
      <trkpt lat="45.58978" lon="6.83764">
        <ele>1898.4</ele>
      </trkpt>
      <trkpt lat="45.58981" lon="6.83769">
        <ele>1899.7</ele>
      </trkpt>
      <trkpt lat="45.58984" lon="6.83775">
        <ele>1901.2</ele>
      </trkpt>
      <trkpt lat="45.58987" lon="6.8378">
        <ele>1902.6</ele>
      </trkpt>
      <trkpt lat="45.58989" lon="6.83785">
        <ele>1903.8</ele>
      </trkpt>
      <trkpt lat="45.58992" lon="6.83791">
        <ele>1905</ele>
      </trkpt>
      <trkpt lat="45.58995" lon="6.83796">
        <ele>1906</ele>
      </trkpt>
      <trkpt lat="45.58998" lon="6.83801">
        <ele>1907.1</ele>
      </trkpt>
      <trkpt lat="45.59002" lon="6.83804">
        <ele>1906.5</ele>
      </trkpt>
      <trkpt lat="45.59007" lon="6.83806">
        <ele>1905.8</ele>
      </trkpt>
      <trkpt lat="45.59011" lon="6.83809">
        <ele>1905.2</ele>
      </trkpt>
      <trkpt lat="45.59015" lon="6.83811">
        <ele>1904.6</ele>
      </trkpt>
      <trkpt lat="45.59019" lon="6.8382">
        <ele>1906.9</ele>
      </trkpt>
      <trkpt lat="45.59023" lon="6.83829">
        <ele>1909.6</ele>
      </trkpt>
      <trkpt lat="45.59027" lon="6.83838">
        <ele>1910</ele>
      </trkpt>
      <trkpt lat="45.5903" lon="6.83847">
        <ele>1907.5</ele>
      </trkpt>
      <trkpt lat="45.59028" lon="6.83858">
        <ele>1908.3</ele>
      </trkpt>
      <trkpt lat="45.59025" lon="6.83868">
        <ele>1907.3</ele>
      </trkpt>
      <trkpt lat="45.5902" lon="6.8387">
        <ele>1908.7</ele>
      </trkpt>
      <trkpt lat="45.59016" lon="6.83872">
        <ele>1910</ele>
      </trkpt>
      <trkpt lat="45.59011" lon="6.83874">
        <ele>1911.3</ele>
      </trkpt>
      <trkpt lat="45.59007" lon="6.83876">
        <ele>1912.4</ele>
      </trkpt>
      <trkpt lat="45.59002" lon="6.83878">
        <ele>1913.5</ele>
      </trkpt>
      <trkpt lat="45.58997" lon="6.8388">
        <ele>1914.7</ele>
      </trkpt>
      <trkpt lat="45.58993" lon="6.83882">
        <ele>1915.9</ele>
      </trkpt>
      <trkpt lat="45.58988" lon="6.83884">
        <ele>1917.2</ele>
      </trkpt>
      <trkpt lat="45.58984" lon="6.83888">
        <ele>1917.8</ele>
      </trkpt>
      <trkpt lat="45.5898" lon="6.83892">
        <ele>1918.2</ele>
      </trkpt>
      <trkpt lat="45.58976" lon="6.83896">
        <ele>1918.5</ele>
      </trkpt>
      <trkpt lat="45.58972" lon="6.839">
        <ele>1918.5</ele>
      </trkpt>
      <trkpt lat="45.58969" lon="6.83907">
        <ele>1917.1</ele>
      </trkpt>
      <trkpt lat="45.58966" lon="6.83915">
        <ele>1916.4</ele>
      </trkpt>
      <trkpt lat="45.58963" lon="6.83922">
        <ele>1916.5</ele>
      </trkpt>
      <trkpt lat="45.5896" lon="6.83929">
        <ele>1916.3</ele>
      </trkpt>
      <trkpt lat="45.58961" lon="6.83936">
        <ele>1914.1</ele>
      </trkpt>
      <trkpt lat="45.58961" lon="6.83943">
        <ele>1912</ele>
      </trkpt>
      <trkpt lat="45.58961" lon="6.8395">
        <ele>1912.7</ele>
      </trkpt>
      <trkpt lat="45.58961" lon="6.83957">
        <ele>1914</ele>
      </trkpt>
      <trkpt lat="45.58961" lon="6.83965">
        <ele>1915.4</ele>
      </trkpt>
      <trkpt lat="45.58961" lon="6.83972">
        <ele>1916.7</ele>
      </trkpt>
      <trkpt lat="45.58961" lon="6.83979">
        <ele>1918</ele>
      </trkpt>
      <trkpt lat="45.58961" lon="6.83986">
        <ele>1919.2</ele>
      </trkpt>
      <trkpt lat="45.58958" lon="6.83995">
        <ele>1921.7</ele>
      </trkpt>
      <trkpt lat="45.58956" lon="6.84005">
        <ele>1923.3</ele>
      </trkpt>
      <trkpt lat="45.58953" lon="6.84014">
        <ele>1924.3</ele>
      </trkpt>
      <trkpt lat="45.5895" lon="6.84024">
        <ele>1925.3</ele>
      </trkpt>
      <trkpt lat="45.58947" lon="6.84033">
        <ele>1926.1</ele>
      </trkpt>
      <trkpt lat="45.58944" lon="6.84043">
        <ele>1926.5</ele>
      </trkpt>
      <trkpt lat="45.58942" lon="6.84053">
        <ele>1927.2</ele>
      </trkpt>
      <trkpt lat="45.58939" lon="6.84062">
        <ele>1929.1</ele>
      </trkpt>
      <trkpt lat="45.58935" lon="6.84069">
        <ele>1931.2</ele>
      </trkpt>
      <trkpt lat="45.58932" lon="6.84076">
        <ele>1933</ele>
      </trkpt>
      <trkpt lat="45.58928" lon="6.84083">
        <ele>1934.7</ele>
      </trkpt>
      <trkpt lat="45.58925" lon="6.8409">
        <ele>1934</ele>
      </trkpt>
      <trkpt lat="45.58921" lon="6.84098">
        <ele>1933.1</ele>
      </trkpt>
      <trkpt lat="45.58918" lon="6.84105">
        <ele>1931.7</ele>
      </trkpt>
      <trkpt lat="45.58914" lon="6.84112">
        <ele>1930.7</ele>
      </trkpt>
      <trkpt lat="45.58911" lon="6.84119">
        <ele>1931.5</ele>
      </trkpt>
      <trkpt lat="45.58907" lon="6.84126">
        <ele>1932.5</ele>
      </trkpt>
      <trkpt lat="45.58904" lon="6.84133">
        <ele>1933.7</ele>
      </trkpt>
      <trkpt lat="45.589" lon="6.8414">
        <ele>1934.9</ele>
      </trkpt>
      <trkpt lat="45.58896" lon="6.84147">
        <ele>1935.2</ele>
      </trkpt>
      <trkpt lat="45.58893" lon="6.84154">
        <ele>1935.4</ele>
      </trkpt>
      <trkpt lat="45.58889" lon="6.84162">
        <ele>1935.6</ele>
      </trkpt>
      <trkpt lat="45.58886" lon="6.84169">
        <ele>1937.1</ele>
      </trkpt>
      <trkpt lat="45.58882" lon="6.84176">
        <ele>1939.5</ele>
      </trkpt>
      <trkpt lat="45.5888" lon="6.84183">
        <ele>1940.9</ele>
      </trkpt>
      <trkpt lat="45.58878" lon="6.84189">
        <ele>1942.3</ele>
      </trkpt>
      <trkpt lat="45.58876" lon="6.84196">
        <ele>1943.7</ele>
      </trkpt>
      <trkpt lat="45.58874" lon="6.84203">
        <ele>1944.5</ele>
      </trkpt>
      <trkpt lat="45.58871" lon="6.8421">
        <ele>1945.3</ele>
      </trkpt>
      <trkpt lat="45.58869" lon="6.84217">
        <ele>1946.2</ele>
      </trkpt>
      <trkpt lat="45.58867" lon="6.84224">
        <ele>1947.1</ele>
      </trkpt>
      <trkpt lat="45.58865" lon="6.8423">
        <ele>1948.4</ele>
      </trkpt>
      <trkpt lat="45.58863" lon="6.84237">
        <ele>1949.8</ele>
      </trkpt>
      <trkpt lat="45.5886" lon="6.84244">
        <ele>1950.9</ele>
      </trkpt>
      <trkpt lat="45.58858" lon="6.84251">
        <ele>1951.6</ele>
      </trkpt>
      <trkpt lat="45.58856" lon="6.84258">
        <ele>1951.7</ele>
      </trkpt>
      <trkpt lat="45.58854" lon="6.84265">
        <ele>1951.7</ele>
      </trkpt>
      <trkpt lat="45.58852" lon="6.84272">
        <ele>1951.6</ele>
      </trkpt>
      <trkpt lat="45.58849" lon="6.84278">
        <ele>1951.5</ele>
      </trkpt>
      <trkpt lat="45.58847" lon="6.84285">
        <ele>1951.6</ele>
      </trkpt>
      <trkpt lat="45.58842" lon="6.84291">
        <ele>1953.7</ele>
      </trkpt>
      <trkpt lat="45.58836" lon="6.84297">
        <ele>1956.1</ele>
      </trkpt>
      <trkpt lat="45.58831" lon="6.84303">
        <ele>1958.4</ele>
      </trkpt>
      <trkpt lat="45.58825" lon="6.84309">
        <ele>1960</ele>
      </trkpt>
      <trkpt lat="45.5882" lon="6.84315">
        <ele>1961.2</ele>
      </trkpt>
      <trkpt lat="45.58814" lon="6.84321">
        <ele>1962.1</ele>
      </trkpt>
      <trkpt lat="45.58809" lon="6.84327">
        <ele>1962.6</ele>
      </trkpt>
      <trkpt lat="45.58804" lon="6.84332">
        <ele>1963.5</ele>
      </trkpt>
      <trkpt lat="45.588" lon="6.84342">
        <ele>1963.2</ele>
      </trkpt>
      <trkpt lat="45.58797" lon="6.84352">
        <ele>1962.7</ele>
      </trkpt>
      <trkpt lat="45.58794" lon="6.84362">
        <ele>1962.1</ele>
      </trkpt>
      <trkpt lat="45.58791" lon="6.84372">
        <ele>1961.5</ele>
      </trkpt>
      <trkpt lat="45.58785" lon="6.84379">
        <ele>1963</ele>
      </trkpt>
      <trkpt lat="45.5878" lon="6.84385">
        <ele>1964.7</ele>
      </trkpt>
      <trkpt lat="45.58774" lon="6.84391">
        <ele>1965.4</ele>
      </trkpt>
      <trkpt lat="45.58769" lon="6.84398">
        <ele>1965.4</ele>
      </trkpt>
      <trkpt lat="45.58764" lon="6.84404">
        <ele>1965.5</ele>
      </trkpt>
      <trkpt lat="45.58758" lon="6.84411">
        <ele>1965.7</ele>
      </trkpt>
      <trkpt lat="45.58753" lon="6.84417">
        <ele>1966.1</ele>
      </trkpt>
      <trkpt lat="45.58747" lon="6.84424">
        <ele>1966.6</ele>
      </trkpt>
      <trkpt lat="45.58743" lon="6.84429">
        <ele>1966.9</ele>
      </trkpt>
      <trkpt lat="45.5874" lon="6.84435">
        <ele>1967.3</ele>
      </trkpt>
      <trkpt lat="45.58736" lon="6.8444">
        <ele>1967.6</ele>
      </trkpt>
      <trkpt lat="45.58732" lon="6.84446">
        <ele>1968</ele>
      </trkpt>
      <trkpt lat="45.58728" lon="6.84451">
        <ele>1968.7</ele>
      </trkpt>
      <trkpt lat="45.58724" lon="6.84457">
        <ele>1969.5</ele>
      </trkpt>
      <trkpt lat="45.5872" lon="6.84462">
        <ele>1971.1</ele>
      </trkpt>
      <trkpt lat="45.58716" lon="6.84468">
        <ele>1973.4</ele>
      </trkpt>
      <trkpt lat="45.58713" lon="6.84478">
        <ele>1974.6</ele>
      </trkpt>
      <trkpt lat="45.58709" lon="6.84488">
        <ele>1975.5</ele>
      </trkpt>
      <trkpt lat="45.58705" lon="6.84498">
        <ele>1976.2</ele>
      </trkpt>
      <trkpt lat="45.58701" lon="6.84508">
        <ele>1976.3</ele>
      </trkpt>
      <trkpt lat="45.58697" lon="6.84518">
        <ele>1975.8</ele>
      </trkpt>
      <trkpt lat="45.58693" lon="6.84528">
        <ele>1975.2</ele>
      </trkpt>
      <trkpt lat="45.58689" lon="6.84538">
        <ele>1975.2</ele>
      </trkpt>
      <trkpt lat="45.58685" lon="6.84548">
        <ele>1974.9</ele>
      </trkpt>
      <trkpt lat="45.58682" lon="6.84553">
        <ele>1975.6</ele>
      </trkpt>
      <trkpt lat="45.58678" lon="6.84558">
        <ele>1976.1</ele>
      </trkpt>
      <trkpt lat="45.58675" lon="6.84563">
        <ele>1976.2</ele>
      </trkpt>
      <trkpt lat="45.58672" lon="6.84568">
        <ele>1976.1</ele>
      </trkpt>
      <trkpt lat="45.58668" lon="6.84573">
        <ele>1976.1</ele>
      </trkpt>
      <trkpt lat="45.58665" lon="6.84577">
        <ele>1975.6</ele>
      </trkpt>
      <trkpt lat="45.58662" lon="6.84582">
        <ele>1974.8</ele>
      </trkpt>
      <trkpt lat="45.58658" lon="6.84587">
        <ele>1974.4</ele>
      </trkpt>
      <trkpt lat="45.58655" lon="6.84592">
        <ele>1974.1</ele>
      </trkpt>
      <trkpt lat="45.58652" lon="6.84597">
        <ele>1973.9</ele>
      </trkpt>
      <trkpt lat="45.58648" lon="6.84602">
        <ele>1974</ele>
      </trkpt>
      <trkpt lat="45.58645" lon="6.84607">
        <ele>1974</ele>
      </trkpt>
      <trkpt lat="45.58642" lon="6.84612">
        <ele>1974.2</ele>
      </trkpt>
      <trkpt lat="45.58638" lon="6.84617">
        <ele>1974.2</ele>
      </trkpt>
      <trkpt lat="45.58635" lon="6.84621">
        <ele>1972.7</ele>
      </trkpt>
      <trkpt lat="45.58632" lon="6.84626">
        <ele>1971.1</ele>
      </trkpt>
      <trkpt lat="45.58626" lon="6.8462">
        <ele>1973.3</ele>
      </trkpt>
      <trkpt lat="45.58621" lon="6.84614">
        <ele>1975.8</ele>
      </trkpt>
      <trkpt lat="45.58616" lon="6.84607">
        <ele>1977.8</ele>
      </trkpt>
      <trkpt lat="45.58611" lon="6.84601">
        <ele>1979.4</ele>
      </trkpt>
      <trkpt lat="45.58604" lon="6.84602">
        <ele>1980.6</ele>
      </trkpt>
      <trkpt lat="45.58598" lon="6.84604">
        <ele>1981.6</ele>
      </trkpt>
      <trkpt lat="45.58592" lon="6.84606">
        <ele>1982.5</ele>
      </trkpt>
      <trkpt lat="45.58586" lon="6.84608">
        <ele>1983.1</ele>
      </trkpt>
      <trkpt lat="45.5858" lon="6.84609">
        <ele>1983.8</ele>
      </trkpt>
      <trkpt lat="45.58574" lon="6.84611">
        <ele>1984.7</ele>
      </trkpt>
      <trkpt lat="45.58568" lon="6.84613">
        <ele>1985.8</ele>
      </trkpt>
      <trkpt lat="45.58562" lon="6.84615">
        <ele>1987</ele>
      </trkpt>
      <trkpt lat="45.58555" lon="6.8462">
        <ele>1987</ele>
      </trkpt>
      <trkpt lat="45.58549" lon="6.84625">
        <ele>1988.1</ele>
      </trkpt>
      <trkpt lat="45.58542" lon="6.84631">
        <ele>1989.1</ele>
      </trkpt>
      <trkpt lat="45.58536" lon="6.84636">
        <ele>1989.7</ele>
      </trkpt>
      <trkpt lat="45.58529" lon="6.84642">
        <ele>1990.9</ele>
      </trkpt>
      <trkpt lat="45.58522" lon="6.84647">
        <ele>1993.3</ele>
      </trkpt>
      <trkpt lat="45.58516" lon="6.84653">
        <ele>1995.3</ele>
      </trkpt>
      <trkpt lat="45.58509" lon="6.84658">
        <ele>1996.9</ele>
      </trkpt>
      <trkpt lat="45.58503" lon="6.84663">
        <ele>1998.1</ele>
      </trkpt>
      <trkpt lat="45.58496" lon="6.84669">
        <ele>1999</ele>
      </trkpt>
      <trkpt lat="45.5849" lon="6.84674">
        <ele>2000.1</ele>
      </trkpt>
      <trkpt lat="45.58483" lon="6.8468">
        <ele>2001.3</ele>
      </trkpt>
      <trkpt lat="45.58476" lon="6.84685">
        <ele>2002.6</ele>
      </trkpt>
      <trkpt lat="45.5847" lon="6.84691">
        <ele>2003.6</ele>
      </trkpt>
      <trkpt lat="45.58463" lon="6.84696">
        <ele>2003.8</ele>
      </trkpt>
      <trkpt lat="45.58457" lon="6.84701">
        <ele>2003.7</ele>
      </trkpt>
      <trkpt lat="45.58459" lon="6.84696">
        <ele>2005</ele>
      </trkpt>
      <trkpt lat="45.58461" lon="6.8469">
        <ele>2006.1</ele>
      </trkpt>
      <trkpt lat="45.58464" lon="6.84684">
        <ele>2007.1</ele>
      </trkpt>
      <trkpt lat="45.58466" lon="6.84678">
        <ele>2008</ele>
      </trkpt>
      <trkpt lat="45.58468" lon="6.84672">
        <ele>2008.9</ele>
      </trkpt>
      <trkpt lat="45.58471" lon="6.84666">
        <ele>2009.6</ele>
      </trkpt>
      <trkpt lat="45.58473" lon="6.8466">
        <ele>2009.9</ele>
      </trkpt>
      <trkpt lat="45.58475" lon="6.84654">
        <ele>2010.3</ele>
      </trkpt>
      <trkpt lat="45.58478" lon="6.84648">
        <ele>2010.9</ele>
      </trkpt>
      <trkpt lat="45.5848" lon="6.84642">
        <ele>2011.7</ele>
      </trkpt>
      <trkpt lat="45.58482" lon="6.84637">
        <ele>2012.9</ele>
      </trkpt>
      <trkpt lat="45.58485" lon="6.84631">
        <ele>2014.4</ele>
      </trkpt>
      <trkpt lat="45.58487" lon="6.84625">
        <ele>2015.9</ele>
      </trkpt>
      <trkpt lat="45.5849" lon="6.84619">
        <ele>2017.4</ele>
      </trkpt>
      <trkpt lat="45.58492" lon="6.84613">
        <ele>2018.9</ele>
      </trkpt>
      <trkpt lat="45.58494" lon="6.84607">
        <ele>2019.8</ele>
      </trkpt>
      <trkpt lat="45.58497" lon="6.84601">
        <ele>2020.5</ele>
      </trkpt>
      <trkpt lat="45.58499" lon="6.84595">
        <ele>2021.1</ele>
      </trkpt>
      <trkpt lat="45.58501" lon="6.84589">
        <ele>2021.6</ele>
      </trkpt>
      <trkpt lat="45.58504" lon="6.84583">
        <ele>2022.1</ele>
      </trkpt>
      <trkpt lat="45.58506" lon="6.84578">
        <ele>2023.7</ele>
      </trkpt>
      <trkpt lat="45.58508" lon="6.84572">
        <ele>2025.3</ele>
      </trkpt>
      <trkpt lat="45.58511" lon="6.84566">
        <ele>2026.9</ele>
      </trkpt>
      <trkpt lat="45.58513" lon="6.8456">
        <ele>2028.6</ele>
      </trkpt>
      <trkpt lat="45.58515" lon="6.84554">
        <ele>2030.1</ele>
      </trkpt>
      <trkpt lat="45.58518" lon="6.84548">
        <ele>2031</ele>
      </trkpt>
      <trkpt lat="45.5852" lon="6.84542">
        <ele>2031.9</ele>
      </trkpt>
      <trkpt lat="45.58522" lon="6.84536">
        <ele>2032.6</ele>
      </trkpt>
      <trkpt lat="45.58525" lon="6.8453">
        <ele>2033.3</ele>
      </trkpt>
      <trkpt lat="45.58527" lon="6.84524">
        <ele>2033.7</ele>
      </trkpt>
      <trkpt lat="45.58529" lon="6.84519">
        <ele>2033.8</ele>
      </trkpt>
      <trkpt lat="45.58532" lon="6.84513">
        <ele>2034.2</ele>
      </trkpt>
      <trkpt lat="45.58528" lon="6.84509">
        <ele>2035.7</ele>
      </trkpt>
      <trkpt lat="45.58524" lon="6.84506">
        <ele>2038.3</ele>
      </trkpt>
      <trkpt lat="45.58519" lon="6.84509">
        <ele>2040.2</ele>
      </trkpt>
      <trkpt lat="45.58514" lon="6.84511">
        <ele>2041.7</ele>
      </trkpt>
      <trkpt lat="45.5851" lon="6.84513">
        <ele>2043.1</ele>
      </trkpt>
      <trkpt lat="45.58505" lon="6.84516">
        <ele>2044.2</ele>
      </trkpt>
      <trkpt lat="45.585" lon="6.84518">
        <ele>2045.2</ele>
      </trkpt>
      <trkpt lat="45.58496" lon="6.8452">
        <ele>2045.6</ele>
      </trkpt>
      <trkpt lat="45.58491" lon="6.84523">
        <ele>2046</ele>
      </trkpt>
      <trkpt lat="45.58486" lon="6.84525">
        <ele>2046.2</ele>
      </trkpt>
      <trkpt lat="45.58482" lon="6.84527">
        <ele>2046.5</ele>
      </trkpt>
      <trkpt lat="45.58477" lon="6.8453">
        <ele>2047</ele>
      </trkpt>
      <trkpt lat="45.58472" lon="6.84532">
        <ele>2047.5</ele>
      </trkpt>
      <trkpt lat="45.58468" lon="6.84534">
        <ele>2048.2</ele>
      </trkpt>
      <trkpt lat="45.58463" lon="6.84537">
        <ele>2049</ele>
      </trkpt>
      <trkpt lat="45.58458" lon="6.84539">
        <ele>2049.8</ele>
      </trkpt>
      <trkpt lat="45.58454" lon="6.84541">
        <ele>2050.7</ele>
      </trkpt>
      <trkpt lat="45.58449" lon="6.84544">
        <ele>2051.7</ele>
      </trkpt>
      <trkpt lat="45.58445" lon="6.84548">
        <ele>2051.8</ele>
      </trkpt>
      <trkpt lat="45.58441" lon="6.84553">
        <ele>2051.6</ele>
      </trkpt>
      <trkpt lat="45.58437" lon="6.84557">
        <ele>2051.4</ele>
      </trkpt>
      <trkpt lat="45.58433" lon="6.84562">
        <ele>2051.6</ele>
      </trkpt>
      <trkpt lat="45.58429" lon="6.84567">
        <ele>2052.1</ele>
      </trkpt>
      <trkpt lat="45.58426" lon="6.84571">
        <ele>2052.8</ele>
      </trkpt>
      <trkpt lat="45.58422" lon="6.84576">
        <ele>2053.7</ele>
      </trkpt>
      <trkpt lat="45.58418" lon="6.8458">
        <ele>2054.8</ele>
      </trkpt>
      <trkpt lat="45.58412" lon="6.8458">
        <ele>2056.2</ele>
      </trkpt>
      <trkpt lat="45.58407" lon="6.8458">
        <ele>2057.4</ele>
      </trkpt>
      <trkpt lat="45.58402" lon="6.84579">
        <ele>2058.7</ele>
      </trkpt>
      <trkpt lat="45.58397" lon="6.84579">
        <ele>2059.9</ele>
      </trkpt>
      <trkpt lat="45.58392" lon="6.84579">
        <ele>2061.1</ele>
      </trkpt>
      <trkpt lat="45.58387" lon="6.84579">
        <ele>2062.6</ele>
      </trkpt>
      <trkpt lat="45.58381" lon="6.84578">
        <ele>2064.4</ele>
      </trkpt>
      <trkpt lat="45.58376" lon="6.84578">
        <ele>2066.1</ele>
      </trkpt>
      <trkpt lat="45.58377" lon="6.8457">
        <ele>2067.4</ele>
      </trkpt>
      <trkpt lat="45.58378" lon="6.84561">
        <ele>2068.7</ele>
      </trkpt>
      <trkpt lat="45.58379" lon="6.84553">
        <ele>2070.1</ele>
      </trkpt>
      <trkpt lat="45.5838" lon="6.84545">
        <ele>2071.6</ele>
      </trkpt>
      <trkpt lat="45.58381" lon="6.84537">
        <ele>2073.2</ele>
      </trkpt>
      <trkpt lat="45.58382" lon="6.84528">
        <ele>2074.7</ele>
      </trkpt>
      <trkpt lat="45.58383" lon="6.8452">
        <ele>2076</ele>
      </trkpt>
      <trkpt lat="45.58384" lon="6.84512">
        <ele>2077.3</ele>
      </trkpt>
      <trkpt lat="45.58386" lon="6.84506">
        <ele>2077.7</ele>
      </trkpt>
      <trkpt lat="45.58389" lon="6.845">
        <ele>2078.2</ele>
      </trkpt>
      <trkpt lat="45.58391" lon="6.84494">
        <ele>2079.6</ele>
      </trkpt>
      <trkpt lat="45.58393" lon="6.84488">
        <ele>2081.1</ele>
      </trkpt>
      <trkpt lat="45.58396" lon="6.84482">
        <ele>2082.6</ele>
      </trkpt>
      <trkpt lat="45.58398" lon="6.84476">
        <ele>2084</ele>
      </trkpt>
      <trkpt lat="45.584" lon="6.8447">
        <ele>2085.1</ele>
      </trkpt>
      <trkpt lat="45.58403" lon="6.84464">
        <ele>2085.7</ele>
      </trkpt>
      <trkpt lat="45.58396" lon="6.84463">
        <ele>2086.6</ele>
      </trkpt>
      <trkpt lat="45.5839" lon="6.84462">
        <ele>2087.7</ele>
      </trkpt>
      <trkpt lat="45.58384" lon="6.84461">
        <ele>2089</ele>
      </trkpt>
      <trkpt lat="45.58377" lon="6.8446">
        <ele>2090.4</ele>
      </trkpt>
      <trkpt lat="45.58371" lon="6.84459">
        <ele>2091.9</ele>
      </trkpt>
      <trkpt lat="45.58365" lon="6.84458">
        <ele>2093.4</ele>
      </trkpt>
      <trkpt lat="45.58359" lon="6.84457">
        <ele>2095.3</ele>
      </trkpt>
      <trkpt lat="45.58352" lon="6.84456">
        <ele>2097.8</ele>
      </trkpt>
      <trkpt lat="45.58354" lon="6.84446">
        <ele>2098.9</ele>
      </trkpt>
      <trkpt lat="45.58356" lon="6.84437">
        <ele>2100</ele>
      </trkpt>
      <trkpt lat="45.58358" lon="6.84427">
        <ele>2101</ele>
      </trkpt>
      <trkpt lat="45.5836" lon="6.84417">
        <ele>2102.2</ele>
      </trkpt>
      <trkpt lat="45.58362" lon="6.84408">
        <ele>2103.4</ele>
      </trkpt>
      <trkpt lat="45.58364" lon="6.84398">
        <ele>2104.7</ele>
      </trkpt>
      <trkpt lat="45.58366" lon="6.84389">
        <ele>2106.1</ele>
      </trkpt>
      <trkpt lat="45.58368" lon="6.84379">
        <ele>2107.4</ele>
      </trkpt>
      <trkpt lat="45.5837" lon="6.8437">
        <ele>2108.9</ele>
      </trkpt>
      <trkpt lat="45.58372" lon="6.8436">
        <ele>2110.4</ele>
      </trkpt>
      <trkpt lat="45.58374" lon="6.8435">
        <ele>2112</ele>
      </trkpt>
      <trkpt lat="45.58376" lon="6.84341">
        <ele>2113.6</ele>
      </trkpt>
      <trkpt lat="45.58378" lon="6.84331">
        <ele>2115.1</ele>
      </trkpt>
      <trkpt lat="45.5838" lon="6.84322">
        <ele>2116.2</ele>
      </trkpt>
      <trkpt lat="45.58382" lon="6.84312">
        <ele>2117.2</ele>
      </trkpt>
      <trkpt lat="45.58384" lon="6.84302">
        <ele>2117.8</ele>
      </trkpt>
      <trkpt lat="45.58379" lon="6.843">
        <ele>2118.6</ele>
      </trkpt>
      <trkpt lat="45.58374" lon="6.84297">
        <ele>2119.4</ele>
      </trkpt>
      <trkpt lat="45.58368" lon="6.84294">
        <ele>2120.1</ele>
      </trkpt>
      <trkpt lat="45.58363" lon="6.84291">
        <ele>2120.8</ele>
      </trkpt>
      <trkpt lat="45.58358" lon="6.84288">
        <ele>2121.6</ele>
      </trkpt>
      <trkpt lat="45.58353" lon="6.84285">
        <ele>2122.6</ele>
      </trkpt>
      <trkpt lat="45.58348" lon="6.84283">
        <ele>2123.7</ele>
      </trkpt>
      <trkpt lat="45.58343" lon="6.8428">
        <ele>2124.9</ele>
      </trkpt>
      <trkpt lat="45.58337" lon="6.84277">
        <ele>2126.2</ele>
      </trkpt>
      <trkpt lat="45.58332" lon="6.84274">
        <ele>2127.4</ele>
      </trkpt>
      <trkpt lat="45.58327" lon="6.84271">
        <ele>2128.8</ele>
      </trkpt>
      <trkpt lat="45.58322" lon="6.84269">
        <ele>2130.2</ele>
      </trkpt>
      <trkpt lat="45.58317" lon="6.84266">
        <ele>2131.6</ele>
      </trkpt>
      <trkpt lat="45.58312" lon="6.84263">
        <ele>2133</ele>
      </trkpt>
      <trkpt lat="45.58306" lon="6.8426">
        <ele>2134.4</ele>
      </trkpt>
      <trkpt lat="45.58301" lon="6.84257">
        <ele>2136.4</ele>
      </trkpt>
      <trkpt lat="45.58299" lon="6.84248">
        <ele>2137.6</ele>
      </trkpt>
      <trkpt lat="45.58296" lon="6.84238">
        <ele>2138.2</ele>
      </trkpt>
      <trkpt lat="45.58291" lon="6.84243">
        <ele>2140.4</ele>
      </trkpt>
      <trkpt lat="45.58286" lon="6.84248">
        <ele>2142.5</ele>
      </trkpt>
      <trkpt lat="45.58282" lon="6.84254">
        <ele>2144.2</ele>
      </trkpt>
      <trkpt lat="45.58277" lon="6.84259">
        <ele>2145.6</ele>
      </trkpt>
      <trkpt lat="45.58272" lon="6.84264">
        <ele>2146.3</ele>
      </trkpt>
      <trkpt lat="45.58267" lon="6.84269">
        <ele>2147.2</ele>
      </trkpt>
      <trkpt lat="45.58262" lon="6.84275">
        <ele>2148</ele>
      </trkpt>
      <trkpt lat="45.58258" lon="6.8428">
        <ele>2148.9</ele>
      </trkpt>
      <trkpt lat="45.58254" lon="6.84274">
        <ele>2150.2</ele>
      </trkpt>
      <trkpt lat="45.5825" lon="6.84269">
        <ele>2151.3</ele>
      </trkpt>
      <trkpt lat="45.58246" lon="6.84264">
        <ele>2152.4</ele>
      </trkpt>
      <trkpt lat="45.58243" lon="6.84258">
        <ele>2153.5</ele>
      </trkpt>
      <trkpt lat="45.58239" lon="6.84261">
        <ele>2154.3</ele>
      </trkpt>
      <trkpt lat="45.58234" lon="6.84264">
        <ele>2155.2</ele>
      </trkpt>
      <trkpt lat="45.5823" lon="6.84266">
        <ele>2156</ele>
      </trkpt>
      <trkpt lat="45.58226" lon="6.84269">
        <ele>2156.7</ele>
      </trkpt>
      <trkpt lat="45.58222" lon="6.84261">
        <ele>2158.3</ele>
      </trkpt>
      <trkpt lat="45.58218" lon="6.84254">
        <ele>2160.4</ele>
      </trkpt>
      <trkpt lat="45.58214" lon="6.84246">
        <ele>2161.8</ele>
      </trkpt>
      <trkpt lat="45.5821" lon="6.84238">
        <ele>2162.7</ele>
      </trkpt>
      <trkpt lat="45.58206" lon="6.8423">
        <ele>2163.4</ele>
      </trkpt>
      <trkpt lat="45.58201" lon="6.84222">
        <ele>2164</ele>
      </trkpt>
      <trkpt lat="45.58197" lon="6.84215">
        <ele>2165.4</ele>
      </trkpt>
      <trkpt lat="45.58193" lon="6.84207">
        <ele>2167</ele>
      </trkpt>
      <trkpt lat="45.5819" lon="6.84218">
        <ele>2168.4</ele>
      </trkpt>
      <trkpt lat="45.58186" lon="6.84228">
        <ele>2170.8</ele>
      </trkpt>
      <trkpt lat="45.58187" lon="6.84239">
        <ele>2171.7</ele>
      </trkpt>
      <trkpt lat="45.58187" lon="6.8425">
        <ele>2172.7</ele>
      </trkpt>
      <trkpt lat="45.58187" lon="6.84261">
        <ele>2173.8</ele>
      </trkpt>
      <trkpt lat="45.58188" lon="6.84271">
        <ele>2174.8</ele>
      </trkpt>
      <trkpt lat="45.58184" lon="6.84281">
        <ele>2177.5</ele>
      </trkpt>
      <trkpt lat="45.58181" lon="6.8429">
        <ele>2179.2</ele>
      </trkpt>
      <trkpt lat="45.58177" lon="6.84299">
        <ele>2180.7</ele>
      </trkpt>
      <trkpt lat="45.58174" lon="6.84309">
        <ele>2181.9</ele>
      </trkpt>
      <trkpt lat="45.58169" lon="6.84307">
        <ele>2184</ele>
      </trkpt>
      <trkpt lat="45.58164" lon="6.84305">
        <ele>2186.1</ele>
      </trkpt>
      <trkpt lat="45.5816" lon="6.84304">
        <ele>2188.3</ele>
      </trkpt>
      <trkpt lat="45.58155" lon="6.84302">
        <ele>2190.5</ele>
      </trkpt>
      <trkpt lat="45.5815" lon="6.843">
        <ele>2192.7</ele>
      </trkpt>
      <trkpt lat="45.58145" lon="6.84298">
        <ele>2194.9</ele>
      </trkpt>
      <trkpt lat="45.58141" lon="6.84297">
        <ele>2197.2</ele>
      </trkpt>
      <trkpt lat="45.58136" lon="6.84295">
        <ele>2199.3</ele>
      </trkpt>
      <trkpt lat="45.58131" lon="6.84293">
        <ele>2201.3</ele>
      </trkpt>
      <trkpt lat="45.58127" lon="6.84291">
        <ele>2203.2</ele>
      </trkpt>
      <trkpt lat="45.58122" lon="6.8429">
        <ele>2205</ele>
      </trkpt>
      <trkpt lat="45.58117" lon="6.84288">
        <ele>2206.8</ele>
      </trkpt>
      <trkpt lat="45.58113" lon="6.84286">
        <ele>2208.5</ele>
      </trkpt>
      <trkpt lat="45.58108" lon="6.84284">
        <ele>2210.1</ele>
      </trkpt>
      <trkpt lat="45.58103" lon="6.84283">
        <ele>2211.7</ele>
      </trkpt>
      <trkpt lat="45.58098" lon="6.84281">
        <ele>2213.2</ele>
      </trkpt>
      <trkpt lat="45.58094" lon="6.84279">
        <ele>2214.7</ele>
      </trkpt>
      <trkpt lat="45.58089" lon="6.84277">
        <ele>2216.2</ele>
      </trkpt>
      <trkpt lat="45.58084" lon="6.84276">
        <ele>2217.9</ele>
      </trkpt>
      <trkpt lat="45.5808" lon="6.84274">
        <ele>2219.4</ele>
      </trkpt>
      <trkpt lat="45.58075" lon="6.84272">
        <ele>2220.8</ele>
      </trkpt>
      <trkpt lat="45.5807" lon="6.8427">
        <ele>2222.2</ele>
      </trkpt>
      <trkpt lat="45.58066" lon="6.84269">
        <ele>2223.5</ele>
      </trkpt>
      <trkpt lat="45.58061" lon="6.84267">
        <ele>2224.7</ele>
      </trkpt>
      <trkpt lat="45.58056" lon="6.84265">
        <ele>2225.8</ele>
      </trkpt>
      <trkpt lat="45.58052" lon="6.84263">
        <ele>2227.1</ele>
      </trkpt>
      <trkpt lat="45.58047" lon="6.84262">
        <ele>2228.3</ele>
      </trkpt>
      <trkpt lat="45.58042" lon="6.8426">
        <ele>2229.4</ele>
      </trkpt>
      <trkpt lat="45.58037" lon="6.84258">
        <ele>2230.5</ele>
      </trkpt>
      <trkpt lat="45.58033" lon="6.84257">
        <ele>2231.5</ele>
      </trkpt>
      <trkpt lat="45.58028" lon="6.84255">
        <ele>2232.4</ele>
      </trkpt>
      <trkpt lat="45.58023" lon="6.84253">
        <ele>2233.4</ele>
      </trkpt>
      <trkpt lat="45.58016" lon="6.84252">
        <ele>2235.1</ele>
      </trkpt>
      <trkpt lat="45.58008" lon="6.84252">
        <ele>2236.7</ele>
      </trkpt>
      <trkpt lat="45.58" lon="6.84251">
        <ele>2238.3</ele>
      </trkpt>
      <trkpt lat="45.57992" lon="6.84251">
        <ele>2240.2</ele>
      </trkpt>
      <trkpt lat="45.57984" lon="6.8425">
        <ele>2241.9</ele>
      </trkpt>
      <trkpt lat="45.57977" lon="6.84249">
        <ele>2243.8</ele>
      </trkpt>
      <trkpt lat="45.57969" lon="6.84249">
        <ele>2245.8</ele>
      </trkpt>
      <trkpt lat="45.57961" lon="6.84248">
        <ele>2247.8</ele>
      </trkpt>
      <trkpt lat="45.57953" lon="6.84248">
        <ele>2249.9</ele>
      </trkpt>
      <trkpt lat="45.57945" lon="6.84247">
        <ele>2252</ele>
      </trkpt>
      <trkpt lat="45.57938" lon="6.84246">
        <ele>2253.8</ele>
      </trkpt>
      <trkpt lat="45.5793" lon="6.84246">
        <ele>2255.7</ele>
      </trkpt>
      <trkpt lat="45.57922" lon="6.84245">
        <ele>2257.7</ele>
      </trkpt>
      <trkpt lat="45.57914" lon="6.84245">
        <ele>2259.5</ele>
      </trkpt>
      <trkpt lat="45.57907" lon="6.84244">
        <ele>2260.8</ele>
      </trkpt>
      <trkpt lat="45.57899" lon="6.84243">
        <ele>2262.2</ele>
      </trkpt>
      <trkpt lat="45.57891" lon="6.84243">
        <ele>2263.6</ele>
      </trkpt>
      <trkpt lat="45.57883" lon="6.84242">
        <ele>2264.8</ele>
      </trkpt>
      <trkpt lat="45.57875" lon="6.84242">
        <ele>2266</ele>
      </trkpt>
      <trkpt lat="45.57868" lon="6.84241">
        <ele>2267.3</ele>
      </trkpt>
      <trkpt lat="45.5786" lon="6.8424">
        <ele>2268.3</ele>
      </trkpt>
      <trkpt lat="45.57852" lon="6.8424">
        <ele>2268.3</ele>
      </trkpt>
      <trkpt lat="45.57844" lon="6.84239">
        <ele>2268.3</ele>
      </trkpt>
      <trkpt lat="45.57836" lon="6.84239">
        <ele>2268.3</ele>
      </trkpt>
      <trkpt lat="45.57829" lon="6.84238">
        <ele>2268.6</ele>
      </trkpt>
      <trkpt lat="45.57821" lon="6.84237">
        <ele>2269.1</ele>
      </trkpt>
      <trkpt lat="45.57813" lon="6.84237">
        <ele>2269.5</ele>
      </trkpt>
      <trkpt lat="45.57805" lon="6.84236">
        <ele>2270</ele>
      </trkpt>
      <trkpt lat="45.57797" lon="6.84236">
        <ele>2269.8</ele>
      </trkpt>
      <trkpt lat="45.5779" lon="6.84235">
        <ele>2269.6</ele>
      </trkpt>
      <trkpt lat="45.57782" lon="6.84234">
        <ele>2269.4</ele>
      </trkpt>
      <trkpt lat="45.57774" lon="6.84234">
        <ele>2269.4</ele>
      </trkpt>
      <trkpt lat="45.57769" lon="6.84234">
        <ele>2269.6</ele>
      </trkpt>
      <trkpt lat="45.57765" lon="6.84235">
        <ele>2269.9</ele>
      </trkpt>
      <trkpt lat="45.5776" lon="6.84236">
        <ele>2270.1</ele>
      </trkpt>
      <trkpt lat="45.57755" lon="6.84237">
        <ele>2270.4</ele>
      </trkpt>
      <trkpt lat="45.57751" lon="6.84237">
        <ele>2270.6</ele>
      </trkpt>
      <trkpt lat="45.57746" lon="6.84238">
        <ele>2271.1</ele>
      </trkpt>
      <trkpt lat="45.57741" lon="6.84239">
        <ele>2271.7</ele>
      </trkpt>
      <trkpt lat="45.57737" lon="6.84239">
        <ele>2272.3</ele>
      </trkpt>
      <trkpt lat="45.57732" lon="6.8424">
        <ele>2272.9</ele>
      </trkpt>
      <trkpt lat="45.57727" lon="6.84241">
        <ele>2273.5</ele>
      </trkpt>
      <trkpt lat="45.57722" lon="6.84241">
        <ele>2274.1</ele>
      </trkpt>
      <trkpt lat="45.57718" lon="6.84242">
        <ele>2274.9</ele>
      </trkpt>
      <trkpt lat="45.57713" lon="6.84243">
        <ele>2275.8</ele>
      </trkpt>
      <trkpt lat="45.57708" lon="6.84244">
        <ele>2276.7</ele>
      </trkpt>
      <trkpt lat="45.57704" lon="6.84244">
        <ele>2277.6</ele>
      </trkpt>
      <trkpt lat="45.57699" lon="6.84245">
        <ele>2278.5</ele>
      </trkpt>
      <trkpt lat="45.57694" lon="6.84246">
        <ele>2279.4</ele>
      </trkpt>
      <trkpt lat="45.5769" lon="6.84246">
        <ele>2280.6</ele>
      </trkpt>
      <trkpt lat="45.57685" lon="6.84247">
        <ele>2281.8</ele>
      </trkpt>
      <trkpt lat="45.5768" lon="6.84248">
        <ele>2283.1</ele>
      </trkpt>
      <trkpt lat="45.57676" lon="6.84249">
        <ele>2284.4</ele>
      </trkpt>
      <trkpt lat="45.57671" lon="6.84249">
        <ele>2285.7</ele>
      </trkpt>
      <trkpt lat="45.57666" lon="6.8425">
        <ele>2287.1</ele>
      </trkpt>
      <trkpt lat="45.57661" lon="6.84251">
        <ele>2288.6</ele>
      </trkpt>
      <trkpt lat="45.57657" lon="6.84251">
        <ele>2290.2</ele>
      </trkpt>
      <trkpt lat="45.57652" lon="6.84252">
        <ele>2291.7</ele>
      </trkpt>
      <trkpt lat="45.57647" lon="6.84253">
        <ele>2293.2</ele>
      </trkpt>
      <trkpt lat="45.57643" lon="6.84253">
        <ele>2294.7</ele>
      </trkpt>
      <trkpt lat="45.57638" lon="6.84254">
        <ele>2296.2</ele>
      </trkpt>
      <trkpt lat="45.57633" lon="6.84255">
        <ele>2298</ele>
      </trkpt>
      <trkpt lat="45.57629" lon="6.84256">
        <ele>2299.8</ele>
      </trkpt>
      <trkpt lat="45.57624" lon="6.84256">
        <ele>2301.5</ele>
      </trkpt>
      <trkpt lat="45.57616" lon="6.84254">
        <ele>2303.1</ele>
      </trkpt>
      <trkpt lat="45.57609" lon="6.84252">
        <ele>2304.9</ele>
      </trkpt>
      <trkpt lat="45.57601" lon="6.84251">
        <ele>2307</ele>
      </trkpt>
      <trkpt lat="45.57593" lon="6.84249">
        <ele>2309.1</ele>
      </trkpt>
      <trkpt lat="45.57585" lon="6.84247">
        <ele>2311.4</ele>
      </trkpt>
      <trkpt lat="45.57578" lon="6.84245">
        <ele>2313.7</ele>
      </trkpt>
      <trkpt lat="45.5757" lon="6.84243">
        <ele>2316.2</ele>
      </trkpt>
      <trkpt lat="45.57562" lon="6.84241">
        <ele>2318.8</ele>
      </trkpt>
      <trkpt lat="45.57555" lon="6.84239">
        <ele>2321.6</ele>
      </trkpt>
      <trkpt lat="45.57547" lon="6.84237">
        <ele>2324</ele>
      </trkpt>
      <trkpt lat="45.57539" lon="6.84236">
        <ele>2326.6</ele>
      </trkpt>
      <trkpt lat="45.57532" lon="6.84234">
        <ele>2329.1</ele>
      </trkpt>
      <trkpt lat="45.57524" lon="6.84232">
        <ele>2331.5</ele>
      </trkpt>
      <trkpt lat="45.57516" lon="6.8423">
        <ele>2333.7</ele>
      </trkpt>
      <trkpt lat="45.57508" lon="6.84228">
        <ele>2335.7</ele>
      </trkpt>
      <trkpt lat="45.57501" lon="6.84226">
        <ele>2337.5</ele>
      </trkpt>
      <trkpt lat="45.57495" lon="6.84227">
        <ele>2339.9</ele>
      </trkpt>
      <trkpt lat="45.57488" lon="6.84228">
        <ele>2342.4</ele>
      </trkpt>
      <trkpt lat="45.57482" lon="6.84229">
        <ele>2344.9</ele>
      </trkpt>
      <trkpt lat="45.57476" lon="6.8423">
        <ele>2347.4</ele>
      </trkpt>
      <trkpt lat="45.57469" lon="6.84228">
        <ele>2349.3</ele>
      </trkpt>
      <trkpt lat="45.57463" lon="6.84226">
        <ele>2350.9</ele>
      </trkpt>
      <trkpt lat="45.57456" lon="6.84223">
        <ele>2352.5</ele>
      </trkpt>
      <trkpt lat="45.5745" lon="6.84221">
        <ele>2354</ele>
      </trkpt>
      <trkpt lat="45.57443" lon="6.84218">
        <ele>2355.5</ele>
      </trkpt>
      <trkpt lat="45.57437" lon="6.84216">
        <ele>2357.4</ele>
      </trkpt>
      <trkpt lat="45.5743" lon="6.84214">
        <ele>2359.4</ele>
      </trkpt>
      <trkpt lat="45.57423" lon="6.84211">
        <ele>2361.4</ele>
      </trkpt>
      <trkpt lat="45.57416" lon="6.84211">
        <ele>2364.2</ele>
      </trkpt>
      <trkpt lat="45.57408" lon="6.84211">
        <ele>2366.8</ele>
      </trkpt>
      <trkpt lat="45.57401" lon="6.84211">
        <ele>2369.3</ele>
      </trkpt>
      <trkpt lat="45.57393" lon="6.8421">
        <ele>2371.9</ele>
      </trkpt>
      <trkpt lat="45.57386" lon="6.8421">
        <ele>2374.6</ele>
      </trkpt>
      <trkpt lat="45.57378" lon="6.8421">
        <ele>2377.4</ele>
      </trkpt>
      <trkpt lat="45.57371" lon="6.8421">
        <ele>2380.4</ele>
      </trkpt>
      <trkpt lat="45.57363" lon="6.8421">
        <ele>2383.3</ele>
      </trkpt>
      <trkpt lat="45.57356" lon="6.84209">
        <ele>2386.2</ele>
      </trkpt>
      <trkpt lat="45.57349" lon="6.84209">
        <ele>2389.3</ele>
      </trkpt>
      <trkpt lat="45.57341" lon="6.84209">
        <ele>2392.4</ele>
      </trkpt>
      <trkpt lat="45.57334" lon="6.84209">
        <ele>2395.5</ele>
      </trkpt>
      <trkpt lat="45.57326" lon="6.84209">
        <ele>2399</ele>
      </trkpt>
      <trkpt lat="45.57319" lon="6.84208">
        <ele>2402.4</ele>
      </trkpt>
      <trkpt lat="45.57311" lon="6.84208">
        <ele>2405.9</ele>
      </trkpt>
      <trkpt lat="45.57304" lon="6.84208">
        <ele>2409</ele>
      </trkpt>
      <trkpt lat="45.57296" lon="6.84208">
        <ele>2411.4</ele>
      </trkpt>
      <trkpt lat="45.57289" lon="6.84208">
        <ele>2413.7</ele>
      </trkpt>
      <trkpt lat="45.57281" lon="6.84207">
        <ele>2416.1</ele>
      </trkpt>
      <trkpt lat="45.57274" lon="6.84207">
        <ele>2418</ele>
      </trkpt>
      <trkpt lat="45.57266" lon="6.84207">
        <ele>2419.6</ele>
      </trkpt>
      <trkpt lat="45.57259" lon="6.84207">
        <ele>2421.3</ele>
      </trkpt>
      <trkpt lat="45.57251" lon="6.84207">
        <ele>2422.9</ele>
      </trkpt>
      <trkpt lat="45.57244" lon="6.84206">
        <ele>2424.9</ele>
      </trkpt>
      <trkpt lat="45.57236" lon="6.84206">
        <ele>2427</ele>
      </trkpt>
      <trkpt lat="45.57229" lon="6.84206">
        <ele>2429.1</ele>
      </trkpt>
      <trkpt lat="45.57221" lon="6.84206">
        <ele>2431.1</ele>
      </trkpt>
      <trkpt lat="45.57214" lon="6.84206">
        <ele>2433.1</ele>
      </trkpt>
      <trkpt lat="45.57206" lon="6.84205">
        <ele>2435</ele>
      </trkpt>
      <trkpt lat="45.57199" lon="6.84205">
        <ele>2436.9</ele>
      </trkpt>
      <trkpt lat="45.57191" lon="6.84205">
        <ele>2438.2</ele>
      </trkpt>
      <trkpt lat="45.57184" lon="6.84205">
        <ele>2438.6</ele>
      </trkpt>
      <trkpt lat="45.5718" lon="6.84212">
        <ele>2440.8</ele>
      </trkpt>
      <trkpt lat="45.57176" lon="6.84219">
        <ele>2442.8</ele>
      </trkpt>
      <trkpt lat="45.57171" lon="6.84226">
        <ele>2444.7</ele>
      </trkpt>
      <trkpt lat="45.57167" lon="6.84233">
        <ele>2446.1</ele>
      </trkpt>
      <trkpt lat="45.57163" lon="6.84241">
        <ele>2447.4</ele>
      </trkpt>
      <trkpt lat="45.57159" lon="6.84248">
        <ele>2449</ele>
      </trkpt>
      <trkpt lat="45.57155" lon="6.84255">
        <ele>2450.9</ele>
      </trkpt>
      <trkpt lat="45.57151" lon="6.84262">
        <ele>2452.4</ele>
      </trkpt>
      <trkpt lat="45.57147" lon="6.84269">
        <ele>2453.8</ele>
      </trkpt>
      <trkpt lat="45.57143" lon="6.84276">
        <ele>2454.9</ele>
      </trkpt>
      <trkpt lat="45.57138" lon="6.84284">
        <ele>2456.1</ele>
      </trkpt>
      <trkpt lat="45.57134" lon="6.84291">
        <ele>2458</ele>
      </trkpt>
      <trkpt lat="45.5713" lon="6.84298">
        <ele>2460.2</ele>
      </trkpt>
      <trkpt lat="45.57126" lon="6.84305">
        <ele>2462.7</ele>
      </trkpt>
      <trkpt lat="45.57122" lon="6.84312">
        <ele>2464.8</ele>
      </trkpt>
      <trkpt lat="45.57118" lon="6.8432">
        <ele>2466.7</ele>
      </trkpt>
      <trkpt lat="45.57114" lon="6.84324">
        <ele>2468.1</ele>
      </trkpt>
      <trkpt lat="45.5711" lon="6.84328">
        <ele>2469.4</ele>
      </trkpt>
      <trkpt lat="45.57106" lon="6.84332">
        <ele>2470.9</ele>
      </trkpt>
      <trkpt lat="45.57102" lon="6.84336">
        <ele>2472.4</ele>
      </trkpt>
      <trkpt lat="45.57098" lon="6.8434">
        <ele>2473.9</ele>
      </trkpt>
      <trkpt lat="45.57094" lon="6.84344">
        <ele>2475.3</ele>
      </trkpt>
      <trkpt lat="45.5709" lon="6.84348">
        <ele>2476.7</ele>
      </trkpt>
      <trkpt lat="45.57086" lon="6.84352">
        <ele>2478.1</ele>
      </trkpt>
      <trkpt lat="45.57082" lon="6.84356">
        <ele>2479.4</ele>
      </trkpt>
      <trkpt lat="45.57078" lon="6.8436">
        <ele>2480.7</ele>
      </trkpt>
      <trkpt lat="45.57074" lon="6.84364">
        <ele>2482.1</ele>
      </trkpt>
      <trkpt lat="45.5707" lon="6.84368">
        <ele>2483.4</ele>
      </trkpt>
      <trkpt lat="45.57066" lon="6.84372">
        <ele>2484.7</ele>
      </trkpt>
      <trkpt lat="45.57063" lon="6.84376">
        <ele>2486</ele>
      </trkpt>
      <trkpt lat="45.57059" lon="6.8438">
        <ele>2487.2</ele>
      </trkpt>
      <trkpt lat="45.57055" lon="6.84384">
        <ele>2488.3</ele>
      </trkpt>
      <trkpt lat="45.57051" lon="6.84394">
        <ele>2490</ele>
      </trkpt>
      <trkpt lat="45.57047" lon="6.84405">
        <ele>2491.8</ele>
      </trkpt>
      <trkpt lat="45.57044" lon="6.84415">
        <ele>2493.9</ele>
      </trkpt>
      <trkpt lat="45.5704" lon="6.84425">
        <ele>2497</ele>
      </trkpt>
      <trkpt lat="45.57036" lon="6.84436">
        <ele>2500</ele>
      </trkpt>
      <trkpt lat="45.57033" lon="6.84446">
        <ele>2502.8</ele>
      </trkpt>
      <trkpt lat="45.57029" lon="6.84457">
        <ele>2505.5</ele>
      </trkpt>
      <trkpt lat="45.57025" lon="6.84467">
        <ele>2508.5</ele>
      </trkpt>
      <trkpt lat="45.57022" lon="6.84477">
        <ele>2512.4</ele>
      </trkpt>
      <trkpt lat="45.57018" lon="6.84488">
        <ele>2516.5</ele>
      </trkpt>
      <trkpt lat="45.57014" lon="6.84498">
        <ele>2520.4</ele>
      </trkpt>
      <trkpt lat="45.57011" lon="6.84509">
        <ele>2524.2</ele>
      </trkpt>
      <trkpt lat="45.57007" lon="6.84519">
        <ele>2527.8</ele>
      </trkpt>
      <trkpt lat="45.57003" lon="6.84529">
        <ele>2531</ele>
      </trkpt>
      <trkpt lat="45.57" lon="6.8454">
        <ele>2534.1</ele>
      </trkpt>
      <trkpt lat="45.56996" lon="6.8455">
        <ele>2537.5</ele>
      </trkpt>
      <trkpt lat="45.56993" lon="6.84556">
        <ele>2539.6</ele>
      </trkpt>
      <trkpt lat="45.56989" lon="6.84561">
        <ele>2541.5</ele>
      </trkpt>
      <trkpt lat="45.56986" lon="6.84566">
        <ele>2543.3</ele>
      </trkpt>
      <trkpt lat="45.56983" lon="6.84572">
        <ele>2545</ele>
      </trkpt>
      <trkpt lat="45.5698" lon="6.84577">
        <ele>2546.7</ele>
      </trkpt>
      <trkpt lat="45.56976" lon="6.84582">
        <ele>2548.2</ele>
      </trkpt>
      <trkpt lat="45.56973" lon="6.84588">
        <ele>2549.8</ele>
      </trkpt>
      <trkpt lat="45.5697" lon="6.84593">
        <ele>2551.7</ele>
      </trkpt>
      <trkpt lat="45.56965" lon="6.84597">
        <ele>2553.4</ele>
      </trkpt>
      <trkpt lat="45.5696" lon="6.84601">
        <ele>2554.8</ele>
      </trkpt>
      <trkpt lat="45.56956" lon="6.84604">
        <ele>2556</ele>
      </trkpt>
      <trkpt lat="45.56951" lon="6.84608">
        <ele>2557</ele>
      </trkpt>
      <trkpt lat="45.56946" lon="6.84612">
        <ele>2557.9</ele>
      </trkpt>
      <trkpt lat="45.56942" lon="6.84615">
        <ele>2559.2</ele>
      </trkpt>
      <trkpt lat="45.56937" lon="6.84619">
        <ele>2560.6</ele>
      </trkpt>
      <trkpt lat="45.56932" lon="6.84623">
        <ele>2562</ele>
      </trkpt>
      <trkpt lat="45.56928" lon="6.84626">
        <ele>2563.5</ele>
      </trkpt>
      <trkpt lat="45.56923" lon="6.8463">
        <ele>2565</ele>
      </trkpt>
      <trkpt lat="45.56918" lon="6.84634">
        <ele>2566.6</ele>
      </trkpt>
      <trkpt lat="45.56913" lon="6.84637">
        <ele>2568.7</ele>
      </trkpt>
      <trkpt lat="45.56909" lon="6.84641">
        <ele>2571</ele>
      </trkpt>
      <trkpt lat="45.56904" lon="6.84645">
        <ele>2573</ele>
      </trkpt>
      <trkpt lat="45.56899" lon="6.84648">
        <ele>2574.7</ele>
      </trkpt>
      <trkpt lat="45.56895" lon="6.84652">
        <ele>2576.2</ele>
      </trkpt>
      <trkpt lat="45.56889" lon="6.84656">
        <ele>2577.6</ele>
      </trkpt>
      <trkpt lat="45.56884" lon="6.8466">
        <ele>2578.9</ele>
      </trkpt>
      <trkpt lat="45.56878" lon="6.84664">
        <ele>2580.5</ele>
      </trkpt>
      <trkpt lat="45.56873" lon="6.84669">
        <ele>2582.4</ele>
      </trkpt>
      <trkpt lat="45.56867" lon="6.84673">
        <ele>2584.2</ele>
      </trkpt>
      <trkpt lat="45.56862" lon="6.84677">
        <ele>2585.6</ele>
      </trkpt>
      <trkpt lat="45.56856" lon="6.84681">
        <ele>2587.1</ele>
      </trkpt>
      <trkpt lat="45.56851" lon="6.84685">
        <ele>2588.6</ele>
      </trkpt>
      <trkpt lat="45.56845" lon="6.84689">
        <ele>2590</ele>
      </trkpt>
      <trkpt lat="45.5684" lon="6.84693">
        <ele>2591.5</ele>
      </trkpt>
      <trkpt lat="45.56834" lon="6.84697">
        <ele>2592.9</ele>
      </trkpt>
      <trkpt lat="45.56829" lon="6.84701">
        <ele>2593.7</ele>
      </trkpt>
      <trkpt lat="45.56823" lon="6.84705">
        <ele>2594.5</ele>
      </trkpt>
      <trkpt lat="45.56818" lon="6.84709">
        <ele>2595.2</ele>
      </trkpt>
      <trkpt lat="45.56812" lon="6.84713">
        <ele>2596</ele>
      </trkpt>
      <trkpt lat="45.56807" lon="6.84718">
        <ele>2596.7</ele>
      </trkpt>
      <trkpt lat="45.56803" lon="6.84722">
        <ele>2597.4</ele>
      </trkpt>
      <trkpt lat="45.56799" lon="6.84726">
        <ele>2598.5</ele>
      </trkpt>
      <trkpt lat="45.56795" lon="6.8473">
        <ele>2599.5</ele>
      </trkpt>
      <trkpt lat="45.56791" lon="6.84734">
        <ele>2600.1</ele>
      </trkpt>
      <trkpt lat="45.56787" lon="6.84738">
        <ele>2600.4</ele>
      </trkpt>
      <trkpt lat="45.56783" lon="6.84742">
        <ele>2600.5</ele>
      </trkpt>
      <trkpt lat="45.56779" lon="6.84746">
        <ele>2600.2</ele>
      </trkpt>
      <trkpt lat="45.56774" lon="6.8475">
        <ele>2600.4</ele>
      </trkpt>
      <trkpt lat="45.5677" lon="6.84754">
        <ele>2602</ele>
      </trkpt>
      <trkpt lat="45.56766" lon="6.84758">
        <ele>2603.4</ele>
      </trkpt>
      <trkpt lat="45.56762" lon="6.84763">
        <ele>2604.6</ele>
      </trkpt>
      <trkpt lat="45.56758" lon="6.84767">
        <ele>2605.5</ele>
      </trkpt>
      <trkpt lat="45.56754" lon="6.84771">
        <ele>2606.1</ele>
      </trkpt>
      <trkpt lat="45.5675" lon="6.84775">
        <ele>2606.5</ele>
      </trkpt>
      <trkpt lat="45.56746" lon="6.84779">
        <ele>2607.4</ele>
      </trkpt>
      <trkpt lat="45.56742" lon="6.84783">
        <ele>2609</ele>
      </trkpt>
      <trkpt lat="45.56738" lon="6.84787">
        <ele>2610.1</ele>
      </trkpt>
      <trkpt lat="45.56734" lon="6.84791">
        <ele>2611</ele>
      </trkpt>
      <trkpt lat="45.5673" lon="6.84794">
        <ele>2611.6</ele>
      </trkpt>
      <trkpt lat="45.56726" lon="6.84798">
        <ele>2612</ele>
      </trkpt>
      <trkpt lat="45.56722" lon="6.84802">
        <ele>2612.1</ele>
      </trkpt>
      <trkpt lat="45.56718" lon="6.84806">
        <ele>2612.9</ele>
      </trkpt>
      <trkpt lat="45.56714" lon="6.8481">
        <ele>2614.5</ele>
      </trkpt>
      <trkpt lat="45.5671" lon="6.84814">
        <ele>2616.1</ele>
      </trkpt>
      <trkpt lat="45.56705" lon="6.84817">
        <ele>2617.3</ele>
      </trkpt>
      <trkpt lat="45.56701" lon="6.84821">
        <ele>2618.4</ele>
      </trkpt>
      <trkpt lat="45.56697" lon="6.84825">
        <ele>2619.2</ele>
      </trkpt>
      <trkpt lat="45.56693" lon="6.84829">
        <ele>2620.3</ele>
      </trkpt>
      <trkpt lat="45.56689" lon="6.84833">
        <ele>2622.1</ele>
      </trkpt>
      <trkpt lat="45.56685" lon="6.84837">
        <ele>2624.7</ele>
      </trkpt>
      <trkpt lat="45.56681" lon="6.8484">
        <ele>2627</ele>
      </trkpt>
      <trkpt lat="45.56677" lon="6.84844">
        <ele>2628.8</ele>
      </trkpt>
      <trkpt lat="45.5667" lon="6.84848">
        <ele>2629.6</ele>
      </trkpt>
      <trkpt lat="45.56663" lon="6.84851">
        <ele>2630.5</ele>
      </trkpt>
      <trkpt lat="45.56657" lon="6.84854">
        <ele>2632.3</ele>
      </trkpt>
      <trkpt lat="45.5665" lon="6.84858">
        <ele>2634.3</ele>
      </trkpt>
      <trkpt lat="45.56643" lon="6.84861">
        <ele>2636.5</ele>
      </trkpt>
      <trkpt lat="45.56636" lon="6.84864">
        <ele>2639.1</ele>
      </trkpt>
      <trkpt lat="45.5663" lon="6.84868">
        <ele>2640.8</ele>
      </trkpt>
      <trkpt lat="45.56623" lon="6.84871">
        <ele>2641.9</ele>
      </trkpt>
      <trkpt lat="45.56617" lon="6.84879">
        <ele>2644</ele>
      </trkpt>
      <trkpt lat="45.5661" lon="6.84886">
        <ele>2645.2</ele>
      </trkpt>
      <trkpt lat="45.56604" lon="6.84894">
        <ele>2648.1</ele>
      </trkpt>
      <trkpt lat="45.56598" lon="6.84901">
        <ele>2650.9</ele>
      </trkpt>
      <trkpt lat="45.56593" lon="6.84901">
        <ele>2650.7</ele>
      </trkpt>
      <trkpt lat="45.56587" lon="6.84901">
        <ele>2650.5</ele>
      </trkpt>
      <trkpt lat="45.56582" lon="6.849">
        <ele>2650.6</ele>
      </trkpt>
      <trkpt lat="45.56577" lon="6.849">
        <ele>2651.9</ele>
      </trkpt>
      <trkpt lat="45.56572" lon="6.849">
        <ele>2653.2</ele>
      </trkpt>
      <trkpt lat="45.56566" lon="6.849">
        <ele>2654.5</ele>
      </trkpt>
      <trkpt lat="45.56561" lon="6.849">
        <ele>2655.7</ele>
      </trkpt>
      <trkpt lat="45.56556" lon="6.84899">
        <ele>2657</ele>
      </trkpt>
      <trkpt lat="45.5655" lon="6.84899">
        <ele>2658.6</ele>
      </trkpt>
      <trkpt lat="45.56545" lon="6.84899">
        <ele>2660.3</ele>
      </trkpt>
      <trkpt lat="45.5654" lon="6.84899">
        <ele>2662</ele>
      </trkpt>
      <trkpt lat="45.56535" lon="6.84899">
        <ele>2663.6</ele>
      </trkpt>
      <trkpt lat="45.56529" lon="6.84898">
        <ele>2665.2</ele>
      </trkpt>
      <trkpt lat="45.56524" lon="6.84898">
        <ele>2667</ele>
      </trkpt>
      <trkpt lat="45.56519" lon="6.84898">
        <ele>2668.8</ele>
      </trkpt>
      <trkpt lat="45.56513" lon="6.84898">
        <ele>2670.6</ele>
      </trkpt>
      <trkpt lat="45.56508" lon="6.84898">
        <ele>2672.4</ele>
      </trkpt>
      <trkpt lat="45.56503" lon="6.84897">
        <ele>2674.1</ele>
      </trkpt>
      <trkpt lat="45.56498" lon="6.84897">
        <ele>2675.9</ele>
      </trkpt>
      <trkpt lat="45.56492" lon="6.84897">
        <ele>2677.7</ele>
      </trkpt>
      <trkpt lat="45.56487" lon="6.84897">
        <ele>2679.5</ele>
      </trkpt>
      <trkpt lat="45.56482" lon="6.84897">
        <ele>2681.3</ele>
      </trkpt>
      <trkpt lat="45.56477" lon="6.84896">
        <ele>2683.1</ele>
      </trkpt>
      <trkpt lat="45.56471" lon="6.84896">
        <ele>2684.9</ele>
      </trkpt>
      <trkpt lat="45.56466" lon="6.84896">
        <ele>2686.6</ele>
      </trkpt>
      <trkpt lat="45.56461" lon="6.84896">
        <ele>2688.3</ele>
      </trkpt>
      <trkpt lat="45.56455" lon="6.84896">
        <ele>2689.9</ele>
      </trkpt>
      <trkpt lat="45.5645" lon="6.84895">
        <ele>2691.6</ele>
      </trkpt>
      <trkpt lat="45.56445" lon="6.84895">
        <ele>2693.2</ele>
      </trkpt>
      <trkpt lat="45.5644" lon="6.84895">
        <ele>2694.8</ele>
      </trkpt>
      <trkpt lat="45.56434" lon="6.84895">
        <ele>2696.3</ele>
      </trkpt>
      <trkpt lat="45.56429" lon="6.84895">
        <ele>2697.8</ele>
      </trkpt>
      <trkpt lat="45.56424" lon="6.84897">
        <ele>2699.7</ele>
      </trkpt>
      <trkpt lat="45.5642" lon="6.84899">
        <ele>2701.6</ele>
      </trkpt>
      <trkpt lat="45.56415" lon="6.849">
        <ele>2703.5</ele>
      </trkpt>
      <trkpt lat="45.5641" lon="6.84902">
        <ele>2705.6</ele>
      </trkpt>
      <trkpt lat="45.56406" lon="6.84904">
        <ele>2707.8</ele>
      </trkpt>
      <trkpt lat="45.56401" lon="6.84906">
        <ele>2710</ele>
      </trkpt>
      <trkpt lat="45.56396" lon="6.84908">
        <ele>2712.3</ele>
      </trkpt>
      <trkpt lat="45.56391" lon="6.8491">
        <ele>2714.7</ele>
      </trkpt>
      <trkpt lat="45.56387" lon="6.84912">
        <ele>2717.1</ele>
      </trkpt>
      <trkpt lat="45.56382" lon="6.84914">
        <ele>2719.2</ele>
      </trkpt>
      <trkpt lat="45.56377" lon="6.84916">
        <ele>2721.5</ele>
      </trkpt>
      <trkpt lat="45.56373" lon="6.84918">
        <ele>2723.4</ele>
      </trkpt>
      <trkpt lat="45.56368" lon="6.8492">
        <ele>2725.2</ele>
      </trkpt>
      <trkpt lat="45.56363" lon="6.84922">
        <ele>2727</ele>
      </trkpt>
      <trkpt lat="45.56359" lon="6.84924">
        <ele>2729.2</ele>
      </trkpt>
      <trkpt lat="45.56354" lon="6.84926">
        <ele>2731.6</ele>
      </trkpt>
      <trkpt lat="45.56348" lon="6.84925">
        <ele>2734</ele>
      </trkpt>
      <trkpt lat="45.56343" lon="6.84925">
        <ele>2736.5</ele>
      </trkpt>
      <trkpt lat="45.56338" lon="6.84924">
        <ele>2738.9</ele>
      </trkpt>
      <trkpt lat="45.56332" lon="6.84924">
        <ele>2741.4</ele>
      </trkpt>
      <trkpt lat="45.56326" lon="6.84919">
        <ele>2743.6</ele>
      </trkpt>
      <trkpt lat="45.5632" lon="6.84914">
        <ele>2745.3</ele>
      </trkpt>
      <trkpt lat="45.56313" lon="6.84909">
        <ele>2747</ele>
      </trkpt>
      <trkpt lat="45.56307" lon="6.84905">
        <ele>2749.1</ele>
      </trkpt>
      <trkpt lat="45.56301" lon="6.849">
        <ele>2751.9</ele>
      </trkpt>
      <trkpt lat="45.56295" lon="6.84895">
        <ele>2754.7</ele>
      </trkpt>
      <trkpt lat="45.56289" lon="6.84891">
        <ele>2757.3</ele>
      </trkpt>
      <trkpt lat="45.56283" lon="6.84886">
        <ele>2759.7</ele>
      </trkpt>
      <trkpt lat="45.56278" lon="6.8488">
        <ele>2761.4</ele>
      </trkpt>
      <trkpt lat="45.56273" lon="6.84873">
        <ele>2763.9</ele>
      </trkpt>
      <trkpt lat="45.56268" lon="6.84867">
        <ele>2766</ele>
      </trkpt>
      <trkpt lat="45.56263" lon="6.8486">
        <ele>2767.9</ele>
      </trkpt>
      <trkpt lat="45.56258" lon="6.84854">
        <ele>2769.6</ele>
      </trkpt>
      <trkpt lat="45.56253" lon="6.84847">
        <ele>2771.6</ele>
      </trkpt>
      <trkpt lat="45.56248" lon="6.84841">
        <ele>2774.4</ele>
      </trkpt>
      <trkpt lat="45.56243" lon="6.84835">
        <ele>2778.3</ele>
      </trkpt>
      <trkpt lat="45.56242" lon="6.84827">
        <ele>2778.8</ele>
      </trkpt>
      <trkpt lat="45.5624" lon="6.8482">
        <ele>2779.2</ele>
      </trkpt>
      <trkpt lat="45.56238" lon="6.84813">
        <ele>2779.4</ele>
      </trkpt>
      <trkpt lat="45.56236" lon="6.84806">
        <ele>2779.6</ele>
      </trkpt>
      <trkpt lat="45.56234" lon="6.84799">
        <ele>2780.2</ele>
      </trkpt>
      <trkpt lat="45.56232" lon="6.84792">
        <ele>2780.8</ele>
      </trkpt>
      <trkpt lat="45.5623" lon="6.84785">
        <ele>2781.1</ele>
      </trkpt>
      <trkpt lat="45.56228" lon="6.84778">
        <ele>2781.3</ele>
      </trkpt>
      <trkpt lat="45.56226" lon="6.84771">
        <ele>2783.3</ele>
      </trkpt>
      <trkpt lat="45.56224" lon="6.84764">
        <ele>2785.7</ele>
      </trkpt>
      <trkpt lat="45.56222" lon="6.84757">
        <ele>2788.3</ele>
      </trkpt>
      <trkpt lat="45.5622" lon="6.8475">
        <ele>2790.8</ele>
      </trkpt>
      <trkpt lat="45.56218" lon="6.84743">
        <ele>2790.7</ele>
      </trkpt>
      <trkpt lat="45.56216" lon="6.84736">
        <ele>2790.2</ele>
      </trkpt>
      <trkpt lat="45.56215" lon="6.84729">
        <ele>2789.1</ele>
      </trkpt>
      <trkpt lat="45.56213" lon="6.84722">
        <ele>2787.3</ele>
      </trkpt>
      <trkpt lat="45.56206" lon="6.84722">
        <ele>2789.4</ele>
      </trkpt>
      <trkpt lat="45.562" lon="6.84721">
        <ele>2791.6</ele>
      </trkpt>
      <trkpt lat="45.56194" lon="6.84721">
        <ele>2793.5</ele>
      </trkpt>
      <trkpt lat="45.56188" lon="6.84721">
        <ele>2793.6</ele>
      </trkpt>
      <trkpt lat="45.56182" lon="6.84724">
        <ele>2795.5</ele>
      </trkpt>
      <trkpt lat="45.56177" lon="6.84728">
        <ele>2797.2</ele>
      </trkpt>
      <trkpt lat="45.56172" lon="6.84731">
        <ele>2798.2</ele>
      </trkpt>
      <trkpt lat="45.56166" lon="6.84734">
        <ele>2798.7</ele>
      </trkpt>
      <trkpt lat="45.56161" lon="6.84738">
        <ele>2798.2</ele>
      </trkpt>
      <trkpt lat="45.56155" lon="6.84741">
        <ele>2797.9</ele>
      </trkpt>
      <trkpt lat="45.5615" lon="6.84744">
        <ele>2797.6</ele>
      </trkpt>
      <trkpt lat="45.56144" lon="6.84748">
        <ele>2797.4</ele>
      </trkpt>
      <trkpt lat="45.5614" lon="6.84752">
        <ele>2797.7</ele>
      </trkpt>
      <trkpt lat="45.56136" lon="6.84756">
        <ele>2798.2</ele>
      </trkpt>
      <trkpt lat="45.56132" lon="6.84761">
        <ele>2799</ele>
      </trkpt>
      <trkpt lat="45.56127" lon="6.84765">
        <ele>2800.1</ele>
      </trkpt>
      <trkpt lat="45.56123" lon="6.84769">
        <ele>2801.5</ele>
      </trkpt>
      <trkpt lat="45.56119" lon="6.84774">
        <ele>2803</ele>
      </trkpt>
      <trkpt lat="45.56115" lon="6.84778">
        <ele>2804.8</ele>
      </trkpt>
      <trkpt lat="45.5611" lon="6.84782">
        <ele>2806.1</ele>
      </trkpt>
      <trkpt lat="45.56106" lon="6.84787">
        <ele>2807.5</ele>
      </trkpt>
      <trkpt lat="45.56102" lon="6.84791">
        <ele>2809.3</ele>
      </trkpt>
      <trkpt lat="45.56098" lon="6.84796">
        <ele>2811.4</ele>
      </trkpt>
      <trkpt lat="45.56094" lon="6.848">
        <ele>2813.9</ele>
      </trkpt>
      <trkpt lat="45.56089" lon="6.84804">
        <ele>2816.7</ele>
      </trkpt>
      <trkpt lat="45.56085" lon="6.84809">
        <ele>2818.8</ele>
      </trkpt>
      <trkpt lat="45.56081" lon="6.84813">
        <ele>2820</ele>
      </trkpt>
      <trkpt lat="45.56077" lon="6.84817">
        <ele>2821.2</ele>
      </trkpt>
      <trkpt lat="45.56069" lon="6.84823">
        <ele>2823.7</ele>
      </trkpt>
      <trkpt lat="45.56061" lon="6.84829">
        <ele>2826.6</ele>
      </trkpt>
      <trkpt lat="45.56053" lon="6.84835">
        <ele>2829.4</ele>
      </trkpt>
      <trkpt lat="45.56046" lon="6.8484">
        <ele>2831.5</ele>
      </trkpt>
      <trkpt lat="45.56038" lon="6.84846">
        <ele>2833.9</ele>
      </trkpt>
      <trkpt lat="45.5603" lon="6.84852">
        <ele>2836.9</ele>
      </trkpt>
      <trkpt lat="45.56022" lon="6.84858">
        <ele>2839.8</ele>
      </trkpt>
      <trkpt lat="45.56014" lon="6.84863">
        <ele>2843.4</ele>
      </trkpt>
      <trkpt lat="45.56008" lon="6.84866">
        <ele>2845.6</ele>
      </trkpt>
      <trkpt lat="45.56001" lon="6.84868">
        <ele>2847.9</ele>
      </trkpt>
      <trkpt lat="45.55994" lon="6.8487">
        <ele>2849</ele>
      </trkpt>
      <trkpt lat="45.55987" lon="6.84872">
        <ele>2849.8</ele>
      </trkpt>
      <trkpt lat="45.55981" lon="6.84874">
        <ele>2850.8</ele>
      </trkpt>
      <trkpt lat="45.55974" lon="6.84876">
        <ele>2851.7</ele>
      </trkpt>
      <trkpt lat="45.55967" lon="6.84879">
        <ele>2853.7</ele>
      </trkpt>
      <trkpt lat="45.5596" lon="6.84881">
        <ele>2855.9</ele>
      </trkpt>
      <trkpt lat="45.55955" lon="6.84879">
        <ele>2856.3</ele>
      </trkpt>
      <trkpt lat="45.55949" lon="6.84878">
        <ele>2856.7</ele>
      </trkpt>
      <trkpt lat="45.55944" lon="6.84876">
        <ele>2857.1</ele>
      </trkpt>
      <trkpt lat="45.55938" lon="6.84875">
        <ele>2857.8</ele>
      </trkpt>
      <trkpt lat="45.55933" lon="6.84873">
        <ele>2858.6</ele>
      </trkpt>
      <trkpt lat="45.55927" lon="6.84872">
        <ele>2859.6</ele>
      </trkpt>
      <trkpt lat="45.55921" lon="6.8487">
        <ele>2860.7</ele>
      </trkpt>
      <trkpt lat="45.55916" lon="6.84869">
        <ele>2862</ele>
      </trkpt>
      <trkpt lat="45.5591" lon="6.84861">
        <ele>2861.4</ele>
      </trkpt>
      <trkpt lat="45.55905" lon="6.84853">
        <ele>2860.2</ele>
      </trkpt>
      <trkpt lat="45.55903" lon="6.84846">
        <ele>2859.3</ele>
      </trkpt>
      <trkpt lat="45.55901" lon="6.84839">
        <ele>2858.7</ele>
      </trkpt>
      <trkpt lat="45.55898" lon="6.84832">
        <ele>2858.4</ele>
      </trkpt>
      <trkpt lat="45.55896" lon="6.84825">
        <ele>2858.5</ele>
      </trkpt>
      <trkpt lat="45.55896" lon="6.84816">
        <ele>2858</ele>
      </trkpt>
      <trkpt lat="45.55895" lon="6.84807">
        <ele>2857.5</ele>
      </trkpt>
      <trkpt lat="45.55895" lon="6.84799">
        <ele>2857.1</ele>
      </trkpt>
      <trkpt lat="45.55894" lon="6.8479">
        <ele>2856.9</ele>
      </trkpt>
      <trkpt lat="45.55894" lon="6.84781">
        <ele>2856.7</ele>
      </trkpt>
      <trkpt lat="45.55893" lon="6.84773">
        <ele>2856.4</ele>
      </trkpt>
      <trkpt lat="45.55892" lon="6.84764">
        <ele>2855.9</ele>
      </trkpt>
      <trkpt lat="45.55892" lon="6.84755">
        <ele>2855.4</ele>
      </trkpt>
      <trkpt lat="45.55886" lon="6.8475">
        <ele>2857.2</ele>
      </trkpt>
      <trkpt lat="45.55881" lon="6.84745">
        <ele>2856.1</ele>
      </trkpt>
      <trkpt lat="45.55875" lon="6.8474">
        <ele>2855.6</ele>
      </trkpt>
      <trkpt lat="45.55869" lon="6.84735">
        <ele>2855.8</ele>
      </trkpt>
      <trkpt lat="45.55864" lon="6.8473">
        <ele>2856.7</ele>
      </trkpt>
      <trkpt lat="45.55858" lon="6.84725">
        <ele>2857.9</ele>
      </trkpt>
      <trkpt lat="45.55852" lon="6.84719">
        <ele>2858.5</ele>
      </trkpt>
      <trkpt lat="45.55847" lon="6.84714">
        <ele>2859.2</ele>
      </trkpt>
      <trkpt lat="45.55845" lon="6.84706">
        <ele>2858.5</ele>
      </trkpt>
      <trkpt lat="45.55843" lon="6.84697">
        <ele>2858</ele>
      </trkpt>
      <trkpt lat="45.55841" lon="6.84688">
        <ele>2857.9</ele>
      </trkpt>
      <trkpt lat="45.5584" lon="6.84679">
        <ele>2857.8</ele>
      </trkpt>
      <trkpt lat="45.55838" lon="6.84671">
        <ele>2857.6</ele>
      </trkpt>
      <trkpt lat="45.55836" lon="6.84662">
        <ele>2856.2</ele>
      </trkpt>
      <trkpt lat="45.55834" lon="6.84653">
        <ele>2854.2</ele>
      </trkpt>
      <trkpt lat="45.55833" lon="6.84645">
        <ele>2852.5</ele>
      </trkpt>
      <trkpt lat="45.55829" lon="6.84639">
        <ele>2853.7</ele>
      </trkpt>
      <trkpt lat="45.55825" lon="6.84633">
        <ele>2853.7</ele>
      </trkpt>
      <trkpt lat="45.55821" lon="6.84628">
        <ele>2853.7</ele>
      </trkpt>
      <trkpt lat="45.55817" lon="6.84622">
        <ele>2853.7</ele>
      </trkpt>
      <trkpt lat="45.55813" lon="6.84616">
        <ele>2853.6</ele>
      </trkpt>
      <trkpt lat="45.55809" lon="6.84611">
        <ele>2853.5</ele>
      </trkpt>
      <trkpt lat="45.55805" lon="6.84605">
        <ele>2853.9</ele>
      </trkpt>
      <trkpt lat="45.55801" lon="6.846">
        <ele>2854.7</ele>
      </trkpt>
      <trkpt lat="45.55797" lon="6.84594">
        <ele>2854.8</ele>
      </trkpt>
      <trkpt lat="45.55793" lon="6.84588">
        <ele>2854.3</ele>
      </trkpt>
      <trkpt lat="45.55789" lon="6.84583">
        <ele>2853.1</ele>
      </trkpt>
      <trkpt lat="45.55785" lon="6.84577">
        <ele>2850.8</ele>
      </trkpt>
      <trkpt lat="45.55781" lon="6.84571">
        <ele>2848.6</ele>
      </trkpt>
      <trkpt lat="45.55777" lon="6.84566">
        <ele>2846</ele>
      </trkpt>
      <trkpt lat="45.55773" lon="6.8456">
        <ele>2843.1</ele>
      </trkpt>
      <trkpt lat="45.55769" lon="6.84555">
        <ele>2839.6</ele>
      </trkpt>
      <trkpt lat="45.55764" lon="6.84551">
        <ele>2839.3</ele>
      </trkpt>
      <trkpt lat="45.55759" lon="6.84548">
        <ele>2838.7</ele>
      </trkpt>
      <trkpt lat="45.55753" lon="6.84544">
        <ele>2838.1</ele>
      </trkpt>
      <trkpt lat="45.55748" lon="6.84541">
        <ele>2837.1</ele>
      </trkpt>
      <trkpt lat="45.55743" lon="6.84537">
        <ele>2835.9</ele>
      </trkpt>
      <trkpt lat="45.55737" lon="6.84534">
        <ele>2835</ele>
      </trkpt>
      <trkpt lat="45.55732" lon="6.8453">
        <ele>2834.3</ele>
      </trkpt>
      <trkpt lat="45.55727" lon="6.84527">
        <ele>2833.9</ele>
      </trkpt>
      <trkpt lat="45.55722" lon="6.84521">
        <ele>2832.5</ele>
      </trkpt>
      <trkpt lat="45.55716" lon="6.84515">
        <ele>2831.8</ele>
      </trkpt>
      <trkpt lat="45.55711" lon="6.84509">
        <ele>2830.3</ele>
      </trkpt>
      <trkpt lat="45.55706" lon="6.84503">
        <ele>2828.1</ele>
      </trkpt>
      <trkpt lat="45.55701" lon="6.84497">
        <ele>2826</ele>
      </trkpt>
      <trkpt lat="45.55696" lon="6.84491">
        <ele>2824.5</ele>
      </trkpt>
      <trkpt lat="45.55691" lon="6.84485">
        <ele>2824.7</ele>
      </trkpt>
      <trkpt lat="45.55686" lon="6.84479">
        <ele>2824.2</ele>
      </trkpt>
      <trkpt lat="45.55681" lon="6.84473">
        <ele>2822</ele>
      </trkpt>
      <trkpt lat="45.55676" lon="6.84467">
        <ele>2820.7</ele>
      </trkpt>
      <trkpt lat="45.55671" lon="6.84461">
        <ele>2819.7</ele>
      </trkpt>
      <trkpt lat="45.55666" lon="6.84455">
        <ele>2818.4</ele>
      </trkpt>
      <trkpt lat="45.55661" lon="6.84449">
        <ele>2817.3</ele>
      </trkpt>
      <trkpt lat="45.55656" lon="6.84443">
        <ele>2816.8</ele>
      </trkpt>
      <trkpt lat="45.55651" lon="6.84437">
        <ele>2817.6</ele>
      </trkpt>
      <trkpt lat="45.55645" lon="6.84431">
        <ele>2818.7</ele>
      </trkpt>
      <trkpt lat="45.55644" lon="6.84425">
        <ele>2818.1</ele>
      </trkpt>
      <trkpt lat="45.55642" lon="6.84419">
        <ele>2817.5</ele>
      </trkpt>
      <trkpt lat="45.55641" lon="6.84413">
        <ele>2817.2</ele>
      </trkpt>
      <trkpt lat="45.55639" lon="6.84406">
        <ele>2817</ele>
      </trkpt>
      <trkpt lat="45.55638" lon="6.844">
        <ele>2816.8</ele>
      </trkpt>
      <trkpt lat="45.55636" lon="6.84394">
        <ele>2816.6</ele>
      </trkpt>
      <trkpt lat="45.55635" lon="6.84388">
        <ele>2816.2</ele>
      </trkpt>
      <trkpt lat="45.55633" lon="6.84382">
        <ele>2815.6</ele>
      </trkpt>
      <trkpt lat="45.55632" lon="6.84376">
        <ele>2815</ele>
      </trkpt>
      <trkpt lat="45.5563" lon="6.84369">
        <ele>2814.5</ele>
      </trkpt>
      <trkpt lat="45.55628" lon="6.84363">
        <ele>2813.9</ele>
      </trkpt>
      <trkpt lat="45.55627" lon="6.84357">
        <ele>2812.9</ele>
      </trkpt>
      <trkpt lat="45.55625" lon="6.84351">
        <ele>2811.5</ele>
      </trkpt>
      <trkpt lat="45.55624" lon="6.84345">
        <ele>2810.1</ele>
      </trkpt>
      <trkpt lat="45.55622" lon="6.84339">
        <ele>2808.6</ele>
      </trkpt>
      <trkpt lat="45.55621" lon="6.84332">
        <ele>2807.2</ele>
      </trkpt>
      <trkpt lat="45.55616" lon="6.84325">
        <ele>2807</ele>
      </trkpt>
      <trkpt lat="45.55612" lon="6.84318">
        <ele>2806.9</ele>
      </trkpt>
      <trkpt lat="45.55608" lon="6.84311">
        <ele>2807.2</ele>
      </trkpt>
      <trkpt lat="45.55604" lon="6.84304">
        <ele>2807.3</ele>
      </trkpt>
      <trkpt lat="45.55599" lon="6.84297">
        <ele>2806.8</ele>
      </trkpt>
      <trkpt lat="45.55595" lon="6.8429">
        <ele>2806.3</ele>
      </trkpt>
      <trkpt lat="45.55591" lon="6.84283">
        <ele>2805.6</ele>
      </trkpt>
      <trkpt lat="45.55587" lon="6.84276">
        <ele>2805</ele>
      </trkpt>
      <trkpt lat="45.55582" lon="6.84268">
        <ele>2804.8</ele>
      </trkpt>
      <trkpt lat="45.55578" lon="6.84261">
        <ele>2803.9</ele>
      </trkpt>
      <trkpt lat="45.55574" lon="6.84254">
        <ele>2803.2</ele>
      </trkpt>
      <trkpt lat="45.55569" lon="6.84247">
        <ele>2802.3</ele>
      </trkpt>
      <trkpt lat="45.55565" lon="6.8424">
        <ele>2801.6</ele>
      </trkpt>
      <trkpt lat="45.55561" lon="6.84233">
        <ele>2801</ele>
      </trkpt>
      <trkpt lat="45.55557" lon="6.84226">
        <ele>2800.7</ele>
      </trkpt>
      <trkpt lat="45.55552" lon="6.84219">
        <ele>2801</ele>
      </trkpt>
      <trkpt lat="45.5555" lon="6.84207">
        <ele>2799.5</ele>
      </trkpt>
      <trkpt lat="45.55548" lon="6.84196">
        <ele>2797.9</ele>
      </trkpt>
      <trkpt lat="45.55546" lon="6.84185">
        <ele>2796.4</ele>
      </trkpt>
      <trkpt lat="45.55543" lon="6.84174">
        <ele>2794.8</ele>
      </trkpt>
      <trkpt lat="45.55539" lon="6.84167">
        <ele>2795.5</ele>
      </trkpt>
      <trkpt lat="45.55535" lon="6.84161">
        <ele>2796.1</ele>
      </trkpt>
      <trkpt lat="45.55531" lon="6.84155">
        <ele>2796.8</ele>
      </trkpt>
      <trkpt lat="45.55528" lon="6.84149">
        <ele>2797.7</ele>
      </trkpt>
      <trkpt lat="45.55525" lon="6.84139">
        <ele>2796.2</ele>
      </trkpt>
      <trkpt lat="45.55523" lon="6.84129">
        <ele>2794.7</ele>
      </trkpt>
      <trkpt lat="45.55521" lon="6.84119">
        <ele>2793.3</ele>
      </trkpt>
      <trkpt lat="45.55519" lon="6.84109">
        <ele>2791.9</ele>
      </trkpt>
      <trkpt lat="45.55517" lon="6.84099">
        <ele>2790.8</ele>
      </trkpt>
      <trkpt lat="45.55515" lon="6.84089">
        <ele>2790</ele>
      </trkpt>
      <trkpt lat="45.55513" lon="6.84079">
        <ele>2789.5</ele>
      </trkpt>
      <trkpt lat="45.55511" lon="6.8407">
        <ele>2789.5</ele>
      </trkpt>
      <trkpt lat="45.55511" lon="6.84061">
        <ele>2788.1</ele>
      </trkpt>
      <trkpt lat="45.55512" lon="6.84051">
        <ele>2786.7</ele>
      </trkpt>
      <trkpt lat="45.55512" lon="6.84042">
        <ele>2785.3</ele>
      </trkpt>
      <trkpt lat="45.55513" lon="6.84033">
        <ele>2784</ele>
      </trkpt>
      <trkpt lat="45.55513" lon="6.84024">
        <ele>2782.6</ele>
      </trkpt>
      <trkpt lat="45.55513" lon="6.84015">
        <ele>2781.1</ele>
      </trkpt>
      <trkpt lat="45.55514" lon="6.84006">
        <ele>2779.5</ele>
      </trkpt>
      <trkpt lat="45.55514" lon="6.83997">
        <ele>2778.1</ele>
      </trkpt>
      <trkpt lat="45.55514" lon="6.83988">
        <ele>2777</ele>
      </trkpt>
      <trkpt lat="45.55515" lon="6.83979">
        <ele>2775.8</ele>
      </trkpt>
      <trkpt lat="45.55515" lon="6.8397">
        <ele>2774.3</ele>
      </trkpt>
      <trkpt lat="45.55516" lon="6.83961">
        <ele>2772.1</ele>
      </trkpt>
      <trkpt lat="45.55516" lon="6.83952">
        <ele>2769.8</ele>
      </trkpt>
      <trkpt lat="45.55516" lon="6.83943">
        <ele>2767.6</ele>
      </trkpt>
      <trkpt lat="45.55517" lon="6.83934">
        <ele>2765.5</ele>
      </trkpt>
      <trkpt lat="45.55517" lon="6.83925">
        <ele>2763.4</ele>
      </trkpt>
      <trkpt lat="45.55517" lon="6.83916">
        <ele>2761.5</ele>
      </trkpt>
      <trkpt lat="45.55517" lon="6.83906">
        <ele>2760</ele>
      </trkpt>
      <trkpt lat="45.55518" lon="6.83897">
        <ele>2758.5</ele>
      </trkpt>
      <trkpt lat="45.55518" lon="6.83888">
        <ele>2757</ele>
      </trkpt>
      <trkpt lat="45.55518" lon="6.83879">
        <ele>2755.7</ele>
      </trkpt>
      <trkpt lat="45.55518" lon="6.8387">
        <ele>2754.3</ele>
      </trkpt>
      <trkpt lat="45.55518" lon="6.83861">
        <ele>2752.9</ele>
      </trkpt>
      <trkpt lat="45.55519" lon="6.83852">
        <ele>2750.1</ele>
      </trkpt>
      <trkpt lat="45.55514" lon="6.83846">
        <ele>2749.5</ele>
      </trkpt>
      <trkpt lat="45.55509" lon="6.83841">
        <ele>2749.5</ele>
      </trkpt>
      <trkpt lat="45.55504" lon="6.83836">
        <ele>2749.8</ele>
      </trkpt>
      <trkpt lat="45.555" lon="6.8383">
        <ele>2749.8</ele>
      </trkpt>
      <trkpt lat="45.55493" lon="6.83831">
        <ele>2748.1</ele>
      </trkpt>
      <trkpt lat="45.55486" lon="6.83832">
        <ele>2746.6</ele>
      </trkpt>
      <trkpt lat="45.55479" lon="6.83834">
        <ele>2745.1</ele>
      </trkpt>
      <trkpt lat="45.55473" lon="6.83835">
        <ele>2743.7</ele>
      </trkpt>
      <trkpt lat="45.55467" lon="6.8384">
        <ele>2743.8</ele>
      </trkpt>
      <trkpt lat="45.55462" lon="6.83846">
        <ele>2743.7</ele>
      </trkpt>
      <trkpt lat="45.55457" lon="6.83852">
        <ele>2743.6</ele>
      </trkpt>
      <trkpt lat="45.55452" lon="6.83858">
        <ele>2743.3</ele>
      </trkpt>
      <trkpt lat="45.55446" lon="6.83863">
        <ele>2743</ele>
      </trkpt>
      <trkpt lat="45.55441" lon="6.83869">
        <ele>2742.1</ele>
      </trkpt>
      <trkpt lat="45.55436" lon="6.83875">
        <ele>2740.9</ele>
      </trkpt>
      <trkpt lat="45.55431" lon="6.83881">
        <ele>2739.6</ele>
      </trkpt>
      <trkpt lat="45.55428" lon="6.83889">
        <ele>2740.5</ele>
      </trkpt>
      <trkpt lat="45.55425" lon="6.83897">
        <ele>2740.4</ele>
      </trkpt>
      <trkpt lat="45.55422" lon="6.83905">
        <ele>2740.4</ele>
      </trkpt>
      <trkpt lat="45.55419" lon="6.83913">
        <ele>2740.6</ele>
      </trkpt>
      <trkpt lat="45.55415" lon="6.83915">
        <ele>2739</ele>
      </trkpt>
      <trkpt lat="45.55411" lon="6.83918">
        <ele>2738.5</ele>
      </trkpt>
      <trkpt lat="45.55407" lon="6.83921">
        <ele>2738.2</ele>
      </trkpt>
      <trkpt lat="45.55402" lon="6.83923">
        <ele>2737.8</ele>
      </trkpt>
      <trkpt lat="45.55398" lon="6.83926">
        <ele>2737.4</ele>
      </trkpt>
      <trkpt lat="45.55394" lon="6.83928">
        <ele>2736.9</ele>
      </trkpt>
      <trkpt lat="45.55389" lon="6.83931">
        <ele>2736.3</ele>
      </trkpt>
      <trkpt lat="45.55385" lon="6.83933">
        <ele>2735.6</ele>
      </trkpt>
      <trkpt lat="45.55381" lon="6.83936">
        <ele>2735</ele>
      </trkpt>
      <trkpt lat="45.55377" lon="6.83938">
        <ele>2734.5</ele>
      </trkpt>
      <trkpt lat="45.55372" lon="6.83941">
        <ele>2733.9</ele>
      </trkpt>
      <trkpt lat="45.55368" lon="6.83944">
        <ele>2733.4</ele>
      </trkpt>
      <trkpt lat="45.55364" lon="6.83946">
        <ele>2733.1</ele>
      </trkpt>
      <trkpt lat="45.5536" lon="6.83949">
        <ele>2733.2</ele>
      </trkpt>
      <trkpt lat="45.55355" lon="6.83951">
        <ele>2733.8</ele>
      </trkpt>
      <trkpt lat="45.55351" lon="6.83954">
        <ele>2734.3</ele>
      </trkpt>
      <trkpt lat="45.55344" lon="6.83955">
        <ele>2733.3</ele>
      </trkpt>
      <trkpt lat="45.55338" lon="6.83956">
        <ele>2732.2</ele>
      </trkpt>
      <trkpt lat="45.55331" lon="6.83957">
        <ele>2731</ele>
      </trkpt>
      <trkpt lat="45.55324" lon="6.83957">
        <ele>2729.6</ele>
      </trkpt>
      <trkpt lat="45.55318" lon="6.83958">
        <ele>2728.2</ele>
      </trkpt>
      <trkpt lat="45.55311" lon="6.83959">
        <ele>2726.9</ele>
      </trkpt>
      <trkpt lat="45.55304" lon="6.8396">
        <ele>2725.8</ele>
      </trkpt>
      <trkpt lat="45.55298" lon="6.83961">
        <ele>2726.1</ele>
      </trkpt>
      <trkpt lat="45.55293" lon="6.83959">
        <ele>2725.1</ele>
      </trkpt>
      <trkpt lat="45.55288" lon="6.83957">
        <ele>2724</ele>
      </trkpt>
      <trkpt lat="45.55284" lon="6.83955">
        <ele>2722.9</ele>
      </trkpt>
      <trkpt lat="45.55279" lon="6.83952">
        <ele>2721.8</ele>
      </trkpt>
      <trkpt lat="45.55275" lon="6.8395">
        <ele>2721.1</ele>
      </trkpt>
      <trkpt lat="45.5527" lon="6.83948">
        <ele>2720.7</ele>
      </trkpt>
      <trkpt lat="45.55266" lon="6.83946">
        <ele>2720.4</ele>
      </trkpt>
      <trkpt lat="45.55261" lon="6.83944">
        <ele>2720.1</ele>
      </trkpt>
      <trkpt lat="45.55256" lon="6.83942">
        <ele>2719.6</ele>
      </trkpt>
      <trkpt lat="45.55252" lon="6.83939">
        <ele>2719.2</ele>
      </trkpt>
      <trkpt lat="45.55247" lon="6.83937">
        <ele>2718.8</ele>
      </trkpt>
      <trkpt lat="45.55243" lon="6.83935">
        <ele>2718.4</ele>
      </trkpt>
      <trkpt lat="45.55238" lon="6.83933">
        <ele>2718.1</ele>
      </trkpt>
      <trkpt lat="45.55234" lon="6.83931">
        <ele>2718</ele>
      </trkpt>
      <trkpt lat="45.55229" lon="6.83929">
        <ele>2718</ele>
      </trkpt>
      <trkpt lat="45.55224" lon="6.83926">
        <ele>2718</ele>
      </trkpt>
      <trkpt lat="45.5522" lon="6.83924">
        <ele>2717.8</ele>
      </trkpt>
      <trkpt lat="45.55215" lon="6.83922">
        <ele>2717.2</ele>
      </trkpt>
      <trkpt lat="45.55211" lon="6.8392">
        <ele>2716.6</ele>
      </trkpt>
      <trkpt lat="45.55206" lon="6.83918">
        <ele>2716</ele>
      </trkpt>
      <trkpt lat="45.55202" lon="6.83915">
        <ele>2715.2</ele>
      </trkpt>
      <trkpt lat="45.55197" lon="6.83913">
        <ele>2714.5</ele>
      </trkpt>
      <trkpt lat="45.55192" lon="6.83911">
        <ele>2713.8</ele>
      </trkpt>
      <trkpt lat="45.55188" lon="6.83909">
        <ele>2713</ele>
      </trkpt>
      <trkpt lat="45.55183" lon="6.83907">
        <ele>2712.3</ele>
      </trkpt>
      <trkpt lat="45.55179" lon="6.83905">
        <ele>2711.7</ele>
      </trkpt>
      <trkpt lat="45.55174" lon="6.83902">
        <ele>2711.1</ele>
      </trkpt>
      <trkpt lat="45.55169" lon="6.839">
        <ele>2710.5</ele>
      </trkpt>
      <trkpt lat="45.55165" lon="6.83898">
        <ele>2710.1</ele>
      </trkpt>
      <trkpt lat="45.5516" lon="6.83896">
        <ele>2709.6</ele>
      </trkpt>
      <trkpt lat="45.55156" lon="6.83894">
        <ele>2709.1</ele>
      </trkpt>
      <trkpt lat="45.55151" lon="6.83891">
        <ele>2708.5</ele>
      </trkpt>
      <trkpt lat="45.55156" lon="6.83891">
        <ele>2708.3</ele>
      </trkpt>
      <trkpt lat="45.55161" lon="6.83891">
        <ele>2708.1</ele>
      </trkpt>
      <trkpt lat="45.55165" lon="6.83891">
        <ele>2707.8</ele>
      </trkpt>
      <trkpt lat="45.5517" lon="6.83891">
        <ele>2707.6</ele>
      </trkpt>
      <trkpt lat="45.55175" lon="6.83891">
        <ele>2707.2</ele>
      </trkpt>
      <trkpt lat="45.55179" lon="6.83891">
        <ele>2706.9</ele>
      </trkpt>
      <trkpt lat="45.55184" lon="6.83891">
        <ele>2706.6</ele>
      </trkpt>
      <trkpt lat="45.55189" lon="6.83891">
        <ele>2706.2</ele>
      </trkpt>
      <trkpt lat="45.55194" lon="6.83891">
        <ele>2705.9</ele>
      </trkpt>
      <trkpt lat="45.55198" lon="6.83891">
        <ele>2705.7</ele>
      </trkpt>
      <trkpt lat="45.55203" lon="6.83891">
        <ele>2705.5</ele>
      </trkpt>
      <trkpt lat="45.55208" lon="6.83891">
        <ele>2705.4</ele>
      </trkpt>
      <trkpt lat="45.55212" lon="6.83891">
        <ele>2705.2</ele>
      </trkpt>
      <trkpt lat="45.55217" lon="6.83891">
        <ele>2705</ele>
      </trkpt>
      <trkpt lat="45.55222" lon="6.83891">
        <ele>2704.8</ele>
      </trkpt>
      <trkpt lat="45.55227" lon="6.83891">
        <ele>2704</ele>
      </trkpt>
      <trkpt lat="45.55231" lon="6.83891">
        <ele>2703.1</ele>
      </trkpt>
      <trkpt lat="45.55236" lon="6.83891">
        <ele>2702.2</ele>
      </trkpt>
      <trkpt lat="45.55241" lon="6.83891">
        <ele>2701.3</ele>
      </trkpt>
      <trkpt lat="45.55246" lon="6.83891">
        <ele>2700.4</ele>
      </trkpt>
      <trkpt lat="45.5525" lon="6.83891">
        <ele>2699.6</ele>
      </trkpt>
      <trkpt lat="45.55255" lon="6.83891">
        <ele>2698.7</ele>
      </trkpt>
      <trkpt lat="45.5526" lon="6.83891">
        <ele>2697.9</ele>
      </trkpt>
      <trkpt lat="45.55264" lon="6.83891">
        <ele>2697</ele>
      </trkpt>
      <trkpt lat="45.55269" lon="6.83891">
        <ele>2696.2</ele>
      </trkpt>
      <trkpt lat="45.55274" lon="6.83891">
        <ele>2695.3</ele>
      </trkpt>
      <trkpt lat="45.55279" lon="6.83891">
        <ele>2694.6</ele>
      </trkpt>
      <trkpt lat="45.55283" lon="6.83891">
        <ele>2694.3</ele>
      </trkpt>
      <trkpt lat="45.55288" lon="6.8389">
        <ele>2693.9</ele>
      </trkpt>
      <trkpt lat="45.55293" lon="6.8389">
        <ele>2693.6</ele>
      </trkpt>
      <trkpt lat="45.55297" lon="6.8389">
        <ele>2693.3</ele>
      </trkpt>
      <trkpt lat="45.55302" lon="6.8389">
        <ele>2692.9</ele>
      </trkpt>
      <trkpt lat="45.55307" lon="6.83889">
        <ele>2692</ele>
      </trkpt>
      <trkpt lat="45.55312" lon="6.83887">
        <ele>2691.6</ele>
      </trkpt>
      <trkpt lat="45.55317" lon="6.83886">
        <ele>2691.2</ele>
      </trkpt>
      <trkpt lat="45.55322" lon="6.83884">
        <ele>2690.8</ele>
      </trkpt>
      <trkpt lat="45.55327" lon="6.83882">
        <ele>2690.4</ele>
      </trkpt>
      <trkpt lat="45.55331" lon="6.83881">
        <ele>2690</ele>
      </trkpt>
      <trkpt lat="45.55336" lon="6.83879">
        <ele>2690.2</ele>
      </trkpt>
      <trkpt lat="45.55341" lon="6.83878">
        <ele>2690.8</ele>
      </trkpt>
      <trkpt lat="45.55347" lon="6.8387">
        <ele>2689.1</ele>
      </trkpt>
      <trkpt lat="45.55354" lon="6.83863">
        <ele>2687.5</ele>
      </trkpt>
      <trkpt lat="45.5536" lon="6.83855">
        <ele>2686.5</ele>
      </trkpt>
      <trkpt lat="45.55366" lon="6.83848">
        <ele>2686.9</ele>
      </trkpt>
      <trkpt lat="45.55372" lon="6.83841">
        <ele>2687.4</ele>
      </trkpt>
      <trkpt lat="45.55378" lon="6.83833">
        <ele>2687.7</ele>
      </trkpt>
      <trkpt lat="45.55385" lon="6.83826">
        <ele>2688</ele>
      </trkpt>
      <trkpt lat="45.55391" lon="6.83819">
        <ele>2689.1</ele>
      </trkpt>
      <trkpt lat="45.55394" lon="6.83813">
        <ele>2689.1</ele>
      </trkpt>
      <trkpt lat="45.55396" lon="6.83807">
        <ele>2689.2</ele>
      </trkpt>
      <trkpt lat="45.55399" lon="6.83802">
        <ele>2688.9</ele>
      </trkpt>
      <trkpt lat="45.55402" lon="6.83796">
        <ele>2688.5</ele>
      </trkpt>
      <trkpt lat="45.55404" lon="6.83791">
        <ele>2687.9</ele>
      </trkpt>
      <trkpt lat="45.55407" lon="6.83785">
        <ele>2687.2</ele>
      </trkpt>
      <trkpt lat="45.5541" lon="6.8378">
        <ele>2686.4</ele>
      </trkpt>
      <trkpt lat="45.55413" lon="6.83774">
        <ele>2685.9</ele>
      </trkpt>
      <trkpt lat="45.55415" lon="6.83768">
        <ele>2685.8</ele>
      </trkpt>
      <trkpt lat="45.55418" lon="6.83763">
        <ele>2685.3</ele>
      </trkpt>
      <trkpt lat="45.55421" lon="6.83757">
        <ele>2684.7</ele>
      </trkpt>
      <trkpt lat="45.55423" lon="6.83752">
        <ele>2684</ele>
      </trkpt>
      <trkpt lat="45.55426" lon="6.83746">
        <ele>2683.4</ele>
      </trkpt>
      <trkpt lat="45.55429" lon="6.83741">
        <ele>2682.7</ele>
      </trkpt>
      <trkpt lat="45.55432" lon="6.83735">
        <ele>2682.1</ele>
      </trkpt>
      <trkpt lat="45.55434" lon="6.83729">
        <ele>2681.5</ele>
      </trkpt>
      <trkpt lat="45.55437" lon="6.83722">
        <ele>2680.4</ele>
      </trkpt>
      <trkpt lat="45.55441" lon="6.83714">
        <ele>2680</ele>
      </trkpt>
      <trkpt lat="45.55444" lon="6.83707">
        <ele>2679.7</ele>
      </trkpt>
      <trkpt lat="45.55447" lon="6.83699">
        <ele>2679.5</ele>
      </trkpt>
      <trkpt lat="45.5545" lon="6.83692">
        <ele>2679.5</ele>
      </trkpt>
      <trkpt lat="45.55453" lon="6.83684">
        <ele>2679.8</ele>
      </trkpt>
      <trkpt lat="45.55456" lon="6.83677">
        <ele>2679.9</ele>
      </trkpt>
      <trkpt lat="45.55459" lon="6.83669">
        <ele>2679.9</ele>
      </trkpt>
      <trkpt lat="45.55459" lon="6.83662">
        <ele>2679</ele>
      </trkpt>
      <trkpt lat="45.55458" lon="6.83654">
        <ele>2678.6</ele>
      </trkpt>
      <trkpt lat="45.55457" lon="6.83647">
        <ele>2678.3</ele>
      </trkpt>
      <trkpt lat="45.55457" lon="6.83639">
        <ele>2678</ele>
      </trkpt>
      <trkpt lat="45.55455" lon="6.83645">
        <ele>2677.3</ele>
      </trkpt>
      <trkpt lat="45.55452" lon="6.83651">
        <ele>2676.4</ele>
      </trkpt>
      <trkpt lat="45.5545" lon="6.83657">
        <ele>2675.5</ele>
      </trkpt>
      <trkpt lat="45.55448" lon="6.83663">
        <ele>2674.4</ele>
      </trkpt>
      <trkpt lat="45.55445" lon="6.8367">
        <ele>2673.7</ele>
      </trkpt>
      <trkpt lat="45.55443" lon="6.83676">
        <ele>2673.1</ele>
      </trkpt>
      <trkpt lat="45.5544" lon="6.83682">
        <ele>2672.4</ele>
      </trkpt>
      <trkpt lat="45.55438" lon="6.83688">
        <ele>2672</ele>
      </trkpt>
      <trkpt lat="45.55434" lon="6.83694">
        <ele>2670.9</ele>
      </trkpt>
      <trkpt lat="45.5543" lon="6.837">
        <ele>2670.3</ele>
      </trkpt>
      <trkpt lat="45.55426" lon="6.83706">
        <ele>2669.9</ele>
      </trkpt>
      <trkpt lat="45.55423" lon="6.83711">
        <ele>2669.6</ele>
      </trkpt>
      <trkpt lat="45.55419" lon="6.83717">
        <ele>2669.4</ele>
      </trkpt>
      <trkpt lat="45.55415" lon="6.83723">
        <ele>2669.1</ele>
      </trkpt>
      <trkpt lat="45.55411" lon="6.83729">
        <ele>2668.6</ele>
      </trkpt>
      <trkpt lat="45.55407" lon="6.83735">
        <ele>2668.4</ele>
      </trkpt>
      <trkpt lat="45.55403" lon="6.83741">
        <ele>2668.2</ele>
      </trkpt>
      <trkpt lat="45.55399" lon="6.83747">
        <ele>2668.1</ele>
      </trkpt>
      <trkpt lat="45.55395" lon="6.83753">
        <ele>2667.9</ele>
      </trkpt>
      <trkpt lat="45.55391" lon="6.83759">
        <ele>2667.5</ele>
      </trkpt>
      <trkpt lat="45.55387" lon="6.83765">
        <ele>2667</ele>
      </trkpt>
      <trkpt lat="45.55384" lon="6.83771">
        <ele>2666.4</ele>
      </trkpt>
      <trkpt lat="45.5538" lon="6.83777">
        <ele>2666.1</ele>
      </trkpt>
      <trkpt lat="45.55376" lon="6.83783">
        <ele>2665.9</ele>
      </trkpt>
      <trkpt lat="45.5537" lon="6.8379">
        <ele>2664.9</ele>
      </trkpt>
      <trkpt lat="45.55364" lon="6.83798">
        <ele>2663.8</ele>
      </trkpt>
      <trkpt lat="45.55358" lon="6.83805">
        <ele>2664</ele>
      </trkpt>
      <trkpt lat="45.55352" lon="6.83812">
        <ele>2665.9</ele>
      </trkpt>
      <trkpt lat="45.55347" lon="6.83813">
        <ele>2664.9</ele>
      </trkpt>
      <trkpt lat="45.55342" lon="6.83813">
        <ele>2663.8</ele>
      </trkpt>
      <trkpt lat="45.55337" lon="6.83814">
        <ele>2662.7</ele>
      </trkpt>
      <trkpt lat="45.55331" lon="6.83814">
        <ele>2662.1</ele>
      </trkpt>
      <trkpt lat="45.55326" lon="6.83815">
        <ele>2662.1</ele>
      </trkpt>
      <trkpt lat="45.55321" lon="6.83815">
        <ele>2662.2</ele>
      </trkpt>
      <trkpt lat="45.55316" lon="6.83816">
        <ele>2662.2</ele>
      </trkpt>
      <trkpt lat="45.55311" lon="6.83816">
        <ele>2662.2</ele>
      </trkpt>
      <trkpt lat="45.55306" lon="6.83813">
        <ele>2661.3</ele>
      </trkpt>
      <trkpt lat="45.55301" lon="6.8381">
        <ele>2660.8</ele>
      </trkpt>
      <trkpt lat="45.55296" lon="6.83808">
        <ele>2660.3</ele>
      </trkpt>
      <trkpt lat="45.55291" lon="6.83805">
        <ele>2659.7</ele>
      </trkpt>
      <trkpt lat="45.55286" lon="6.83802">
        <ele>2659.3</ele>
      </trkpt>
      <trkpt lat="45.55281" lon="6.83799">
        <ele>2658.9</ele>
      </trkpt>
      <trkpt lat="45.55276" lon="6.83796">
        <ele>2658.7</ele>
      </trkpt>
      <trkpt lat="45.55271" lon="6.83793">
        <ele>2658.7</ele>
      </trkpt>
      <trkpt lat="45.55267" lon="6.83791">
        <ele>2659</ele>
      </trkpt>
      <trkpt lat="45.55262" lon="6.8379">
        <ele>2659.2</ele>
      </trkpt>
      <trkpt lat="45.55257" lon="6.83788">
        <ele>2659.4</ele>
      </trkpt>
      <trkpt lat="45.55253" lon="6.83787">
        <ele>2659.6</ele>
      </trkpt>
      <trkpt lat="45.55248" lon="6.83785">
        <ele>2659.5</ele>
      </trkpt>
      <trkpt lat="45.55243" lon="6.83784">
        <ele>2659.1</ele>
      </trkpt>
      <trkpt lat="45.55239" lon="6.83782">
        <ele>2658.7</ele>
      </trkpt>
      <trkpt lat="45.55234" lon="6.83781">
        <ele>2658.2</ele>
      </trkpt>
      <trkpt lat="45.5523" lon="6.83779">
        <ele>2657.7</ele>
      </trkpt>
      <trkpt lat="45.55225" lon="6.83778">
        <ele>2657.1</ele>
      </trkpt>
      <trkpt lat="45.5522" lon="6.83777">
        <ele>2656.7</ele>
      </trkpt>
      <trkpt lat="45.55216" lon="6.83775">
        <ele>2656.4</ele>
      </trkpt>
      <trkpt lat="45.55211" lon="6.83774">
        <ele>2656.1</ele>
      </trkpt>
      <trkpt lat="45.55206" lon="6.83772">
        <ele>2655.8</ele>
      </trkpt>
      <trkpt lat="45.55202" lon="6.83771">
        <ele>2655.5</ele>
      </trkpt>
      <trkpt lat="45.55197" lon="6.83769">
        <ele>2655.1</ele>
      </trkpt>
      <trkpt lat="45.55192" lon="6.83766">
        <ele>2654.3</ele>
      </trkpt>
      <trkpt lat="45.55187" lon="6.83763">
        <ele>2653.6</ele>
      </trkpt>
      <trkpt lat="45.55183" lon="6.8376">
        <ele>2652.8</ele>
      </trkpt>
      <trkpt lat="45.55178" lon="6.83756">
        <ele>2651.9</ele>
      </trkpt>
      <trkpt lat="45.55173" lon="6.83753">
        <ele>2650.9</ele>
      </trkpt>
      <trkpt lat="45.55168" lon="6.8375">
        <ele>2649.9</ele>
      </trkpt>
      <trkpt lat="45.55163" lon="6.83747">
        <ele>2649.1</ele>
      </trkpt>
      <trkpt lat="45.55159" lon="6.83743">
        <ele>2648.5</ele>
      </trkpt>
      <trkpt lat="45.55153" lon="6.83741">
        <ele>2648.2</ele>
      </trkpt>
      <trkpt lat="45.55147" lon="6.83739">
        <ele>2648</ele>
      </trkpt>
      <trkpt lat="45.55141" lon="6.83736">
        <ele>2647.8</ele>
      </trkpt>
      <trkpt lat="45.55135" lon="6.83734">
        <ele>2648.3</ele>
      </trkpt>
      <trkpt lat="45.55131" lon="6.83727">
        <ele>2647.6</ele>
      </trkpt>
      <trkpt lat="45.55127" lon="6.83721">
        <ele>2646.9</ele>
      </trkpt>
      <trkpt lat="45.55123" lon="6.83714">
        <ele>2646.1</ele>
      </trkpt>
      <trkpt lat="45.55119" lon="6.83707">
        <ele>2645.2</ele>
      </trkpt>
      <trkpt lat="45.55115" lon="6.83701">
        <ele>2644.2</ele>
      </trkpt>
      <trkpt lat="45.55111" lon="6.83694">
        <ele>2643.1</ele>
      </trkpt>
      <trkpt lat="45.55107" lon="6.83688">
        <ele>2642.7</ele>
      </trkpt>
      <trkpt lat="45.55103" lon="6.83681">
        <ele>2642.1</ele>
      </trkpt>
      <trkpt lat="45.55099" lon="6.83675">
        <ele>2641.4</ele>
      </trkpt>
      <trkpt lat="45.55095" lon="6.83668">
        <ele>2640.4</ele>
      </trkpt>
      <trkpt lat="45.5509" lon="6.83661">
        <ele>2639.1</ele>
      </trkpt>
      <trkpt lat="45.55086" lon="6.83655">
        <ele>2637.7</ele>
      </trkpt>
      <trkpt lat="45.55082" lon="6.83648">
        <ele>2636.5</ele>
      </trkpt>
      <trkpt lat="45.55078" lon="6.83642">
        <ele>2635.8</ele>
      </trkpt>
      <trkpt lat="45.55074" lon="6.83635">
        <ele>2635.5</ele>
      </trkpt>
      <trkpt lat="45.5507" lon="6.83629">
        <ele>2635.3</ele>
      </trkpt>
      <trkpt lat="45.55074" lon="6.83622">
        <ele>2632.7</ele>
      </trkpt>
      <trkpt lat="45.55078" lon="6.83615">
        <ele>2630.5</ele>
      </trkpt>
      <trkpt lat="45.55083" lon="6.83617">
        <ele>2630.1</ele>
      </trkpt>
      <trkpt lat="45.55088" lon="6.8362">
        <ele>2629.4</ele>
      </trkpt>
      <trkpt lat="45.55093" lon="6.83623">
        <ele>2628.7</ele>
      </trkpt>
      <trkpt lat="45.55098" lon="6.83625">
        <ele>2628.2</ele>
      </trkpt>
      <trkpt lat="45.55102" lon="6.83626">
        <ele>2627.5</ele>
      </trkpt>
      <trkpt lat="45.55107" lon="6.83627">
        <ele>2626.8</ele>
      </trkpt>
      <trkpt lat="45.55111" lon="6.83628">
        <ele>2626.2</ele>
      </trkpt>
      <trkpt lat="45.55116" lon="6.83629">
        <ele>2625.9</ele>
      </trkpt>
      <trkpt lat="45.5512" lon="6.83629">
        <ele>2625.6</ele>
      </trkpt>
      <trkpt lat="45.55125" lon="6.8363">
        <ele>2625.3</ele>
      </trkpt>
      <trkpt lat="45.55129" lon="6.83631">
        <ele>2625</ele>
      </trkpt>
      <trkpt lat="45.55134" lon="6.83632">
        <ele>2624.6</ele>
      </trkpt>
      <trkpt lat="45.55138" lon="6.83633">
        <ele>2624.2</ele>
      </trkpt>
      <trkpt lat="45.55143" lon="6.83633">
        <ele>2623.4</ele>
      </trkpt>
      <trkpt lat="45.55147" lon="6.83634">
        <ele>2622.6</ele>
      </trkpt>
      <trkpt lat="45.55152" lon="6.83635">
        <ele>2621.8</ele>
      </trkpt>
      <trkpt lat="45.55156" lon="6.83636">
        <ele>2620.9</ele>
      </trkpt>
      <trkpt lat="45.55161" lon="6.83637">
        <ele>2620</ele>
      </trkpt>
      <trkpt lat="45.55165" lon="6.83637">
        <ele>2619.2</ele>
      </trkpt>
      <trkpt lat="45.5517" lon="6.83638">
        <ele>2618.3</ele>
      </trkpt>
      <trkpt lat="45.55176" lon="6.8364">
        <ele>2617.6</ele>
      </trkpt>
      <trkpt lat="45.55182" lon="6.83642">
        <ele>2616.9</ele>
      </trkpt>
      <trkpt lat="45.55188" lon="6.83644">
        <ele>2616.2</ele>
      </trkpt>
      <trkpt lat="45.55194" lon="6.83646">
        <ele>2615.4</ele>
      </trkpt>
      <trkpt lat="45.552" lon="6.83648">
        <ele>2614.4</ele>
      </trkpt>
      <trkpt lat="45.55206" lon="6.8365">
        <ele>2613.4</ele>
      </trkpt>
      <trkpt lat="45.55212" lon="6.83652">
        <ele>2612.6</ele>
      </trkpt>
      <trkpt lat="45.55218" lon="6.83654">
        <ele>2611.9</ele>
      </trkpt>
      <trkpt lat="45.55225" lon="6.83651">
        <ele>2609.6</ele>
      </trkpt>
      <trkpt lat="45.55231" lon="6.83647">
        <ele>2607.8</ele>
      </trkpt>
      <trkpt lat="45.55238" lon="6.83643">
        <ele>2605.8</ele>
      </trkpt>
      <trkpt lat="45.55244" lon="6.83639">
        <ele>2603.8</ele>
      </trkpt>
      <trkpt lat="45.55251" lon="6.83636">
        <ele>2602</ele>
      </trkpt>
      <trkpt lat="45.55257" lon="6.83632">
        <ele>2601.6</ele>
      </trkpt>
      <trkpt lat="45.55264" lon="6.83628">
        <ele>2601.2</ele>
      </trkpt>
      <trkpt lat="45.55271" lon="6.83624">
        <ele>2600.9</ele>
      </trkpt>
      <trkpt lat="45.55268" lon="6.83617">
        <ele>2598.4</ele>
      </trkpt>
      <trkpt lat="45.55265" lon="6.8361">
        <ele>2595.8</ele>
      </trkpt>
      <trkpt lat="45.55259" lon="6.83608">
        <ele>2594.4</ele>
      </trkpt>
      <trkpt lat="45.55254" lon="6.83607">
        <ele>2593</ele>
      </trkpt>
      <trkpt lat="45.55248" lon="6.83605">
        <ele>2591.8</ele>
      </trkpt>
      <trkpt lat="45.55243" lon="6.83603">
        <ele>2590.8</ele>
      </trkpt>
      <trkpt lat="45.55237" lon="6.83601">
        <ele>2589.8</ele>
      </trkpt>
      <trkpt lat="45.55232" lon="6.83599">
        <ele>2588.8</ele>
      </trkpt>
      <trkpt lat="45.55226" lon="6.83597">
        <ele>2587.8</ele>
      </trkpt>
      <trkpt lat="45.55221" lon="6.83595">
        <ele>2587.1</ele>
      </trkpt>
      <trkpt lat="45.55217" lon="6.83591">
        <ele>2586.1</ele>
      </trkpt>
      <trkpt lat="45.55212" lon="6.83587">
        <ele>2584.7</ele>
      </trkpt>
      <trkpt lat="45.55208" lon="6.83583">
        <ele>2582.8</ele>
      </trkpt>
      <trkpt lat="45.55204" lon="6.83579">
        <ele>2581.2</ele>
      </trkpt>
      <trkpt lat="45.55199" lon="6.83575">
        <ele>2579.6</ele>
      </trkpt>
      <trkpt lat="45.55195" lon="6.8357">
        <ele>2577.9</ele>
      </trkpt>
      <trkpt lat="45.5519" lon="6.83566">
        <ele>2577.4</ele>
      </trkpt>
      <trkpt lat="45.55186" lon="6.83562">
        <ele>2576.3</ele>
      </trkpt>
      <trkpt lat="45.55182" lon="6.83558">
        <ele>2574.5</ele>
      </trkpt>
      <trkpt lat="45.55177" lon="6.83554">
        <ele>2572.5</ele>
      </trkpt>
      <trkpt lat="45.55173" lon="6.8355">
        <ele>2571</ele>
      </trkpt>
      <trkpt lat="45.55169" lon="6.83545">
        <ele>2569.5</ele>
      </trkpt>
      <trkpt lat="45.55164" lon="6.83541">
        <ele>2568.4</ele>
      </trkpt>
      <trkpt lat="45.5516" lon="6.83537">
        <ele>2567.2</ele>
      </trkpt>
      <trkpt lat="45.55156" lon="6.83533">
        <ele>2565.4</ele>
      </trkpt>
      <trkpt lat="45.55151" lon="6.83529">
        <ele>2563.2</ele>
      </trkpt>
      <trkpt lat="45.55146" lon="6.83525">
        <ele>2561.6</ele>
      </trkpt>
      <trkpt lat="45.5514" lon="6.83521">
        <ele>2560.4</ele>
      </trkpt>
      <trkpt lat="45.55135" lon="6.83518">
        <ele>2559.6</ele>
      </trkpt>
      <trkpt lat="45.55129" lon="6.83514">
        <ele>2559</ele>
      </trkpt>
      <trkpt lat="45.55124" lon="6.8351">
        <ele>2558.3</ele>
      </trkpt>
      <trkpt lat="45.55118" lon="6.83506">
        <ele>2557.6</ele>
      </trkpt>
      <trkpt lat="45.55113" lon="6.83503">
        <ele>2556.8</ele>
      </trkpt>
      <trkpt lat="45.55108" lon="6.83499">
        <ele>2555.7</ele>
      </trkpt>
      <trkpt lat="45.55102" lon="6.83495">
        <ele>2554.7</ele>
      </trkpt>
      <trkpt lat="45.55097" lon="6.83491">
        <ele>2553.9</ele>
      </trkpt>
      <trkpt lat="45.55091" lon="6.83488">
        <ele>2553.5</ele>
      </trkpt>
      <trkpt lat="45.55086" lon="6.83484">
        <ele>2553.4</ele>
      </trkpt>
      <trkpt lat="45.5508" lon="6.8348">
        <ele>2553.5</ele>
      </trkpt>
      <trkpt lat="45.55075" lon="6.83476">
        <ele>2553.3</ele>
      </trkpt>
      <trkpt lat="45.55069" lon="6.83473">
        <ele>2553.1</ele>
      </trkpt>
      <trkpt lat="45.55064" lon="6.83469">
        <ele>2553.2</ele>
      </trkpt>
      <trkpt lat="45.55059" lon="6.83462">
        <ele>2552.6</ele>
      </trkpt>
      <trkpt lat="45.55055" lon="6.83455">
        <ele>2552.2</ele>
      </trkpt>
      <trkpt lat="45.5505" lon="6.83448">
        <ele>2552</ele>
      </trkpt>
      <trkpt lat="45.55045" lon="6.83441">
        <ele>2551.2</ele>
      </trkpt>
      <trkpt lat="45.5504" lon="6.83434">
        <ele>2550</ele>
      </trkpt>
      <trkpt lat="45.55036" lon="6.83427">
        <ele>2548.8</ele>
      </trkpt>
      <trkpt lat="45.55031" lon="6.8342">
        <ele>2547.6</ele>
      </trkpt>
      <trkpt lat="45.55026" lon="6.83413">
        <ele>2546.1</ele>
      </trkpt>
      <trkpt lat="45.55021" lon="6.83407">
        <ele>2544.5</ele>
      </trkpt>
      <trkpt lat="45.55017" lon="6.834">
        <ele>2542.9</ele>
      </trkpt>
      <trkpt lat="45.55012" lon="6.83393">
        <ele>2541.2</ele>
      </trkpt>
      <trkpt lat="45.55007" lon="6.83386">
        <ele>2539.8</ele>
      </trkpt>
      <trkpt lat="45.55002" lon="6.83379">
        <ele>2538.6</ele>
      </trkpt>
      <trkpt lat="45.54998" lon="6.83372">
        <ele>2537.4</ele>
      </trkpt>
      <trkpt lat="45.54993" lon="6.83365">
        <ele>2535.8</ele>
      </trkpt>
      <trkpt lat="45.54988" lon="6.83358">
        <ele>2533.9</ele>
      </trkpt>
      <trkpt lat="45.54984" lon="6.83355">
        <ele>2533.3</ele>
      </trkpt>
      <trkpt lat="45.5498" lon="6.83352">
        <ele>2532.8</ele>
      </trkpt>
      <trkpt lat="45.54976" lon="6.83349">
        <ele>2532.4</ele>
      </trkpt>
      <trkpt lat="45.54972" lon="6.83346">
        <ele>2532.2</ele>
      </trkpt>
      <trkpt lat="45.54968" lon="6.83343">
        <ele>2531.9</ele>
      </trkpt>
      <trkpt lat="45.54964" lon="6.8334">
        <ele>2531.6</ele>
      </trkpt>
      <trkpt lat="45.54961" lon="6.83337">
        <ele>2531.2</ele>
      </trkpt>
      <trkpt lat="45.54957" lon="6.83334">
        <ele>2530.7</ele>
      </trkpt>
      <trkpt lat="45.54953" lon="6.8333">
        <ele>2530.1</ele>
      </trkpt>
      <trkpt lat="45.54949" lon="6.83327">
        <ele>2529.7</ele>
      </trkpt>
      <trkpt lat="45.54945" lon="6.83324">
        <ele>2529.4</ele>
      </trkpt>
      <trkpt lat="45.54941" lon="6.83321">
        <ele>2530</ele>
      </trkpt>
      <trkpt lat="45.54937" lon="6.83318">
        <ele>2530.8</ele>
      </trkpt>
      <trkpt lat="45.54933" lon="6.83315">
        <ele>2531.6</ele>
      </trkpt>
      <trkpt lat="45.54929" lon="6.83312">
        <ele>2532.4</ele>
      </trkpt>
      <trkpt lat="45.54925" lon="6.83309">
        <ele>2533.3</ele>
      </trkpt>
      <trkpt lat="45.54923" lon="6.83302">
        <ele>2532</ele>
      </trkpt>
      <trkpt lat="45.54922" lon="6.83294">
        <ele>2530.8</ele>
      </trkpt>
      <trkpt lat="45.5492" lon="6.83287">
        <ele>2529.6</ele>
      </trkpt>
      <trkpt lat="45.54918" lon="6.8328">
        <ele>2528.7</ele>
      </trkpt>
      <trkpt lat="45.54917" lon="6.83273">
        <ele>2527.8</ele>
      </trkpt>
      <trkpt lat="45.54915" lon="6.83265">
        <ele>2526.7</ele>
      </trkpt>
      <trkpt lat="45.54913" lon="6.83258">
        <ele>2525.6</ele>
      </trkpt>
      <trkpt lat="45.54911" lon="6.83251">
        <ele>2524.5</ele>
      </trkpt>
      <trkpt lat="45.54908" lon="6.83245">
        <ele>2523.7</ele>
      </trkpt>
      <trkpt lat="45.54905" lon="6.83239">
        <ele>2522.6</ele>
      </trkpt>
      <trkpt lat="45.54901" lon="6.83233">
        <ele>2521.4</ele>
      </trkpt>
      <trkpt lat="45.54898" lon="6.83227">
        <ele>2519.9</ele>
      </trkpt>
      <trkpt lat="45.54894" lon="6.83221">
        <ele>2518.4</ele>
      </trkpt>
      <trkpt lat="45.54891" lon="6.83216">
        <ele>2518.5</ele>
      </trkpt>
      <trkpt lat="45.54887" lon="6.8321">
        <ele>2518.7</ele>
      </trkpt>
      <trkpt lat="45.54884" lon="6.83204">
        <ele>2518.6</ele>
      </trkpt>
      <trkpt lat="45.5488" lon="6.83198">
        <ele>2518.2</ele>
      </trkpt>
      <trkpt lat="45.54877" lon="6.83192">
        <ele>2517.7</ele>
      </trkpt>
      <trkpt lat="45.54873" lon="6.83186">
        <ele>2517</ele>
      </trkpt>
      <trkpt lat="45.5487" lon="6.8318">
        <ele>2516.2</ele>
      </trkpt>
      <trkpt lat="45.54866" lon="6.83174">
        <ele>2515.2</ele>
      </trkpt>
      <trkpt lat="45.54863" lon="6.83168">
        <ele>2514.2</ele>
      </trkpt>
      <trkpt lat="45.54859" lon="6.83162">
        <ele>2513.8</ele>
      </trkpt>
      <trkpt lat="45.54856" lon="6.83157">
        <ele>2513.2</ele>
      </trkpt>
      <trkpt lat="45.54856" lon="6.83145">
        <ele>2511.7</ele>
      </trkpt>
      <trkpt lat="45.54856" lon="6.83133">
        <ele>2510.8</ele>
      </trkpt>
      <trkpt lat="45.54856" lon="6.83121">
        <ele>2510.4</ele>
      </trkpt>
      <trkpt lat="45.54856" lon="6.83109">
        <ele>2510.3</ele>
      </trkpt>
      <trkpt lat="45.54852" lon="6.83103">
        <ele>2510.2</ele>
      </trkpt>
      <trkpt lat="45.54848" lon="6.83096">
        <ele>2509.8</ele>
      </trkpt>
      <trkpt lat="45.54844" lon="6.8309">
        <ele>2509.1</ele>
      </trkpt>
      <trkpt lat="45.5484" lon="6.83083">
        <ele>2508.2</ele>
      </trkpt>
      <trkpt lat="45.54836" lon="6.83076">
        <ele>2507.2</ele>
      </trkpt>
      <trkpt lat="45.54832" lon="6.8307">
        <ele>2506.2</ele>
      </trkpt>
      <trkpt lat="45.54828" lon="6.83063">
        <ele>2505.3</ele>
      </trkpt>
      <trkpt lat="45.54824" lon="6.83057">
        <ele>2504.4</ele>
      </trkpt>
      <trkpt lat="45.5482" lon="6.8305">
        <ele>2503.8</ele>
      </trkpt>
      <trkpt lat="45.54816" lon="6.83044">
        <ele>2503.1</ele>
      </trkpt>
      <trkpt lat="45.54812" lon="6.83037">
        <ele>2502.1</ele>
      </trkpt>
      <trkpt lat="45.54809" lon="6.8303">
        <ele>2501</ele>
      </trkpt>
      <trkpt lat="45.54805" lon="6.83024">
        <ele>2499.8</ele>
      </trkpt>
      <trkpt lat="45.54801" lon="6.83017">
        <ele>2498.7</ele>
      </trkpt>
      <trkpt lat="45.54797" lon="6.83011">
        <ele>2497.5</ele>
      </trkpt>
      <trkpt lat="45.54793" lon="6.83004">
        <ele>2496</ele>
      </trkpt>
      <trkpt lat="45.54791" lon="6.82996">
        <ele>2495.6</ele>
      </trkpt>
      <trkpt lat="45.5479" lon="6.82988">
        <ele>2495.5</ele>
      </trkpt>
      <trkpt lat="45.54788" lon="6.82979">
        <ele>2495.3</ele>
      </trkpt>
      <trkpt lat="45.54787" lon="6.82971">
        <ele>2494.9</ele>
      </trkpt>
      <trkpt lat="45.54785" lon="6.82963">
        <ele>2494.3</ele>
      </trkpt>
      <trkpt lat="45.54784" lon="6.82954">
        <ele>2493.7</ele>
      </trkpt>
      <trkpt lat="45.54782" lon="6.82946">
        <ele>2493.2</ele>
      </trkpt>
      <trkpt lat="45.54781" lon="6.82938">
        <ele>2492.2</ele>
      </trkpt>
      <trkpt lat="45.54779" lon="6.82929">
        <ele>2491.1</ele>
      </trkpt>
      <trkpt lat="45.54778" lon="6.82921">
        <ele>2490.1</ele>
      </trkpt>
      <trkpt lat="45.54776" lon="6.82913">
        <ele>2489.7</ele>
      </trkpt>
      <trkpt lat="45.54775" lon="6.82904">
        <ele>2489.3</ele>
      </trkpt>
      <trkpt lat="45.54773" lon="6.82896">
        <ele>2488.9</ele>
      </trkpt>
      <trkpt lat="45.54772" lon="6.82888">
        <ele>2488.5</ele>
      </trkpt>
      <trkpt lat="45.5477" lon="6.82879">
        <ele>2488.4</ele>
      </trkpt>
      <trkpt lat="45.54769" lon="6.82871">
        <ele>2488.4</ele>
      </trkpt>
      <trkpt lat="45.54767" lon="6.82865">
        <ele>2488.3</ele>
      </trkpt>
      <trkpt lat="45.54766" lon="6.82858">
        <ele>2488.2</ele>
      </trkpt>
      <trkpt lat="45.54765" lon="6.82852">
        <ele>2488.2</ele>
      </trkpt>
      <trkpt lat="45.54763" lon="6.82845">
        <ele>2488.2</ele>
      </trkpt>
      <trkpt lat="45.54762" lon="6.82839">
        <ele>2488.1</ele>
      </trkpt>
      <trkpt lat="45.54761" lon="6.82833">
        <ele>2487.9</ele>
      </trkpt>
      <trkpt lat="45.5476" lon="6.82826">
        <ele>2487.8</ele>
      </trkpt>
      <trkpt lat="45.54758" lon="6.8282">
        <ele>2487.6</ele>
      </trkpt>
      <trkpt lat="45.54757" lon="6.82813">
        <ele>2487.4</ele>
      </trkpt>
      <trkpt lat="45.54756" lon="6.82807">
        <ele>2487.1</ele>
      </trkpt>
      <trkpt lat="45.54754" lon="6.828">
        <ele>2486.6</ele>
      </trkpt>
      <trkpt lat="45.54753" lon="6.82794">
        <ele>2486</ele>
      </trkpt>
      <trkpt lat="45.54752" lon="6.82787">
        <ele>2485.5</ele>
      </trkpt>
      <trkpt lat="45.5475" lon="6.82781">
        <ele>2485.1</ele>
      </trkpt>
      <trkpt lat="45.54749" lon="6.82775">
        <ele>2484.9</ele>
      </trkpt>
      <trkpt lat="45.54748" lon="6.82768">
        <ele>2484.8</ele>
      </trkpt>
      <trkpt lat="45.54751" lon="6.82758">
        <ele>2485.1</ele>
      </trkpt>
      <trkpt lat="45.54753" lon="6.82747">
        <ele>2485.4</ele>
      </trkpt>
      <trkpt lat="45.54756" lon="6.82737">
        <ele>2485.1</ele>
      </trkpt>
      <trkpt lat="45.54759" lon="6.82726">
        <ele>2484.4</ele>
      </trkpt>
      <trkpt lat="45.54762" lon="6.82716">
        <ele>2483.7</ele>
      </trkpt>
      <trkpt lat="45.54765" lon="6.82705">
        <ele>2483</ele>
      </trkpt>
      <trkpt lat="45.54767" lon="6.82695">
        <ele>2482.2</ele>
      </trkpt>
      <trkpt lat="45.5477" lon="6.82684">
        <ele>2480.4</ele>
      </trkpt>
      <trkpt lat="45.54772" lon="6.82677">
        <ele>2478.9</ele>
      </trkpt>
      <trkpt lat="45.54775" lon="6.82669">
        <ele>2477.1</ele>
      </trkpt>
      <trkpt lat="45.54777" lon="6.82661">
        <ele>2475.2</ele>
      </trkpt>
      <trkpt lat="45.54779" lon="6.82653">
        <ele>2473.5</ele>
      </trkpt>
      <trkpt lat="45.54781" lon="6.82645">
        <ele>2472</ele>
      </trkpt>
      <trkpt lat="45.54783" lon="6.82637">
        <ele>2470.3</ele>
      </trkpt>
      <trkpt lat="45.54785" lon="6.82629">
        <ele>2468</ele>
      </trkpt>
      <trkpt lat="45.54788" lon="6.82621">
        <ele>2465.7</ele>
      </trkpt>
      <trkpt lat="45.5479" lon="6.82613">
        <ele>2463.3</ele>
      </trkpt>
      <trkpt lat="45.54792" lon="6.82605">
        <ele>2460.9</ele>
      </trkpt>
      <trkpt lat="45.54794" lon="6.82597">
        <ele>2458.5</ele>
      </trkpt>
      <trkpt lat="45.54796" lon="6.8259">
        <ele>2456.1</ele>
      </trkpt>
      <trkpt lat="45.54798" lon="6.82582">
        <ele>2453.7</ele>
      </trkpt>
      <trkpt lat="45.548" lon="6.82574">
        <ele>2451.9</ele>
      </trkpt>
      <trkpt lat="45.54803" lon="6.82566">
        <ele>2450.1</ele>
      </trkpt>
      <trkpt lat="45.54805" lon="6.82558">
        <ele>2448.5</ele>
      </trkpt>
      <trkpt lat="45.54806" lon="6.8255">
        <ele>2447.6</ele>
      </trkpt>
      <trkpt lat="45.54806" lon="6.82543">
        <ele>2447.1</ele>
      </trkpt>
      <trkpt lat="45.54807" lon="6.82536">
        <ele>2446.5</ele>
      </trkpt>
      <trkpt lat="45.54808" lon="6.82528">
        <ele>2445.9</ele>
      </trkpt>
      <trkpt lat="45.54809" lon="6.82521">
        <ele>2445.9</ele>
      </trkpt>
      <trkpt lat="45.5481" lon="6.82514">
        <ele>2445.8</ele>
      </trkpt>
      <trkpt lat="45.54811" lon="6.82506">
        <ele>2445.8</ele>
      </trkpt>
      <trkpt lat="45.54812" lon="6.82499">
        <ele>2445.8</ele>
      </trkpt>
      <trkpt lat="45.54812" lon="6.82491">
        <ele>2445.8</ele>
      </trkpt>
      <trkpt lat="45.54813" lon="6.82484">
        <ele>2445.9</ele>
      </trkpt>
      <trkpt lat="45.54814" lon="6.82477">
        <ele>2446</ele>
      </trkpt>
      <trkpt lat="45.54815" lon="6.82469">
        <ele>2446</ele>
      </trkpt>
      <trkpt lat="45.54816" lon="6.82462">
        <ele>2446.1</ele>
      </trkpt>
      <trkpt lat="45.54817" lon="6.82455">
        <ele>2446.3</ele>
      </trkpt>
      <trkpt lat="45.54817" lon="6.82447">
        <ele>2446.4</ele>
      </trkpt>
      <trkpt lat="45.54818" lon="6.8244">
        <ele>2447.1</ele>
      </trkpt>
      <trkpt lat="45.54819" lon="6.82428">
        <ele>2448.9</ele>
      </trkpt>
      <trkpt lat="45.5482" lon="6.82416">
        <ele>2450.6</ele>
      </trkpt>
      <trkpt lat="45.54821" lon="6.82404">
        <ele>2452.5</ele>
      </trkpt>
      <trkpt lat="45.54822" lon="6.82392">
        <ele>2454.4</ele>
      </trkpt>
      <trkpt lat="45.54823" lon="6.8238">
        <ele>2455.2</ele>
      </trkpt>
      <trkpt lat="45.54824" lon="6.82367">
        <ele>2455.7</ele>
      </trkpt>
      <trkpt lat="45.54825" lon="6.82355">
        <ele>2455.8</ele>
      </trkpt>
      <trkpt lat="45.54826" lon="6.82343">
        <ele>2455.5</ele>
      </trkpt>
      <trkpt lat="45.54828" lon="6.82336">
        <ele>2454.9</ele>
      </trkpt>
      <trkpt lat="45.54829" lon="6.82329">
        <ele>2454.4</ele>
      </trkpt>
      <trkpt lat="45.54831" lon="6.82322">
        <ele>2453.8</ele>
      </trkpt>
      <trkpt lat="45.54833" lon="6.82314">
        <ele>2453.2</ele>
      </trkpt>
      <trkpt lat="45.54835" lon="6.82307">
        <ele>2453.8</ele>
      </trkpt>
      <trkpt lat="45.54837" lon="6.823">
        <ele>2455.6</ele>
      </trkpt>
      <trkpt lat="45.54838" lon="6.82293">
        <ele>2457.3</ele>
      </trkpt>
      <trkpt lat="45.5484" lon="6.82285">
        <ele>2458.8</ele>
      </trkpt>
      <trkpt lat="45.54842" lon="6.82278">
        <ele>2460</ele>
      </trkpt>
      <trkpt lat="45.54844" lon="6.82271">
        <ele>2461.1</ele>
      </trkpt>
      <trkpt lat="45.54845" lon="6.82264">
        <ele>2461.7</ele>
      </trkpt>
      <trkpt lat="45.54847" lon="6.82256">
        <ele>2462</ele>
      </trkpt>
      <trkpt lat="45.54849" lon="6.82249">
        <ele>2461.9</ele>
      </trkpt>
      <trkpt lat="45.54851" lon="6.82242">
        <ele>2461.7</ele>
      </trkpt>
      <trkpt lat="45.54853" lon="6.82235">
        <ele>2461.1</ele>
      </trkpt>
      <trkpt lat="45.54854" lon="6.82227">
        <ele>2460</ele>
      </trkpt>
      <trkpt lat="45.54855" lon="6.82218">
        <ele>2459.4</ele>
      </trkpt>
      <trkpt lat="45.54856" lon="6.82209">
        <ele>2459.3</ele>
      </trkpt>
      <trkpt lat="45.54857" lon="6.82199">
        <ele>2459.1</ele>
      </trkpt>
      <trkpt lat="45.54857" lon="6.8219">
        <ele>2458.8</ele>
      </trkpt>
      <trkpt lat="45.54858" lon="6.8218">
        <ele>2458.5</ele>
      </trkpt>
      <trkpt lat="45.54859" lon="6.82171">
        <ele>2458.3</ele>
      </trkpt>
      <trkpt lat="45.5486" lon="6.82162">
        <ele>2458.1</ele>
      </trkpt>
      <trkpt lat="45.5486" lon="6.82152">
        <ele>2458</ele>
      </trkpt>
      <trkpt lat="45.54858" lon="6.82146">
        <ele>2459.7</ele>
      </trkpt>
      <trkpt lat="45.54855" lon="6.82139">
        <ele>2461.3</ele>
      </trkpt>
      <trkpt lat="45.54852" lon="6.82133">
        <ele>2461.8</ele>
      </trkpt>
      <trkpt lat="45.54849" lon="6.82126">
        <ele>2462.1</ele>
      </trkpt>
      <trkpt lat="45.54847" lon="6.82119">
        <ele>2462.2</ele>
      </trkpt>
      <trkpt lat="45.54844" lon="6.82113">
        <ele>2462.3</ele>
      </trkpt>
      <trkpt lat="45.54841" lon="6.82106">
        <ele>2462.4</ele>
      </trkpt>
      <trkpt lat="45.54839" lon="6.821">
        <ele>2462.5</ele>
      </trkpt>
      <trkpt lat="45.54836" lon="6.82093">
        <ele>2462.6</ele>
      </trkpt>
      <trkpt lat="45.54833" lon="6.82087">
        <ele>2462.7</ele>
      </trkpt>
      <trkpt lat="45.5483" lon="6.8208">
        <ele>2462.8</ele>
      </trkpt>
      <trkpt lat="45.54828" lon="6.82073">
        <ele>2463.1</ele>
      </trkpt>
      <trkpt lat="45.54825" lon="6.82067">
        <ele>2463.2</ele>
      </trkpt>
      <trkpt lat="45.54822" lon="6.8206">
        <ele>2463.1</ele>
      </trkpt>
      <trkpt lat="45.5482" lon="6.82054">
        <ele>2463</ele>
      </trkpt>
      <trkpt lat="45.54817" lon="6.82047">
        <ele>2463.3</ele>
      </trkpt>
      <trkpt lat="45.54811" lon="6.82049">
        <ele>2464.2</ele>
      </trkpt>
      <trkpt lat="45.54806" lon="6.8205">
        <ele>2465</ele>
      </trkpt>
      <trkpt lat="45.548" lon="6.82052">
        <ele>2465.1</ele>
      </trkpt>
      <trkpt lat="45.54794" lon="6.82054">
        <ele>2465.1</ele>
      </trkpt>
      <trkpt lat="45.54792" lon="6.82058">
        <ele>2465.5</ele>
      </trkpt>
      <trkpt lat="45.54785" lon="6.82057">
        <ele>2465.2</ele>
      </trkpt>
      <trkpt lat="45.54779" lon="6.82056">
        <ele>2465</ele>
      </trkpt>
      <trkpt lat="45.54772" lon="6.82054">
        <ele>2464.7</ele>
      </trkpt>
      <trkpt lat="45.54765" lon="6.82053">
        <ele>2464.4</ele>
      </trkpt>
      <trkpt lat="45.54759" lon="6.82056">
        <ele>2463.8</ele>
      </trkpt>
      <trkpt lat="45.54753" lon="6.8206">
        <ele>2463.9</ele>
      </trkpt>
      <trkpt lat="45.54747" lon="6.82063">
        <ele>2463.7</ele>
      </trkpt>
      <trkpt lat="45.54741" lon="6.82066">
        <ele>2463</ele>
      </trkpt>
      <trkpt lat="45.54736" lon="6.82066">
        <ele>2462.1</ele>
      </trkpt>
      <trkpt lat="45.54731" lon="6.82066">
        <ele>2461.2</ele>
      </trkpt>
      <trkpt lat="45.54725" lon="6.82064">
        <ele>2459.7</ele>
      </trkpt>
      <trkpt lat="45.5472" lon="6.82061">
        <ele>2458.5</ele>
      </trkpt>
      <trkpt lat="45.54714" lon="6.82059">
        <ele>2457.5</ele>
      </trkpt>
      <trkpt lat="45.54708" lon="6.82056">
        <ele>2456.5</ele>
      </trkpt>
      <trkpt lat="45.54703" lon="6.82053">
        <ele>2455.9</ele>
      </trkpt>
      <trkpt lat="45.54697" lon="6.82051">
        <ele>2455.3</ele>
      </trkpt>
      <trkpt lat="45.54691" lon="6.82048">
        <ele>2454.8</ele>
      </trkpt>
      <trkpt lat="45.54686" lon="6.82045">
        <ele>2454.3</ele>
      </trkpt>
      <trkpt lat="45.5468" lon="6.82043">
        <ele>2453.8</ele>
      </trkpt>
      <trkpt lat="45.54675" lon="6.8204">
        <ele>2453.1</ele>
      </trkpt>
      <trkpt lat="45.54669" lon="6.82037">
        <ele>2452.3</ele>
      </trkpt>
      <trkpt lat="45.54663" lon="6.82035">
        <ele>2451.5</ele>
      </trkpt>
      <trkpt lat="45.54658" lon="6.82032">
        <ele>2450.7</ele>
      </trkpt>
      <trkpt lat="45.54652" lon="6.82029">
        <ele>2449.8</ele>
      </trkpt>
      <trkpt lat="45.54647" lon="6.82027">
        <ele>2448.7</ele>
      </trkpt>
      <trkpt lat="45.54641" lon="6.82024">
        <ele>2448</ele>
      </trkpt>
      <trkpt lat="45.54636" lon="6.82023">
        <ele>2447.5</ele>
      </trkpt>
      <trkpt lat="45.54631" lon="6.82021">
        <ele>2447</ele>
      </trkpt>
      <trkpt lat="45.54626" lon="6.8202">
        <ele>2446.5</ele>
      </trkpt>
      <trkpt lat="45.54621" lon="6.82018">
        <ele>2445.9</ele>
      </trkpt>
      <trkpt lat="45.54615" lon="6.82016">
        <ele>2445.3</ele>
      </trkpt>
      <trkpt lat="45.5461" lon="6.82015">
        <ele>2444.6</ele>
      </trkpt>
      <trkpt lat="45.54605" lon="6.82013">
        <ele>2444.1</ele>
      </trkpt>
      <trkpt lat="45.546" lon="6.82012">
        <ele>2443.5</ele>
      </trkpt>
      <trkpt lat="45.54595" lon="6.8201">
        <ele>2442.9</ele>
      </trkpt>
      <trkpt lat="45.5459" lon="6.82009">
        <ele>2442.3</ele>
      </trkpt>
      <trkpt lat="45.54585" lon="6.82007">
        <ele>2441.6</ele>
      </trkpt>
      <trkpt lat="45.5458" lon="6.82006">
        <ele>2440.8</ele>
      </trkpt>
      <trkpt lat="45.54575" lon="6.82004">
        <ele>2439.9</ele>
      </trkpt>
      <trkpt lat="45.5457" lon="6.82003">
        <ele>2439</ele>
      </trkpt>
      <trkpt lat="45.54565" lon="6.82001">
        <ele>2438.1</ele>
      </trkpt>
      <trkpt lat="45.54559" lon="6.81999">
        <ele>2437.4</ele>
      </trkpt>
      <trkpt lat="45.54552" lon="6.81999">
        <ele>2436.5</ele>
      </trkpt>
      <trkpt lat="45.54544" lon="6.81999">
        <ele>2435.7</ele>
      </trkpt>
      <trkpt lat="45.54537" lon="6.81999">
        <ele>2434.9</ele>
      </trkpt>
      <trkpt lat="45.54529" lon="6.81998">
        <ele>2434</ele>
      </trkpt>
      <trkpt lat="45.54525" lon="6.81997">
        <ele>2433.6</ele>
      </trkpt>
      <trkpt lat="45.5452" lon="6.81996">
        <ele>2433.3</ele>
      </trkpt>
      <trkpt lat="45.54516" lon="6.81996">
        <ele>2433</ele>
      </trkpt>
      <trkpt lat="45.54511" lon="6.81995">
        <ele>2432.7</ele>
      </trkpt>
      <trkpt lat="45.54506" lon="6.81988">
        <ele>2431.6</ele>
      </trkpt>
      <trkpt lat="45.545" lon="6.81982">
        <ele>2430.4</ele>
      </trkpt>
      <trkpt lat="45.54495" lon="6.81976">
        <ele>2429.8</ele>
      </trkpt>
      <trkpt lat="45.5449" lon="6.81969">
        <ele>2429.5</ele>
      </trkpt>
      <trkpt lat="45.54486" lon="6.81962">
        <ele>2429.1</ele>
      </trkpt>
      <trkpt lat="45.54483" lon="6.81955">
        <ele>2428.8</ele>
      </trkpt>
      <trkpt lat="45.54482" lon="6.81944">
        <ele>2427.8</ele>
      </trkpt>
      <trkpt lat="45.54482" lon="6.81932">
        <ele>2426.9</ele>
      </trkpt>
      <trkpt lat="45.54481" lon="6.8192">
        <ele>2426</ele>
      </trkpt>
      <trkpt lat="45.5448" lon="6.81908">
        <ele>2425</ele>
      </trkpt>
      <trkpt lat="45.54478" lon="6.81901">
        <ele>2424.3</ele>
      </trkpt>
      <trkpt lat="45.54476" lon="6.81893">
        <ele>2423.5</ele>
      </trkpt>
      <trkpt lat="45.54475" lon="6.81885">
        <ele>2422.6</ele>
      </trkpt>
      <trkpt lat="45.54473" lon="6.81878">
        <ele>2421.4</ele>
      </trkpt>
      <trkpt lat="45.54469" lon="6.81869">
        <ele>2420.8</ele>
      </trkpt>
      <trkpt lat="45.54465" lon="6.81861">
        <ele>2420.4</ele>
      </trkpt>
      <trkpt lat="45.54461" lon="6.81852">
        <ele>2420</ele>
      </trkpt>
      <trkpt lat="45.54458" lon="6.81844">
        <ele>2419.6</ele>
      </trkpt>
      <trkpt lat="45.54454" lon="6.81835">
        <ele>2419.2</ele>
      </trkpt>
      <trkpt lat="45.5445" lon="6.81827">
        <ele>2418.9</ele>
      </trkpt>
      <trkpt lat="45.54446" lon="6.81818">
        <ele>2418.5</ele>
      </trkpt>
      <trkpt lat="45.54442" lon="6.8181">
        <ele>2417.9</ele>
      </trkpt>
      <trkpt lat="45.54441" lon="6.81797">
        <ele>2416.6</ele>
      </trkpt>
      <trkpt lat="45.54439" lon="6.81784">
        <ele>2415.6</ele>
      </trkpt>
      <trkpt lat="45.54438" lon="6.81772">
        <ele>2414.8</ele>
      </trkpt>
      <trkpt lat="45.54436" lon="6.81759">
        <ele>2414.1</ele>
      </trkpt>
      <trkpt lat="45.54434" lon="6.81751">
        <ele>2414</ele>
      </trkpt>
      <trkpt lat="45.54431" lon="6.81742">
        <ele>2413.6</ele>
      </trkpt>
      <trkpt lat="45.54428" lon="6.81734">
        <ele>2413.2</ele>
      </trkpt>
      <trkpt lat="45.54425" lon="6.81726">
        <ele>2412.8</ele>
      </trkpt>
      <trkpt lat="45.54427" lon="6.8172">
        <ele>2411.7</ele>
      </trkpt>
      <trkpt lat="45.54429" lon="6.81714">
        <ele>2410.3</ele>
      </trkpt>
      <trkpt lat="45.54438" lon="6.81715">
        <ele>2409.1</ele>
      </trkpt>
      <trkpt lat="45.54446" lon="6.81716">
        <ele>2407.8</ele>
      </trkpt>
      <trkpt lat="45.54453" lon="6.81721">
        <ele>2406.8</ele>
      </trkpt>
      <trkpt lat="45.54461" lon="6.81725">
        <ele>2405.9</ele>
      </trkpt>
      <trkpt lat="45.54468" lon="6.81729">
        <ele>2405.2</ele>
      </trkpt>
      <trkpt lat="45.54475" lon="6.81734">
        <ele>2405</ele>
      </trkpt>
      <trkpt lat="45.54481" lon="6.81734">
        <ele>2404.8</ele>
      </trkpt>
      <trkpt lat="45.54487" lon="6.81734">
        <ele>2404.5</ele>
      </trkpt>
      <trkpt lat="45.54491" lon="6.81731">
        <ele>2403.9</ele>
      </trkpt>
      <trkpt lat="45.54496" lon="6.81728">
        <ele>2403.2</ele>
      </trkpt>
      <trkpt lat="45.545" lon="6.81725">
        <ele>2402.5</ele>
      </trkpt>
      <trkpt lat="45.54504" lon="6.81722">
        <ele>2402.1</ele>
      </trkpt>
      <trkpt lat="45.54507" lon="6.81717">
        <ele>2401.4</ele>
      </trkpt>
      <trkpt lat="45.54509" lon="6.81712">
        <ele>2400.6</ele>
      </trkpt>
      <trkpt lat="45.54516" lon="6.81707">
        <ele>2399.7</ele>
      </trkpt>
      <trkpt lat="45.54523" lon="6.81702">
        <ele>2398.6</ele>
      </trkpt>
      <trkpt lat="45.54529" lon="6.81704">
        <ele>2399</ele>
      </trkpt>
      <trkpt lat="45.54534" lon="6.81706">
        <ele>2399.2</ele>
      </trkpt>
      <trkpt lat="45.5454" lon="6.81708">
        <ele>2399.5</ele>
      </trkpt>
      <trkpt lat="45.54545" lon="6.8171">
        <ele>2399.6</ele>
      </trkpt>
      <trkpt lat="45.54547" lon="6.81703">
        <ele>2398.4</ele>
      </trkpt>
      <trkpt lat="45.54549" lon="6.81696">
        <ele>2397.3</ele>
      </trkpt>
      <trkpt lat="45.54544" lon="6.81693">
        <ele>2396.8</ele>
      </trkpt>
      <trkpt lat="45.54539" lon="6.8169">
        <ele>2396.2</ele>
      </trkpt>
      <trkpt lat="45.54534" lon="6.81687">
        <ele>2395.7</ele>
      </trkpt>
      <trkpt lat="45.54529" lon="6.81683">
        <ele>2395</ele>
      </trkpt>
      <trkpt lat="45.54524" lon="6.8168">
        <ele>2394.6</ele>
      </trkpt>
      <trkpt lat="45.5452" lon="6.81677">
        <ele>2394.3</ele>
      </trkpt>
      <trkpt lat="45.54515" lon="6.81674">
        <ele>2394.1</ele>
      </trkpt>
      <trkpt lat="45.5451" lon="6.81671">
        <ele>2393.9</ele>
      </trkpt>
      <trkpt lat="45.54505" lon="6.81662">
        <ele>2392.9</ele>
      </trkpt>
      <trkpt lat="45.545" lon="6.81652">
        <ele>2391.9</ele>
      </trkpt>
      <trkpt lat="45.54495" lon="6.81643">
        <ele>2390.6</ele>
      </trkpt>
      <trkpt lat="45.54491" lon="6.81634">
        <ele>2389.5</ele>
      </trkpt>
      <trkpt lat="45.54486" lon="6.81625">
        <ele>2388.6</ele>
      </trkpt>
      <trkpt lat="45.54481" lon="6.81616">
        <ele>2387.9</ele>
      </trkpt>
      <trkpt lat="45.54476" lon="6.81607">
        <ele>2387.4</ele>
      </trkpt>
      <trkpt lat="45.54471" lon="6.81598">
        <ele>2387</ele>
      </trkpt>
      <trkpt lat="45.54468" lon="6.81588">
        <ele>2386.3</ele>
      </trkpt>
      <trkpt lat="45.54465" lon="6.81578">
        <ele>2385.8</ele>
      </trkpt>
      <trkpt lat="45.54462" lon="6.81568">
        <ele>2385.5</ele>
      </trkpt>
      <trkpt lat="45.5446" lon="6.81558">
        <ele>2385.4</ele>
      </trkpt>
      <trkpt lat="45.54457" lon="6.81548">
        <ele>2385.3</ele>
      </trkpt>
      <trkpt lat="45.54454" lon="6.81538">
        <ele>2385.2</ele>
      </trkpt>
      <trkpt lat="45.54451" lon="6.81528">
        <ele>2385.1</ele>
      </trkpt>
      <trkpt lat="45.54448" lon="6.81518">
        <ele>2384.9</ele>
      </trkpt>
      <trkpt lat="45.54445" lon="6.81509">
        <ele>2384.5</ele>
      </trkpt>
      <trkpt lat="45.54442" lon="6.81499">
        <ele>2383.9</ele>
      </trkpt>
      <trkpt lat="45.54439" lon="6.81489">
        <ele>2383.3</ele>
      </trkpt>
      <trkpt lat="45.54437" lon="6.81479">
        <ele>2382.9</ele>
      </trkpt>
      <trkpt lat="45.54434" lon="6.81469">
        <ele>2382.6</ele>
      </trkpt>
      <trkpt lat="45.54431" lon="6.81459">
        <ele>2382.3</ele>
      </trkpt>
      <trkpt lat="45.54428" lon="6.81449">
        <ele>2382</ele>
      </trkpt>
      <trkpt lat="45.54425" lon="6.81439">
        <ele>2381.5</ele>
      </trkpt>
      <trkpt lat="45.54421" lon="6.81431">
        <ele>2381</ele>
      </trkpt>
      <trkpt lat="45.54417" lon="6.81423">
        <ele>2380.6</ele>
      </trkpt>
      <trkpt lat="45.54413" lon="6.81419">
        <ele>2380</ele>
      </trkpt>
      <trkpt lat="45.54409" lon="6.81414">
        <ele>2379.3</ele>
      </trkpt>
      <trkpt lat="45.54404" lon="6.8141">
        <ele>2378.6</ele>
      </trkpt>
      <trkpt lat="45.544" lon="6.81406">
        <ele>2377.9</ele>
      </trkpt>
      <trkpt lat="45.54396" lon="6.81402">
        <ele>2377.4</ele>
      </trkpt>
      <trkpt lat="45.54392" lon="6.81397">
        <ele>2376.9</ele>
      </trkpt>
      <trkpt lat="45.54387" lon="6.81393">
        <ele>2376.3</ele>
      </trkpt>
      <trkpt lat="45.54383" lon="6.81389">
        <ele>2375.6</ele>
      </trkpt>
      <trkpt lat="45.54375" lon="6.81386">
        <ele>2374.5</ele>
      </trkpt>
      <trkpt lat="45.54367" lon="6.81383">
        <ele>2373.5</ele>
      </trkpt>
      <trkpt lat="45.5437" lon="6.81376">
        <ele>2372.7</ele>
      </trkpt>
      <trkpt lat="45.54373" lon="6.81369">
        <ele>2371.9</ele>
      </trkpt>
      <trkpt lat="45.54378" lon="6.81369">
        <ele>2372.3</ele>
      </trkpt>
      <trkpt lat="45.54383" lon="6.81369">
        <ele>2372.7</ele>
      </trkpt>
      <trkpt lat="45.54391" lon="6.81373">
        <ele>2373.8</ele>
      </trkpt>
      <trkpt lat="45.544" lon="6.81376">
        <ele>2374.7</ele>
      </trkpt>
      <trkpt lat="45.54407" lon="6.81369">
        <ele>2374.8</ele>
      </trkpt>
      <trkpt lat="45.54406" lon="6.81362">
        <ele>2374.5</ele>
      </trkpt>
      <trkpt lat="45.54402" lon="6.81352">
        <ele>2374.1</ele>
      </trkpt>
      <trkpt lat="45.54399" lon="6.81342">
        <ele>2373.6</ele>
      </trkpt>
      <trkpt lat="45.54393" lon="6.81335">
        <ele>2372.8</ele>
      </trkpt>
      <trkpt lat="45.54388" lon="6.81327">
        <ele>2372.4</ele>
      </trkpt>
      <trkpt lat="45.54383" lon="6.81319">
        <ele>2372.6</ele>
      </trkpt>
      <trkpt lat="45.54378" lon="6.81312">
        <ele>2372.7</ele>
      </trkpt>
      <trkpt lat="45.54376" lon="6.813">
        <ele>2373.4</ele>
      </trkpt>
      <trkpt lat="45.54373" lon="6.81289">
        <ele>2374.1</ele>
      </trkpt>
      <trkpt lat="45.5437" lon="6.81281">
        <ele>2374.4</ele>
      </trkpt>
      <trkpt lat="45.54367" lon="6.81273">
        <ele>2374.7</ele>
      </trkpt>
      <trkpt lat="45.54361" lon="6.81267">
        <ele>2374.4</ele>
      </trkpt>
      <trkpt lat="45.54355" lon="6.81261">
        <ele>2374.8</ele>
      </trkpt>
      <trkpt lat="45.5435" lon="6.81255">
        <ele>2375.2</ele>
      </trkpt>
      <trkpt lat="45.54345" lon="6.81249">
        <ele>2375.7</ele>
      </trkpt>
      <trkpt lat="45.5434" lon="6.81243">
        <ele>2376.3</ele>
      </trkpt>
      <trkpt lat="45.54335" lon="6.81238">
        <ele>2376.5</ele>
      </trkpt>
      <trkpt lat="45.54332" lon="6.81232">
        <ele>2376.7</ele>
      </trkpt>
      <trkpt lat="45.54328" lon="6.81226">
        <ele>2377</ele>
      </trkpt>
      <trkpt lat="45.54324" lon="6.8122">
        <ele>2377.7</ele>
      </trkpt>
      <trkpt lat="45.54321" lon="6.81214">
        <ele>2378.6</ele>
      </trkpt>
      <trkpt lat="45.54317" lon="6.81208">
        <ele>2379.3</ele>
      </trkpt>
      <trkpt lat="45.54313" lon="6.81202">
        <ele>2379.8</ele>
      </trkpt>
      <trkpt lat="45.5431" lon="6.81195">
        <ele>2380.2</ele>
      </trkpt>
      <trkpt lat="45.54306" lon="6.81189">
        <ele>2381.3</ele>
      </trkpt>
      <trkpt lat="45.54303" lon="6.8118">
        <ele>2382.8</ele>
      </trkpt>
      <trkpt lat="45.54299" lon="6.8117">
        <ele>2383.7</ele>
      </trkpt>
      <trkpt lat="45.54296" lon="6.81161">
        <ele>2383.9</ele>
      </trkpt>
      <trkpt lat="45.54292" lon="6.81151">
        <ele>2384.2</ele>
      </trkpt>
      <trkpt lat="45.54291" lon="6.81144">
        <ele>2385</ele>
      </trkpt>
      <trkpt lat="45.5429" lon="6.81137">
        <ele>2385.6</ele>
      </trkpt>
      <trkpt lat="45.54288" lon="6.81129">
        <ele>2385.4</ele>
      </trkpt>
      <trkpt lat="45.54287" lon="6.81122">
        <ele>2385.2</ele>
      </trkpt>
      <trkpt lat="45.54293" lon="6.81115">
        <ele>2386.2</ele>
      </trkpt>
      <trkpt lat="45.54299" lon="6.81109">
        <ele>2387.3</ele>
      </trkpt>
      <trkpt lat="45.54303" lon="6.81104">
        <ele>2388.3</ele>
      </trkpt>
      <trkpt lat="45.54307" lon="6.81099">
        <ele>2389.3</ele>
      </trkpt>
      <trkpt lat="45.54307" lon="6.81086">
        <ele>2390</ele>
      </trkpt>
      <trkpt lat="45.54307" lon="6.81086">
        <ele>2390</ele>
      </trkpt>
      <trkpt lat="45.54307" lon="6.81086">
        <ele>2390</ele>
      </trkpt>
      <trkpt lat="45.54305" lon="6.8108">
        <ele>2390.1</ele>
      </trkpt>
      <trkpt lat="45.54304" lon="6.81074">
        <ele>2390.4</ele>
      </trkpt>
      <trkpt lat="45.54302" lon="6.81068">
        <ele>2390.6</ele>
      </trkpt>
      <trkpt lat="45.54301" lon="6.81062">
        <ele>2390.9</ele>
      </trkpt>
      <trkpt lat="45.54299" lon="6.81056">
        <ele>2391.2</ele>
      </trkpt>
      <trkpt lat="45.54298" lon="6.81049">
        <ele>2390.9</ele>
      </trkpt>
      <trkpt lat="45.54296" lon="6.81043">
        <ele>2390.4</ele>
      </trkpt>
      <trkpt lat="45.54295" lon="6.81037">
        <ele>2389.9</ele>
      </trkpt>
      <trkpt lat="45.5429" lon="6.81028">
        <ele>2388.9</ele>
      </trkpt>
      <trkpt lat="45.54285" lon="6.81018">
        <ele>2388.6</ele>
      </trkpt>
      <trkpt lat="45.5428" lon="6.81008">
        <ele>2387.7</ele>
      </trkpt>
      <trkpt lat="45.54274" lon="6.80999">
        <ele>2386.4</ele>
      </trkpt>
      <trkpt lat="45.54269" lon="6.80989">
        <ele>2386.3</ele>
      </trkpt>
      <trkpt lat="45.54264" lon="6.8098">
        <ele>2386.2</ele>
      </trkpt>
      <trkpt lat="45.54259" lon="6.8097">
        <ele>2386</ele>
      </trkpt>
      <trkpt lat="45.54254" lon="6.80961">
        <ele>2384.9</ele>
      </trkpt>
      <trkpt lat="45.54252" lon="6.80953">
        <ele>2384.3</ele>
      </trkpt>
      <trkpt lat="45.54249" lon="6.80946">
        <ele>2384</ele>
      </trkpt>
      <trkpt lat="45.54247" lon="6.80938">
        <ele>2383.6</ele>
      </trkpt>
      <trkpt lat="45.54244" lon="6.80931">
        <ele>2383.3</ele>
      </trkpt>
      <trkpt lat="45.54242" lon="6.80923">
        <ele>2382.9</ele>
      </trkpt>
      <trkpt lat="45.54239" lon="6.80915">
        <ele>2382.5</ele>
      </trkpt>
      <trkpt lat="45.54237" lon="6.80908">
        <ele>2381.9</ele>
      </trkpt>
      <trkpt lat="45.54234" lon="6.809">
        <ele>2381</ele>
      </trkpt>
      <trkpt lat="45.54231" lon="6.80893">
        <ele>2379.7</ele>
      </trkpt>
      <trkpt lat="45.54228" lon="6.80886">
        <ele>2378.6</ele>
      </trkpt>
      <trkpt lat="45.54225" lon="6.80878">
        <ele>2378</ele>
      </trkpt>
      <trkpt lat="45.54222" lon="6.80871">
        <ele>2377</ele>
      </trkpt>
      <trkpt lat="45.54219" lon="6.80864">
        <ele>2375.9</ele>
      </trkpt>
      <trkpt lat="45.54216" lon="6.80856">
        <ele>2376</ele>
      </trkpt>
      <trkpt lat="45.54213" lon="6.80849">
        <ele>2376.9</ele>
      </trkpt>
      <trkpt lat="45.5421" lon="6.80842">
        <ele>2377.6</ele>
      </trkpt>
      <trkpt lat="45.54203" lon="6.80836">
        <ele>2376.1</ele>
      </trkpt>
      <trkpt lat="45.54196" lon="6.80831">
        <ele>2374.5</ele>
      </trkpt>
      <trkpt lat="45.54191" lon="6.80823">
        <ele>2374.4</ele>
      </trkpt>
      <trkpt lat="45.54185" lon="6.80816">
        <ele>2374.2</ele>
      </trkpt>
      <trkpt lat="45.5418" lon="6.80808">
        <ele>2374.1</ele>
      </trkpt>
      <trkpt lat="45.54175" lon="6.808">
        <ele>2373.2</ele>
      </trkpt>
      <trkpt lat="45.54174" lon="6.80794">
        <ele>2373.8</ele>
      </trkpt>
      <trkpt lat="45.54172" lon="6.80787">
        <ele>2374.5</ele>
      </trkpt>
      <trkpt lat="45.54169" lon="6.80781">
        <ele>2374.7</ele>
      </trkpt>
      <trkpt lat="45.54165" lon="6.80776">
        <ele>2374.6</ele>
      </trkpt>
      <trkpt lat="45.54162" lon="6.8077">
        <ele>2373.6</ele>
      </trkpt>
      <trkpt lat="45.54159" lon="6.80765">
        <ele>2372.4</ele>
      </trkpt>
      <trkpt lat="45.54156" lon="6.80755">
        <ele>2372.5</ele>
      </trkpt>
      <trkpt lat="45.54154" lon="6.80746">
        <ele>2372</ele>
      </trkpt>
      <trkpt lat="45.54152" lon="6.80736">
        <ele>2371.2</ele>
      </trkpt>
      <trkpt lat="45.54149" lon="6.80726">
        <ele>2370.3</ele>
      </trkpt>
      <trkpt lat="45.54148" lon="6.80719">
        <ele>2370</ele>
      </trkpt>
      <trkpt lat="45.54147" lon="6.80712">
        <ele>2369.4</ele>
      </trkpt>
      <trkpt lat="45.54146" lon="6.80705">
        <ele>2368.8</ele>
      </trkpt>
      <trkpt lat="45.54145" lon="6.80697">
        <ele>2368.2</ele>
      </trkpt>
      <trkpt lat="45.54144" lon="6.8069">
        <ele>2367.5</ele>
      </trkpt>
      <trkpt lat="45.54144" lon="6.80683">
        <ele>2366.9</ele>
      </trkpt>
      <trkpt lat="45.54143" lon="6.80676">
        <ele>2366.3</ele>
      </trkpt>
      <trkpt lat="45.54142" lon="6.80669">
        <ele>2365.7</ele>
      </trkpt>
      <trkpt lat="45.54141" lon="6.8066">
        <ele>2365.5</ele>
      </trkpt>
      <trkpt lat="45.5414" lon="6.80651">
        <ele>2365.3</ele>
      </trkpt>
      <trkpt lat="45.54139" lon="6.80643">
        <ele>2365.1</ele>
      </trkpt>
      <trkpt lat="45.54139" lon="6.80634">
        <ele>2365.3</ele>
      </trkpt>
      <trkpt lat="45.54136" lon="6.80627">
        <ele>2365.1</ele>
      </trkpt>
      <trkpt lat="45.54134" lon="6.80619">
        <ele>2364.9</ele>
      </trkpt>
      <trkpt lat="45.54132" lon="6.80612">
        <ele>2364.7</ele>
      </trkpt>
      <trkpt lat="45.5413" lon="6.80605">
        <ele>2364.6</ele>
      </trkpt>
      <trkpt lat="45.54127" lon="6.80597">
        <ele>2364.5</ele>
      </trkpt>
      <trkpt lat="45.54125" lon="6.8059">
        <ele>2364.1</ele>
      </trkpt>
      <trkpt lat="45.54123" lon="6.80583">
        <ele>2363.5</ele>
      </trkpt>
      <trkpt lat="45.54121" lon="6.80575">
        <ele>2362.3</ele>
      </trkpt>
      <trkpt lat="45.54121" lon="6.80567">
        <ele>2362.6</ele>
      </trkpt>
      <trkpt lat="45.54122" lon="6.80559">
        <ele>2362.7</ele>
      </trkpt>
      <trkpt lat="45.5412" lon="6.80551">
        <ele>2362.2</ele>
      </trkpt>
      <trkpt lat="45.54119" lon="6.80544">
        <ele>2361.7</ele>
      </trkpt>
      <trkpt lat="45.54118" lon="6.80536">
        <ele>2361.2</ele>
      </trkpt>
      <trkpt lat="45.54117" lon="6.80528">
        <ele>2360.6</ele>
      </trkpt>
      <trkpt lat="45.54115" lon="6.8052">
        <ele>2360.6</ele>
      </trkpt>
      <trkpt lat="45.54114" lon="6.80513">
        <ele>2360.6</ele>
      </trkpt>
      <trkpt lat="45.54113" lon="6.80505">
        <ele>2360.7</ele>
      </trkpt>
      <trkpt lat="45.54112" lon="6.80497">
        <ele>2360.5</ele>
      </trkpt>
      <trkpt lat="45.5411" lon="6.80491">
        <ele>2360.3</ele>
      </trkpt>
      <trkpt lat="45.54109" lon="6.80484">
        <ele>2360.1</ele>
      </trkpt>
      <trkpt lat="45.54108" lon="6.80477">
        <ele>2359.9</ele>
      </trkpt>
      <trkpt lat="45.54106" lon="6.8047">
        <ele>2359.7</ele>
      </trkpt>
      <trkpt lat="45.54105" lon="6.80461">
        <ele>2359.6</ele>
      </trkpt>
      <trkpt lat="45.54104" lon="6.80451">
        <ele>2359.6</ele>
      </trkpt>
      <trkpt lat="45.54104" lon="6.80443">
        <ele>2359.7</ele>
      </trkpt>
      <trkpt lat="45.54104" lon="6.80434">
        <ele>2359</ele>
      </trkpt>
      <trkpt lat="45.54104" lon="6.80425">
        <ele>2358.4</ele>
      </trkpt>
      <trkpt lat="45.54104" lon="6.80416">
        <ele>2357.6</ele>
      </trkpt>
      <trkpt lat="45.54108" lon="6.8041">
        <ele>2357.5</ele>
      </trkpt>
      <trkpt lat="45.54113" lon="6.80403">
        <ele>2357.2</ele>
      </trkpt>
      <trkpt lat="45.54117" lon="6.80398">
        <ele>2357</ele>
      </trkpt>
      <trkpt lat="45.5412" lon="6.80393">
        <ele>2356.9</ele>
      </trkpt>
      <trkpt lat="45.54124" lon="6.80388">
        <ele>2356.7</ele>
      </trkpt>
      <trkpt lat="45.54128" lon="6.80383">
        <ele>2356.6</ele>
      </trkpt>
      <trkpt lat="45.54132" lon="6.80378">
        <ele>2356.3</ele>
      </trkpt>
      <trkpt lat="45.54136" lon="6.80372">
        <ele>2355.9</ele>
      </trkpt>
      <trkpt lat="45.54139" lon="6.80367">
        <ele>2355.4</ele>
      </trkpt>
      <trkpt lat="45.54143" lon="6.80362">
        <ele>2354.8</ele>
      </trkpt>
      <trkpt lat="45.54147" lon="6.80358">
        <ele>2354.6</ele>
      </trkpt>
      <trkpt lat="45.54151" lon="6.80354">
        <ele>2354.5</ele>
      </trkpt>
      <trkpt lat="45.54154" lon="6.8035">
        <ele>2354.3</ele>
      </trkpt>
      <trkpt lat="45.54158" lon="6.80346">
        <ele>2354</ele>
      </trkpt>
      <trkpt lat="45.54164" lon="6.80342">
        <ele>2354.5</ele>
      </trkpt>
      <trkpt lat="45.54168" lon="6.80338">
        <ele>2354</ele>
      </trkpt>
      <trkpt lat="45.54172" lon="6.80333">
        <ele>2353.5</ele>
      </trkpt>
      <trkpt lat="45.54176" lon="6.80328">
        <ele>2353.6</ele>
      </trkpt>
      <trkpt lat="45.5418" lon="6.80323">
        <ele>2353.5</ele>
      </trkpt>
      <trkpt lat="45.54185" lon="6.80325">
        <ele>2354.9</ele>
      </trkpt>
      <trkpt lat="45.5419" lon="6.80321">
        <ele>2355.2</ele>
      </trkpt>
      <trkpt lat="45.54195" lon="6.80318">
        <ele>2355.3</ele>
      </trkpt>
      <trkpt lat="45.54201" lon="6.80315">
        <ele>2355.2</ele>
      </trkpt>
      <trkpt lat="45.54206" lon="6.80312">
        <ele>2355.1</ele>
      </trkpt>
      <trkpt lat="45.54212" lon="6.80307">
        <ele>2354.5</ele>
      </trkpt>
      <trkpt lat="45.54218" lon="6.80301">
        <ele>2354.2</ele>
      </trkpt>
      <trkpt lat="45.54225" lon="6.80296">
        <ele>2354.6</ele>
      </trkpt>
      <trkpt lat="45.54231" lon="6.80291">
        <ele>2356.5</ele>
      </trkpt>
      <trkpt lat="45.54234" lon="6.8028">
        <ele>2356.3</ele>
      </trkpt>
      <trkpt lat="45.54236" lon="6.8027">
        <ele>2357.2</ele>
      </trkpt>
      <trkpt lat="45.54237" lon="6.80262">
        <ele>2357</ele>
      </trkpt>
      <trkpt lat="45.54237" lon="6.80254">
        <ele>2356.7</ele>
      </trkpt>
      <trkpt lat="45.54237" lon="6.80246">
        <ele>2356.5</ele>
      </trkpt>
      <trkpt lat="45.54238" lon="6.80238">
        <ele>2356.3</ele>
      </trkpt>
      <trkpt lat="45.54243" lon="6.80237">
        <ele>2358.6</ele>
      </trkpt>
      <trkpt lat="45.54248" lon="6.80237">
        <ele>2360.9</ele>
      </trkpt>
      <trkpt lat="45.54256" lon="6.8023">
        <ele>2361.1</ele>
      </trkpt>
      <trkpt lat="45.54258" lon="6.80217">
        <ele>2360.2</ele>
      </trkpt>
      <trkpt lat="45.54265" lon="6.80217">
        <ele>2360.8</ele>
      </trkpt>
      <trkpt lat="45.54272" lon="6.80217">
        <ele>2361.5</ele>
      </trkpt>
      <trkpt lat="45.54276" lon="6.80212">
        <ele>2361.8</ele>
      </trkpt>
      <trkpt lat="45.5428" lon="6.80207">
        <ele>2362.2</ele>
      </trkpt>
      <trkpt lat="45.54284" lon="6.80208">
        <ele>2362.8</ele>
      </trkpt>
      <trkpt lat="45.54289" lon="6.8021">
        <ele>2363.4</ele>
      </trkpt>
      <trkpt lat="45.54293" lon="6.80211">
        <ele>2364</ele>
      </trkpt>
      <trkpt lat="45.54298" lon="6.80212">
        <ele>2364.6</ele>
      </trkpt>
      <trkpt lat="45.54303" lon="6.80207">
        <ele>2365.2</ele>
      </trkpt>
      <trkpt lat="45.54309" lon="6.80203">
        <ele>2365.6</ele>
      </trkpt>
      <trkpt lat="45.54313" lon="6.80199">
        <ele>2365.8</ele>
      </trkpt>
      <trkpt lat="45.54317" lon="6.80195">
        <ele>2365.9</ele>
      </trkpt>
      <trkpt lat="45.54322" lon="6.80192">
        <ele>2366.2</ele>
      </trkpt>
      <trkpt lat="45.54326" lon="6.80188">
        <ele>2366.7</ele>
      </trkpt>
      <trkpt lat="45.54329" lon="6.80179">
        <ele>2367.5</ele>
      </trkpt>
      <trkpt lat="45.54332" lon="6.80171">
        <ele>2368.5</ele>
      </trkpt>
      <trkpt lat="45.54335" lon="6.80163">
        <ele>2369.9</ele>
      </trkpt>
      <trkpt lat="45.54338" lon="6.80154">
        <ele>2371.4</ele>
      </trkpt>
      <trkpt lat="45.54339" lon="6.80147">
        <ele>2371.8</ele>
      </trkpt>
      <trkpt lat="45.5434" lon="6.80141">
        <ele>2372.2</ele>
      </trkpt>
      <trkpt lat="45.54341" lon="6.80134">
        <ele>2371.7</ele>
      </trkpt>
      <trkpt lat="45.54342" lon="6.80127">
        <ele>2371</ele>
      </trkpt>
      <trkpt lat="45.54348" lon="6.8012">
        <ele>2371.6</ele>
      </trkpt>
      <trkpt lat="45.54354" lon="6.80112">
        <ele>2372.1</ele>
      </trkpt>
      <trkpt lat="45.5436" lon="6.80105">
        <ele>2372.4</ele>
      </trkpt>
      <trkpt lat="45.54366" lon="6.80097">
        <ele>2373.8</ele>
      </trkpt>
      <trkpt lat="45.54368" lon="6.80088">
        <ele>2373.6</ele>
      </trkpt>
      <trkpt lat="45.54371" lon="6.80079">
        <ele>2374.3</ele>
      </trkpt>
      <trkpt lat="45.54374" lon="6.80069">
        <ele>2375.4</ele>
      </trkpt>
      <trkpt lat="45.54376" lon="6.8006">
        <ele>2376</ele>
      </trkpt>
      <trkpt lat="45.54375" lon="6.80051">
        <ele>2376.3</ele>
      </trkpt>
      <trkpt lat="45.54374" lon="6.80041">
        <ele>2377.5</ele>
      </trkpt>
      <trkpt lat="45.54372" lon="6.80033">
        <ele>2378</ele>
      </trkpt>
      <trkpt lat="45.54373" lon="6.80027">
        <ele>2379.3</ele>
      </trkpt>
      <trkpt lat="45.54372" lon="6.80019">
        <ele>2380.1</ele>
      </trkpt>
      <trkpt lat="45.54371" lon="6.80012">
        <ele>2380.9</ele>
      </trkpt>
      <trkpt lat="45.5437" lon="6.80004">
        <ele>2381.7</ele>
      </trkpt>
      <trkpt lat="45.54369" lon="6.79997">
        <ele>2382</ele>
      </trkpt>
      <trkpt lat="45.54371" lon="6.7999">
        <ele>2383</ele>
      </trkpt>
      <trkpt lat="45.54373" lon="6.79982">
        <ele>2384</ele>
      </trkpt>
      <trkpt lat="45.54371" lon="6.7997">
        <ele>2383.4</ele>
      </trkpt>
      <trkpt lat="45.54369" lon="6.79958">
        <ele>2382.9</ele>
      </trkpt>
      <trkpt lat="45.54375" lon="6.79954">
        <ele>2384.3</ele>
      </trkpt>
      <trkpt lat="45.5438" lon="6.79949">
        <ele>2385.2</ele>
      </trkpt>
      <trkpt lat="45.54386" lon="6.79945">
        <ele>2385.6</ele>
      </trkpt>
      <trkpt lat="45.54391" lon="6.7994">
        <ele>2385.5</ele>
      </trkpt>
      <trkpt lat="45.54397" lon="6.79936">
        <ele>2385.6</ele>
      </trkpt>
      <trkpt lat="45.54402" lon="6.79931">
        <ele>2385.7</ele>
      </trkpt>
      <trkpt lat="45.54407" lon="6.79927">
        <ele>2385.7</ele>
      </trkpt>
      <trkpt lat="45.54413" lon="6.79922">
        <ele>2385.7</ele>
      </trkpt>
      <trkpt lat="45.54417" lon="6.79919">
        <ele>2385.6</ele>
      </trkpt>
      <trkpt lat="45.54421" lon="6.79915">
        <ele>2385.4</ele>
      </trkpt>
      <trkpt lat="45.54425" lon="6.79911">
        <ele>2385.2</ele>
      </trkpt>
      <trkpt lat="45.5443" lon="6.79908">
        <ele>2385.1</ele>
      </trkpt>
      <trkpt lat="45.54434" lon="6.79904">
        <ele>2385.1</ele>
      </trkpt>
      <trkpt lat="45.54438" lon="6.79901">
        <ele>2385.1</ele>
      </trkpt>
      <trkpt lat="45.54442" lon="6.79897">
        <ele>2385.3</ele>
      </trkpt>
      <trkpt lat="45.54446" lon="6.79894">
        <ele>2385.4</ele>
      </trkpt>
      <trkpt lat="45.5445" lon="6.79886">
        <ele>2385</ele>
      </trkpt>
      <trkpt lat="45.54453" lon="6.79878">
        <ele>2385.5</ele>
      </trkpt>
      <trkpt lat="45.54456" lon="6.7987">
        <ele>2385.9</ele>
      </trkpt>
      <trkpt lat="45.5446" lon="6.79863">
        <ele>2386.4</ele>
      </trkpt>
      <trkpt lat="45.54461" lon="6.79854">
        <ele>2387.6</ele>
      </trkpt>
      <trkpt lat="45.54462" lon="6.79846">
        <ele>2389</ele>
      </trkpt>
      <trkpt lat="45.54457" lon="6.79843">
        <ele>2388.8</ele>
      </trkpt>
      <trkpt lat="45.54451" lon="6.79839">
        <ele>2388.7</ele>
      </trkpt>
      <trkpt lat="45.5445" lon="6.79832">
        <ele>2389.9</ele>
      </trkpt>
      <trkpt lat="45.54452" lon="6.79826">
        <ele>2390.5</ele>
      </trkpt>
      <trkpt lat="45.54458" lon="6.79823">
        <ele>2389.3</ele>
      </trkpt>
      <trkpt lat="45.54458" lon="6.79815">
        <ele>2388.5</ele>
      </trkpt>
      <trkpt lat="45.54463" lon="6.79811">
        <ele>2384.2</ele>
      </trkpt>
      <trkpt lat="45.54462" lon="6.79798">
        <ele>2381.3</ele>
      </trkpt>
      <trkpt lat="45.54465" lon="6.79796">
        <ele>2377.3</ele>
      </trkpt>
      <trkpt lat="45.54474" lon="6.79794">
        <ele>2371.1</ele>
      </trkpt>
      <trkpt lat="45.54474" lon="6.79788">
        <ele>2368.5</ele>
      </trkpt>
      <trkpt lat="45.5448" lon="6.79787">
        <ele>2368.8</ele>
      </trkpt>
      <trkpt lat="45.54485" lon="6.79786">
        <ele>2368.6</ele>
      </trkpt>
      <trkpt lat="45.54491" lon="6.79781">
        <ele>2365.4</ele>
      </trkpt>
      <trkpt lat="45.54496" lon="6.79777">
        <ele>2361.7</ele>
      </trkpt>
      <trkpt lat="45.54501" lon="6.79772">
        <ele>2358.4</ele>
      </trkpt>
      <trkpt lat="45.54507" lon="6.79768">
        <ele>2356.8</ele>
      </trkpt>
      <trkpt lat="45.54511" lon="6.79758">
        <ele>2351.6</ele>
      </trkpt>
      <trkpt lat="45.54516" lon="6.79748">
        <ele>2346.8</ele>
      </trkpt>
      <trkpt lat="45.54511" lon="6.79748">
        <ele>2345.3</ele>
      </trkpt>
      <trkpt lat="45.54506" lon="6.79747">
        <ele>2343.7</ele>
      </trkpt>
      <trkpt lat="45.54501" lon="6.79747">
        <ele>2342.2</ele>
      </trkpt>
      <trkpt lat="45.54497" lon="6.79747">
        <ele>2346.2</ele>
      </trkpt>
      <trkpt lat="45.545" lon="6.79741">
        <ele>2338.8</ele>
      </trkpt>
      <trkpt lat="45.54504" lon="6.79735">
        <ele>2336.9</ele>
      </trkpt>
      <trkpt lat="45.54507" lon="6.79729">
        <ele>2334.8</ele>
      </trkpt>
      <trkpt lat="45.54511" lon="6.79723">
        <ele>2332.6</ele>
      </trkpt>
      <trkpt lat="45.54514" lon="6.79717">
        <ele>2330.2</ele>
      </trkpt>
      <trkpt lat="45.54518" lon="6.79711">
        <ele>2328.1</ele>
      </trkpt>
      <trkpt lat="45.54522" lon="6.79704">
        <ele>2326.2</ele>
      </trkpt>
      <trkpt lat="45.54525" lon="6.79698">
        <ele>2324.6</ele>
      </trkpt>
      <trkpt lat="45.5452" lon="6.79699">
        <ele>2323.1</ele>
      </trkpt>
      <trkpt lat="45.54515" lon="6.79699">
        <ele>2321.5</ele>
      </trkpt>
      <trkpt lat="45.54517" lon="6.79693">
        <ele>2319.1</ele>
      </trkpt>
      <trkpt lat="45.5452" lon="6.79686">
        <ele>2317.5</ele>
      </trkpt>
      <trkpt lat="45.54513" lon="6.79688">
        <ele>2314.9</ele>
      </trkpt>
      <trkpt lat="45.54505" lon="6.79689">
        <ele>2312.4</ele>
      </trkpt>
      <trkpt lat="45.54508" lon="6.79683">
        <ele>2311</ele>
      </trkpt>
      <trkpt lat="45.54511" lon="6.79678">
        <ele>2309.7</ele>
      </trkpt>
      <trkpt lat="45.54513" lon="6.79672">
        <ele>2308.5</ele>
      </trkpt>
      <trkpt lat="45.54516" lon="6.79666">
        <ele>2307.5</ele>
      </trkpt>
      <trkpt lat="45.54518" lon="6.79657">
        <ele>2304.6</ele>
      </trkpt>
      <trkpt lat="45.5452" lon="6.79647">
        <ele>2301.7</ele>
      </trkpt>
      <trkpt lat="45.54523" lon="6.79644">
        <ele>2302.4</ele>
      </trkpt>
      <trkpt lat="45.54522" lon="6.79638">
        <ele>2299.5</ele>
      </trkpt>
      <trkpt lat="45.54525" lon="6.79631">
        <ele>2297.7</ele>
      </trkpt>
      <trkpt lat="45.54527" lon="6.79625">
        <ele>2295.8</ele>
      </trkpt>
      <trkpt lat="45.54529" lon="6.79618">
        <ele>2294</ele>
      </trkpt>
      <trkpt lat="45.54532" lon="6.79611">
        <ele>2292.2</ele>
      </trkpt>
      <trkpt lat="45.54534" lon="6.79604">
        <ele>2291.1</ele>
      </trkpt>
      <trkpt lat="45.54536" lon="6.79598">
        <ele>2289.9</ele>
      </trkpt>
      <trkpt lat="45.54538" lon="6.79591">
        <ele>2288.6</ele>
      </trkpt>
      <trkpt lat="45.54541" lon="6.79584">
        <ele>2287.2</ele>
      </trkpt>
      <trkpt lat="45.54538" lon="6.79578">
        <ele>2283.7</ele>
      </trkpt>
      <trkpt lat="45.54533" lon="6.79582">
        <ele>2282.4</ele>
      </trkpt>
      <trkpt lat="45.54529" lon="6.79585">
        <ele>2281.3</ele>
      </trkpt>
      <trkpt lat="45.54524" lon="6.79589">
        <ele>2280.1</ele>
      </trkpt>
      <trkpt lat="45.5452" lon="6.79593">
        <ele>2278.9</ele>
      </trkpt>
      <trkpt lat="45.54515" lon="6.79595">
        <ele>2276.7</ele>
      </trkpt>
      <trkpt lat="45.54509" lon="6.79596">
        <ele>2274.4</ele>
      </trkpt>
      <trkpt lat="45.54504" lon="6.79598">
        <ele>2272.2</ele>
      </trkpt>
      <trkpt lat="45.54499" lon="6.796">
        <ele>2270.4</ele>
      </trkpt>
      <trkpt lat="45.54503" lon="6.79593">
        <ele>2269.3</ele>
      </trkpt>
      <trkpt lat="45.54507" lon="6.79586">
        <ele>2268.8</ele>
      </trkpt>
      <trkpt lat="45.54511" lon="6.79579">
        <ele>2268.1</ele>
      </trkpt>
      <trkpt lat="45.54515" lon="6.79571">
        <ele>2267.4</ele>
      </trkpt>
      <trkpt lat="45.54515" lon="6.79565">
        <ele>2265.1</ele>
      </trkpt>
      <trkpt lat="45.54516" lon="6.79558">
        <ele>2262.7</ele>
      </trkpt>
      <trkpt lat="45.54516" lon="6.79552">
        <ele>2260.4</ele>
      </trkpt>
      <trkpt lat="45.54517" lon="6.79545">
        <ele>2258</ele>
      </trkpt>
      <trkpt lat="45.54511" lon="6.79548">
        <ele>2255.6</ele>
      </trkpt>
      <trkpt lat="45.54505" lon="6.7955">
        <ele>2253.1</ele>
      </trkpt>
      <trkpt lat="45.54502" lon="6.79556">
        <ele>2253.3</ele>
      </trkpt>
      <trkpt lat="45.54503" lon="6.79546">
        <ele>2250.6</ele>
      </trkpt>
      <trkpt lat="45.54504" lon="6.79537">
        <ele>2247.7</ele>
      </trkpt>
      <trkpt lat="45.54499" lon="6.79542">
        <ele>2246.7</ele>
      </trkpt>
      <trkpt lat="45.54494" lon="6.79547">
        <ele>2246</ele>
      </trkpt>
      <trkpt lat="45.54494" lon="6.79536">
        <ele>2242.4</ele>
      </trkpt>
      <trkpt lat="45.54495" lon="6.79525">
        <ele>2238.6</ele>
      </trkpt>
      <trkpt lat="45.54496" lon="6.79518">
        <ele>2236.4</ele>
      </trkpt>
      <trkpt lat="45.54498" lon="6.79512">
        <ele>2234.3</ele>
      </trkpt>
      <trkpt lat="45.54503" lon="6.79506">
        <ele>2234.9</ele>
      </trkpt>
      <trkpt lat="45.54497" lon="6.79505">
        <ele>2230.4</ele>
      </trkpt>
      <trkpt lat="45.54491" lon="6.79511">
        <ele>2229.7</ele>
      </trkpt>
      <trkpt lat="45.54485" lon="6.79516">
        <ele>2228.7</ele>
      </trkpt>
      <trkpt lat="45.54482" lon="6.79522">
        <ele>2229.5</ele>
      </trkpt>
      <trkpt lat="45.54484" lon="6.79514">
        <ele>2227</ele>
      </trkpt>
      <trkpt lat="45.54486" lon="6.79505">
        <ele>2224.4</ele>
      </trkpt>
      <trkpt lat="45.54487" lon="6.79497">
        <ele>2221.9</ele>
      </trkpt>
      <trkpt lat="45.54489" lon="6.79488">
        <ele>2219.4</ele>
      </trkpt>
      <trkpt lat="45.54497" lon="6.79487">
        <ele>2222.8</ele>
      </trkpt>
      <trkpt lat="45.545" lon="6.79479">
        <ele>2221</ele>
      </trkpt>
      <trkpt lat="45.54504" lon="6.7947">
        <ele>2221.8</ele>
      </trkpt>
      <trkpt lat="45.54503" lon="6.79458">
        <ele>2217.5</ele>
      </trkpt>
      <trkpt lat="45.54502" lon="6.79446">
        <ele>2213.3</ele>
      </trkpt>
      <trkpt lat="45.54501" lon="6.79434">
        <ele>2209.7</ele>
      </trkpt>
      <trkpt lat="45.545" lon="6.79422">
        <ele>2206.3</ele>
      </trkpt>
      <trkpt lat="45.54504" lon="6.79415">
        <ele>2207.6</ele>
      </trkpt>
      <trkpt lat="45.54507" lon="6.79407">
        <ele>2208.9</ele>
      </trkpt>
      <trkpt lat="45.54506" lon="6.79396">
        <ele>2203.4</ele>
      </trkpt>
      <trkpt lat="45.54507" lon="6.79386">
        <ele>2202.1</ele>
      </trkpt>
      <trkpt lat="45.54509" lon="6.79377">
        <ele>2199.2</ele>
      </trkpt>
      <trkpt lat="45.54514" lon="6.79369">
        <ele>2200.8</ele>
      </trkpt>
      <trkpt lat="45.54518" lon="6.79362">
        <ele>2201.8</ele>
      </trkpt>
      <trkpt lat="45.54523" lon="6.79354">
        <ele>2203.4</ele>
      </trkpt>
      <trkpt lat="45.54528" lon="6.79346">
        <ele>2204.7</ele>
      </trkpt>
      <trkpt lat="45.5453" lon="6.7934">
        <ele>2203.9</ele>
      </trkpt>
      <trkpt lat="45.54532" lon="6.79333">
        <ele>2203.7</ele>
      </trkpt>
      <trkpt lat="45.54531" lon="6.79325">
        <ele>2201.7</ele>
      </trkpt>
      <trkpt lat="45.54529" lon="6.79317">
        <ele>2199.7</ele>
      </trkpt>
      <trkpt lat="45.54529" lon="6.79309">
        <ele>2200.1</ele>
      </trkpt>
      <trkpt lat="45.54529" lon="6.793">
        <ele>2199.9</ele>
      </trkpt>
      <trkpt lat="45.54524" lon="6.7929">
        <ele>2195</ele>
      </trkpt>
      <trkpt lat="45.5452" lon="6.79279">
        <ele>2191.6</ele>
      </trkpt>
      <trkpt lat="45.54528" lon="6.79279">
        <ele>2197.3</ele>
      </trkpt>
      <trkpt lat="45.54536" lon="6.79278">
        <ele>2204.4</ele>
      </trkpt>
      <trkpt lat="45.54536" lon="6.79268">
        <ele>2198.1</ele>
      </trkpt>
      <trkpt lat="45.54531" lon="6.79271">
        <ele>2195.7</ele>
      </trkpt>
      <trkpt lat="45.54527" lon="6.7926">
        <ele>2186.4</ele>
      </trkpt>
      <trkpt lat="45.54532" lon="6.79251">
        <ele>2185.4</ele>
      </trkpt>
      <trkpt lat="45.54537" lon="6.79243">
        <ele>2184.9</ele>
      </trkpt>
      <trkpt lat="45.54538" lon="6.79231">
        <ele>2179.3</ele>
      </trkpt>
      <trkpt lat="45.54543" lon="6.79226">
        <ele>2180.1</ele>
      </trkpt>
      <trkpt lat="45.54547" lon="6.79222">
        <ele>2181</ele>
      </trkpt>
      <trkpt lat="45.54545" lon="6.79211">
        <ele>2177.2</ele>
      </trkpt>
      <trkpt lat="45.54543" lon="6.792">
        <ele>2173.3</ele>
      </trkpt>
      <trkpt lat="45.54543" lon="6.79191">
        <ele>2171.6</ele>
      </trkpt>
      <trkpt lat="45.54543" lon="6.79182">
        <ele>2170.4</ele>
      </trkpt>
      <trkpt lat="45.54543" lon="6.79173">
        <ele>2169.2</ele>
      </trkpt>
      <trkpt lat="45.54543" lon="6.79164">
        <ele>2167.8</ele>
      </trkpt>
      <trkpt lat="45.54545" lon="6.79152">
        <ele>2167.6</ele>
      </trkpt>
      <trkpt lat="45.54548" lon="6.7914">
        <ele>2167.5</ele>
      </trkpt>
      <trkpt lat="45.54552" lon="6.7913">
        <ele>2169.4</ele>
      </trkpt>
      <trkpt lat="45.54556" lon="6.79121">
        <ele>2171.4</ele>
      </trkpt>
      <trkpt lat="45.5456" lon="6.79111">
        <ele>2172.5</ele>
      </trkpt>
      <trkpt lat="45.54563" lon="6.79101">
        <ele>2173.4</ele>
      </trkpt>
      <trkpt lat="45.54567" lon="6.79095">
        <ele>2174.7</ele>
      </trkpt>
      <trkpt lat="45.54571" lon="6.79089">
        <ele>2175.7</ele>
      </trkpt>
      <trkpt lat="45.54576" lon="6.79083">
        <ele>2176.8</ele>
      </trkpt>
      <trkpt lat="45.5458" lon="6.79077">
        <ele>2179.2</ele>
      </trkpt>
      <trkpt lat="45.54583" lon="6.7908">
        <ele>2180.7</ele>
      </trkpt>
      <trkpt lat="45.54588" lon="6.79076">
        <ele>2184</ele>
      </trkpt>
      <trkpt lat="45.54589" lon="6.79069">
        <ele>2184.7</ele>
      </trkpt>
      <trkpt lat="45.5459" lon="6.79063">
        <ele>2185.1</ele>
      </trkpt>
      <trkpt lat="45.54591" lon="6.79056">
        <ele>2185.3</ele>
      </trkpt>
      <trkpt lat="45.54593" lon="6.7905">
        <ele>2185.2</ele>
      </trkpt>
      <trkpt lat="45.54597" lon="6.79042">
        <ele>2185.7</ele>
      </trkpt>
      <trkpt lat="45.54601" lon="6.79035">
        <ele>2186.1</ele>
      </trkpt>
      <trkpt lat="45.54607" lon="6.79033">
        <ele>2187.4</ele>
      </trkpt>
      <trkpt lat="45.54612" lon="6.7903">
        <ele>2188.4</ele>
      </trkpt>
      <trkpt lat="45.54614" lon="6.79022">
        <ele>2188.2</ele>
      </trkpt>
      <trkpt lat="45.54615" lon="6.79015">
        <ele>2188.2</ele>
      </trkpt>
      <trkpt lat="45.54617" lon="6.79006">
        <ele>2187.9</ele>
      </trkpt>
      <trkpt lat="45.54618" lon="6.78998">
        <ele>2187.1</ele>
      </trkpt>
      <trkpt lat="45.54624" lon="6.78996">
        <ele>2185.8</ele>
      </trkpt>
      <trkpt lat="45.54629" lon="6.78994">
        <ele>2184.7</ele>
      </trkpt>
      <trkpt lat="45.54633" lon="6.78985">
        <ele>2183.3</ele>
      </trkpt>
      <trkpt lat="45.54637" lon="6.78977">
        <ele>2182.3</ele>
      </trkpt>
      <trkpt lat="45.54641" lon="6.78968">
        <ele>2181</ele>
      </trkpt>
      <trkpt lat="45.54645" lon="6.78959">
        <ele>2179</ele>
      </trkpt>
      <trkpt lat="45.5465" lon="6.78955">
        <ele>2177.9</ele>
      </trkpt>
      <trkpt lat="45.54655" lon="6.7895">
        <ele>2176.9</ele>
      </trkpt>
      <trkpt lat="45.54659" lon="6.78945">
        <ele>2175.8</ele>
      </trkpt>
      <trkpt lat="45.54664" lon="6.7894">
        <ele>2174.5</ele>
      </trkpt>
      <trkpt lat="45.54669" lon="6.78935">
        <ele>2173.3</ele>
      </trkpt>
      <trkpt lat="45.54673" lon="6.7893">
        <ele>2172.5</ele>
      </trkpt>
      <trkpt lat="45.54678" lon="6.78926">
        <ele>2171.5</ele>
      </trkpt>
      <trkpt lat="45.54682" lon="6.78921">
        <ele>2170.2</ele>
      </trkpt>
      <trkpt lat="45.54687" lon="6.78914">
        <ele>2168.3</ele>
      </trkpt>
      <trkpt lat="45.54692" lon="6.78906">
        <ele>2167</ele>
      </trkpt>
      <trkpt lat="45.54696" lon="6.78899">
        <ele>2166.1</ele>
      </trkpt>
      <trkpt lat="45.54701" lon="6.78892">
        <ele>2165.4</ele>
      </trkpt>
      <trkpt lat="45.54704" lon="6.78887">
        <ele>2164.7</ele>
      </trkpt>
      <trkpt lat="45.54707" lon="6.78881">
        <ele>2164</ele>
      </trkpt>
      <trkpt lat="45.5471" lon="6.78876">
        <ele>2163.4</ele>
      </trkpt>
      <trkpt lat="45.54713" lon="6.78871">
        <ele>2162.8</ele>
      </trkpt>
      <trkpt lat="45.54715" lon="6.78866">
        <ele>2162.2</ele>
      </trkpt>
      <trkpt lat="45.54718" lon="6.7886">
        <ele>2161.6</ele>
      </trkpt>
      <trkpt lat="45.54721" lon="6.78855">
        <ele>2160.8</ele>
      </trkpt>
      <trkpt lat="45.54724" lon="6.7885">
        <ele>2160</ele>
      </trkpt>
      <trkpt lat="45.54728" lon="6.7884">
        <ele>2158.5</ele>
      </trkpt>
      <trkpt lat="45.54732" lon="6.78831">
        <ele>2157.7</ele>
      </trkpt>
      <trkpt lat="45.54736" lon="6.78821">
        <ele>2158.3</ele>
      </trkpt>
      <trkpt lat="45.54741" lon="6.78812">
        <ele>2158.7</ele>
      </trkpt>
      <trkpt lat="45.54741" lon="6.78804">
        <ele>2157.8</ele>
      </trkpt>
      <trkpt lat="45.54741" lon="6.78796">
        <ele>2157.1</ele>
      </trkpt>
      <trkpt lat="45.54741" lon="6.78787">
        <ele>2156.4</ele>
      </trkpt>
      <trkpt lat="45.54742" lon="6.78779">
        <ele>2155.7</ele>
      </trkpt>
      <trkpt lat="45.54745" lon="6.78771">
        <ele>2156</ele>
      </trkpt>
      <trkpt lat="45.54749" lon="6.78763">
        <ele>2156.5</ele>
      </trkpt>
      <trkpt lat="45.54752" lon="6.78755">
        <ele>2156.8</ele>
      </trkpt>
      <trkpt lat="45.54756" lon="6.78746">
        <ele>2156.5</ele>
      </trkpt>
      <trkpt lat="45.54756" lon="6.78734">
        <ele>2154.8</ele>
      </trkpt>
      <trkpt lat="45.54756" lon="6.78722">
        <ele>2153.1</ele>
      </trkpt>
      <trkpt lat="45.54757" lon="6.7871">
        <ele>2152.4</ele>
      </trkpt>
      <trkpt lat="45.54757" lon="6.78698">
        <ele>2151.7</ele>
      </trkpt>
      <trkpt lat="45.54757" lon="6.78685">
        <ele>2150</ele>
      </trkpt>
      <trkpt lat="45.54757" lon="6.78673">
        <ele>2148.1</ele>
      </trkpt>
      <trkpt lat="45.54757" lon="6.78661">
        <ele>2146.1</ele>
      </trkpt>
      <trkpt lat="45.54757" lon="6.78649">
        <ele>2144</ele>
      </trkpt>
      <trkpt lat="45.54757" lon="6.78639">
        <ele>2142.3</ele>
      </trkpt>
      <trkpt lat="45.54758" lon="6.78629">
        <ele>2141</ele>
      </trkpt>
      <trkpt lat="45.54758" lon="6.78619">
        <ele>2139.6</ele>
      </trkpt>
      <trkpt lat="45.54758" lon="6.78609">
        <ele>2138.1</ele>
      </trkpt>
      <trkpt lat="45.54758" lon="6.78599">
        <ele>2136</ele>
      </trkpt>
      <trkpt lat="45.54758" lon="6.78589">
        <ele>2134</ele>
      </trkpt>
      <trkpt lat="45.54758" lon="6.78579">
        <ele>2131.6</ele>
      </trkpt>
      <trkpt lat="45.54758" lon="6.78569">
        <ele>2128.7</ele>
      </trkpt>
      <trkpt lat="45.54755" lon="6.78565">
        <ele>2127.4</ele>
      </trkpt>
      <trkpt lat="45.54751" lon="6.7856">
        <ele>2126.1</ele>
      </trkpt>
      <trkpt lat="45.54752" lon="6.78548">
        <ele>2122.3</ele>
      </trkpt>
      <trkpt lat="45.54752" lon="6.78535">
        <ele>2118.4</ele>
      </trkpt>
      <trkpt lat="45.54752" lon="6.78523">
        <ele>2114.6</ele>
      </trkpt>
      <trkpt lat="45.54752" lon="6.78511">
        <ele>2111.1</ele>
      </trkpt>
      <trkpt lat="45.54749" lon="6.78503">
        <ele>2108.5</ele>
      </trkpt>
      <trkpt lat="45.54747" lon="6.78495">
        <ele>2105.6</ele>
      </trkpt>
      <trkpt lat="45.54744" lon="6.78488">
        <ele>2103.1</ele>
      </trkpt>
      <trkpt lat="45.54742" lon="6.7848">
        <ele>2101.1</ele>
      </trkpt>
      <trkpt lat="45.54744" lon="6.78474">
        <ele>2100.6</ele>
      </trkpt>
      <trkpt lat="45.54745" lon="6.78468">
        <ele>2100.5</ele>
      </trkpt>
      <trkpt lat="45.54747" lon="6.78462">
        <ele>2100.3</ele>
      </trkpt>
      <trkpt lat="45.54748" lon="6.78456">
        <ele>2100</ele>
      </trkpt>
      <trkpt lat="45.54745" lon="6.78448">
        <ele>2099.1</ele>
      </trkpt>
      <trkpt lat="45.54742" lon="6.7844">
        <ele>2098.3</ele>
      </trkpt>
      <trkpt lat="45.54739" lon="6.78433">
        <ele>2097.3</ele>
      </trkpt>
      <trkpt lat="45.54736" lon="6.78425">
        <ele>2096.4</ele>
      </trkpt>
      <trkpt lat="45.54735" lon="6.78416">
        <ele>2095.3</ele>
      </trkpt>
      <trkpt lat="45.54734" lon="6.78406">
        <ele>2093.4</ele>
      </trkpt>
      <trkpt lat="45.54733" lon="6.78397">
        <ele>2091.7</ele>
      </trkpt>
      <trkpt lat="45.54732" lon="6.78387">
        <ele>2090</ele>
      </trkpt>
      <trkpt lat="45.54731" lon="6.78378">
        <ele>2088.6</ele>
      </trkpt>
      <trkpt lat="45.5473" lon="6.78368">
        <ele>2087.3</ele>
      </trkpt>
      <trkpt lat="45.54728" lon="6.78358">
        <ele>2086.1</ele>
      </trkpt>
      <trkpt lat="45.54727" lon="6.78349">
        <ele>2085.3</ele>
      </trkpt>
      <trkpt lat="45.54734" lon="6.78351">
        <ele>2084.9</ele>
      </trkpt>
      <trkpt lat="45.5474" lon="6.78352">
        <ele>2084.5</ele>
      </trkpt>
      <trkpt lat="45.54746" lon="6.78354">
        <ele>2084.1</ele>
      </trkpt>
      <trkpt lat="45.54752" lon="6.78355">
        <ele>2083.7</ele>
      </trkpt>
      <trkpt lat="45.54757" lon="6.78356">
        <ele>2083.6</ele>
      </trkpt>
      <trkpt lat="45.54763" lon="6.78357">
        <ele>2083.5</ele>
      </trkpt>
      <trkpt lat="45.54768" lon="6.78358">
        <ele>2083.3</ele>
      </trkpt>
      <trkpt lat="45.54773" lon="6.78359">
        <ele>2083.2</ele>
      </trkpt>
      <trkpt lat="45.54778" lon="6.78358">
        <ele>2083</ele>
      </trkpt>
      <trkpt lat="45.54784" lon="6.78356">
        <ele>2082.9</ele>
      </trkpt>
      <trkpt lat="45.54789" lon="6.78355">
        <ele>2082.7</ele>
      </trkpt>
      <trkpt lat="45.54795" lon="6.78354">
        <ele>2082.6</ele>
      </trkpt>
      <trkpt lat="45.548" lon="6.78351">
        <ele>2082.2</ele>
      </trkpt>
      <trkpt lat="45.54805" lon="6.78348">
        <ele>2081.7</ele>
      </trkpt>
      <trkpt lat="45.5481" lon="6.78345">
        <ele>2081.1</ele>
      </trkpt>
      <trkpt lat="45.54815" lon="6.78343">
        <ele>2080.6</ele>
      </trkpt>
      <trkpt lat="45.5482" lon="6.7834">
        <ele>2080.1</ele>
      </trkpt>
      <trkpt lat="45.54826" lon="6.78337">
        <ele>2079.6</ele>
      </trkpt>
      <trkpt lat="45.54831" lon="6.78334">
        <ele>2079.1</ele>
      </trkpt>
      <trkpt lat="45.54836" lon="6.78331">
        <ele>2078.4</ele>
      </trkpt>
      <trkpt lat="45.54844" lon="6.78332">
        <ele>2077.9</ele>
      </trkpt>
      <trkpt lat="45.54853" lon="6.78332">
        <ele>2077.4</ele>
      </trkpt>
      <trkpt lat="45.54861" lon="6.78333">
        <ele>2077</ele>
      </trkpt>
      <trkpt lat="45.54869" lon="6.78334">
        <ele>2075.3</ele>
      </trkpt>
      <trkpt lat="45.54874" lon="6.78337">
        <ele>2074.7</ele>
      </trkpt>
      <trkpt lat="45.54878" lon="6.7834">
        <ele>2074.2</ele>
      </trkpt>
      <trkpt lat="45.54882" lon="6.78343">
        <ele>2073.7</ele>
      </trkpt>
      <trkpt lat="45.54887" lon="6.78345">
        <ele>2073.2</ele>
      </trkpt>
      <trkpt lat="45.54891" lon="6.78348">
        <ele>2072.8</ele>
      </trkpt>
      <trkpt lat="45.54895" lon="6.78351">
        <ele>2072.5</ele>
      </trkpt>
      <trkpt lat="45.549" lon="6.78354">
        <ele>2072.3</ele>
      </trkpt>
      <trkpt lat="45.54904" lon="6.78357">
        <ele>2072.1</ele>
      </trkpt>
      <trkpt lat="45.5491" lon="6.78357">
        <ele>2071.3</ele>
      </trkpt>
      <trkpt lat="45.54915" lon="6.78358">
        <ele>2070.5</ele>
      </trkpt>
      <trkpt lat="45.54921" lon="6.78358">
        <ele>2070</ele>
      </trkpt>
      <trkpt lat="45.54927" lon="6.78359">
        <ele>2069.4</ele>
      </trkpt>
      <trkpt lat="45.54933" lon="6.78359">
        <ele>2068.9</ele>
      </trkpt>
      <trkpt lat="45.54938" lon="6.7836">
        <ele>2068.4</ele>
      </trkpt>
      <trkpt lat="45.54944" lon="6.7836">
        <ele>2067.9</ele>
      </trkpt>
      <trkpt lat="45.5495" lon="6.78361">
        <ele>2067.4</ele>
      </trkpt>
      <trkpt lat="45.54956" lon="6.7836">
        <ele>2066.6</ele>
      </trkpt>
      <trkpt lat="45.54962" lon="6.7836">
        <ele>2065.9</ele>
      </trkpt>
      <trkpt lat="45.54969" lon="6.7836">
        <ele>2065.1</ele>
      </trkpt>
      <trkpt lat="45.54975" lon="6.78359">
        <ele>2064.6</ele>
      </trkpt>
      <trkpt lat="45.54981" lon="6.78359">
        <ele>2064.3</ele>
      </trkpt>
      <trkpt lat="45.54988" lon="6.78359">
        <ele>2064</ele>
      </trkpt>
      <trkpt lat="45.54994" lon="6.78358">
        <ele>2063.8</ele>
      </trkpt>
      <trkpt lat="45.55" lon="6.78358">
        <ele>2063.5</ele>
      </trkpt>
      <trkpt lat="45.55007" lon="6.78357">
        <ele>2063.4</ele>
      </trkpt>
      <trkpt lat="45.55013" lon="6.78357">
        <ele>2063.3</ele>
      </trkpt>
      <trkpt lat="45.55019" lon="6.78357">
        <ele>2063.1</ele>
      </trkpt>
      <trkpt lat="45.55026" lon="6.78356">
        <ele>2063</ele>
      </trkpt>
      <trkpt lat="45.55032" lon="6.78356">
        <ele>2062.6</ele>
      </trkpt>
      <trkpt lat="45.55038" lon="6.78356">
        <ele>2062.2</ele>
      </trkpt>
      <trkpt lat="45.55045" lon="6.78355">
        <ele>2061.8</ele>
      </trkpt>
      <trkpt lat="45.55051" lon="6.78355">
        <ele>2061.4</ele>
      </trkpt>
      <trkpt lat="45.55055" lon="6.7835">
        <ele>2060.4</ele>
      </trkpt>
      <trkpt lat="45.55059" lon="6.78345">
        <ele>2059.5</ele>
      </trkpt>
      <trkpt lat="45.5506" lon="6.78336">
        <ele>2058.2</ele>
      </trkpt>
      <trkpt lat="45.55061" lon="6.78327">
        <ele>2056.8</ele>
      </trkpt>
      <trkpt lat="45.55066" lon="6.78322">
        <ele>2055.7</ele>
      </trkpt>
      <trkpt lat="45.55074" lon="6.78323">
        <ele>2055.3</ele>
      </trkpt>
      <trkpt lat="45.55083" lon="6.78323">
        <ele>2054.8</ele>
      </trkpt>
      <trkpt lat="45.55091" lon="6.78324">
        <ele>2053.8</ele>
      </trkpt>
      <trkpt lat="45.551" lon="6.78324">
        <ele>2052.6</ele>
      </trkpt>
      <trkpt lat="45.55105" lon="6.78326">
        <ele>2052.2</ele>
      </trkpt>
      <trkpt lat="45.55109" lon="6.78328">
        <ele>2051.8</ele>
      </trkpt>
      <trkpt lat="45.55114" lon="6.78331">
        <ele>2051.4</ele>
      </trkpt>
      <trkpt lat="45.55119" lon="6.78333">
        <ele>2051.1</ele>
      </trkpt>
      <trkpt lat="45.55123" lon="6.78335">
        <ele>2050.9</ele>
      </trkpt>
      <trkpt lat="45.55128" lon="6.78337">
        <ele>2050.9</ele>
      </trkpt>
      <trkpt lat="45.55133" lon="6.78339">
        <ele>2050.9</ele>
      </trkpt>
      <trkpt lat="45.55137" lon="6.78341">
        <ele>2051</ele>
      </trkpt>
      <trkpt lat="45.55141" lon="6.78333">
        <ele>2049.2</ele>
      </trkpt>
      <trkpt lat="45.55146" lon="6.78325">
        <ele>2048.9</ele>
      </trkpt>
      <trkpt lat="45.5514" lon="6.78319">
        <ele>2048</ele>
      </trkpt>
      <trkpt lat="45.55135" lon="6.78313">
        <ele>2047.9</ele>
      </trkpt>
      <trkpt lat="45.55129" lon="6.78308">
        <ele>2047.9</ele>
      </trkpt>
      <trkpt lat="45.55124" lon="6.78302">
        <ele>2047.5</ele>
      </trkpt>
      <trkpt lat="45.55119" lon="6.78296">
        <ele>2046.9</ele>
      </trkpt>
      <trkpt lat="45.55113" lon="6.78291">
        <ele>2046.2</ele>
      </trkpt>
      <trkpt lat="45.55108" lon="6.78285">
        <ele>2045.4</ele>
      </trkpt>
      <trkpt lat="45.55102" lon="6.78279">
        <ele>2044.6</ele>
      </trkpt>
      <trkpt lat="45.551" lon="6.78273">
        <ele>2043.8</ele>
      </trkpt>
      <trkpt lat="45.55098" lon="6.78267">
        <ele>2043</ele>
      </trkpt>
      <trkpt lat="45.551" lon="6.7826">
        <ele>2042</ele>
      </trkpt>
      <trkpt lat="45.55102" lon="6.78253">
        <ele>2041.1</ele>
      </trkpt>
      <trkpt lat="45.55108" lon="6.78247">
        <ele>2040.4</ele>
      </trkpt>
      <trkpt lat="45.55114" lon="6.78241">
        <ele>2039.6</ele>
      </trkpt>
      <trkpt lat="45.5512" lon="6.78235">
        <ele>2038.5</ele>
      </trkpt>
      <trkpt lat="45.55126" lon="6.78229">
        <ele>2037.4</ele>
      </trkpt>
      <trkpt lat="45.55131" lon="6.78228">
        <ele>2037.1</ele>
      </trkpt>
      <trkpt lat="45.55136" lon="6.78227">
        <ele>2036.8</ele>
      </trkpt>
      <trkpt lat="45.55141" lon="6.78226">
        <ele>2036.3</ele>
      </trkpt>
      <trkpt lat="45.55146" lon="6.78226">
        <ele>2035.7</ele>
      </trkpt>
      <trkpt lat="45.55152" lon="6.78228">
        <ele>2035.2</ele>
      </trkpt>
      <trkpt lat="45.55158" lon="6.7823">
        <ele>2034.8</ele>
      </trkpt>
      <trkpt lat="45.55164" lon="6.78232">
        <ele>2034.4</ele>
      </trkpt>
      <trkpt lat="45.5517" lon="6.78234">
        <ele>2033.8</ele>
      </trkpt>
      <trkpt lat="45.55177" lon="6.78237">
        <ele>2033.1</ele>
      </trkpt>
      <trkpt lat="45.55183" lon="6.78239">
        <ele>2032.5</ele>
      </trkpt>
      <trkpt lat="45.55189" lon="6.78241">
        <ele>2031.9</ele>
      </trkpt>
      <trkpt lat="45.55195" lon="6.78243">
        <ele>2031.2</ele>
      </trkpt>
      <trkpt lat="45.55202" lon="6.78239">
        <ele>2029.5</ele>
      </trkpt>
      <trkpt lat="45.5521" lon="6.78234">
        <ele>2027.7</ele>
      </trkpt>
      <trkpt lat="45.55218" lon="6.78229">
        <ele>2025.8</ele>
      </trkpt>
      <trkpt lat="45.55225" lon="6.78224">
        <ele>2023.8</ele>
      </trkpt>
      <trkpt lat="45.55233" lon="6.7822">
        <ele>2021.7</ele>
      </trkpt>
      <trkpt lat="45.5524" lon="6.78215">
        <ele>2019.5</ele>
      </trkpt>
      <trkpt lat="45.55248" lon="6.7821">
        <ele>2017.3</ele>
      </trkpt>
      <trkpt lat="45.55256" lon="6.78206">
        <ele>2015.6</ele>
      </trkpt>
      <trkpt lat="45.55263" lon="6.78201">
        <ele>2014.2</ele>
      </trkpt>
      <trkpt lat="45.55271" lon="6.78196">
        <ele>2012.8</ele>
      </trkpt>
      <trkpt lat="45.55278" lon="6.78192">
        <ele>2011.5</ele>
      </trkpt>
      <trkpt lat="45.55286" lon="6.78187">
        <ele>2009.6</ele>
      </trkpt>
      <trkpt lat="45.55294" lon="6.78182">
        <ele>2007.7</ele>
      </trkpt>
      <trkpt lat="45.55301" lon="6.78178">
        <ele>2005.7</ele>
      </trkpt>
      <trkpt lat="45.55309" lon="6.78173">
        <ele>2004.1</ele>
      </trkpt>
      <trkpt lat="45.55316" lon="6.78168">
        <ele>2002.9</ele>
      </trkpt>
      <trkpt lat="45.55324" lon="6.78168">
        <ele>2002.6</ele>
      </trkpt>
      <trkpt lat="45.55331" lon="6.78167">
        <ele>2002.2</ele>
      </trkpt>
      <trkpt lat="45.55338" lon="6.78167">
        <ele>2001.7</ele>
      </trkpt>
      <trkpt lat="45.55345" lon="6.78166">
        <ele>2001</ele>
      </trkpt>
      <trkpt lat="45.55353" lon="6.78166">
        <ele>2000.4</ele>
      </trkpt>
      <trkpt lat="45.5536" lon="6.78165">
        <ele>1999.7</ele>
      </trkpt>
      <trkpt lat="45.55367" lon="6.78165">
        <ele>1999.3</ele>
      </trkpt>
      <trkpt lat="45.55374" lon="6.78164">
        <ele>1999</ele>
      </trkpt>
      <trkpt lat="45.55379" lon="6.7816">
        <ele>1997.7</ele>
      </trkpt>
      <trkpt lat="45.55384" lon="6.78156">
        <ele>1996.4</ele>
      </trkpt>
      <trkpt lat="45.55389" lon="6.78152">
        <ele>1995.2</ele>
      </trkpt>
      <trkpt lat="45.55394" lon="6.78147">
        <ele>1993.5</ele>
      </trkpt>
      <trkpt lat="45.55401" lon="6.78148">
        <ele>1992.9</ele>
      </trkpt>
      <trkpt lat="45.55409" lon="6.78149">
        <ele>1992.2</ele>
      </trkpt>
      <trkpt lat="45.55416" lon="6.7815">
        <ele>1991.6</ele>
      </trkpt>
      <trkpt lat="45.55423" lon="6.78152">
        <ele>1990.9</ele>
      </trkpt>
      <trkpt lat="45.55431" lon="6.78153">
        <ele>1990.2</ele>
      </trkpt>
      <trkpt lat="45.55438" lon="6.78154">
        <ele>1989.5</ele>
      </trkpt>
      <trkpt lat="45.55446" lon="6.78155">
        <ele>1989</ele>
      </trkpt>
      <trkpt lat="45.55453" lon="6.78156">
        <ele>1989.6</ele>
      </trkpt>
      <trkpt lat="45.55458" lon="6.78153">
        <ele>1988.8</ele>
      </trkpt>
      <trkpt lat="45.55462" lon="6.7815">
        <ele>1987.9</ele>
      </trkpt>
      <trkpt lat="45.55466" lon="6.78148">
        <ele>1986.9</ele>
      </trkpt>
      <trkpt lat="45.55471" lon="6.78145">
        <ele>1985.7</ele>
      </trkpt>
      <trkpt lat="45.55475" lon="6.78142">
        <ele>1984.3</ele>
      </trkpt>
      <trkpt lat="45.55479" lon="6.7814">
        <ele>1983</ele>
      </trkpt>
      <trkpt lat="45.55484" lon="6.78137">
        <ele>1981.7</ele>
      </trkpt>
      <trkpt lat="45.55488" lon="6.78134">
        <ele>1980.2</ele>
      </trkpt>
      <trkpt lat="45.55492" lon="6.78131">
        <ele>1978.7</ele>
      </trkpt>
      <trkpt lat="45.55497" lon="6.78129">
        <ele>1977.1</ele>
      </trkpt>
      <trkpt lat="45.55501" lon="6.78126">
        <ele>1975.4</ele>
      </trkpt>
      <trkpt lat="45.55505" lon="6.78123">
        <ele>1973.8</ele>
      </trkpt>
      <trkpt lat="45.5551" lon="6.78121">
        <ele>1972.3</ele>
      </trkpt>
      <trkpt lat="45.55514" lon="6.78118">
        <ele>1970.8</ele>
      </trkpt>
      <trkpt lat="45.55518" lon="6.78115">
        <ele>1969.2</ele>
      </trkpt>
      <trkpt lat="45.55523" lon="6.78112">
        <ele>1967.8</ele>
      </trkpt>
      <trkpt lat="45.55527" lon="6.7811">
        <ele>1966.3</ele>
      </trkpt>
      <trkpt lat="45.55531" lon="6.78107">
        <ele>1965.2</ele>
      </trkpt>
      <trkpt lat="45.55536" lon="6.78104">
        <ele>1964.1</ele>
      </trkpt>
      <trkpt lat="45.5554" lon="6.78102">
        <ele>1963.1</ele>
      </trkpt>
      <trkpt lat="45.55544" lon="6.78099">
        <ele>1962.1</ele>
      </trkpt>
      <trkpt lat="45.55549" lon="6.78096">
        <ele>1961.1</ele>
      </trkpt>
      <trkpt lat="45.55553" lon="6.78093">
        <ele>1960.2</ele>
      </trkpt>
      <trkpt lat="45.55557" lon="6.78091">
        <ele>1959.1</ele>
      </trkpt>
      <trkpt lat="45.55562" lon="6.78088">
        <ele>1958</ele>
      </trkpt>
      <trkpt lat="45.55566" lon="6.78085">
        <ele>1957.1</ele>
      </trkpt>
      <trkpt lat="45.5557" lon="6.78083">
        <ele>1956.2</ele>
      </trkpt>
      <trkpt lat="45.55575" lon="6.7808">
        <ele>1955.4</ele>
      </trkpt>
      <trkpt lat="45.55579" lon="6.78077">
        <ele>1954.7</ele>
      </trkpt>
      <trkpt lat="45.55583" lon="6.78074">
        <ele>1954.1</ele>
      </trkpt>
      <trkpt lat="45.55588" lon="6.78072">
        <ele>1952.9</ele>
      </trkpt>
      <trkpt lat="45.55592" lon="6.78069">
        <ele>1951.9</ele>
      </trkpt>
      <trkpt lat="45.55598" lon="6.78069">
        <ele>1951.6</ele>
      </trkpt>
      <trkpt lat="45.55604" lon="6.78069">
        <ele>1951.4</ele>
      </trkpt>
      <trkpt lat="45.5561" lon="6.7807">
        <ele>1951.1</ele>
      </trkpt>
      <trkpt lat="45.55616" lon="6.7807">
        <ele>1950.6</ele>
      </trkpt>
      <trkpt lat="45.55622" lon="6.78064">
        <ele>1949.1</ele>
      </trkpt>
      <trkpt lat="45.55628" lon="6.78058">
        <ele>1947.6</ele>
      </trkpt>
      <trkpt lat="45.55634" lon="6.78052">
        <ele>1946.1</ele>
      </trkpt>
      <trkpt lat="45.5564" lon="6.78046">
        <ele>1944.5</ele>
      </trkpt>
      <trkpt lat="45.55646" lon="6.7804">
        <ele>1943</ele>
      </trkpt>
      <trkpt lat="45.55652" lon="6.78035">
        <ele>1941.5</ele>
      </trkpt>
      <trkpt lat="45.55658" lon="6.78029">
        <ele>1940.1</ele>
      </trkpt>
      <trkpt lat="45.55664" lon="6.78023">
        <ele>1939.2</ele>
      </trkpt>
      <trkpt lat="45.55668" lon="6.78023">
        <ele>1938.7</ele>
      </trkpt>
      <trkpt lat="45.55673" lon="6.78022">
        <ele>1938.5</ele>
      </trkpt>
      <trkpt lat="45.55678" lon="6.78022">
        <ele>1938.3</ele>
      </trkpt>
      <trkpt lat="45.55683" lon="6.78022">
        <ele>1938.1</ele>
      </trkpt>
      <trkpt lat="45.55689" lon="6.78015">
        <ele>1937.4</ele>
      </trkpt>
      <trkpt lat="45.55695" lon="6.78008">
        <ele>1936.6</ele>
      </trkpt>
      <trkpt lat="45.55701" lon="6.78002">
        <ele>1935.2</ele>
      </trkpt>
      <trkpt lat="45.55706" lon="6.77995">
        <ele>1934.1</ele>
      </trkpt>
      <trkpt lat="45.55708" lon="6.77988">
        <ele>1933.7</ele>
      </trkpt>
      <trkpt lat="45.55709" lon="6.77981">
        <ele>1933.3</ele>
      </trkpt>
      <trkpt lat="45.5571" lon="6.77974">
        <ele>1932.9</ele>
      </trkpt>
      <trkpt lat="45.55712" lon="6.77968">
        <ele>1932.6</ele>
      </trkpt>
      <trkpt lat="45.55713" lon="6.77961">
        <ele>1932.2</ele>
      </trkpt>
      <trkpt lat="45.55714" lon="6.77954">
        <ele>1932</ele>
      </trkpt>
      <trkpt lat="45.55716" lon="6.77947">
        <ele>1931.8</ele>
      </trkpt>
      <trkpt lat="45.55717" lon="6.7794">
        <ele>1931.5</ele>
      </trkpt>
      <trkpt lat="45.55721" lon="6.77944">
        <ele>1931.9</ele>
      </trkpt>
      <trkpt lat="45.55724" lon="6.77948">
        <ele>1931.9</ele>
      </trkpt>
      <trkpt lat="45.55728" lon="6.77951">
        <ele>1931.8</ele>
      </trkpt>
      <trkpt lat="45.55732" lon="6.77955">
        <ele>1931.8</ele>
      </trkpt>
      <trkpt lat="45.55735" lon="6.77959">
        <ele>1931.8</ele>
      </trkpt>
      <trkpt lat="45.55739" lon="6.77963">
        <ele>1931.8</ele>
      </trkpt>
      <trkpt lat="45.55742" lon="6.77966">
        <ele>1931.8</ele>
      </trkpt>
      <trkpt lat="45.55746" lon="6.7797">
        <ele>1931.9</ele>
      </trkpt>
      <trkpt lat="45.55749" lon="6.77975">
        <ele>1932</ele>
      </trkpt>
      <trkpt lat="45.55752" lon="6.77981">
        <ele>1931.6</ele>
      </trkpt>
      <trkpt lat="45.55755" lon="6.77986">
        <ele>1931</ele>
      </trkpt>
      <trkpt lat="45.55758" lon="6.77991">
        <ele>1930.6</ele>
      </trkpt>
      <trkpt lat="45.55761" lon="6.77996">
        <ele>1930.2</ele>
      </trkpt>
      <trkpt lat="45.55764" lon="6.78001">
        <ele>1930</ele>
      </trkpt>
      <trkpt lat="45.55768" lon="6.78006">
        <ele>1929.8</ele>
      </trkpt>
      <trkpt lat="45.55771" lon="6.78012">
        <ele>1929.8</ele>
      </trkpt>
      <trkpt lat="45.55777" lon="6.78016">
        <ele>1929.2</ele>
      </trkpt>
      <trkpt lat="45.55784" lon="6.7802">
        <ele>1928.4</ele>
      </trkpt>
      <trkpt lat="45.55791" lon="6.78024">
        <ele>1927.8</ele>
      </trkpt>
      <trkpt lat="45.55797" lon="6.78029">
        <ele>1927.3</ele>
      </trkpt>
      <trkpt lat="45.55804" lon="6.78033">
        <ele>1926.8</ele>
      </trkpt>
      <trkpt lat="45.55811" lon="6.78037">
        <ele>1926.1</ele>
      </trkpt>
      <trkpt lat="45.55817" lon="6.78042">
        <ele>1925.4</ele>
      </trkpt>
      <trkpt lat="45.55824" lon="6.78046">
        <ele>1924.6</ele>
      </trkpt>
      <trkpt lat="45.5583" lon="6.78048">
        <ele>1923.8</ele>
      </trkpt>
      <trkpt lat="45.55836" lon="6.78049">
        <ele>1923.2</ele>
      </trkpt>
      <trkpt lat="45.55841" lon="6.78051">
        <ele>1922.9</ele>
      </trkpt>
      <trkpt lat="45.55847" lon="6.78053">
        <ele>1922.7</ele>
      </trkpt>
      <trkpt lat="45.55853" lon="6.78055">
        <ele>1922.5</ele>
      </trkpt>
      <trkpt lat="45.55859" lon="6.78057">
        <ele>1922.3</ele>
      </trkpt>
      <trkpt lat="45.55865" lon="6.78059">
        <ele>1922.2</ele>
      </trkpt>
      <trkpt lat="45.5587" lon="6.7806">
        <ele>1922</ele>
      </trkpt>
      <trkpt lat="45.55876" lon="6.78062">
        <ele>1921.7</ele>
      </trkpt>
      <trkpt lat="45.55882" lon="6.78064">
        <ele>1921.5</ele>
      </trkpt>
      <trkpt lat="45.55888" lon="6.78066">
        <ele>1921.2</ele>
      </trkpt>
      <trkpt lat="45.55894" lon="6.78068">
        <ele>1920.8</ele>
      </trkpt>
      <trkpt lat="45.559" lon="6.78069">
        <ele>1920.3</ele>
      </trkpt>
      <trkpt lat="45.55905" lon="6.78071">
        <ele>1919.8</ele>
      </trkpt>
      <trkpt lat="45.55911" lon="6.78073">
        <ele>1919.1</ele>
      </trkpt>
      <trkpt lat="45.55917" lon="6.78075">
        <ele>1918.3</ele>
      </trkpt>
      <trkpt lat="45.55922" lon="6.78078">
        <ele>1917.7</ele>
      </trkpt>
      <trkpt lat="45.55927" lon="6.78082">
        <ele>1917.2</ele>
      </trkpt>
      <trkpt lat="45.55932" lon="6.78085">
        <ele>1917</ele>
      </trkpt>
      <trkpt lat="45.55937" lon="6.78089">
        <ele>1916.6</ele>
      </trkpt>
      <trkpt lat="45.55942" lon="6.78092">
        <ele>1916</ele>
      </trkpt>
      <trkpt lat="45.55947" lon="6.78096">
        <ele>1914.9</ele>
      </trkpt>
      <trkpt lat="45.55952" lon="6.78099">
        <ele>1913.6</ele>
      </trkpt>
      <trkpt lat="45.55957" lon="6.78102">
        <ele>1912.6</ele>
      </trkpt>
      <trkpt lat="45.55962" lon="6.78106">
        <ele>1911.9</ele>
      </trkpt>
      <trkpt lat="45.55967" lon="6.78109">
        <ele>1911.5</ele>
      </trkpt>
      <trkpt lat="45.55972" lon="6.78113">
        <ele>1911.2</ele>
      </trkpt>
      <trkpt lat="45.55976" lon="6.78116">
        <ele>1910.3</ele>
      </trkpt>
      <trkpt lat="45.55981" lon="6.7812">
        <ele>1909.4</ele>
      </trkpt>
      <trkpt lat="45.55986" lon="6.78123">
        <ele>1908.5</ele>
      </trkpt>
      <trkpt lat="45.55991" lon="6.78127">
        <ele>1907.7</ele>
      </trkpt>
      <trkpt lat="45.55996" lon="6.7813">
        <ele>1906.9</ele>
      </trkpt>
      <trkpt lat="45.56003" lon="6.78133">
        <ele>1906</ele>
      </trkpt>
      <trkpt lat="45.56011" lon="6.78135">
        <ele>1905.5</ele>
      </trkpt>
      <trkpt lat="45.56017" lon="6.78132">
        <ele>1904.5</ele>
      </trkpt>
      <trkpt lat="45.56023" lon="6.7813">
        <ele>1903.5</ele>
      </trkpt>
      <trkpt lat="45.5603" lon="6.78127">
        <ele>1902.4</ele>
      </trkpt>
      <trkpt lat="45.56036" lon="6.78124">
        <ele>1901</ele>
      </trkpt>
      <trkpt lat="45.56042" lon="6.78121">
        <ele>1899.8</ele>
      </trkpt>
      <trkpt lat="45.56049" lon="6.78118">
        <ele>1898.5</ele>
      </trkpt>
      <trkpt lat="45.56055" lon="6.78115">
        <ele>1897.4</ele>
      </trkpt>
      <trkpt lat="45.56061" lon="6.78112">
        <ele>1895.4</ele>
      </trkpt>
      <trkpt lat="45.56066" lon="6.78116">
        <ele>1894.3</ele>
      </trkpt>
      <trkpt lat="45.5607" lon="6.7812">
        <ele>1893.2</ele>
      </trkpt>
      <trkpt lat="45.56075" lon="6.78124">
        <ele>1892</ele>
      </trkpt>
      <trkpt lat="45.5608" lon="6.78128">
        <ele>1890.8</ele>
      </trkpt>
      <trkpt lat="45.56086" lon="6.78128">
        <ele>1888.6</ele>
      </trkpt>
      <trkpt lat="45.56091" lon="6.78128">
        <ele>1886</ele>
      </trkpt>
      <trkpt lat="45.56095" lon="6.78135">
        <ele>1884.7</ele>
      </trkpt>
      <trkpt lat="45.56098" lon="6.78141">
        <ele>1883.4</ele>
      </trkpt>
      <trkpt lat="45.56101" lon="6.78147">
        <ele>1882.5</ele>
      </trkpt>
      <trkpt lat="45.56104" lon="6.78153">
        <ele>1881.6</ele>
      </trkpt>
      <trkpt lat="45.56112" lon="6.78155">
        <ele>1878.3</ele>
      </trkpt>
      <trkpt lat="45.56121" lon="6.78157">
        <ele>1875.8</ele>
      </trkpt>
      <trkpt lat="45.56125" lon="6.78153">
        <ele>1873.7</ele>
      </trkpt>
      <trkpt lat="45.5613" lon="6.78149">
        <ele>1871.6</ele>
      </trkpt>
      <trkpt lat="45.56135" lon="6.78145">
        <ele>1869.4</ele>
      </trkpt>
      <trkpt lat="45.56139" lon="6.78141">
        <ele>1867.2</ele>
      </trkpt>
      <trkpt lat="45.56147" lon="6.78142">
        <ele>1865.5</ele>
      </trkpt>
      <trkpt lat="45.56154" lon="6.78143">
        <ele>1863.8</ele>
      </trkpt>
      <trkpt lat="45.56161" lon="6.78144">
        <ele>1862.2</ele>
      </trkpt>
      <trkpt lat="45.56169" lon="6.78145">
        <ele>1861</ele>
      </trkpt>
      <trkpt lat="45.56174" lon="6.7814">
        <ele>1860.4</ele>
      </trkpt>
      <trkpt lat="45.5618" lon="6.78135">
        <ele>1859.9</ele>
      </trkpt>
      <trkpt lat="45.56184" lon="6.78128">
        <ele>1859</ele>
      </trkpt>
      <trkpt lat="45.56189" lon="6.78122">
        <ele>1858</ele>
      </trkpt>
      <trkpt lat="45.56195" lon="6.78121">
        <ele>1857.7</ele>
      </trkpt>
      <trkpt lat="45.56202" lon="6.7812">
        <ele>1856.9</ele>
      </trkpt>
      <trkpt lat="45.56208" lon="6.78119">
        <ele>1856</ele>
      </trkpt>
      <trkpt lat="45.56214" lon="6.78118">
        <ele>1855.2</ele>
      </trkpt>
      <trkpt lat="45.56219" lon="6.78121">
        <ele>1855.2</ele>
      </trkpt>
      <trkpt lat="45.56224" lon="6.78125">
        <ele>1855.1</ele>
      </trkpt>
      <trkpt lat="45.56229" lon="6.78128">
        <ele>1854.8</ele>
      </trkpt>
      <trkpt lat="45.56234" lon="6.78131">
        <ele>1854.5</ele>
      </trkpt>
      <trkpt lat="45.56243" lon="6.78134">
        <ele>1853.6</ele>
      </trkpt>
      <trkpt lat="45.56251" lon="6.78136">
        <ele>1852.5</ele>
      </trkpt>
      <trkpt lat="45.56259" lon="6.78139">
        <ele>1852</ele>
      </trkpt>
      <trkpt lat="45.56267" lon="6.78141">
        <ele>1851.4</ele>
      </trkpt>
      <trkpt lat="45.56272" lon="6.78136">
        <ele>1850.3</ele>
      </trkpt>
      <trkpt lat="45.56276" lon="6.7813">
        <ele>1849.2</ele>
      </trkpt>
      <trkpt lat="45.5628" lon="6.7812">
        <ele>1847.8</ele>
      </trkpt>
      <trkpt lat="45.56283" lon="6.78111">
        <ele>1846.3</ele>
      </trkpt>
      <trkpt lat="45.56287" lon="6.78101">
        <ele>1844</ele>
      </trkpt>
      <trkpt lat="45.5629" lon="6.78091">
        <ele>1841.9</ele>
      </trkpt>
      <trkpt lat="45.5629" lon="6.78085">
        <ele>1840.9</ele>
      </trkpt>
      <trkpt lat="45.56294" lon="6.7808">
        <ele>1840.1</ele>
      </trkpt>
      <trkpt lat="45.56297" lon="6.78075">
        <ele>1839.5</ele>
      </trkpt>
      <trkpt lat="45.56297" lon="6.78066">
        <ele>1838.7</ele>
      </trkpt>
      <trkpt lat="45.563" lon="6.78061">
        <ele>1838.3</ele>
      </trkpt>
      <trkpt lat="45.56304" lon="6.78056">
        <ele>1838</ele>
      </trkpt>
      <trkpt lat="45.56308" lon="6.78052">
        <ele>1837.3</ele>
      </trkpt>
      <trkpt lat="45.56311" lon="6.78047">
        <ele>1836.4</ele>
      </trkpt>
      <trkpt lat="45.56315" lon="6.78042">
        <ele>1835.5</ele>
      </trkpt>
      <trkpt lat="45.56318" lon="6.78037">
        <ele>1834.7</ele>
      </trkpt>
      <trkpt lat="45.56322" lon="6.78032">
        <ele>1833.9</ele>
      </trkpt>
      <trkpt lat="45.56326" lon="6.78027">
        <ele>1833.2</ele>
      </trkpt>
      <trkpt lat="45.56329" lon="6.7802">
        <ele>1832</ele>
      </trkpt>
      <trkpt lat="45.56332" lon="6.78014">
        <ele>1831</ele>
      </trkpt>
      <trkpt lat="45.56332" lon="6.78006">
        <ele>1829.8</ele>
      </trkpt>
      <trkpt lat="45.56332" lon="6.77998">
        <ele>1828.8</ele>
      </trkpt>
      <trkpt lat="45.56333" lon="6.7799">
        <ele>1828</ele>
      </trkpt>
      <trkpt lat="45.56333" lon="6.77983">
        <ele>1827.1</ele>
      </trkpt>
      <trkpt lat="45.56336" lon="6.77977">
        <ele>1826.2</ele>
      </trkpt>
      <trkpt lat="45.56339" lon="6.77972">
        <ele>1825.3</ele>
      </trkpt>
      <trkpt lat="45.56342" lon="6.77966">
        <ele>1824.3</ele>
      </trkpt>
      <trkpt lat="45.56345" lon="6.77961">
        <ele>1823.3</ele>
      </trkpt>
      <trkpt lat="45.56348" lon="6.77955">
        <ele>1822.3</ele>
      </trkpt>
      <trkpt lat="45.5635" lon="6.7795">
        <ele>1821.4</ele>
      </trkpt>
      <trkpt lat="45.56353" lon="6.77944">
        <ele>1820.6</ele>
      </trkpt>
      <trkpt lat="45.56356" lon="6.77939">
        <ele>1819.6</ele>
      </trkpt>
      <trkpt lat="45.56359" lon="6.77933">
        <ele>1818.6</ele>
      </trkpt>
      <trkpt lat="45.56362" lon="6.77928">
        <ele>1817.5</ele>
      </trkpt>
      <trkpt lat="45.56365" lon="6.77922">
        <ele>1816.4</ele>
      </trkpt>
      <trkpt lat="45.56368" lon="6.77917">
        <ele>1815.3</ele>
      </trkpt>
      <trkpt lat="45.5637" lon="6.77912">
        <ele>1814.3</ele>
      </trkpt>
      <trkpt lat="45.56373" lon="6.77906">
        <ele>1813.2</ele>
      </trkpt>
      <trkpt lat="45.56376" lon="6.77901">
        <ele>1812.1</ele>
      </trkpt>
      <trkpt lat="45.56379" lon="6.77895">
        <ele>1811</ele>
      </trkpt>
      <trkpt lat="45.5638" lon="6.77886">
        <ele>1809.5</ele>
      </trkpt>
      <trkpt lat="45.56381" lon="6.77877">
        <ele>1808</ele>
      </trkpt>
      <trkpt lat="45.56385" lon="6.77867">
        <ele>1805.6</ele>
      </trkpt>
      <trkpt lat="45.56391" lon="6.77863">
        <ele>1804</ele>
      </trkpt>
      <trkpt lat="45.56397" lon="6.7786">
        <ele>1802.4</ele>
      </trkpt>
      <trkpt lat="45.564" lon="6.7785">
        <ele>1800.2</ele>
      </trkpt>
      <trkpt lat="45.56404" lon="6.7784">
        <ele>1798</ele>
      </trkpt>
      <trkpt lat="45.56407" lon="6.7783">
        <ele>1796.1</ele>
      </trkpt>
      <trkpt lat="45.5641" lon="6.77821">
        <ele>1794.8</ele>
      </trkpt>
      <trkpt lat="45.56416" lon="6.77818">
        <ele>1793.9</ele>
      </trkpt>
      <trkpt lat="45.56422" lon="6.77815">
        <ele>1793.1</ele>
      </trkpt>
      <trkpt lat="45.56428" lon="6.77812">
        <ele>1792.2</ele>
      </trkpt>
      <trkpt lat="45.56434" lon="6.77809">
        <ele>1791.3</ele>
      </trkpt>
      <trkpt lat="45.56442" lon="6.77809">
        <ele>1790.6</ele>
      </trkpt>
      <trkpt lat="45.56449" lon="6.77809">
        <ele>1789.8</ele>
      </trkpt>
      <trkpt lat="45.56453" lon="6.77805">
        <ele>1789</ele>
      </trkpt>
      <trkpt lat="45.56458" lon="6.778">
        <ele>1788.1</ele>
      </trkpt>
      <trkpt lat="45.56462" lon="6.77796">
        <ele>1787.2</ele>
      </trkpt>
      <trkpt lat="45.56466" lon="6.77791">
        <ele>1786.2</ele>
      </trkpt>
      <trkpt lat="45.56468" lon="6.77783">
        <ele>1785.1</ele>
      </trkpt>
      <trkpt lat="45.5647" lon="6.77774">
        <ele>1784.2</ele>
      </trkpt>
      <trkpt lat="45.56475" lon="6.77774">
        <ele>1783.5</ele>
      </trkpt>
      <trkpt lat="45.5648" lon="6.77773">
        <ele>1782.7</ele>
      </trkpt>
      <trkpt lat="45.56485" lon="6.77773">
        <ele>1781.9</ele>
      </trkpt>
      <trkpt lat="45.56491" lon="6.77773">
        <ele>1781.1</ele>
      </trkpt>
      <trkpt lat="45.56496" lon="6.77772">
        <ele>1780.2</ele>
      </trkpt>
      <trkpt lat="45.56501" lon="6.77772">
        <ele>1779.5</ele>
      </trkpt>
      <trkpt lat="45.56506" lon="6.77771">
        <ele>1778.9</ele>
      </trkpt>
      <trkpt lat="45.56512" lon="6.77771">
        <ele>1778.3</ele>
      </trkpt>
      <trkpt lat="45.56514" lon="6.77764">
        <ele>1777.3</ele>
      </trkpt>
      <trkpt lat="45.56516" lon="6.77758">
        <ele>1776.1</ele>
      </trkpt>
      <trkpt lat="45.56519" lon="6.77751">
        <ele>1774.7</ele>
      </trkpt>
      <trkpt lat="45.56521" lon="6.77744">
        <ele>1773.5</ele>
      </trkpt>
      <trkpt lat="45.56524" lon="6.77738">
        <ele>1772.1</ele>
      </trkpt>
      <trkpt lat="45.56526" lon="6.77731">
        <ele>1770.7</ele>
      </trkpt>
      <trkpt lat="45.56529" lon="6.77725">
        <ele>1769.4</ele>
      </trkpt>
      <trkpt lat="45.56531" lon="6.77718">
        <ele>1768.6</ele>
      </trkpt>
      <trkpt lat="45.56536" lon="6.77716">
        <ele>1768.4</ele>
      </trkpt>
      <trkpt lat="45.56541" lon="6.77714">
        <ele>1768.2</ele>
      </trkpt>
      <trkpt lat="45.56547" lon="6.77712">
        <ele>1767.8</ele>
      </trkpt>
      <trkpt lat="45.56552" lon="6.7771">
        <ele>1767.3</ele>
      </trkpt>
      <trkpt lat="45.56557" lon="6.77708">
        <ele>1766.8</ele>
      </trkpt>
      <trkpt lat="45.56562" lon="6.77706">
        <ele>1766.2</ele>
      </trkpt>
      <trkpt lat="45.56567" lon="6.77704">
        <ele>1765.7</ele>
      </trkpt>
      <trkpt lat="45.56572" lon="6.77701">
        <ele>1765.2</ele>
      </trkpt>
      <trkpt lat="45.56578" lon="6.77699">
        <ele>1764.8</ele>
      </trkpt>
      <trkpt lat="45.56583" lon="6.77697">
        <ele>1764.4</ele>
      </trkpt>
      <trkpt lat="45.56588" lon="6.77695">
        <ele>1763.6</ele>
      </trkpt>
      <trkpt lat="45.56593" lon="6.77693">
        <ele>1762.8</ele>
      </trkpt>
      <trkpt lat="45.56598" lon="6.77691">
        <ele>1762</ele>
      </trkpt>
      <trkpt lat="45.56603" lon="6.77689">
        <ele>1761.2</ele>
      </trkpt>
      <trkpt lat="45.56609" lon="6.77687">
        <ele>1760.4</ele>
      </trkpt>
      <trkpt lat="45.56614" lon="6.77685">
        <ele>1759.3</ele>
      </trkpt>
      <trkpt lat="45.56621" lon="6.77687">
        <ele>1757.8</ele>
      </trkpt>
      <trkpt lat="45.56627" lon="6.77689">
        <ele>1756.3</ele>
      </trkpt>
      <trkpt lat="45.56634" lon="6.77692">
        <ele>1754.8</ele>
      </trkpt>
      <trkpt lat="45.56641" lon="6.77694">
        <ele>1753.3</ele>
      </trkpt>
      <trkpt lat="45.56648" lon="6.77696">
        <ele>1751.5</ele>
      </trkpt>
      <trkpt lat="45.56655" lon="6.77699">
        <ele>1749.9</ele>
      </trkpt>
      <trkpt lat="45.56662" lon="6.77701">
        <ele>1748.3</ele>
      </trkpt>
      <trkpt lat="45.56669" lon="6.77703">
        <ele>1747.4</ele>
      </trkpt>
      <trkpt lat="45.56673" lon="6.77703">
        <ele>1747.7</ele>
      </trkpt>
      <trkpt lat="45.56678" lon="6.77703">
        <ele>1748</ele>
      </trkpt>
      <trkpt lat="45.56682" lon="6.77702">
        <ele>1748.2</ele>
      </trkpt>
      <trkpt lat="45.56687" lon="6.77702">
        <ele>1748.5</ele>
      </trkpt>
      <trkpt lat="45.56692" lon="6.77702">
        <ele>1748.8</ele>
      </trkpt>
      <trkpt lat="45.56696" lon="6.77701">
        <ele>1749</ele>
      </trkpt>
      <trkpt lat="45.56701" lon="6.77701">
        <ele>1748.8</ele>
      </trkpt>
      <trkpt lat="45.56705" lon="6.77701">
        <ele>1748.6</ele>
      </trkpt>
      <trkpt lat="45.56711" lon="6.77701">
        <ele>1748.5</ele>
      </trkpt>
      <trkpt lat="45.56716" lon="6.77702">
        <ele>1748.4</ele>
      </trkpt>
      <trkpt lat="45.56721" lon="6.77702">
        <ele>1748.4</ele>
      </trkpt>
      <trkpt lat="45.56727" lon="6.77702">
        <ele>1747.8</ele>
      </trkpt>
      <trkpt lat="45.56732" lon="6.77703">
        <ele>1747.2</ele>
      </trkpt>
      <trkpt lat="45.56737" lon="6.77703">
        <ele>1746.5</ele>
      </trkpt>
      <trkpt lat="45.56743" lon="6.77703">
        <ele>1745.8</ele>
      </trkpt>
      <trkpt lat="45.56748" lon="6.77704">
        <ele>1745.2</ele>
      </trkpt>
      <trkpt lat="45.56754" lon="6.77704">
        <ele>1744.6</ele>
      </trkpt>
      <trkpt lat="45.56759" lon="6.77704">
        <ele>1743.9</ele>
      </trkpt>
      <trkpt lat="45.56764" lon="6.77705">
        <ele>1743.3</ele>
      </trkpt>
      <trkpt lat="45.5677" lon="6.77705">
        <ele>1742.6</ele>
      </trkpt>
      <trkpt lat="45.56775" lon="6.77705">
        <ele>1741.9</ele>
      </trkpt>
      <trkpt lat="45.5678" lon="6.77706">
        <ele>1741.2</ele>
      </trkpt>
      <trkpt lat="45.56786" lon="6.77706">
        <ele>1740.2</ele>
      </trkpt>
      <trkpt lat="45.56791" lon="6.77706">
        <ele>1739.3</ele>
      </trkpt>
      <trkpt lat="45.56794" lon="6.77712">
        <ele>1739.6</ele>
      </trkpt>
      <trkpt lat="45.56797" lon="6.77719">
        <ele>1740</ele>
      </trkpt>
      <trkpt lat="45.56801" lon="6.77725">
        <ele>1740.1</ele>
      </trkpt>
      <trkpt lat="45.56804" lon="6.77731">
        <ele>1739.9</ele>
      </trkpt>
      <trkpt lat="45.56805" lon="6.77743">
        <ele>1740.5</ele>
      </trkpt>
      <trkpt lat="45.56806" lon="6.77754">
        <ele>1741</ele>
      </trkpt>
      <trkpt lat="45.56808" lon="6.77766">
        <ele>1741.3</ele>
      </trkpt>
      <trkpt lat="45.56809" lon="6.77777">
        <ele>1741.7</ele>
      </trkpt>
      <trkpt lat="45.56816" lon="6.77782">
        <ele>1740</ele>
      </trkpt>
      <trkpt lat="45.56823" lon="6.77787">
        <ele>1738.5</ele>
      </trkpt>
      <trkpt lat="45.56829" lon="6.77792">
        <ele>1737.2</ele>
      </trkpt>
      <trkpt lat="45.56836" lon="6.77796">
        <ele>1736.5</ele>
      </trkpt>
      <trkpt lat="45.56841" lon="6.77804">
        <ele>1736.9</ele>
      </trkpt>
      <trkpt lat="45.56847" lon="6.77811">
        <ele>1737.1</ele>
      </trkpt>
      <trkpt lat="45.56852" lon="6.77814">
        <ele>1736.4</ele>
      </trkpt>
      <trkpt lat="45.56857" lon="6.77817">
        <ele>1735.6</ele>
      </trkpt>
      <trkpt lat="45.56862" lon="6.7782">
        <ele>1734.9</ele>
      </trkpt>
      <trkpt lat="45.56868" lon="6.77823">
        <ele>1734.1</ele>
      </trkpt>
      <trkpt lat="45.56873" lon="6.77826">
        <ele>1733.4</ele>
      </trkpt>
      <trkpt lat="45.56878" lon="6.77829">
        <ele>1732.7</ele>
      </trkpt>
      <trkpt lat="45.56883" lon="6.77832">
        <ele>1732</ele>
      </trkpt>
      <trkpt lat="45.56889" lon="6.77835">
        <ele>1731.5</ele>
      </trkpt>
      <trkpt lat="45.56892" lon="6.77831">
        <ele>1730.4</ele>
      </trkpt>
      <trkpt lat="45.56895" lon="6.77826">
        <ele>1729.6</ele>
      </trkpt>
      <trkpt lat="45.569" lon="6.77825">
        <ele>1729.2</ele>
      </trkpt>
      <trkpt lat="45.56905" lon="6.77824">
        <ele>1728.8</ele>
      </trkpt>
      <trkpt lat="45.56909" lon="6.77823">
        <ele>1728.3</ele>
      </trkpt>
      <trkpt lat="45.56914" lon="6.77822">
        <ele>1728</ele>
      </trkpt>
      <trkpt lat="45.56918" lon="6.77821">
        <ele>1727.7</ele>
      </trkpt>
      <trkpt lat="45.56923" lon="6.7782">
        <ele>1727.6</ele>
      </trkpt>
      <trkpt lat="45.56928" lon="6.77819">
        <ele>1727.4</ele>
      </trkpt>
      <trkpt lat="45.56932" lon="6.77818">
        <ele>1727.3</ele>
      </trkpt>
      <trkpt lat="45.56936" lon="6.77815">
        <ele>1727</ele>
      </trkpt>
      <trkpt lat="45.5694" lon="6.77811">
        <ele>1726.6</ele>
      </trkpt>
      <trkpt lat="45.56941" lon="6.77804">
        <ele>1725.9</ele>
      </trkpt>
      <trkpt lat="45.56942" lon="6.77797">
        <ele>1725.1</ele>
      </trkpt>
      <trkpt lat="45.56947" lon="6.77792">
        <ele>1724.4</ele>
      </trkpt>
      <trkpt lat="45.56952" lon="6.77786">
        <ele>1723.7</ele>
      </trkpt>
      <trkpt lat="45.56959" lon="6.77788">
        <ele>1723.7</ele>
      </trkpt>
      <trkpt lat="45.56966" lon="6.77791">
        <ele>1723.7</ele>
      </trkpt>
      <trkpt lat="45.56974" lon="6.77794">
        <ele>1723.5</ele>
      </trkpt>
      <trkpt lat="45.56981" lon="6.77796">
        <ele>1723</ele>
      </trkpt>
      <trkpt lat="45.56987" lon="6.77802">
        <ele>1722.8</ele>
      </trkpt>
      <trkpt lat="45.56992" lon="6.77807">
        <ele>1722.6</ele>
      </trkpt>
      <trkpt lat="45.56998" lon="6.77813">
        <ele>1722.4</ele>
      </trkpt>
      <trkpt lat="45.57003" lon="6.77818">
        <ele>1722</ele>
      </trkpt>
      <trkpt lat="45.57009" lon="6.77823">
        <ele>1721.5</ele>
      </trkpt>
      <trkpt lat="45.57014" lon="6.77829">
        <ele>1721.1</ele>
      </trkpt>
      <trkpt lat="45.5702" lon="6.77834">
        <ele>1720.9</ele>
      </trkpt>
      <trkpt lat="45.57025" lon="6.77839">
        <ele>1720.9</ele>
      </trkpt>
      <trkpt lat="45.57032" lon="6.77838">
        <ele>1720.2</ele>
      </trkpt>
      <trkpt lat="45.5704" lon="6.77837">
        <ele>1719.6</ele>
      </trkpt>
      <trkpt lat="45.57046" lon="6.77832">
        <ele>1718.4</ele>
      </trkpt>
      <trkpt lat="45.57053" lon="6.77826">
        <ele>1717</ele>
      </trkpt>
      <trkpt lat="45.5706" lon="6.77821">
        <ele>1715.5</ele>
      </trkpt>
      <trkpt lat="45.57067" lon="6.77816">
        <ele>1714.3</ele>
      </trkpt>
      <trkpt lat="45.57073" lon="6.77815">
        <ele>1713.9</ele>
      </trkpt>
      <trkpt lat="45.57079" lon="6.77815">
        <ele>1713.5</ele>
      </trkpt>
      <trkpt lat="45.57084" lon="6.77821">
        <ele>1714</ele>
      </trkpt>
      <trkpt lat="45.57089" lon="6.77827">
        <ele>1714</ele>
      </trkpt>
      <trkpt lat="45.57094" lon="6.77833">
        <ele>1714</ele>
      </trkpt>
      <trkpt lat="45.57099" lon="6.77839">
        <ele>1714</ele>
      </trkpt>
      <trkpt lat="45.57104" lon="6.77845">
        <ele>1714</ele>
      </trkpt>
      <trkpt lat="45.57109" lon="6.77852">
        <ele>1714</ele>
      </trkpt>
      <trkpt lat="45.57114" lon="6.77858">
        <ele>1713.4</ele>
      </trkpt>
      <trkpt lat="45.57119" lon="6.77864">
        <ele>1712.3</ele>
      </trkpt>
      <trkpt lat="45.57127" lon="6.77863">
        <ele>1709.5</ele>
      </trkpt>
      <trkpt lat="45.57134" lon="6.77862">
        <ele>1706.7</ele>
      </trkpt>
      <trkpt lat="45.57142" lon="6.77867">
        <ele>1705.3</ele>
      </trkpt>
      <trkpt lat="45.57149" lon="6.77872">
        <ele>1705.4</ele>
      </trkpt>
      <trkpt lat="45.57154" lon="6.77872">
        <ele>1705.3</ele>
      </trkpt>
      <trkpt lat="45.57159" lon="6.77873">
        <ele>1705.1</ele>
      </trkpt>
      <trkpt lat="45.57164" lon="6.77874">
        <ele>1705</ele>
      </trkpt>
      <trkpt lat="45.5717" lon="6.77875">
        <ele>1705.1</ele>
      </trkpt>
      <trkpt lat="45.57175" lon="6.77876">
        <ele>1705.3</ele>
      </trkpt>
      <trkpt lat="45.5718" lon="6.77876">
        <ele>1705.6</ele>
      </trkpt>
      <trkpt lat="45.57185" lon="6.77877">
        <ele>1705.8</ele>
      </trkpt>
      <trkpt lat="45.5719" lon="6.77878">
        <ele>1706</ele>
      </trkpt>
      <trkpt lat="45.57195" lon="6.77879">
        <ele>1706.3</ele>
      </trkpt>
      <trkpt lat="45.572" lon="6.7788">
        <ele>1706.3</ele>
      </trkpt>
      <trkpt lat="45.57205" lon="6.7788">
        <ele>1706.4</ele>
      </trkpt>
      <trkpt lat="45.5721" lon="6.77881">
        <ele>1706.4</ele>
      </trkpt>
      <trkpt lat="45.57215" lon="6.77882">
        <ele>1706.5</ele>
      </trkpt>
      <trkpt lat="45.5722" lon="6.77883">
        <ele>1706.6</ele>
      </trkpt>
      <trkpt lat="45.57225" lon="6.77884">
        <ele>1706.8</ele>
      </trkpt>
      <trkpt lat="45.5723" lon="6.77884">
        <ele>1707.2</ele>
      </trkpt>
      <trkpt lat="45.57236" lon="6.77887">
        <ele>1707.7</ele>
      </trkpt>
      <trkpt lat="45.57241" lon="6.77889">
        <ele>1708.3</ele>
      </trkpt>
      <trkpt lat="45.57246" lon="6.77891">
        <ele>1708.9</ele>
      </trkpt>
      <trkpt lat="45.57251" lon="6.77893">
        <ele>1709.6</ele>
      </trkpt>
      <trkpt lat="45.57256" lon="6.77895">
        <ele>1710.1</ele>
      </trkpt>
      <trkpt lat="45.57261" lon="6.77898">
        <ele>1710.5</ele>
      </trkpt>
      <trkpt lat="45.57266" lon="6.779">
        <ele>1710.9</ele>
      </trkpt>
      <trkpt lat="45.57271" lon="6.77902">
        <ele>1711.3</ele>
      </trkpt>
      <trkpt lat="45.57277" lon="6.77904">
        <ele>1711.6</ele>
      </trkpt>
      <trkpt lat="45.57282" lon="6.77907">
        <ele>1711.8</ele>
      </trkpt>
      <trkpt lat="45.57287" lon="6.77909">
        <ele>1712</ele>
      </trkpt>
      <trkpt lat="45.57292" lon="6.77911">
        <ele>1712.2</ele>
      </trkpt>
      <trkpt lat="45.57297" lon="6.77913">
        <ele>1712.4</ele>
      </trkpt>
      <trkpt lat="45.57302" lon="6.77915">
        <ele>1712.8</ele>
      </trkpt>
      <trkpt lat="45.57307" lon="6.77918">
        <ele>1713.1</ele>
      </trkpt>
      <trkpt lat="45.57313" lon="6.7792">
        <ele>1713.3</ele>
      </trkpt>
      <trkpt lat="45.57318" lon="6.77922">
        <ele>1713.4</ele>
      </trkpt>
      <trkpt lat="45.57323" lon="6.77924">
        <ele>1713.4</ele>
      </trkpt>
      <trkpt lat="45.57328" lon="6.77926">
        <ele>1713.3</ele>
      </trkpt>
      <trkpt lat="45.57333" lon="6.77929">
        <ele>1713</ele>
      </trkpt>
      <trkpt lat="45.57338" lon="6.77931">
        <ele>1712.6</ele>
      </trkpt>
      <trkpt lat="45.57343" lon="6.77933">
        <ele>1712.2</ele>
      </trkpt>
      <trkpt lat="45.57349" lon="6.77935">
        <ele>1711.9</ele>
      </trkpt>
      <trkpt lat="45.57354" lon="6.77937">
        <ele>1711.7</ele>
      </trkpt>
      <trkpt lat="45.57359" lon="6.7794">
        <ele>1711.6</ele>
      </trkpt>
      <trkpt lat="45.57364" lon="6.77942">
        <ele>1711.5</ele>
      </trkpt>
      <trkpt lat="45.57369" lon="6.77944">
        <ele>1711.4</ele>
      </trkpt>
      <trkpt lat="45.57374" lon="6.77946">
        <ele>1711.2</ele>
      </trkpt>
      <trkpt lat="45.57379" lon="6.77949">
        <ele>1710.9</ele>
      </trkpt>
      <trkpt lat="45.57385" lon="6.77951">
        <ele>1710.7</ele>
      </trkpt>
      <trkpt lat="45.5739" lon="6.77953">
        <ele>1710.6</ele>
      </trkpt>
      <trkpt lat="45.57395" lon="6.77955">
        <ele>1710.6</ele>
      </trkpt>
      <trkpt lat="45.57402" lon="6.77959">
        <ele>1710.8</ele>
      </trkpt>
      <trkpt lat="45.57409" lon="6.77963">
        <ele>1711.1</ele>
      </trkpt>
      <trkpt lat="45.57416" lon="6.77966">
        <ele>1711.4</ele>
      </trkpt>
      <trkpt lat="45.57423" lon="6.7797">
        <ele>1712.1</ele>
      </trkpt>
      <trkpt lat="45.5743" lon="6.77974">
        <ele>1712.5</ele>
      </trkpt>
      <trkpt lat="45.57437" lon="6.77978">
        <ele>1713</ele>
      </trkpt>
      <trkpt lat="45.57444" lon="6.77981">
        <ele>1713.6</ele>
      </trkpt>
      <trkpt lat="45.57451" lon="6.77985">
        <ele>1714.1</ele>
      </trkpt>
      <trkpt lat="45.57456" lon="6.77988">
        <ele>1714.3</ele>
      </trkpt>
      <trkpt lat="45.57461" lon="6.7799">
        <ele>1714.5</ele>
      </trkpt>
      <trkpt lat="45.57466" lon="6.77992">
        <ele>1714.7</ele>
      </trkpt>
      <trkpt lat="45.57471" lon="6.77995">
        <ele>1714.8</ele>
      </trkpt>
      <trkpt lat="45.57476" lon="6.77995">
        <ele>1715.1</ele>
      </trkpt>
      <trkpt lat="45.5748" lon="6.77995">
        <ele>1715.4</ele>
      </trkpt>
      <trkpt lat="45.57485" lon="6.77994">
        <ele>1715.7</ele>
      </trkpt>
      <trkpt lat="45.57489" lon="6.77994">
        <ele>1716</ele>
      </trkpt>
      <trkpt lat="45.57494" lon="6.77994">
        <ele>1716.4</ele>
      </trkpt>
      <trkpt lat="45.57498" lon="6.77994">
        <ele>1716.7</ele>
      </trkpt>
      <trkpt lat="45.57503" lon="6.77994">
        <ele>1716.9</ele>
      </trkpt>
      <trkpt lat="45.57508" lon="6.77994">
        <ele>1717</ele>
      </trkpt>
      <trkpt lat="45.57512" lon="6.77997">
        <ele>1717.3</ele>
      </trkpt>
      <trkpt lat="45.57516" lon="6.78">
        <ele>1717.6</ele>
      </trkpt>
      <trkpt lat="45.5752" lon="6.78003">
        <ele>1717.8</ele>
      </trkpt>
      <trkpt lat="45.57525" lon="6.78006">
        <ele>1718</ele>
      </trkpt>
      <trkpt lat="45.57529" lon="6.78009">
        <ele>1718</ele>
      </trkpt>
      <trkpt lat="45.57533" lon="6.78012">
        <ele>1717.9</ele>
      </trkpt>
      <trkpt lat="45.57538" lon="6.78014">
        <ele>1717.8</ele>
      </trkpt>
      <trkpt lat="45.57542" lon="6.78017">
        <ele>1717.8</ele>
      </trkpt>
      <trkpt lat="45.57547" lon="6.78023">
        <ele>1717.9</ele>
      </trkpt>
      <trkpt lat="45.57552" lon="6.78029">
        <ele>1718.1</ele>
      </trkpt>
      <trkpt lat="45.57556" lon="6.78036">
        <ele>1718.3</ele>
      </trkpt>
      <trkpt lat="45.57561" lon="6.78042">
        <ele>1718.4</ele>
      </trkpt>
      <trkpt lat="45.57566" lon="6.78048">
        <ele>1718.4</ele>
      </trkpt>
      <trkpt lat="45.57571" lon="6.78054">
        <ele>1718.4</ele>
      </trkpt>
      <trkpt lat="45.57576" lon="6.7806">
        <ele>1718.5</ele>
      </trkpt>
      <trkpt lat="45.5758" lon="6.78066">
        <ele>1718.6</ele>
      </trkpt>
      <trkpt lat="45.57585" lon="6.78072">
        <ele>1718.5</ele>
      </trkpt>
      <trkpt lat="45.57589" lon="6.78078">
        <ele>1718.5</ele>
      </trkpt>
      <trkpt lat="45.57593" lon="6.78084">
        <ele>1718.6</ele>
      </trkpt>
      <trkpt lat="45.57598" lon="6.7809">
        <ele>1718.6</ele>
      </trkpt>
      <trkpt lat="45.57602" lon="6.78096">
        <ele>1718.6</ele>
      </trkpt>
      <trkpt lat="45.57606" lon="6.78102">
        <ele>1718.7</ele>
      </trkpt>
      <trkpt lat="45.57611" lon="6.78108">
        <ele>1718.9</ele>
      </trkpt>
      <trkpt lat="45.57615" lon="6.78114">
        <ele>1718.5</ele>
      </trkpt>
      <trkpt lat="45.57622" lon="6.78117">
        <ele>1717.7</ele>
      </trkpt>
      <trkpt lat="45.57629" lon="6.7812">
        <ele>1717.1</ele>
      </trkpt>
      <trkpt lat="45.57636" lon="6.78124">
        <ele>1716.7</ele>
      </trkpt>
      <trkpt lat="45.57643" lon="6.78127">
        <ele>1716.4</ele>
      </trkpt>
      <trkpt lat="45.57649" lon="6.78132">
        <ele>1716.3</ele>
      </trkpt>
    </trkseg>
  </trk>
</gpx>